Wetterdaten: Sonntag, 21.05.2017
Datum Zeit Temp. A. Temp. A. max Feuchte A. Luftdruck Regen Wind Richtung Richtung Sonnenschein ET UV Solar Taupunkt Windchill Windböen
21.05.2017 00:00 8,0 °C 8,0 °C 91 % 1025,5 hPa 0,0 mm 1,9 km/h (1 Bft) SW 225 ° 0 min 0,000 mm 0,0 UV-I 0 W/m² 6,6 °C 8,0 °C 3,2 km/h (1 Bft)
21.05.2017 00:01 8,0 °C 8,0 °C 91 % 1025,5 hPa 0,0 mm 1,5 km/h (1 Bft) SW 225 ° 0 min 0,000 mm 0,0 UV-I 0 W/m² 6,6 °C 8,0 °C 3,2 km/h (1 Bft)
21.05.2017 00:02 8,0 °C 8,0 °C 91 % 1025,5 hPa 0,0 mm 1,8 km/h (1 Bft) S-SW 196 ° 0 min 0,000 mm 0,0 UV-I 0 W/m² 6,6 °C 8,0 °C 3,2 km/h (1 Bft)
21.05.2017 00:03 8,0 °C 8,0 °C 91 % 1025,5 hPa 0,0 mm 3,5 km/h (1 Bft) S-SW 207 ° 0 min 0,000 mm 0,0 UV-I 0 W/m² 6,6 °C 8,0 °C 8,0 km/h (2 Bft)
21.05.2017 00:04 8,0 °C 8,0 °C 91 % 1025,4 hPa 0,0 mm 5,4 km/h (1 Bft) S 189 ° 0 min 0,000 mm 0,0 UV-I 0 W/m² 6,6 °C 7,4 °C 6,4 km/h (2 Bft)
21.05.2017 00:05 8,1 °C 8,1 °C 91 % 1025,5 hPa 0,0 mm 3,6 km/h (1 Bft) S-SW 202 ° 0 min 0,000 mm 0,0 UV-I 0 W/m² 6,7 °C 8,1 °C 6,4 km/h (2 Bft)
21.05.2017 00:06 8,1 °C 8,1 °C 90 % 1025,5 hPa 0,0 mm 6,8 km/h (2 Bft) S-SW 203 ° 0 min 0,000 mm 0,0 UV-I 0 W/m² 6,6 °C 7,1 °C 9,7 km/h (2 Bft)
21.05.2017 00:07 8,1 °C 8,1 °C 90 % 1025,5 hPa 0,0 mm 5,3 km/h (1 Bft) S 190 ° 0 min 0,000 mm 0,0 UV-I 0 W/m² 6,6 °C 7,5 °C 8,0 km/h (2 Bft)
21.05.2017 00:08 8,1 °C 8,1 °C 90 % 1025,5 hPa 0,0 mm 2,4 km/h (1 Bft) S 185 ° 0 min 0,000 mm 0,0 UV-I 0 W/m² 6,6 °C 8,1 °C 4,8 km/h (1 Bft)
21.05.2017 00:09 8,1 °C 8,1 °C 91 % 1025,6 hPa 0,0 mm 2,1 km/h (1 Bft) S 185 ° 0 min 0,000 mm 0,0 UV-I 0 W/m² 6,7 °C 8,1 °C 3,2 km/h (1 Bft)
21.05.2017 00:10 8,1 °C 8,1 °C 91 % 1025,6 hPa 0,0 mm 3,8 km/h (1 Bft) S 185 ° 0 min 0,000 mm 0,0 UV-I 0 W/m² 6,7 °C 8,1 °C 4,8 km/h (1 Bft)
21.05.2017 00:11 8,1 °C 8,1 °C 91 % 1025,6 hPa 0,0 mm 5,9 km/h (2 Bft) S 188 ° 0 min 0,000 mm 0,0 UV-I 0 W/m² 6,7 °C 7,3 °C 8,0 km/h (2 Bft)
21.05.2017 00:12 8,1 °C 8,1 °C 91 % 1025,6 hPa 0,0 mm 7,1 km/h (2 Bft) S-SW 204 ° 0 min 0,000 mm 0,0 UV-I 0 W/m² 6,7 °C 7,0 °C 9,7 km/h (2 Bft)
21.05.2017 00:13 8,1 °C 8,1 °C 90 % 1025,6 hPa 0,0 mm 5,8 km/h (2 Bft) S-SW 213 ° 0 min 0,000 mm 0,0 UV-I 0 W/m² 6,6 °C 7,3 °C 8,0 km/h (2 Bft)
21.05.2017 00:14 8,1 °C 8,1 °C 90 % 1025,6 hPa 0,0 mm 3,8 km/h (1 Bft) S 186 ° 0 min 0,000 mm 0,0 UV-I 0 W/m² 6,6 °C 8,1 °C 6,4 km/h (2 Bft)
21.05.2017 00:15 8,1 °C 8,1 °C 91 % 1025,6 hPa 0,0 mm 1,8 km/h (1 Bft) S 186 ° 0 min 0,000 mm 0,0 UV-I 0 W/m² 6,7 °C 8,1 °C 4,8 km/h (1 Bft)
21.05.2017 00:16 8,1 °C 8,1 °C 91 % 1025,6 hPa 0,0 mm 0,3 km/h (0 Bft) S 186 ° 0 min 0,000 mm 0,0 UV-I 0 W/m² 6,7 °C 8,1 °C 1,6 km/h (1 Bft)
21.05.2017 00:17 8,1 °C 8,1 °C 91 % 1025,6 hPa 0,0 mm 1,0 km/h (0 Bft) S 186 ° 0 min 0,000 mm 0,0 UV-I 0 W/m² 6,7 °C 8,1 °C 3,2 km/h (1 Bft)
21.05.2017 00:18 8,1 °C 8,1 °C 91 % 1025,6 hPa 0,0 mm 2,3 km/h (1 Bft) S 186 ° 0 min 0,000 mm 0,0 UV-I 0 W/m² 6,7 °C 8,1 °C 4,8 km/h (1 Bft)
21.05.2017 00:19 8,1 °C 8,1 °C 91 % 1025,6 hPa 0,0 mm 1,4 km/h (1 Bft) S 186 ° 0 min 0,000 mm 0,0 UV-I 0 W/m² 6,7 °C 8,1 °C 3,2 km/h (1 Bft)
21.05.2017 00:20 8,1 °C 8,1 °C 91 % 1025,6 hPa 0,0 mm 0,0 km/h (0 Bft) S 186 ° 0 min 0,000 mm 0,0 UV-I 0 W/m² 6,7 °C 8,1 °C 0,0 km/h (0 Bft)
21.05.2017 00:21 8,1 °C 8,1 °C 91 % 1025,7 hPa 0,0 mm 0,0 km/h (0 Bft) S 186 ° 0 min 0,000 mm 0,0 UV-I 0 W/m² 6,7 °C 8,1 °C 0,0 km/h (0 Bft)
21.05.2017 00:22 8,0 °C 8,1 °C 91 % 1025,6 hPa 0,0 mm 0,0 km/h (0 Bft) S 186 ° 0 min 0,000 mm 0,0 UV-I 0 W/m² 6,6 °C 8,0 °C 0,0 km/h (0 Bft)
21.05.2017 00:23 8,0 °C 8,0 °C 91 % 1025,6 hPa 0,0 mm 0,3 km/h (0 Bft) S 186 ° 0 min 0,000 mm 0,0 UV-I 0 W/m² 6,6 °C 8,0 °C 1,6 km/h (1 Bft)
21.05.2017 00:24 7,9 °C 8,0 °C 92 % 1025,7 hPa 0,0 mm 0,0 km/h (0 Bft) S 186 ° 0 min 0,000 mm 0,0 UV-I 0 W/m² 6,7 °C 7,9 °C 0,0 km/h (0 Bft)
21.05.2017 00:25 7,9 °C 7,9 °C 92 % 1025,7 hPa 0,0 mm 0,0 km/h (0 Bft) S 186 ° 0 min 0,000 mm 0,0 UV-I 0 W/m² 6,7 °C 7,9 °C 0,0 km/h (0 Bft)
21.05.2017 00:26 7,9 °C 7,9 °C 92 % 1025,6 hPa 0,0 mm 0,0 km/h (0 Bft) S 186 ° 0 min 0,000 mm 0,0 UV-I 0 W/m² 6,7 °C 7,9 °C 0,0 km/h (0 Bft)
21.05.2017 00:27 7,8 °C 7,9 °C 92 % 1025,6 hPa 0,0 mm 0,0 km/h (0 Bft) S 186 ° 0 min 0,000 mm 0,0 UV-I 0 W/m² 6,6 °C 7,8 °C 0,0 km/h (0 Bft)
21.05.2017 00:28 7,9 °C 7,9 °C 92 % 1025,6 hPa 0,0 mm 0,0 km/h (0 Bft) S 186 ° 0 min 0,000 mm 0,0 UV-I 0 W/m² 6,7 °C 7,9 °C 0,0 km/h (0 Bft)
21.05.2017 00:29 7,8 °C 7,9 °C 92 % 1025,6 hPa 0,0 mm 0,1 km/h (0 Bft) S 186 ° 0 min 0,000 mm 0,0 UV-I 0 W/m² 6,6 °C 7,8 °C 1,6 km/h (1 Bft)
21.05.2017 00:30 7,8 °C 7,9 °C 92 % 1025,6 hPa 0,0 mm 1,1 km/h (1 Bft) S 186 ° 0 min 0,000 mm 0,0 UV-I 0 W/m² 6,6 °C 7,8 °C 3,2 km/h (1 Bft)
21.05.2017 00:31 7,8 °C 7,9 °C 92 % 1025,6 hPa 0,0 mm 2,3 km/h (1 Bft) S-SW 209 ° 0 min 0,000 mm 0,0 UV-I 0 W/m² 6,6 °C 7,8 °C 4,8 km/h (1 Bft)
21.05.2017 00:32 7,9 °C 7,9 °C 92 % 1025,6 hPa 0,0 mm 2,5 km/h (1 Bft) SW 220 ° 0 min 0,000 mm 0,0 UV-I 0 W/m² 6,7 °C 7,9 °C 4,8 km/h (1 Bft)
21.05.2017 00:33 7,9 °C 7,9 °C 92 % 1025,6 hPa 0,0 mm 3,9 km/h (1 Bft) S-SW 202 ° 0 min 0,000 mm 0,0 UV-I 0 W/m² 6,7 °C 7,9 °C 8,0 km/h (2 Bft)
21.05.2017 00:34 7,9 °C 7,9 °C 92 % 1025,6 hPa 0,0 mm 5,7 km/h (1 Bft) S 188 ° 0 min 0,000 mm 0,0 UV-I 0 W/m² 6,7 °C 7,1 °C 6,4 km/h (2 Bft)
21.05.2017 00:35 7,9 °C 7,9 °C 92 % 1025,7 hPa 0,0 mm 3,6 km/h (1 Bft) S 190 ° 0 min 0,000 mm 0,0 UV-I 0 W/m² 6,7 °C 7,9 °C 4,8 km/h (1 Bft)
21.05.2017 00:36 8,0 °C 8,0 °C 92 % 1025,7 hPa 0,0 mm 1,3 km/h (1 Bft) S 190 ° 0 min 0,000 mm 0,0 UV-I 0 W/m² 6,8 °C 8,0 °C 3,2 km/h (1 Bft)
21.05.2017 00:37 8,0 °C 8,0 °C 92 % 1025,7 hPa 0,0 mm 1,8 km/h (1 Bft) S 190 ° 0 min 0,000 mm 0,0 UV-I 0 W/m² 6,8 °C 8,0 °C 3,2 km/h (1 Bft)
21.05.2017 00:38 8,0 °C 8,0 °C 92 % 1025,6 hPa 0,0 mm 1,8 km/h (1 Bft) S 190 ° 0 min 0,000 mm 0,0 UV-I 0 W/m² 6,8 °C 8,0 °C 3,2 km/h (1 Bft)
21.05.2017 00:39 7,9 °C 8,0 °C 92 % 1025,6 hPa 0,0 mm 0,5 km/h (0 Bft) S 190 ° 0 min 0,000 mm 0,0 UV-I 0 W/m² 6,7 °C 7,9 °C 1,6 km/h (1 Bft)
21.05.2017 00:40 7,9 °C 7,9 °C 92 % 1025,7 hPa 0,0 mm 0,2 km/h (0 Bft) S 190 ° 0 min 0,000 mm 0,0 UV-I 0 W/m² 6,7 °C 7,9 °C 1,6 km/h (1 Bft)
21.05.2017 00:41 7,9 °C 7,9 °C 92 % 1025,7 hPa 0,0 mm 0,0 km/h (0 Bft) S 190 ° 0 min 0,000 mm 0,0 UV-I 0 W/m² 6,7 °C 7,9 °C 0,0 km/h (0 Bft)
21.05.2017 00:42 7,9 °C 7,9 °C 92 % 1025,7 hPa 0,0 mm 0,0 km/h (0 Bft) S 190 ° 0 min 0,000 mm 0,0 UV-I 0 W/m² 6,7 °C 7,9 °C 0,0 km/h (0 Bft)
21.05.2017 00:43 7,9 °C 7,9 °C 92 % 1025,7 hPa 0,0 mm 0,3 km/h (0 Bft) S 190 ° 0 min 0,000 mm 0,0 UV-I 0 W/m² 6,7 °C 7,9 °C 1,6 km/h (1 Bft)
21.05.2017 00:44 7,9 °C 7,9 °C 92 % 1025,7 hPa 0,0 mm 0,0 km/h (0 Bft) S 190 ° 0 min 0,000 mm 0,0 UV-I 0 W/m² 6,7 °C 7,9 °C 0,0 km/h (0 Bft)
21.05.2017 00:45 7,9 °C 7,9 °C 92 % 1025,7 hPa 0,0 mm 0,0 km/h (0 Bft) S 190 ° 0 min 0,000 mm 0,0 UV-I 0 W/m² 6,7 °C 7,9 °C 0,0 km/h (0 Bft)
21.05.2017 00:46 7,9 °C 7,9 °C 92 % 1025,7 hPa 0,0 mm 0,0 km/h (0 Bft) S 190 ° 0 min 0,000 mm 0,0 UV-I 0 W/m² 6,7 °C 7,9 °C 0,0 km/h (0 Bft)
21.05.2017 00:47 7,9 °C 7,9 °C 92 % 1025,7 hPa 0,0 mm 3,6 km/h (1 Bft) S-SW 208 ° 0 min 0,000 mm 0,0 UV-I 0 W/m² 6,7 °C 7,9 °C 6,4 km/h (2 Bft)
21.05.2017 00:48 7,9 °C 7,9 °C 92 % 1025,7 hPa 0,0 mm 3,6 km/h (1 Bft) S-SW 210 ° 0 min 0,000 mm 0,0 UV-I 0 W/m² 6,7 °C 7,9 °C 4,8 km/h (1 Bft)
21.05.2017 00:49 7,9 °C 7,9 °C 92 % 1025,7 hPa 0,0 mm 1,7 km/h (1 Bft) S-SW 210 ° 0 min 0,000 mm 0,0 UV-I 0 W/m² 6,7 °C 7,9 °C 3,2 km/h (1 Bft)
21.05.2017 00:50 7,9 °C 7,9 °C 92 % 1025,7 hPa 0,0 mm 2,1 km/h (1 Bft) S-SW 211 ° 0 min 0,000 mm 0,0 UV-I 0 W/m² 6,7 °C 7,9 °C 4,8 km/h (1 Bft)
21.05.2017 00:51 7,9 °C 7,9 °C 92 % 1025,7 hPa 0,0 mm 0,0 km/h (0 Bft) S-SW 211 ° 0 min 0,000 mm 0,0 UV-I 0 W/m² 6,7 °C 7,9 °C 0,0 km/h (0 Bft)
21.05.2017 00:52 7,9 °C 7,9 °C 92 % 1025,7 hPa 0,0 mm 0,0 km/h (0 Bft) S-SW 211 ° 0 min 0,000 mm 0,0 UV-I 0 W/m² 6,7 °C 7,9 °C 0,0 km/h (0 Bft)
21.05.2017 00:53 7,9 °C 7,9 °C 92 % 1025,7 hPa 0,0 mm 0,4 km/h (0 Bft) S-SW 211 ° 0 min 0,000 mm 0,0 UV-I 0 W/m² 6,7 °C 7,9 °C 1,6 km/h (1 Bft)
21.05.2017 00:54 7,9 °C 7,9 °C 92 % 1025,8 hPa 0,0 mm 1,2 km/h (1 Bft) S-SW 211 ° 0 min 0,000 mm 0,0 UV-I 0 W/m² 6,7 °C 7,9 °C 1,6 km/h (1 Bft)
21.05.2017 00:55 7,9 °C 7,9 °C 92 % 1025,8 hPa 0,0 mm 2,1 km/h (1 Bft) S 187 ° 0 min 0,000 mm 0,0 UV-I 0 W/m² 6,7 °C 7,9 °C 3,2 km/h (1 Bft)
21.05.2017 00:56 7,8 °C 7,9 °C 92 % 1025,8 hPa 0,0 mm 0,1 km/h (0 Bft) S 187 ° 0 min 0,000 mm 0,0 UV-I 0 W/m² 6,6 °C 7,8 °C 1,6 km/h (1 Bft)
21.05.2017 00:57 7,8 °C 7,8 °C 92 % 1025,8 hPa 0,0 mm 0,0 km/h (0 Bft) S 187 ° 0 min 0,000 mm 0,0 UV-I 0 W/m² 6,6 °C 7,8 °C 0,0 km/h (0 Bft)
21.05.2017 00:58 7,8 °C 7,8 °C 92 % 1025,8 hPa 0,0 mm 0,0 km/h (0 Bft) S 187 ° 0 min 0,000 mm 0,0 UV-I 0 W/m² 6,6 °C 7,8 °C 0,0 km/h (0 Bft)
21.05.2017 00:59 7,8 °C 7,8 °C 92 % 1025,8 hPa 0,0 mm 0,0 km/h (0 Bft) S 187 ° 0 min 0,000 mm 0,0 UV-I 0 W/m² 6,6 °C 7,8 °C 0,0 km/h (0 Bft)
21.05.2017 01:00 7,8 °C 7,8 °C 92 % 1025,8 hPa 0,0 mm 0,0 km/h (0 Bft) S 187 ° 0 min 0,000 mm 0,0 UV-I 0 W/m² 6,6 °C 7,8 °C 0,0 km/h (0 Bft)
21.05.2017 01:01 7,8 °C 7,8 °C 93 % 1025,8 hPa 0,0 mm 0,0 km/h (0 Bft) S 187 ° 0 min 0,000 mm 0,0 UV-I 0 W/m² 6,7 °C 7,8 °C 0,0 km/h (0 Bft)
21.05.2017 01:02 7,9 °C 7,9 °C 93 % 1025,8 hPa 0,0 mm 0,1 km/h (0 Bft) S 187 ° 0 min 0,000 mm 0,0 UV-I 0 W/m² 6,8 °C 7,9 °C 1,6 km/h (1 Bft)
21.05.2017 01:03 7,9 °C 7,9 °C 93 % 1025,8 hPa 0,0 mm 1,4 km/h (1 Bft) S 187 ° 0 min 0,000 mm 0,0 UV-I 0 W/m² 6,8 °C 7,9 °C 1,6 km/h (1 Bft)
21.05.2017 01:04 7,9 °C 7,9 °C 92 % 1025,7 hPa 0,0 mm 0,8 km/h (0 Bft) S 187 ° 0 min 0,000 mm 0,0 UV-I 0 W/m² 6,7 °C 7,9 °C 1,6 km/h (1 Bft)
21.05.2017 01:05 7,9 °C 7,9 °C 92 % 1025,8 hPa 0,0 mm 0,1 km/h (0 Bft) S 187 ° 0 min 0,000 mm 0,0 UV-I 0 W/m² 6,7 °C 7,9 °C 1,6 km/h (1 Bft)
21.05.2017 01:06 8,0 °C 8,0 °C 92 % 1025,7 hPa 0,0 mm 0,0 km/h (0 Bft) S 187 ° 0 min 0,000 mm 0,0 UV-I 0 W/m² 6,8 °C 8,0 °C 0,0 km/h (0 Bft)
21.05.2017 01:07 7,9 °C 8,0 °C 92 % 1025,7 hPa 0,0 mm 0,0 km/h (0 Bft) S 187 ° 0 min 0,000 mm 0,0 UV-I 0 W/m² 6,7 °C 7,9 °C 0,0 km/h (0 Bft)
21.05.2017 01:08 7,9 °C 7,9 °C 92 % 1025,7 hPa 0,0 mm 0,0 km/h (0 Bft) S 187 ° 0 min 0,000 mm 0,0 UV-I 0 W/m² 6,7 °C 7,9 °C 0,0 km/h (0 Bft)
21.05.2017 01:09 7,9 °C 7,9 °C 92 % 1025,8 hPa 0,0 mm 0,0 km/h (0 Bft) S 187 ° 0 min 0,000 mm 0,0 UV-I 0 W/m² 6,7 °C 7,9 °C 0,0 km/h (0 Bft)
21.05.2017 01:10 7,9 °C 7,9 °C 92 % 1025,7 hPa 0,0 mm 0,0 km/h (0 Bft) S 187 ° 0 min 0,000 mm 0,0 UV-I 0 W/m² 6,7 °C 7,9 °C 0,0 km/h (0 Bft)
21.05.2017 01:11 7,9 °C 7,9 °C 92 % 1025,7 hPa 0,0 mm 0,0 km/h (0 Bft) S 187 ° 0 min 0,000 mm 0,0 UV-I 0 W/m² 6,7 °C 7,9 °C 0,0 km/h (0 Bft)
21.05.2017 01:12 7,9 °C 7,9 °C 92 % 1025,7 hPa 0,0 mm 1,3 km/h (1 Bft) S-SW 197 ° 0 min 0,000 mm 0,0 UV-I 0 W/m² 6,7 °C 7,9 °C 3,2 km/h (1 Bft)
21.05.2017 01:13 7,9 °C 7,9 °C 92 % 1025,7 hPa 0,0 mm 1,5 km/h (1 Bft) S-SW 197 ° 0 min 0,000 mm 0,0 UV-I 0 W/m² 6,7 °C 7,9 °C 3,2 km/h (1 Bft)
21.05.2017 01:14 7,9 °C 7,9 °C 92 % 1025,7 hPa 0,0 mm 1,9 km/h (1 Bft) S-SW 197 ° 0 min 0,000 mm 0,0 UV-I 0 W/m² 6,7 °C 7,9 °C 3,2 km/h (1 Bft)
21.05.2017 01:15 7,9 °C 7,9 °C 92 % 1025,7 hPa 0,0 mm 1,0 km/h (0 Bft) S-SW 197 ° 0 min 0,000 mm 0,0 UV-I 0 W/m² 6,7 °C 7,9 °C 3,2 km/h (1 Bft)
21.05.2017 01:16 7,9 °C 7,9 °C 92 % 1025,7 hPa 0,0 mm 1,3 km/h (1 Bft) S-SW 197 ° 0 min 0,000 mm 0,0 UV-I 0 W/m² 6,7 °C 7,9 °C 1,6 km/h (1 Bft)
21.05.2017 01:17 8,0 °C 8,0 °C 92 % 1025,7 hPa 0,0 mm 0,8 km/h (0 Bft) S-SW 198 ° 0 min 0,000 mm 0,0 UV-I 0 W/m² 6,8 °C 8,0 °C 1,6 km/h (1 Bft)
21.05.2017 01:18 8,0 °C 8,0 °C 92 % 1025,7 hPa 0,0 mm 2,4 km/h (1 Bft) S-SW 198 ° 0 min 0,000 mm 0,0 UV-I 0 W/m² 6,8 °C 8,0 °C 3,2 km/h (1 Bft)
21.05.2017 01:19 8,0 °C 8,0 °C 92 % 1025,7 hPa 0,0 mm 2,5 km/h (1 Bft) S-SW 198 ° 0 min 0,000 mm 0,0 UV-I 0 W/m² 6,8 °C 8,0 °C 3,2 km/h (1 Bft)
21.05.2017 01:20 8,0 °C 8,0 °C 92 % 1025,8 hPa 0,0 mm 1,0 km/h (0 Bft) S-SW 204 ° 0 min 0,000 mm 0,0 UV-I 0 W/m² 6,8 °C 8,0 °C 1,6 km/h (1 Bft)
21.05.2017 01:21 7,9 °C 8,0 °C 92 % 1025,7 hPa 0,0 mm 0,7 km/h (0 Bft) S-SW 204 ° 0 min 0,000 mm 0,0 UV-I 0 W/m² 6,7 °C 7,9 °C 1,6 km/h (1 Bft)
21.05.2017 01:22 7,9 °C 8,0 °C 92 % 1025,7 hPa 0,0 mm 3,2 km/h (1 Bft) S-SW 201 ° 0 min 0,000 mm 0,0 UV-I 0 W/m² 6,7 °C 7,9 °C 4,8 km/h (1 Bft)
21.05.2017 01:23 7,9 °C 7,9 °C 92 % 1025,7 hPa 0,0 mm 3,8 km/h (1 Bft) S-SW 213 ° 0 min 0,000 mm 0,0 UV-I 0 W/m² 6,7 °C 7,9 °C 6,4 km/h (2 Bft)
21.05.2017 01:24 7,9 °C 7,9 °C 92 % 1025,7 hPa 0,0 mm 2,7 km/h (1 Bft) S-SW 193 ° 0 min 0,000 mm 0,0 UV-I 0 W/m² 6,7 °C 7,9 °C 6,4 km/h (2 Bft)
21.05.2017 01:25 7,9 °C 8,0 °C 92 % 1025,7 hPa 0,0 mm 5,1 km/h (1 Bft) S-SW 207 ° 0 min 0,000 mm 0,0 UV-I 0 W/m² 6,7 °C 7,3 °C 6,4 km/h (2 Bft)
21.05.2017 01:26 8,0 °C 8,0 °C 92 % 1025,7 hPa 0,0 mm 4,7 km/h (1 Bft) S-SW 200 ° 0 min 0,000 mm 0,0 UV-I 0 W/m² 6,8 °C 7,6 °C 6,4 km/h (2 Bft)
21.05.2017 01:27 8,0 °C 8,0 °C 91 % 1025,7 hPa 0,0 mm 2,1 km/h (1 Bft) S-SW 211 ° 0 min 0,000 mm 0,0 UV-I 0 W/m² 6,6 °C 8,0 °C 4,8 km/h (1 Bft)
21.05.2017 01:28 8,0 °C 8,0 °C 91 % 1025,7 hPa 0,0 mm 0,5 km/h (0 Bft) S-SW 211 ° 0 min 0,000 mm 0,0 UV-I 0 W/m² 6,6 °C 8,0 °C 1,6 km/h (1 Bft)
21.05.2017 01:29 8,1 °C 8,1 °C 91 % 1025,7 hPa 0,0 mm 0,2 km/h (0 Bft) S-SW 211 ° 0 min 0,000 mm 0,0 UV-I 0 W/m² 6,7 °C 8,1 °C 1,6 km/h (1 Bft)
21.05.2017 01:30 8,1 °C 8,1 °C 91 % 1025,7 hPa 0,0 mm 1,1 km/h (1 Bft) S-SW 211 ° 0 min 0,000 mm 0,0 UV-I 0 W/m² 6,7 °C 8,1 °C 1,6 km/h (1 Bft)
21.05.2017 01:31 8,1 °C 8,1 °C 91 % 1025,7 hPa 0,0 mm 0,1 km/h (0 Bft) S-SW 212 ° 0 min 0,000 mm 0,0 UV-I 0 W/m² 6,7 °C 8,1 °C 1,6 km/h (1 Bft)
21.05.2017 01:32 8,1 °C 8,1 °C 91 % 1025,7 hPa 0,0 mm 0,4 km/h (0 Bft) S-SW 212 ° 0 min 0,000 mm 0,0 UV-I 0 W/m² 6,7 °C 8,1 °C 1,6 km/h (1 Bft)
21.05.2017 01:33 8,0 °C 8,1 °C 91 % 1025,7 hPa 0,0 mm 0,2 km/h (0 Bft) S-SW 212 ° 0 min 0,000 mm 0,0 UV-I 0 W/m² 6,6 °C 8,0 °C 1,6 km/h (1 Bft)
21.05.2017 01:34 8,0 °C 8,0 °C 92 % 1025,7 hPa 0,0 mm 0,0 km/h (0 Bft) S-SW 212 ° 0 min 0,000 mm 0,0 UV-I 0 W/m² 6,8 °C 8,0 °C 0,0 km/h (0 Bft)
21.05.2017 01:35 7,9 °C 8,0 °C 92 % 1025,7 hPa 0,0 mm 0,0 km/h (0 Bft) S-SW 212 ° 0 min 0,000 mm 0,0 UV-I 0 W/m² 6,7 °C 7,9 °C 0,0 km/h (0 Bft)
21.05.2017 01:36 7,9 °C 7,9 °C 92 % 1025,7 hPa 0,0 mm 0,0 km/h (0 Bft) S-SW 212 ° 0 min 0,000 mm 0,0 UV-I 0 W/m² 6,7 °C 7,9 °C 0,0 km/h (0 Bft)
21.05.2017 01:37 7,9 °C 7,9 °C 92 % 1025,7 hPa 0,0 mm 0,0 km/h (0 Bft) S-SW 212 ° 0 min 0,000 mm 0,0 UV-I 0 W/m² 6,7 °C 7,9 °C 0,0 km/h (0 Bft)
21.05.2017 01:38 7,8 °C 7,9 °C 92 % 1025,6 hPa 0,0 mm 0,0 km/h (0 Bft) S-SW 212 ° 0 min 0,000 mm 0,0 UV-I 0 W/m² 6,6 °C 7,8 °C 0,0 km/h (0 Bft)
21.05.2017 01:39 7,8 °C 7,9 °C 92 % 1025,6 hPa 0,0 mm 0,0 km/h (0 Bft) S-SW 212 ° 0 min 0,000 mm 0,0 UV-I 0 W/m² 6,6 °C 7,8 °C 0,0 km/h (0 Bft)
21.05.2017 01:40 7,8 °C 7,8 °C 92 % 1025,6 hPa 0,0 mm 0,0 km/h (0 Bft) S-SW 212 ° 0 min 0,000 mm 0,0 UV-I 0 W/m² 6,6 °C 7,8 °C 0,0 km/h (0 Bft)
21.05.2017 01:41 7,8 °C 7,9 °C 93 % 1025,7 hPa 0,0 mm 0,0 km/h (0 Bft) S-SW 212 ° 0 min 0,000 mm 0,0 UV-I 0 W/m² 6,7 °C 7,8 °C 0,0 km/h (0 Bft)
21.05.2017 01:42 7,8 °C 7,9 °C 93 % 1025,7 hPa 0,0 mm 1,3 km/h (1 Bft) S-SW 212 ° 0 min 0,000 mm 0,0 UV-I 0 W/m² 6,7 °C 7,8 °C 3,2 km/h (1 Bft)
21.05.2017 01:43 7,9 °C 7,9 °C 93 % 1025,7 hPa 0,0 mm 0,5 km/h (0 Bft) S-SW 212 ° 0 min 0,000 mm 0,0 UV-I 0 W/m² 6,8 °C 7,9 °C 1,6 km/h (1 Bft)
21.05.2017 01:44 7,8 °C 7,9 °C 93 % 1025,7 hPa 0,0 mm 0,1 km/h (0 Bft) S-SW 212 ° 0 min 0,000 mm 0,0 UV-I 0 W/m² 6,7 °C 7,8 °C 1,6 km/h (1 Bft)
21.05.2017 01:45 7,8 °C 7,9 °C 93 % 1025,6 hPa 0,0 mm 0,0 km/h (0 Bft) S-SW 212 ° 0 min 0,000 mm 0,0 UV-I 0 W/m² 6,7 °C 7,8 °C 0,0 km/h (0 Bft)
21.05.2017 01:46 7,8 °C 7,8 °C 93 % 1025,6 hPa 0,0 mm 0,0 km/h (0 Bft) S-SW 212 ° 0 min 0,000 mm 0,0 UV-I 0 W/m² 6,7 °C 7,8 °C 0,0 km/h (0 Bft)
21.05.2017 01:47 7,8 °C 7,8 °C 93 % 1025,7 hPa 0,0 mm 0,0 km/h (0 Bft) S-SW 212 ° 0 min 0,000 mm 0,0 UV-I 0 W/m² 6,7 °C 7,8 °C 0,0 km/h (0 Bft)
21.05.2017 01:48 7,8 °C 7,8 °C 93 % 1025,6 hPa 0,0 mm 0,0 km/h (0 Bft) S-SW 212 ° 0 min 0,000 mm 0,0 UV-I 0 W/m² 6,7 °C 7,8 °C 0,0 km/h (0 Bft)
21.05.2017 01:49 7,8 °C 7,8 °C 93 % 1025,6 hPa 0,0 mm 0,0 km/h (0 Bft) S-SW 212 ° 0 min 0,000 mm 0,0 UV-I 0 W/m² 6,7 °C 7,8 °C 0,0 km/h (0 Bft)
21.05.2017 01:50 7,8 °C 7,8 °C 93 % 1025,6 hPa 0,0 mm 0,0 km/h (0 Bft) S-SW 212 ° 0 min 0,000 mm 0,0 UV-I 0 W/m² 6,7 °C 7,8 °C 0,0 km/h (0 Bft)
21.05.2017 01:51 7,8 °C 7,8 °C 93 % 1025,6 hPa 0,0 mm 0,0 km/h (0 Bft) S-SW 212 ° 0 min 0,000 mm 0,0 UV-I 0 W/m² 6,7 °C 7,8 °C 0,0 km/h (0 Bft)
21.05.2017 01:52 7,8 °C 7,8 °C 93 % 1025,6 hPa 0,0 mm 0,0 km/h (0 Bft) S-SW 212 ° 0 min 0,000 mm 0,0 UV-I 0 W/m² 6,7 °C 7,8 °C 0,0 km/h (0 Bft)
21.05.2017 01:53 7,8 °C 7,8 °C 93 % 1025,6 hPa 0,0 mm 0,8 km/h (0 Bft) SW 217 ° 0 min 0,000 mm 0,0 UV-I 0 W/m² 6,7 °C 7,8 °C 3,2 km/h (1 Bft)
21.05.2017 01:54 7,9 °C 7,9 °C 93 % 1025,6 hPa 0,0 mm 1,7 km/h (1 Bft) SW 217 ° 0 min 0,000 mm 0,0 UV-I 0 W/m² 6,8 °C 7,9 °C 3,2 km/h (1 Bft)
21.05.2017 01:55 7,9 °C 7,9 °C 93 % 1025,6 hPa 0,0 mm 0,5 km/h (0 Bft) SW 217 ° 0 min 0,000 mm 0,0 UV-I 0 W/m² 6,8 °C 7,9 °C 1,6 km/h (1 Bft)
21.05.2017 01:56 7,9 °C 7,9 °C 93 % 1025,6 hPa 0,0 mm 0,1 km/h (0 Bft) SW 217 ° 0 min 0,000 mm 0,0 UV-I 0 W/m² 6,8 °C 7,9 °C 1,6 km/h (1 Bft)
21.05.2017 01:57 8,0 °C 8,0 °C 93 % 1025,6 hPa 0,0 mm 0,0 km/h (0 Bft) SW 217 ° 0 min 0,000 mm 0,0 UV-I 0 W/m² 6,9 °C 8,0 °C 0,0 km/h (0 Bft)
21.05.2017 01:58 7,9 °C 8,0 °C 93 % 1025,6 hPa 0,0 mm 0,0 km/h (0 Bft) SW 217 ° 0 min 0,000 mm 0,0 UV-I 0 W/m² 6,8 °C 7,9 °C 0,0 km/h (0 Bft)
21.05.2017 01:59 7,9 °C 7,9 °C 93 % 1025,6 hPa 0,0 mm 0,0 km/h (0 Bft) SW 217 ° 0 min 0,000 mm 0,0 UV-I 0 W/m² 6,8 °C 7,9 °C 0,0 km/h (0 Bft)
21.05.2017 02:00 7,9 °C 7,9 °C 93 % 1025,6 hPa 0,0 mm 0,0 km/h (0 Bft) SW 217 ° 0 min 0,000 mm 0,0 UV-I 0 W/m² 6,8 °C 7,9 °C 0,0 km/h (0 Bft)
21.05.2017 02:01 7,9 °C 7,9 °C 93 % 1025,6 hPa 0,0 mm 0,0 km/h (0 Bft) SW 217 ° 0 min 0,000 mm 0,0 UV-I 0 W/m² 6,8 °C 7,9 °C 0,0 km/h (0 Bft)
21.05.2017 02:02 7,9 °C 7,9 °C 92 % 1025,6 hPa 0,0 mm 0,0 km/h (0 Bft) SW 217 ° 0 min 0,000 mm 0,0 UV-I 0 W/m² 6,7 °C 7,9 °C 0,0 km/h (0 Bft)
21.05.2017 02:03 7,9 °C 7,9 °C 93 % 1025,6 hPa 0,0 mm 0,0 km/h (0 Bft) SW 217 ° 0 min 0,000 mm 0,0 UV-I 0 W/m² 6,8 °C 7,9 °C 0,0 km/h (0 Bft)
21.05.2017 02:04 7,9 °C 7,9 °C 93 % 1025,6 hPa 0,0 mm 0,0 km/h (0 Bft) SW 217 ° 0 min 0,000 mm 0,0 UV-I 0 W/m² 6,8 °C 7,9 °C 0,0 km/h (0 Bft)
21.05.2017 02:05 7,9 °C 7,9 °C 93 % 1025,6 hPa 0,0 mm 0,0 km/h (0 Bft) SW 217 ° 0 min 0,000 mm 0,0 UV-I 0 W/m² 6,8 °C 7,9 °C 0,0 km/h (0 Bft)
21.05.2017 02:06 7,9 °C 7,9 °C 93 % 1025,6 hPa 0,0 mm 0,0 km/h (0 Bft) SW 217 ° 0 min 0,000 mm 0,0 UV-I 0 W/m² 6,8 °C 7,9 °C 0,0 km/h (0 Bft)
21.05.2017 02:07 7,9 °C 7,9 °C 93 % 1025,6 hPa 0,0 mm 0,9 km/h (0 Bft) SW 221 ° 0 min 0,000 mm 0,0 UV-I 0 W/m² 6,8 °C 7,9 °C 3,2 km/h (1 Bft)
21.05.2017 02:08 7,9 °C 7,9 °C 93 % 1025,6 hPa 0,0 mm 0,1 km/h (0 Bft) SW 221 ° 0 min 0,000 mm 0,0 UV-I 0 W/m² 6,8 °C 7,9 °C 1,6 km/h (1 Bft)
21.05.2017 02:09 7,9 °C 7,9 °C 93 % 1025,5 hPa 0,0 mm 0,7 km/h (0 Bft) SW 221 ° 0 min 0,000 mm 0,0 UV-I 0 W/m² 6,8 °C 7,9 °C 1,6 km/h (1 Bft)
21.05.2017 02:10 7,9 °C 7,9 °C 93 % 1025,5 hPa 0,0 mm 0,1 km/h (0 Bft) SW 221 ° 0 min 0,000 mm 0,0 UV-I 0 W/m² 6,8 °C 7,9 °C 1,6 km/h (1 Bft)
21.05.2017 02:11 7,9 °C 7,9 °C 93 % 1025,5 hPa 0,0 mm 0,0 km/h (0 Bft) SW 221 ° 0 min 0,000 mm 0,0 UV-I 0 W/m² 6,8 °C 7,9 °C 0,0 km/h (0 Bft)
21.05.2017 02:12 7,9 °C 7,9 °C 93 % 1025,5 hPa 0,0 mm 1,2 km/h (1 Bft) S-SO 161 ° 0 min 0,000 mm 0,0 UV-I 0 W/m² 6,8 °C 7,9 °C 3,2 km/h (1 Bft)
21.05.2017 02:13 7,9 °C 7,9 °C 93 % 1025,5 hPa 0,0 mm 1,1 km/h (1 Bft) S-SO 161 ° 0 min 0,000 mm 0,0 UV-I 0 W/m² 6,8 °C 7,9 °C 3,2 km/h (1 Bft)
21.05.2017 02:14 7,8 °C 7,9 °C 93 % 1025,6 hPa 0,0 mm 0,0 km/h (0 Bft) S-SO 161 ° 0 min 0,000 mm 0,0 UV-I 0 W/m² 6,7 °C 7,8 °C 0,0 km/h (0 Bft)
21.05.2017 02:15 7,9 °C 7,9 °C 93 % 1025,5 hPa 0,0 mm 0,0 km/h (0 Bft) S-SO 161 ° 0 min 0,000 mm 0,0 UV-I 0 W/m² 6,8 °C 7,9 °C 0,0 km/h (0 Bft)
21.05.2017 02:16 7,8 °C 7,9 °C 93 % 1025,5 hPa 0,0 mm 0,0 km/h (0 Bft) S-SO 161 ° 0 min 0,000 mm 0,0 UV-I 0 W/m² 6,7 °C 7,8 °C 0,0 km/h (0 Bft)
21.05.2017 02:17 7,8 °C 7,9 °C 93 % 1025,6 hPa 0,0 mm 0,0 km/h (0 Bft) S-SO 161 ° 0 min 0,000 mm 0,0 UV-I 0 W/m² 6,7 °C 7,8 °C 0,0 km/h (0 Bft)
21.05.2017 02:18 7,8 °C 7,9 °C 93 % 1025,6 hPa 0,0 mm 0,0 km/h (0 Bft) S-SO 161 ° 0 min 0,000 mm 0,0 UV-I 0 W/m² 6,7 °C 7,8 °C 0,0 km/h (0 Bft)
21.05.2017 02:19 7,8 °C 7,8 °C 93 % 1025,5 hPa 0,0 mm 0,0 km/h (0 Bft) S-SO 161 ° 0 min 0,000 mm 0,0 UV-I 0 W/m² 6,7 °C 7,8 °C 0,0 km/h (0 Bft)
21.05.2017 02:20 7,8 °C 7,9 °C 93 % 1025,5 hPa 0,0 mm 0,0 km/h (0 Bft) S-SO 161 ° 0 min 0,000 mm 0,0 UV-I 0 W/m² 6,7 °C 7,8 °C 0,0 km/h (0 Bft)
21.05.2017 02:21 7,8 °C 7,8 °C 93 % 1025,5 hPa 0,0 mm 0,0 km/h (0 Bft) S-SO 161 ° 0 min 0,000 mm 0,0 UV-I 0 W/m² 6,7 °C 7,8 °C 0,0 km/h (0 Bft)
21.05.2017 02:22 7,8 °C 7,8 °C 93 % 1025,6 hPa 0,0 mm 0,0 km/h (0 Bft) S-SO 161 ° 0 min 0,000 mm 0,0 UV-I 0 W/m² 6,7 °C 7,8 °C 0,0 km/h (0 Bft)
21.05.2017 02:23 7,8 °C 7,8 °C 93 % 1025,6 hPa 0,0 mm 0,0 km/h (0 Bft) S-SO 161 ° 0 min 0,000 mm 0,0 UV-I 0 W/m² 6,7 °C 7,8 °C 0,0 km/h (0 Bft)
21.05.2017 02:24 7,8 °C 7,8 °C 93 % 1025,5 hPa 0,0 mm 0,0 km/h (0 Bft) S-SO 161 ° 0 min 0,000 mm 0,0 UV-I 0 W/m² 6,7 °C 7,8 °C 0,0 km/h (0 Bft)
21.05.2017 02:25 7,8 °C 7,8 °C 93 % 1025,5 hPa 0,0 mm 0,0 km/h (0 Bft) S-SO 161 ° 0 min 0,000 mm 0,0 UV-I 0 W/m² 6,7 °C 7,8 °C 0,0 km/h (0 Bft)
21.05.2017 02:26 7,8 °C 7,8 °C 93 % 1025,5 hPa 0,0 mm 0,0 km/h (0 Bft) S-SO 161 ° 0 min 0,000 mm 0,0 UV-I 0 W/m² 6,7 °C 7,8 °C 0,0 km/h (0 Bft)
21.05.2017 02:27 7,8 °C 7,8 °C 93 % 1025,5 hPa 0,0 mm 0,0 km/h (0 Bft) S-SO 161 ° 0 min 0,000 mm 0,0 UV-I 0 W/m² 6,7 °C 7,8 °C 0,0 km/h (0 Bft)
21.05.2017 02:28 7,8 °C 7,8 °C 93 % 1025,5 hPa 0,0 mm 0,0 km/h (0 Bft) S-SO 161 ° 0 min 0,000 mm 0,0 UV-I 0 W/m² 6,7 °C 7,8 °C 0,0 km/h (0 Bft)
21.05.2017 02:29 7,8 °C 7,8 °C 93 % 1025,5 hPa 0,0 mm 0,0 km/h (0 Bft) S-SO 161 ° 0 min 0,000 mm 0,0 UV-I 0 W/m² 6,7 °C 7,8 °C 0,0 km/h (0 Bft)
21.05.2017 02:30 7,8 °C 7,8 °C 93 % 1025,5 hPa 0,0 mm 0,0 km/h (0 Bft) S-SO 161 ° 0 min 0,000 mm 0,0 UV-I 0 W/m² 6,7 °C 7,8 °C 0,0 km/h (0 Bft)
21.05.2017 02:31 7,8 °C 7,8 °C 93 % 1025,5 hPa 0,0 mm 0,0 km/h (0 Bft) S-SO 161 ° 0 min 0,000 mm 0,0 UV-I 0 W/m² 6,7 °C 7,8 °C 0,0 km/h (0 Bft)
21.05.2017 02:32 7,8 °C 7,8 °C 93 % 1025,5 hPa 0,0 mm 0,0 km/h (0 Bft) S-SO 161 ° 0 min 0,000 mm 0,0 UV-I 0 W/m² 6,7 °C 7,8 °C 0,0 km/h (0 Bft)
21.05.2017 02:33 7,8 °C 7,8 °C 93 % 1025,5 hPa 0,0 mm 0,0 km/h (0 Bft) S-SO 161 ° 0 min 0,000 mm 0,0 UV-I 0 W/m² 6,7 °C 7,8 °C 0,0 km/h (0 Bft)
21.05.2017 02:34 7,8 °C 7,8 °C 93 % 1025,5 hPa 0,0 mm 0,0 km/h (0 Bft) S-SO 161 ° 0 min 0,000 mm 0,0 UV-I 0 W/m² 6,7 °C 7,8 °C 0,0 km/h (0 Bft)
21.05.2017 02:35 7,8 °C 7,8 °C 93 % 1025,5 hPa 0,0 mm 0,0 km/h (0 Bft) S-SO 161 ° 0 min 0,000 mm 0,0 UV-I 0 W/m² 6,7 °C 7,8 °C 0,0 km/h (0 Bft)
21.05.2017 02:36 7,8 °C 7,8 °C 93 % 1025,5 hPa 0,0 mm 0,0 km/h (0 Bft) S-SO 161 ° 0 min 0,000 mm 0,0 UV-I 0 W/m² 6,7 °C 7,8 °C 0,0 km/h (0 Bft)
21.05.2017 02:37 7,8 °C 7,8 °C 93 % 1025,4 hPa 0,0 mm 0,0 km/h (0 Bft) S-SO 161 ° 0 min 0,000 mm 0,0 UV-I 0 W/m² 6,7 °C 7,8 °C 0,0 km/h (0 Bft)
21.05.2017 02:38 7,8 °C 7,8 °C 93 % 1025,4 hPa 0,0 mm 0,0 km/h (0 Bft) S-SO 161 ° 0 min 0,000 mm 0,0 UV-I 0 W/m² 6,7 °C 7,8 °C 0,0 km/h (0 Bft)
21.05.2017 02:39 7,8 °C 7,8 °C 93 % 1025,5 hPa 0,0 mm 0,0 km/h (0 Bft) S-SO 161 ° 0 min 0,000 mm 0,0 UV-I 0 W/m² 6,7 °C 7,8 °C 0,0 km/h (0 Bft)
21.05.2017 02:40 7,8 °C 7,8 °C 93 % 1025,5 hPa 0,0 mm 0,0 km/h (0 Bft) S-SO 161 ° 0 min 0,000 mm 0,0 UV-I 0 W/m² 6,7 °C 7,8 °C 0,0 km/h (0 Bft)
21.05.2017 02:41 7,8 °C 7,8 °C 93 % 1025,4 hPa 0,0 mm 0,0 km/h (0 Bft) S-SO 161 ° 0 min 0,000 mm 0,0 UV-I 0 W/m² 6,7 °C 7,8 °C 0,0 km/h (0 Bft)
21.05.2017 02:42 7,8 °C 7,8 °C 93 % 1025,4 hPa 0,0 mm 0,0 km/h (0 Bft) S-SO 161 ° 0 min 0,000 mm 0,0 UV-I 0 W/m² 6,7 °C 7,8 °C 0,0 km/h (0 Bft)
21.05.2017 02:43 7,8 °C 7,8 °C 93 % 1025,5 hPa 0,0 mm 0,0 km/h (0 Bft) S-SO 161 ° 0 min 0,000 mm 0,0 UV-I 0 W/m² 6,7 °C 7,8 °C 0,0 km/h (0 Bft)
21.05.2017 02:44 7,8 °C 7,8 °C 93 % 1025,5 hPa 0,0 mm 0,0 km/h (0 Bft) S-SO 161 ° 0 min 0,000 mm 0,0 UV-I 0 W/m² 6,7 °C 7,8 °C 0,0 km/h (0 Bft)
21.05.2017 02:45 7,8 °C 7,8 °C 93 % 1025,5 hPa 0,0 mm 0,0 km/h (0 Bft) S-SO 161 ° 0 min 0,000 mm 0,0 UV-I 0 W/m² 6,7 °C 7,8 °C 0,0 km/h (0 Bft)
21.05.2017 02:46 7,8 °C 7,8 °C 93 % 1025,5 hPa 0,0 mm 0,0 km/h (0 Bft) S-SO 161 ° 0 min 0,000 mm 0,0 UV-I 0 W/m² 6,7 °C 7,8 °C 0,0 km/h (0 Bft)
21.05.2017 02:47 7,8 °C 7,8 °C 93 % 1025,5 hPa 0,0 mm 0,0 km/h (0 Bft) S-SO 161 ° 0 min 0,000 mm 0,0 UV-I 0 W/m² 6,7 °C 7,8 °C 0,0 km/h (0 Bft)
21.05.2017 02:48 7,8 °C 7,8 °C 93 % 1025,5 hPa 0,0 mm 0,0 km/h (0 Bft) S-SO 161 ° 0 min 0,000 mm 0,0 UV-I 0 W/m² 6,7 °C 7,8 °C 0,0 km/h (0 Bft)
21.05.2017 02:49 7,8 °C 7,8 °C 94 % 1025,5 hPa 0,0 mm 0,0 km/h (0 Bft) S-SO 161 ° 0 min 0,000 mm 0,0 UV-I 0 W/m² 6,9 °C 7,8 °C 0,0 km/h (0 Bft)
21.05.2017 02:50 7,8 °C 7,8 °C 93 % 1025,5 hPa 0,0 mm 0,0 km/h (0 Bft) S-SO 161 ° 0 min 0,000 mm 0,0 UV-I 0 W/m² 6,7 °C 7,8 °C 0,0 km/h (0 Bft)
21.05.2017 02:51 7,8 °C 7,8 °C 94 % 1025,5 hPa 0,0 mm 0,0 km/h (0 Bft) S-SO 161 ° 0 min 0,000 mm 0,0 UV-I 0 W/m² 6,9 °C 7,8 °C 0,0 km/h (0 Bft)
21.05.2017 02:52 7,8 °C 7,8 °C 94 % 1025,5 hPa 0,0 mm 0,0 km/h (0 Bft) S-SO 161 ° 0 min 0,000 mm 0,0 UV-I 0 W/m² 6,9 °C 7,8 °C 0,0 km/h (0 Bft)
21.05.2017 02:53 7,8 °C 7,8 °C 94 % 1025,5 hPa 0,0 mm 0,0 km/h (0 Bft) S-SO 161 ° 0 min 0,000 mm 0,0 UV-I 0 W/m² 6,9 °C 7,8 °C 0,0 km/h (0 Bft)
21.05.2017 02:54 7,8 °C 7,8 °C 94 % 1025,5 hPa 0,0 mm 0,0 km/h (0 Bft) S-SO 161 ° 0 min 0,000 mm 0,0 UV-I 0 W/m² 6,9 °C 7,8 °C 0,0 km/h (0 Bft)
21.05.2017 02:55 7,8 °C 7,8 °C 94 % 1025,5 hPa 0,0 mm 0,0 km/h (0 Bft) S-SO 161 ° 0 min 0,000 mm 0,0 UV-I 0 W/m² 6,9 °C 7,8 °C 0,0 km/h (0 Bft)
21.05.2017 02:56 7,8 °C 7,8 °C 93 % 1025,5 hPa 0,0 mm 0,0 km/h (0 Bft) S-SO 161 ° 0 min 0,000 mm 0,0 UV-I 0 W/m² 6,7 °C 7,8 °C 0,0 km/h (0 Bft)
21.05.2017 02:57 7,8 °C 7,8 °C 94 % 1025,5 hPa 0,0 mm 0,0 km/h (0 Bft) S-SO 161 ° 0 min 0,000 mm 0,0 UV-I 0 W/m² 6,9 °C 7,8 °C 0,0 km/h (0 Bft)
21.05.2017 02:58 7,8 °C 7,8 °C 94 % 1025,5 hPa 0,0 mm 0,0 km/h (0 Bft) S-SO 161 ° 0 min 0,000 mm 0,0 UV-I 0 W/m² 6,9 °C 7,8 °C 0,0 km/h (0 Bft)
21.05.2017 02:59 7,8 °C 7,8 °C 94 % 1025,5 hPa 0,0 mm 0,0 km/h (0 Bft) S-SO 161 ° 0 min 0,000 mm 0,0 UV-I 0 W/m² 6,9 °C 7,8 °C 0,0 km/h (0 Bft)
21.05.2017 03:00 7,8 °C 7,8 °C 94 % 1025,5 hPa 0,0 mm 0,0 km/h (0 Bft) S-SO 161 ° 0 min 0,000 mm 0,0 UV-I 0 W/m² 6,9 °C 7,8 °C 0,0 km/h (0 Bft)
21.05.2017 03:01 7,8 °C 7,8 °C 94 % 1025,5 hPa 0,0 mm 0,0 km/h (0 Bft) S-SO 161 ° 0 min 0,000 mm 0,0 UV-I 0 W/m² 6,9 °C 7,8 °C 0,0 km/h (0 Bft)
21.05.2017 03:02 7,8 °C 7,8 °C 94 % 1025,4 hPa 0,0 mm 0,0 km/h (0 Bft) S-SO 161 ° 0 min 0,000 mm 0,0 UV-I 0 W/m² 6,9 °C 7,8 °C 0,0 km/h (0 Bft)
21.05.2017 03:03 7,8 °C 7,8 °C 94 % 1025,4 hPa 0,0 mm 0,0 km/h (0 Bft) S-SO 161 ° 0 min 0,000 mm 0,0 UV-I 0 W/m² 6,9 °C 7,8 °C 0,0 km/h (0 Bft)
21.05.2017 03:04 7,8 °C 7,8 °C 94 % 1025,5 hPa 0,0 mm 0,0 km/h (0 Bft) S-SO 161 ° 0 min 0,000 mm 0,0 UV-I 0 W/m² 6,9 °C 7,8 °C 0,0 km/h (0 Bft)
21.05.2017 03:05 7,8 °C 7,8 °C 94 % 1025,4 hPa 0,0 mm 0,0 km/h (0 Bft) S-SO 161 ° 0 min 0,000 mm 0,0 UV-I 0 W/m² 6,9 °C 7,8 °C 0,0 km/h (0 Bft)
21.05.2017 03:06 7,8 °C 7,8 °C 94 % 1025,4 hPa 0,0 mm 0,0 km/h (0 Bft) S-SO 161 ° 0 min 0,000 mm 0,0 UV-I 0 W/m² 6,9 °C 7,8 °C 0,0 km/h (0 Bft)
21.05.2017 03:07 7,8 °C 7,8 °C 94 % 1025,4 hPa 0,0 mm 0,0 km/h (0 Bft) S-SO 161 ° 0 min 0,000 mm 0,0 UV-I 0 W/m² 6,9 °C 7,8 °C 0,0 km/h (0 Bft)
21.05.2017 03:08 7,7 °C 7,8 °C 94 % 1025,4 hPa 0,0 mm 0,0 km/h (0 Bft) S-SO 161 ° 0 min 0,000 mm 0,0 UV-I 0 W/m² 6,8 °C 7,7 °C 0,0 km/h (0 Bft)
21.05.2017 03:09 7,8 °C 7,8 °C 94 % 1025,4 hPa 0,0 mm 0,0 km/h (0 Bft) S-SO 161 ° 0 min 0,000 mm 0,0 UV-I 0 W/m² 6,9 °C 7,8 °C 0,0 km/h (0 Bft)
21.05.2017 03:10 7,8 °C 7,8 °C 94 % 1025,4 hPa 0,0 mm 0,0 km/h (0 Bft) S-SO 161 ° 0 min 0,000 mm 0,0 UV-I 0 W/m² 6,9 °C 7,8 °C 0,0 km/h (0 Bft)
21.05.2017 03:11 7,8 °C 7,8 °C 94 % 1025,4 hPa 0,0 mm 0,0 km/h (0 Bft) S-SO 161 ° 0 min 0,000 mm 0,0 UV-I 0 W/m² 6,9 °C 7,8 °C 0,0 km/h (0 Bft)
21.05.2017 03:12 7,8 °C 7,8 °C 94 % 1025,5 hPa 0,0 mm 0,0 km/h (0 Bft) S-SO 161 ° 0 min 0,000 mm 0,0 UV-I 0 W/m² 6,9 °C 7,8 °C 0,0 km/h (0 Bft)
21.05.2017 03:13 7,8 °C 7,8 °C 94 % 1025,4 hPa 0,0 mm 0,0 km/h (0 Bft) S-SO 161 ° 0 min 0,000 mm 0,0 UV-I 0 W/m² 6,9 °C 7,8 °C 0,0 km/h (0 Bft)
21.05.2017 03:14 7,8 °C 7,8 °C 94 % 1025,4 hPa 0,0 mm 0,0 km/h (0 Bft) S-SO 161 ° 0 min 0,000 mm 0,0 UV-I 0 W/m² 6,9 °C 7,8 °C 0,0 km/h (0 Bft)
21.05.2017 03:15 7,8 °C 7,8 °C 94 % 1025,4 hPa 0,0 mm 0,0 km/h (0 Bft) S-SO 161 ° 0 min 0,000 mm 0,0 UV-I 0 W/m² 6,9 °C 7,8 °C 0,0 km/h (0 Bft)
21.05.2017 03:16 7,8 °C 7,8 °C 94 % 1025,4 hPa 0,0 mm 0,0 km/h (0 Bft) S-SO 161 ° 0 min 0,000 mm 0,0 UV-I 0 W/m² 6,9 °C 7,8 °C 0,0 km/h (0 Bft)
21.05.2017 03:17 7,8 °C 7,8 °C 94 % 1025,4 hPa 0,0 mm 0,0 km/h (0 Bft) S-SO 161 ° 0 min 0,000 mm 0,0 UV-I 0 W/m² 6,9 °C 7,8 °C 0,0 km/h (0 Bft)
21.05.2017 03:18 7,8 °C 7,8 °C 94 % 1025,4 hPa 0,0 mm 0,0 km/h (0 Bft) S-SO 161 ° 0 min 0,000 mm 0,0 UV-I 0 W/m² 6,9 °C 7,8 °C 0,0 km/h (0 Bft)
21.05.2017 03:19 7,8 °C 7,8 °C 94 % 1025,4 hPa 0,0 mm 0,0 km/h (0 Bft) S-SO 161 ° 0 min 0,000 mm 0,0 UV-I 0 W/m² 6,9 °C 7,8 °C 0,0 km/h (0 Bft)
21.05.2017 03:20 7,7 °C 7,8 °C 94 % 1025,5 hPa 0,0 mm 0,0 km/h (0 Bft) S-SO 161 ° 0 min 0,000 mm 0,0 UV-I 0 W/m² 6,8 °C 7,7 °C 0,0 km/h (0 Bft)
21.05.2017 03:21 7,8 °C 7,8 °C 94 % 1025,4 hPa 0,0 mm 0,0 km/h (0 Bft) S-SO 161 ° 0 min 0,000 mm 0,0 UV-I 0 W/m² 6,9 °C 7,8 °C 0,0 km/h (0 Bft)
21.05.2017 03:22 7,8 °C 7,8 °C 94 % 1025,4 hPa 0,0 mm 0,0 km/h (0 Bft) S-SO 161 ° 0 min 0,000 mm 0,0 UV-I 0 W/m² 6,9 °C 7,8 °C 0,0 km/h (0 Bft)
21.05.2017 03:23 7,8 °C 7,8 °C 94 % 1025,4 hPa 0,0 mm 0,0 km/h (0 Bft) S-SO 161 ° 0 min 0,000 mm 0,0 UV-I 0 W/m² 6,9 °C 7,8 °C 0,0 km/h (0 Bft)
21.05.2017 03:24 7,8 °C 7,8 °C 94 % 1025,4 hPa 0,0 mm 0,0 km/h (0 Bft) S-SO 161 ° 0 min 0,000 mm 0,0 UV-I 0 W/m² 6,9 °C 7,8 °C 0,0 km/h (0 Bft)
21.05.2017 03:25 7,7 °C 7,8 °C 94 % 1025,4 hPa 0,0 mm 0,0 km/h (0 Bft) S-SO 161 ° 0 min 0,000 mm 0,0 UV-I 0 W/m² 6,8 °C 7,7 °C 0,0 km/h (0 Bft)
21.05.2017 03:26 7,7 °C 7,8 °C 94 % 1025,4 hPa 0,0 mm 0,0 km/h (0 Bft) S-SO 161 ° 0 min 0,000 mm 0,0 UV-I 0 W/m² 6,8 °C 7,7 °C 0,0 km/h (0 Bft)
21.05.2017 03:27 7,7 °C 7,8 °C 94 % 1025,4 hPa 0,0 mm 0,0 km/h (0 Bft) S-SO 161 ° 0 min 0,000 mm 0,0 UV-I 0 W/m² 6,8 °C 7,7 °C 0,0 km/h (0 Bft)
21.05.2017 03:28 7,7 °C 7,8 °C 94 % 1025,4 hPa 0,0 mm 0,0 km/h (0 Bft) S-SO 161 ° 0 min 0,000 mm 0,0 UV-I 0 W/m² 6,8 °C 7,7 °C 0,0 km/h (0 Bft)
21.05.2017 03:29 7,7 °C 7,7 °C 94 % 1025,4 hPa 0,0 mm 0,0 km/h (0 Bft) S-SO 161 ° 0 min 0,000 mm 0,0 UV-I 0 W/m² 6,8 °C 7,7 °C 0,0 km/h (0 Bft)
21.05.2017 03:30 7,7 °C 7,8 °C 94 % 1025,4 hPa 0,0 mm 0,0 km/h (0 Bft) S-SO 161 ° 0 min 0,000 mm 0,0 UV-I 0 W/m² 6,8 °C 7,7 °C 0,0 km/h (0 Bft)
21.05.2017 03:31 7,7 °C 7,7 °C 94 % 1025,4 hPa 0,0 mm 0,0 km/h (0 Bft) S-SO 161 ° 0 min 0,000 mm 0,0 UV-I 0 W/m² 6,8 °C 7,7 °C 0,0 km/h (0 Bft)
21.05.2017 03:32 7,7 °C 7,7 °C 94 % 1025,4 hPa 0,0 mm 0,0 km/h (0 Bft) S-SO 161 ° 0 min 0,000 mm 0,0 UV-I 0 W/m² 6,8 °C 7,7 °C 0,0 km/h (0 Bft)
21.05.2017 03:33 7,7 °C 7,7 °C 94 % 1025,4 hPa 0,0 mm 0,0 km/h (0 Bft) S-SO 161 ° 0 min 0,000 mm 0,0 UV-I 0 W/m² 6,8 °C 7,7 °C 0,0 km/h (0 Bft)
21.05.2017 03:34 7,7 °C 7,7 °C 94 % 1025,4 hPa 0,0 mm 0,0 km/h (0 Bft) S-SO 161 ° 0 min 0,000 mm 0,0 UV-I 0 W/m² 6,8 °C 7,7 °C 0,0 km/h (0 Bft)
21.05.2017 03:35 7,7 °C 7,7 °C 94 % 1025,3 hPa 0,0 mm 0,0 km/h (0 Bft) S-SO 161 ° 0 min 0,000 mm 0,0 UV-I 0 W/m² 6,8 °C 7,7 °C 0,0 km/h (0 Bft)
21.05.2017 03:36 7,7 °C 7,7 °C 93 % 1025,3 hPa 0,0 mm 0,0 km/h (0 Bft) S-SO 161 ° 0 min 0,000 mm 0,0 UV-I 0 W/m² 6,6 °C 7,7 °C 0,0 km/h (0 Bft)
21.05.2017 03:37 7,7 °C 7,7 °C 93 % 1025,4 hPa 0,0 mm 0,0 km/h (0 Bft) S-SO 161 ° 0 min 0,000 mm 0,0 UV-I 0 W/m² 6,6 °C 7,7 °C 0,0 km/h (0 Bft)
21.05.2017 03:38 7,7 °C 7,7 °C 94 % 1025,3 hPa 0,0 mm 0,0 km/h (0 Bft) S-SO 161 ° 0 min 0,000 mm 0,0 UV-I 0 W/m² 6,8 °C 7,7 °C 0,0 km/h (0 Bft)
21.05.2017 03:39 7,7 °C 7,7 °C 94 % 1025,3 hPa 0,0 mm 0,0 km/h (0 Bft) S-SO 161 ° 0 min 0,000 mm 0,0 UV-I 0 W/m² 6,8 °C 7,7 °C 0,0 km/h (0 Bft)
21.05.2017 03:40 7,7 °C 7,7 °C 94 % 1025,3 hPa 0,0 mm 0,0 km/h (0 Bft) S-SO 161 ° 0 min 0,000 mm 0,0 UV-I 0 W/m² 6,8 °C 7,7 °C 0,0 km/h (0 Bft)
21.05.2017 03:41 7,7 °C 7,7 °C 94 % 1025,3 hPa 0,0 mm 0,0 km/h (0 Bft) S-SO 161 ° 0 min 0,000 mm 0,0 UV-I 0 W/m² 6,8 °C 7,7 °C 0,0 km/h (0 Bft)
21.05.2017 03:42 7,7 °C 7,7 °C 94 % 1025,3 hPa 0,0 mm 0,0 km/h (0 Bft) S-SO 161 ° 0 min 0,000 mm 0,0 UV-I 0 W/m² 6,8 °C 7,7 °C 0,0 km/h (0 Bft)
21.05.2017 03:43 7,7 °C 7,7 °C 94 % 1025,3 hPa 0,0 mm 0,0 km/h (0 Bft) S-SO 161 ° 0 min 0,000 mm 0,0 UV-I 0 W/m² 6,8 °C 7,7 °C 0,0 km/h (0 Bft)
21.05.2017 03:44 7,7 °C 7,7 °C 94 % 1025,3 hPa 0,0 mm 0,0 km/h (0 Bft) S-SO 161 ° 0 min 0,000 mm 0,0 UV-I 0 W/m² 6,8 °C 7,7 °C 0,0 km/h (0 Bft)
21.05.2017 03:45 7,7 °C 7,7 °C 94 % 1025,3 hPa 0,0 mm 0,0 km/h (0 Bft) S-SO 161 ° 0 min 0,000 mm 0,0 UV-I 0 W/m² 6,8 °C 7,7 °C 0,0 km/h (0 Bft)
21.05.2017 03:46 7,7 °C 7,7 °C 94 % 1025,3 hPa 0,0 mm 0,0 km/h (0 Bft) S-SO 161 ° 0 min 0,000 mm 0,0 UV-I 0 W/m² 6,8 °C 7,7 °C 0,0 km/h (0 Bft)
21.05.2017 03:47 7,7 °C 7,7 °C 94 % 1025,4 hPa 0,0 mm 0,0 km/h (0 Bft) S-SO 161 ° 0 min 0,000 mm 0,0 UV-I 0 W/m² 6,8 °C 7,7 °C 0,0 km/h (0 Bft)
21.05.2017 03:48 7,7 °C 7,7 °C 94 % 1025,4 hPa 0,0 mm 0,0 km/h (0 Bft) S-SO 161 ° 0 min 0,000 mm 0,0 UV-I 0 W/m² 6,8 °C 7,7 °C 0,0 km/h (0 Bft)
21.05.2017 03:49 7,7 °C 7,7 °C 94 % 1025,3 hPa 0,0 mm 0,0 km/h (0 Bft) S-SO 161 ° 0 min 0,000 mm 0,0 UV-I 0 W/m² 6,8 °C 7,7 °C 0,0 km/h (0 Bft)
21.05.2017 03:50 7,7 °C 7,7 °C 93 % 1025,3 hPa 0,0 mm 0,0 km/h (0 Bft) S-SO 161 ° 0 min 0,000 mm 0,0 UV-I 0 W/m² 6,6 °C 7,7 °C 0,0 km/h (0 Bft)
21.05.2017 03:51 7,7 °C 7,7 °C 94 % 1025,3 hPa 0,0 mm 0,0 km/h (0 Bft) S-SO 161 ° 0 min 0,000 mm 0,0 UV-I 0 W/m² 6,8 °C 7,7 °C 0,0 km/h (0 Bft)
21.05.2017 03:52 7,7 °C 7,7 °C 93 % 1025,3 hPa 0,0 mm 0,0 km/h (0 Bft) S-SO 161 ° 0 min 0,000 mm 0,0 UV-I 0 W/m² 6,6 °C 7,7 °C 0,0 km/h (0 Bft)
21.05.2017 03:53 7,7 °C 7,7 °C 93 % 1025,3 hPa 0,0 mm 0,0 km/h (0 Bft) S-SO 161 ° 0 min 0,000 mm 0,0 UV-I 0 W/m² 6,6 °C 7,7 °C 0,0 km/h (0 Bft)
21.05.2017 03:54 7,6 °C 7,7 °C 94 % 1025,3 hPa 0,0 mm 0,0 km/h (0 Bft) S-SO 161 ° 0 min 0,000 mm 0,0 UV-I 0 W/m² 6,7 °C 7,6 °C 0,0 km/h (0 Bft)
21.05.2017 03:55 7,6 °C 7,7 °C 94 % 1025,3 hPa 0,0 mm 0,0 km/h (0 Bft) S-SO 161 ° 0 min 0,000 mm 0,0 UV-I 0 W/m² 6,7 °C 7,6 °C 0,0 km/h (0 Bft)
21.05.2017 03:56 7,6 °C 7,7 °C 93 % 1025,3 hPa 0,0 mm 0,0 km/h (0 Bft) S-SO 161 ° 0 min 0,000 mm 0,0 UV-I 0 W/m² 6,5 °C 7,6 °C 0,0 km/h (0 Bft)
21.05.2017 03:57 7,6 °C 7,6 °C 94 % 1025,3 hPa 0,0 mm 0,0 km/h (0 Bft) S-SO 161 ° 0 min 0,000 mm 0,0 UV-I 0 W/m² 6,7 °C 7,6 °C 0,0 km/h (0 Bft)
21.05.2017 03:58 7,7 °C 7,7 °C 94 % 1025,3 hPa 0,0 mm 0,0 km/h (0 Bft) S-SO 161 ° 0 min 0,000 mm 0,0 UV-I 0 W/m² 6,8 °C 7,7 °C 0,0 km/h (0 Bft)
21.05.2017 03:59 7,6 °C 7,7 °C 94 % 1025,2 hPa 0,0 mm 0,3 km/h (0 Bft) S-SO 161 ° 0 min 0,000 mm 0,0 UV-I 0 W/m² 6,7 °C 7,6 °C 1,6 km/h (1 Bft)
21.05.2017 04:00 7,6 °C 7,6 °C 94 % 1025,2 hPa 0,0 mm 0,1 km/h (0 Bft) S-SO 161 ° 0 min 0,000 mm 0,0 UV-I 0 W/m² 6,7 °C 7,6 °C 1,6 km/h (1 Bft)
21.05.2017 04:02 7,6 °C 7,6 °C 94 % 1025,2 hPa 0,0 mm 0,0 km/h (0 Bft) S-SO 161 ° 0 min 0,000 mm 0,0 UV-I 0 W/m² 6,7 °C 7,6 °C 0,0 km/h (0 Bft)
21.05.2017 04:04 7,6 °C 7,6 °C 94 % 1025,2 hPa 0,0 mm 0,0 km/h (0 Bft) S-SO 161 ° 0 min 0,000 mm 0,0 UV-I 0 W/m² 6,7 °C 7,6 °C 0,0 km/h (0 Bft)
21.05.2017 04:05 7,6 °C 7,6 °C 94 % 1025,2 hPa 0,0 mm 0,0 km/h (0 Bft) S-SO 161 ° 0 min 0,000 mm 0,0 UV-I 0 W/m² 6,7 °C 7,6 °C 0,0 km/h (0 Bft)
21.05.2017 04:06 7,6 °C 7,6 °C 94 % 1025,3 hPa 0,0 mm 0,0 km/h (0 Bft) S-SO 161 ° 0 min 0,000 mm 0,0 UV-I 0 W/m² 6,7 °C 7,6 °C 0,0 km/h (0 Bft)
21.05.2017 04:07 7,6 °C 7,6 °C 94 % 1025,2 hPa 0,0 mm 0,0 km/h (0 Bft) S-SO 161 ° 0 min 0,000 mm 0,0 UV-I 0 W/m² 6,7 °C 7,6 °C 0,0 km/h (0 Bft)
21.05.2017 04:08 7,6 °C 7,6 °C 93 % 1025,2 hPa 0,0 mm 0,0 km/h (0 Bft) S-SO 161 ° 0 min 0,000 mm 0,0 UV-I 0 W/m² 6,5 °C 7,6 °C 0,0 km/h (0 Bft)
21.05.2017 04:09 7,5 °C 7,6 °C 94 % 1025,2 hPa 0,0 mm 0,0 km/h (0 Bft) S-SO 161 ° 0 min 0,000 mm 0,0 UV-I 0 W/m² 6,6 °C 7,5 °C 0,0 km/h (0 Bft)
21.05.2017 04:10 7,4 °C 7,5 °C 94 % 1025,2 hPa 0,0 mm 0,0 km/h (0 Bft) S-SO 161 ° 0 min 0,000 mm 0,0 UV-I 0 W/m² 6,5 °C 7,4 °C 0,0 km/h (0 Bft)
21.05.2017 04:11 7,4 °C 7,5 °C 94 % 1025,2 hPa 0,0 mm 0,0 km/h (0 Bft) S-SO 161 ° 0 min 0,000 mm 0,0 UV-I 0 W/m² 6,5 °C 7,4 °C 0,0 km/h (0 Bft)
21.05.2017 04:12 7,4 °C 7,4 °C 94 % 1025,2 hPa 0,0 mm 0,0 km/h (0 Bft) S-SO 161 ° 0 min 0,000 mm 0,0 UV-I 0 W/m² 6,5 °C 7,4 °C 0,0 km/h (0 Bft)
21.05.2017 04:13 7,4 °C 7,4 °C 94 % 1025,1 hPa 0,0 mm 0,0 km/h (0 Bft) S-SO 161 ° 0 min 0,000 mm 0,0 UV-I 0 W/m² 6,5 °C 7,4 °C 0,0 km/h (0 Bft)
21.05.2017 04:14 7,4 °C 7,4 °C 94 % 1025,1 hPa 0,0 mm 0,0 km/h (0 Bft) S-SO 161 ° 0 min 0,000 mm 0,0 UV-I 0 W/m² 6,5 °C 7,4 °C 0,0 km/h (0 Bft)
21.05.2017 04:15 7,4 °C 7,4 °C 94 % 1025,1 hPa 0,0 mm 0,0 km/h (0 Bft) S-SO 161 ° 0 min 0,000 mm 0,0 UV-I 0 W/m² 6,5 °C 7,4 °C 0,0 km/h (0 Bft)
21.05.2017 04:16 7,3 °C 7,4 °C 94 % 1025,2 hPa 0,0 mm 0,0 km/h (0 Bft) S-SO 161 ° 0 min 0,000 mm 0,0 UV-I 0 W/m² 6,4 °C 7,3 °C 0,0 km/h (0 Bft)
21.05.2017 04:17 7,3 °C 7,3 °C 94 % 1025,2 hPa 0,0 mm 0,0 km/h (0 Bft) S-SO 161 ° 0 min 0,000 mm 0,0 UV-I 0 W/m² 6,4 °C 7,3 °C 0,0 km/h (0 Bft)
21.05.2017 04:18 7,3 °C 7,3 °C 94 % 1025,2 hPa 0,0 mm 0,0 km/h (0 Bft) S-SO 161 ° 0 min 0,000 mm 0,0 UV-I 0 W/m² 6,4 °C 7,3 °C 0,0 km/h (0 Bft)
21.05.2017 04:19 7,3 °C 7,3 °C 94 % 1025,2 hPa 0,0 mm 0,0 km/h (0 Bft) S-SO 161 ° 0 min 0,000 mm 0,0 UV-I 0 W/m² 6,4 °C 7,3 °C 0,0 km/h (0 Bft)
21.05.2017 04:20 7,3 °C 7,3 °C 94 % 1025,2 hPa 0,0 mm 0,6 km/h (0 Bft) S-SO 161 ° 0 min 0,000 mm 0,0 UV-I 0 W/m² 6,4 °C 7,3 °C 1,6 km/h (1 Bft)
21.05.2017 04:21 7,3 °C 7,3 °C 94 % 1025,2 hPa 0,0 mm 1,0 km/h (0 Bft) S-SO 161 ° 0 min 0,000 mm 0,0 UV-I 0 W/m² 6,4 °C 7,3 °C 3,2 km/h (1 Bft)
21.05.2017 04:22 7,3 °C 7,3 °C 94 % 1025,2 hPa 0,0 mm 2,8 km/h (1 Bft) S-SO 161 ° 0 min 0,000 mm 0,0 UV-I 0 W/m² 6,4 °C 7,3 °C 6,4 km/h (2 Bft)
21.05.2017 04:23 7,3 °C 7,3 °C 94 % 1025,2 hPa 0,0 mm 3,5 km/h (1 Bft) S-SO 161 ° 0 min 0,000 mm 0,0 UV-I 0 W/m² 6,4 °C 7,3 °C 6,4 km/h (2 Bft)
21.05.2017 04:24 7,3 °C 7,3 °C 94 % 1025,2 hPa 0,0 mm 3,0 km/h (1 Bft) S 172 ° 0 min 0,000 mm 0,0 UV-I 0 W/m² 6,4 °C 7,3 °C 6,4 km/h (2 Bft)
21.05.2017 04:25 7,2 °C 7,3 °C 93 % 1025,2 hPa 0,0 mm 0,4 km/h (0 Bft) S 172 ° 0 min 0,000 mm 0,0 UV-I 0 W/m² 6,1 °C 7,2 °C 1,6 km/h (1 Bft)
21.05.2017 04:26 7,2 °C 7,3 °C 94 % 1025,2 hPa 0,0 mm 0,0 km/h (0 Bft) S 172 ° 0 min 0,000 mm 0,0 UV-I 0 W/m² 6,3 °C 7,2 °C 0,0 km/h (0 Bft)
21.05.2017 04:27 7,2 °C 7,3 °C 94 % 1025,2 hPa 0,0 mm 0,2 km/h (0 Bft) S 172 ° 0 min 0,000 mm 0,0 UV-I 0 W/m² 6,3 °C 7,2 °C 1,6 km/h (1 Bft)
21.05.2017 04:28 7,2 °C 7,2 °C 93 % 1025,2 hPa 0,0 mm 1,0 km/h (0 Bft) S 172 ° 0 min 0,000 mm 0,0 UV-I 0 W/m² 6,1 °C 7,2 °C 1,6 km/h (1 Bft)
21.05.2017 04:29 7,1 °C 7,2 °C 93 % 1025,2 hPa 0,0 mm 0,0 km/h (0 Bft) S 172 ° 0 min 0,000 mm 0,0 UV-I 0 W/m² 6,0 °C 7,1 °C 0,0 km/h (0 Bft)
21.05.2017 04:30 7,1 °C 7,1 °C 93 % 1025,2 hPa 0,0 mm 0,0 km/h (0 Bft) S 172 ° 0 min 0,000 mm 0,0 UV-I 0 W/m² 6,0 °C 7,1 °C 0,0 km/h (0 Bft)
21.05.2017 04:31 7,0 °C 7,1 °C 93 % 1025,2 hPa 0,0 mm 0,0 km/h (0 Bft) S 172 ° 0 min 0,000 mm 0,0 UV-I 0 W/m² 5,9 °C 7,0 °C 0,0 km/h (0 Bft)
21.05.2017 04:32 7,0 °C 7,0 °C 93 % 1025,2 hPa 0,0 mm 0,0 km/h (0 Bft) S 172 ° 0 min 0,000 mm 0,0 UV-I 0 W/m² 5,9 °C 7,0 °C 0,0 km/h (0 Bft)
21.05.2017 04:33 7,0 °C 7,0 °C 94 % 1025,2 hPa 0,0 mm 0,0 km/h (0 Bft) S 172 ° 0 min 0,000 mm 0,0 UV-I 0 W/m² 6,1 °C 7,0 °C 0,0 km/h (0 Bft)
21.05.2017 04:34 6,9 °C 7,0 °C 93 % 1025,2 hPa 0,0 mm 0,0 km/h (0 Bft) S 172 ° 0 min 0,000 mm 0,0 UV-I 0 W/m² 5,8 °C 6,9 °C 0,0 km/h (0 Bft)
21.05.2017 04:35 6,8 °C 6,9 °C 93 % 1025,2 hPa 0,0 mm 0,0 km/h (0 Bft) S 172 ° 0 min 0,000 mm 0,0 UV-I 0 W/m² 5,7 °C 6,8 °C 0,0 km/h (0 Bft)
21.05.2017 04:36 6,8 °C 6,8 °C 93 % 1025,2 hPa 0,0 mm 0,0 km/h (0 Bft) S 172 ° 0 min 0,000 mm 0,0 UV-I 0 W/m² 5,7 °C 6,8 °C 0,0 km/h (0 Bft)
21.05.2017 04:37 6,8 °C 6,8 °C 93 % 1025,3 hPa 0,0 mm 0,0 km/h (0 Bft) S 172 ° 0 min 0,000 mm 0,0 UV-I 0 W/m² 5,7 °C 6,8 °C 0,0 km/h (0 Bft)
21.05.2017 04:38 6,8 °C 6,8 °C 93 % 1025,3 hPa 0,0 mm 0,0 km/h (0 Bft) S 172 ° 0 min 0,000 mm 0,0 UV-I 0 W/m² 5,7 °C 6,8 °C 0,0 km/h (0 Bft)
21.05.2017 04:39 6,8 °C 6,8 °C 93 % 1025,3 hPa 0,0 mm 0,0 km/h (0 Bft) S 172 ° 0 min 0,000 mm 0,0 UV-I 0 W/m² 5,7 °C 6,8 °C 0,0 km/h (0 Bft)
21.05.2017 04:40 6,8 °C 6,8 °C 93 % 1025,3 hPa 0,0 mm 0,0 km/h (0 Bft) S 172 ° 0 min 0,000 mm 0,0 UV-I 0 W/m² 5,7 °C 6,8 °C 0,0 km/h (0 Bft)
21.05.2017 04:41 6,7 °C 6,8 °C 94 % 1025,2 hPa 0,0 mm 0,0 km/h (0 Bft) S 172 ° 0 min 0,000 mm 0,0 UV-I 0 W/m² 5,8 °C 6,7 °C 0,0 km/h (0 Bft)
21.05.2017 04:42 6,7 °C 6,8 °C 94 % 1025,2 hPa 0,0 mm 0,0 km/h (0 Bft) S 172 ° 0 min 0,000 mm 0,0 UV-I 0 W/m² 5,8 °C 6,7 °C 0,0 km/h (0 Bft)
21.05.2017 04:43 6,7 °C 6,7 °C 93 % 1025,3 hPa 0,0 mm 0,0 km/h (0 Bft) S 172 ° 0 min 0,000 mm 0,0 UV-I 0 W/m² 5,6 °C 6,7 °C 0,0 km/h (0 Bft)
21.05.2017 04:44 6,6 °C 6,7 °C 93 % 1025,3 hPa 0,0 mm 0,0 km/h (0 Bft) S 172 ° 0 min 0,000 mm 0,0 UV-I 0 W/m² 5,6 °C 6,6 °C 0,0 km/h (0 Bft)
21.05.2017 04:45 6,6 °C 6,6 °C 94 % 1025,3 hPa 0,0 mm 0,0 km/h (0 Bft) S 172 ° 0 min 0,000 mm 0,0 UV-I 0 W/m² 5,7 °C 6,6 °C 0,0 km/h (0 Bft)
21.05.2017 04:46 6,5 °C 6,6 °C 93 % 1025,3 hPa 0,0 mm 0,0 km/h (0 Bft) S 172 ° 0 min 0,000 mm 0,0 UV-I 0 W/m² 5,5 °C 6,5 °C 0,0 km/h (0 Bft)
21.05.2017 04:47 6,5 °C 6,5 °C 93 % 1025,3 hPa 0,0 mm 0,0 km/h (0 Bft) S 172 ° 0 min 0,000 mm 0,0 UV-I 0 W/m² 5,5 °C 6,5 °C 0,0 km/h (0 Bft)
21.05.2017 04:48 6,4 °C 6,5 °C 94 % 1025,3 hPa 0,0 mm 0,0 km/h (0 Bft) S 172 ° 0 min 0,000 mm 0,0 UV-I 0 W/m² 5,5 °C 6,4 °C 0,0 km/h (0 Bft)
21.05.2017 04:49 6,5 °C 6,5 °C 94 % 1025,2 hPa 0,0 mm 0,0 km/h (0 Bft) S 172 ° 0 min 0,000 mm 0,0 UV-I 0 W/m² 5,6 °C 6,5 °C 0,0 km/h (0 Bft)
21.05.2017 04:50 6,6 °C 6,6 °C 94 % 1025,3 hPa 0,0 mm 0,0 km/h (0 Bft) S 172 ° 0 min 0,000 mm 0,0 UV-I 0 W/m² 5,7 °C 6,6 °C 0,0 km/h (0 Bft)
21.05.2017 04:51 6,6 °C 6,6 °C 94 % 1025,3 hPa 0,0 mm 0,0 km/h (0 Bft) S 172 ° 0 min 0,000 mm 0,0 UV-I 0 W/m² 5,7 °C 6,6 °C 0,0 km/h (0 Bft)
21.05.2017 04:52 6,7 °C 6,7 °C 94 % 1025,2 hPa 0,0 mm 0,0 km/h (0 Bft) S 172 ° 0 min 0,000 mm 0,0 UV-I 0 W/m² 5,8 °C 6,7 °C 0,0 km/h (0 Bft)
21.05.2017 04:53 6,7 °C 6,7 °C 94 % 1025,2 hPa 0,0 mm 0,0 km/h (0 Bft) S 172 ° 0 min 0,000 mm 0,0 UV-I 0 W/m² 5,8 °C 6,7 °C 0,0 km/h (0 Bft)
21.05.2017 04:54 6,7 °C 6,7 °C 94 % 1025,2 hPa 0,0 mm 0,0 km/h (0 Bft) S 172 ° 0 min 0,000 mm 0,0 UV-I 0 W/m² 5,8 °C 6,7 °C 0,0 km/h (0 Bft)
21.05.2017 04:55 6,7 °C 6,7 °C 94 % 1025,2 hPa 0,0 mm 0,0 km/h (0 Bft) S 172 ° 0 min 0,000 mm 0,0 UV-I 0 W/m² 5,8 °C 6,7 °C 0,0 km/h (0 Bft)
21.05.2017 04:56 6,7 °C 6,7 °C 94 % 1025,2 hPa 0,0 mm 0,0 km/h (0 Bft) S 172 ° 0 min 0,000 mm 0,0 UV-I 0 W/m² 5,8 °C 6,7 °C 0,0 km/h (0 Bft)
21.05.2017 04:57 6,7 °C 6,7 °C 94 % 1025,3 hPa 0,0 mm 0,0 km/h (0 Bft) S 172 ° 0 min 0,000 mm 0,0 UV-I 0 W/m² 5,8 °C 6,7 °C 0,0 km/h (0 Bft)
21.05.2017 04:58 6,7 °C 6,7 °C 94 % 1025,3 hPa 0,0 mm 0,0 km/h (0 Bft) S 172 ° 0 min 0,000 mm 0,0 UV-I 0 W/m² 5,8 °C 6,7 °C 0,0 km/h (0 Bft)
21.05.2017 04:59 6,7 °C 6,7 °C 94 % 1025,3 hPa 0,0 mm 0,0 km/h (0 Bft) S 172 ° 0 min 0,000 mm 0,0 UV-I 0 W/m² 5,8 °C 6,7 °C 0,0 km/h (0 Bft)
21.05.2017 05:00 6,6 °C 6,7 °C 94 % 1025,2 hPa 0,0 mm 0,0 km/h (0 Bft) S 172 ° 0 min 0,000 mm 0,0 UV-I 0 W/m² 5,7 °C 6,6 °C 0,0 km/h (0 Bft)
21.05.2017 05:01 6,5 °C 6,6 °C 94 % 1025,3 hPa 0,0 mm 0,0 km/h (0 Bft) S 172 ° 0 min 0,000 mm 0,0 UV-I 0 W/m² 5,6 °C 6,5 °C 0,0 km/h (0 Bft)
21.05.2017 05:02 6,4 °C 6,5 °C 94 % 1025,3 hPa 0,0 mm 0,0 km/h (0 Bft) S 172 ° 0 min 0,000 mm 0,0 UV-I 0 W/m² 5,5 °C 6,4 °C 0,0 km/h (0 Bft)
21.05.2017 05:03 6,4 °C 6,4 °C 94 % 1025,3 hPa 0,0 mm 0,0 km/h (0 Bft) S 172 ° 0 min 0,000 mm 0,0 UV-I 0 W/m² 5,5 °C 6,4 °C 0,0 km/h (0 Bft)
21.05.2017 05:04 6,3 °C 6,4 °C 94 % 1025,3 hPa 0,0 mm 0,0 km/h (0 Bft) S 172 ° 0 min 0,000 mm 0,0 UV-I 0 W/m² 5,4 °C 6,3 °C 0,0 km/h (0 Bft)
21.05.2017 05:05 6,3 °C 6,3 °C 94 % 1025,3 hPa 0,0 mm 0,0 km/h (0 Bft) S 172 ° 0 min 0,000 mm 0,0 UV-I 0 W/m² 5,4 °C 6,3 °C 0,0 km/h (0 Bft)
21.05.2017 05:06 6,2 °C 6,3 °C 94 % 1025,3 hPa 0,0 mm 0,0 km/h (0 Bft) S 172 ° 0 min 0,000 mm 0,0 UV-I 0 W/m² 5,3 °C 6,2 °C 0,0 km/h (0 Bft)
21.05.2017 05:07 6,2 °C 6,2 °C 94 % 1025,3 hPa 0,0 mm 0,0 km/h (0 Bft) S 172 ° 0 min 0,000 mm 0,0 UV-I 0 W/m² 5,3 °C 6,2 °C 0,0 km/h (0 Bft)
21.05.2017 05:08 6,1 °C 6,2 °C 94 % 1025,3 hPa 0,0 mm 0,0 km/h (0 Bft) S 172 ° 0 min 0,000 mm 0,0 UV-I 0 W/m² 5,2 °C 6,1 °C 0,0 km/h (0 Bft)
21.05.2017 05:09 6,1 °C 6,1 °C 94 % 1025,3 hPa 0,0 mm 0,0 km/h (0 Bft) S 172 ° 0 min 0,000 mm 0,0 UV-I 0 W/m² 5,2 °C 6,1 °C 0,0 km/h (0 Bft)
21.05.2017 05:10 6,0 °C 6,1 °C 94 % 1025,3 hPa 0,0 mm 0,0 km/h (0 Bft) S 172 ° 0 min 0,000 mm 0,0 UV-I 0 W/m² 5,1 °C 6,0 °C 0,0 km/h (0 Bft)
21.05.2017 05:11 6,1 °C 6,1 °C 94 % 1025,3 hPa 0,0 mm 0,0 km/h (0 Bft) S 172 ° 0 min 0,000 mm 0,0 UV-I 0 W/m² 5,2 °C 6,1 °C 0,0 km/h (0 Bft)
21.05.2017 05:12 6,1 °C 6,1 °C 94 % 1025,3 hPa 0,0 mm 0,0 km/h (0 Bft) S 172 ° 0 min 0,000 mm 0,0 UV-I 0 W/m² 5,2 °C 6,1 °C 0,0 km/h (0 Bft)
21.05.2017 05:13 6,1 °C 6,1 °C 94 % 1025,3 hPa 0,0 mm 0,0 km/h (0 Bft) S 172 ° 0 min 0,000 mm 0,0 UV-I 0 W/m² 5,2 °C 6,1 °C 0,0 km/h (0 Bft)
21.05.2017 05:14 6,1 °C 6,1 °C 94 % 1025,3 hPa 0,0 mm 0,0 km/h (0 Bft) S 172 ° 0 min 0,000 mm 0,0 UV-I 0 W/m² 5,2 °C 6,1 °C 0,0 km/h (0 Bft)
21.05.2017 05:15 6,0 °C 6,1 °C 94 % 1025,3 hPa 0,0 mm 0,0 km/h (0 Bft) S 172 ° 0 min 0,000 mm 0,0 UV-I 0 W/m² 5,1 °C 6,0 °C 0,0 km/h (0 Bft)
21.05.2017 05:16 5,9 °C 6,0 °C 94 % 1025,3 hPa 0,0 mm 0,0 km/h (0 Bft) S 172 ° 0 min 0,000 mm 0,0 UV-I 0 W/m² 5,0 °C 5,9 °C 0,0 km/h (0 Bft)
21.05.2017 05:17 5,9 °C 5,9 °C 94 % 1025,3 hPa 0,0 mm 0,0 km/h (0 Bft) S 172 ° 0 min 0,000 mm 0,0 UV-I 0 W/m² 5,0 °C 5,9 °C 0,0 km/h (0 Bft)
21.05.2017 05:18 6,1 °C 6,1 °C 94 % 1025,3 hPa 0,0 mm 0,0 km/h (0 Bft) S 172 ° 0 min 0,000 mm 0,0 UV-I 0 W/m² 5,2 °C 6,1 °C 0,0 km/h (0 Bft)
21.05.2017 05:19 6,2 °C 6,2 °C 95 % 1025,3 hPa 0,0 mm 0,0 km/h (0 Bft) S 172 ° 0 min 0,000 mm 0,0 UV-I 0 W/m² 5,5 °C 6,2 °C 0,0 km/h (0 Bft)
21.05.2017 05:20 6,2 °C 6,2 °C 95 % 1025,3 hPa 0,0 mm 0,0 km/h (0 Bft) S 172 ° 0 min 0,000 mm 0,0 UV-I 0 W/m² 5,5 °C 6,2 °C 0,0 km/h (0 Bft)
21.05.2017 05:21 6,3 °C 6,3 °C 95 % 1025,3 hPa 0,0 mm 0,0 km/h (0 Bft) S 172 ° 0 min 0,000 mm 0,0 UV-I 0 W/m² 5,6 °C 6,3 °C 0,0 km/h (0 Bft)
21.05.2017 05:22 6,3 °C 6,3 °C 95 % 1025,3 hPa 0,0 mm 0,0 km/h (0 Bft) S 172 ° 0 min 0,000 mm 0,0 UV-I 0 W/m² 5,6 °C 6,3 °C 0,0 km/h (0 Bft)
21.05.2017 05:23 6,3 °C 6,3 °C 95 % 1025,3 hPa 0,0 mm 0,0 km/h (0 Bft) S 172 ° 0 min 0,000 mm 0,0 UV-I 0 W/m² 5,6 °C 6,3 °C 0,0 km/h (0 Bft)
21.05.2017 05:24 6,2 °C 6,3 °C 95 % 1025,3 hPa 0,0 mm 0,0 km/h (0 Bft) S 172 ° 0 min 0,000 mm 0,0 UV-I 0 W/m² 5,5 °C 6,2 °C 0,0 km/h (0 Bft)
21.05.2017 05:25 6,2 °C 6,2 °C 95 % 1025,3 hPa 0,0 mm 0,0 km/h (0 Bft) S 172 ° 0 min 0,000 mm 0,0 UV-I 0 W/m² 5,5 °C 6,2 °C 0,0 km/h (0 Bft)
21.05.2017 05:26 6,2 °C 6,2 °C 94 % 1025,3 hPa 0,0 mm 0,0 km/h (0 Bft) S 172 ° 0 min 0,000 mm 0,0 UV-I 0 W/m² 5,3 °C 6,2 °C 0,0 km/h (0 Bft)
21.05.2017 05:27 6,1 °C 6,2 °C 94 % 1025,3 hPa 0,0 mm 0,0 km/h (0 Bft) S 172 ° 0 min 0,000 mm 0,0 UV-I 0 W/m² 5,2 °C 6,1 °C 0,0 km/h (0 Bft)
21.05.2017 05:28 5,9 °C 6,1 °C 94 % 1025,3 hPa 0,0 mm 0,0 km/h (0 Bft) S 172 ° 0 min 0,000 mm 0,0 UV-I 0 W/m² 5,0 °C 5,9 °C 0,0 km/h (0 Bft)
21.05.2017 05:29 5,9 °C 5,9 °C 94 % 1025,3 hPa 0,0 mm 0,0 km/h (0 Bft) S 172 ° 0 min 0,000 mm 0,0 UV-I 0 W/m² 5,0 °C 5,9 °C 0,0 km/h (0 Bft)
21.05.2017 05:30 5,9 °C 5,9 °C 94 % 1025,3 hPa 0,0 mm 0,0 km/h (0 Bft) S 172 ° 0 min 0,000 mm 0,0 UV-I 0 W/m² 5,0 °C 5,9 °C 0,0 km/h (0 Bft)
21.05.2017 05:31 5,9 °C 5,9 °C 94 % 1025,3 hPa 0,0 mm 0,0 km/h (0 Bft) S 172 ° 0 min 0,000 mm 0,0 UV-I 0 W/m² 5,0 °C 5,9 °C 0,0 km/h (0 Bft)
21.05.2017 05:32 5,9 °C 5,9 °C 94 % 1025,2 hPa 0,0 mm 0,0 km/h (0 Bft) S 172 ° 0 min 0,000 mm 0,0 UV-I 0 W/m² 5,0 °C 5,9 °C 0,0 km/h (0 Bft)
21.05.2017 05:33 5,9 °C 5,9 °C 94 % 1025,2 hPa 0,0 mm 0,0 km/h (0 Bft) S 172 ° 0 min 0,000 mm 0,0 UV-I 0 W/m² 5,0 °C 5,9 °C 0,0 km/h (0 Bft)
21.05.2017 05:34 5,8 °C 5,9 °C 94 % 1025,2 hPa 0,0 mm 0,0 km/h (0 Bft) S 172 ° 0 min 0,000 mm 0,0 UV-I 0 W/m² 4,9 °C 5,8 °C 0,0 km/h (0 Bft)
21.05.2017 05:35 5,8 °C 5,8 °C 94 % 1025,3 hPa 0,0 mm 0,0 km/h (0 Bft) S 172 ° 0 min 0,000 mm 0,0 UV-I 0 W/m² 4,9 °C 5,8 °C 0,0 km/h (0 Bft)
21.05.2017 05:36 5,8 °C 5,8 °C 94 % 1025,2 hPa 0,0 mm 0,0 km/h (0 Bft) S 172 ° 0 min 0,000 mm 0,0 UV-I 0 W/m² 4,9 °C 5,8 °C 0,0 km/h (0 Bft)
21.05.2017 05:37 5,8 °C 5,8 °C 94 % 1025,2 hPa 0,0 mm 0,0 km/h (0 Bft) S 172 ° 0 min 0,000 mm 0,0 UV-I 0 W/m² 4,9 °C 5,8 °C 0,0 km/h (0 Bft)
21.05.2017 05:38 5,7 °C 5,8 °C 94 % 1025,3 hPa 0,0 mm 0,0 km/h (0 Bft) S 172 ° 0 min 0,000 mm 0,0 UV-I 0 W/m² 4,8 °C 5,7 °C 0,0 km/h (0 Bft)
21.05.2017 05:39 5,7 °C 5,7 °C 94 % 1025,3 hPa 0,0 mm 0,0 km/h (0 Bft) S 172 ° 0 min 0,000 mm 0,0 UV-I 0 W/m² 4,8 °C 5,7 °C 0,0 km/h (0 Bft)
21.05.2017 05:40 5,7 °C 5,7 °C 94 % 1025,3 hPa 0,0 mm 0,0 km/h (0 Bft) S 172 ° 0 min 0,000 mm 0,0 UV-I 5 W/m² 4,8 °C 5,7 °C 0,0 km/h (0 Bft)
21.05.2017 05:41 5,7 °C 5,7 °C 94 % 1025,3 hPa 0,0 mm 0,0 km/h (0 Bft) S 172 ° 0 min 0,000 mm 0,0 UV-I 5 W/m² 4,8 °C 5,7 °C 0,0 km/h (0 Bft)
21.05.2017 05:42 5,7 °C 5,7 °C 94 % 1025,3 hPa 0,0 mm 0,0 km/h (0 Bft) S 172 ° 0 min 0,000 mm 0,0 UV-I 5 W/m² 4,8 °C 5,7 °C 0,0 km/h (0 Bft)
21.05.2017 05:43 5,7 °C 5,7 °C 94 % 1025,3 hPa 0,0 mm 0,0 km/h (0 Bft) S 172 ° 0 min 0,000 mm 0,0 UV-I 5 W/m² 4,8 °C 5,7 °C 0,0 km/h (0 Bft)
21.05.2017 05:44 5,6 °C 5,7 °C 95 % 1025,4 hPa 0,0 mm 0,0 km/h (0 Bft) S 172 ° 0 min 0,000 mm 0,0 UV-I 5 W/m² 4,9 °C 5,6 °C 0,0 km/h (0 Bft)
21.05.2017 05:45 5,6 °C 5,6 °C 94 % 1025,3 hPa 0,0 mm 0,0 km/h (0 Bft) S 172 ° 0 min 0,000 mm 0,0 UV-I 5 W/m² 4,7 °C 5,6 °C 0,0 km/h (0 Bft)
21.05.2017 05:46 5,5 °C 5,6 °C 94 % 1025,3 hPa 0,0 mm 0,0 km/h (0 Bft) S 172 ° 0 min 0,000 mm 0,0 UV-I 5 W/m² 4,6 °C 5,5 °C 0,0 km/h (0 Bft)
21.05.2017 05:47 5,5 °C 5,5 °C 94 % 1025,4 hPa 0,0 mm 0,0 km/h (0 Bft) S 172 ° 0 min 0,000 mm 0,0 UV-I 5 W/m² 4,6 °C 5,5 °C 0,0 km/h (0 Bft)
21.05.2017 05:48 5,4 °C 5,5 °C 95 % 1025,4 hPa 0,0 mm 0,0 km/h (0 Bft) S 172 ° 0 min 0,000 mm 0,0 UV-I 7 W/m² 4,7 °C 5,4 °C 0,0 km/h (0 Bft)
21.05.2017 05:49 5,4 °C 5,4 °C 94 % 1025,4 hPa 0,0 mm 0,0 km/h (0 Bft) S 172 ° 0 min 0,000 mm 0,0 UV-I 7 W/m² 4,5 °C 5,4 °C 0,0 km/h (0 Bft)
21.05.2017 05:50 5,3 °C 5,4 °C 94 % 1025,4 hPa 0,0 mm 0,0 km/h (0 Bft) S 172 ° 0 min 0,000 mm 0,0 UV-I 7 W/m² 4,4 °C 5,3 °C 0,0 km/h (0 Bft)
21.05.2017 05:51 5,3 °C 5,3 °C 94 % 1025,4 hPa 0,0 mm 0,0 km/h (0 Bft) S 172 ° 0 min 0,000 mm 0,0 UV-I 7 W/m² 4,4 °C 5,3 °C 0,0 km/h (0 Bft)
21.05.2017 05:52 5,3 °C 5,3 °C 94 % 1025,4 hPa 0,0 mm 0,0 km/h (0 Bft) S 172 ° 0 min 0,000 mm 0,0 UV-I 7 W/m² 4,4 °C 5,3 °C 0,0 km/h (0 Bft)
21.05.2017 05:53 5,2 °C 5,3 °C 94 % 1025,4 hPa 0,0 mm 0,0 km/h (0 Bft) S 172 ° 0 min 0,000 mm 0,0 UV-I 7 W/m² 4,3 °C 5,2 °C 0,0 km/h (0 Bft)
21.05.2017 05:54 5,2 °C 5,2 °C 94 % 1025,5 hPa 0,0 mm 0,0 km/h (0 Bft) S 172 ° 0 min 0,000 mm 0,0 UV-I 7 W/m² 4,3 °C 5,2 °C 0,0 km/h (0 Bft)
21.05.2017 05:55 5,2 °C 5,2 °C 94 % 1025,5 hPa 0,0 mm 0,0 km/h (0 Bft) S 172 ° 0 min 0,000 mm 0,0 UV-I 7 W/m² 4,3 °C 5,2 °C 0,0 km/h (0 Bft)
21.05.2017 05:56 5,2 °C 5,2 °C 94 % 1025,5 hPa 0,0 mm 0,0 km/h (0 Bft) S 172 ° 0 min 0,000 mm 0,0 UV-I 7 W/m² 4,3 °C 5,2 °C 0,0 km/h (0 Bft)
21.05.2017 05:57 5,3 °C 5,3 °C 95 % 1025,5 hPa 0,0 mm 0,0 km/h (0 Bft) S 172 ° 0 min 0,000 mm 0,0 UV-I 7 W/m² 4,6 °C 5,3 °C 0,0 km/h (0 Bft)
21.05.2017 05:58 5,4 °C 5,4 °C 95 % 1025,5 hPa 0,0 mm 0,0 km/h (0 Bft) S 172 ° 0 min 0,000 mm 0,0 UV-I 9 W/m² 4,7 °C 5,4 °C 0,0 km/h (0 Bft)
21.05.2017 05:59 5,5 °C 5,5 °C 95 % 1025,5 hPa 0,0 mm 0,0 km/h (0 Bft) S 172 ° 0 min 0,000 mm 0,0 UV-I 9 W/m² 4,8 °C 5,5 °C 0,0 km/h (0 Bft)
21.05.2017 06:00 5,6 °C 5,6 °C 95 % 1025,5 hPa 0,0 mm 0,0 km/h (0 Bft) S 172 ° 0 min 0,000 mm 0,0 UV-I 9 W/m² 4,9 °C 5,6 °C 0,0 km/h (0 Bft)
21.05.2017 06:01 5,7 °C 5,7 °C 95 % 1025,5 hPa 0,0 mm 0,0 km/h (0 Bft) S 172 ° 0 min 0,000 mm 0,0 UV-I 11 W/m² 5,0 °C 5,7 °C 0,0 km/h (0 Bft)
21.05.2017 06:02 5,7 °C 5,7 °C 95 % 1025,5 hPa 0,0 mm 0,0 km/h (0 Bft) S 172 ° 0 min 0,000 mm 0,0 UV-I 11 W/m² 5,0 °C 5,7 °C 0,0 km/h (0 Bft)
21.05.2017 06:03 5,7 °C 5,7 °C 95 % 1025,5 hPa 0,0 mm 0,0 km/h (0 Bft) S 172 ° 0 min 0,000 mm 0,0 UV-I 11 W/m² 5,0 °C 5,7 °C 0,0 km/h (0 Bft)
21.05.2017 06:04 5,6 °C 5,7 °C 95 % 1025,5 hPa 0,0 mm 0,0 km/h (0 Bft) S 172 ° 0 min 0,000 mm 0,0 UV-I 11 W/m² 4,9 °C 5,6 °C 0,0 km/h (0 Bft)
21.05.2017 06:05 5,6 °C 5,6 °C 95 % 1025,5 hPa 0,0 mm 0,0 km/h (0 Bft) S 172 ° 0 min 0,000 mm 0,0 UV-I 12 W/m² 4,9 °C 5,6 °C 0,0 km/h (0 Bft)
21.05.2017 06:06 5,5 °C 5,6 °C 95 % 1025,5 hPa 0,0 mm 0,0 km/h (0 Bft) S 172 ° 0 min 0,000 mm 0,0 UV-I 12 W/m² 4,8 °C 5,5 °C 0,0 km/h (0 Bft)
21.05.2017 06:07 5,5 °C 5,5 °C 95 % 1025,5 hPa 0,0 mm 0,0 km/h (0 Bft) S 172 ° 0 min 0,000 mm 0,0 UV-I 12 W/m² 4,8 °C 5,5 °C 0,0 km/h (0 Bft)
21.05.2017 06:08 5,4 °C 5,5 °C 95 % 1025,5 hPa 0,0 mm 0,0 km/h (0 Bft) S 172 ° 0 min 0,000 mm 0,0 UV-I 12 W/m² 4,7 °C 5,4 °C 0,0 km/h (0 Bft)
21.05.2017 06:09 5,5 °C 5,5 °C 95 % 1025,5 hPa 0,0 mm 0,0 km/h (0 Bft) S 172 ° 0 min 0,000 mm 0,0 UV-I 12 W/m² 4,8 °C 5,5 °C 0,0 km/h (0 Bft)
21.05.2017 06:10 5,6 °C 5,6 °C 95 % 1025,5 hPa 0,0 mm 0,0 km/h (0 Bft) S 172 ° 0 min 0,000 mm 0,0 UV-I 14 W/m² 4,9 °C 5,6 °C 0,0 km/h (0 Bft)
21.05.2017 06:11 5,6 °C 5,6 °C 95 % 1025,5 hPa 0,0 mm 0,0 km/h (0 Bft) S 172 ° 0 min 0,000 mm 0,0 UV-I 14 W/m² 4,9 °C 5,6 °C 0,0 km/h (0 Bft)
21.05.2017 06:12 5,5 °C 5,6 °C 95 % 1025,5 hPa 0,0 mm 0,0 km/h (0 Bft) S 172 ° 0 min 0,000 mm 0,0 UV-I 14 W/m² 4,8 °C 5,5 °C 0,0 km/h (0 Bft)
21.05.2017 06:13 5,4 °C 5,5 °C 95 % 1025,5 hPa 0,0 mm 0,0 km/h (0 Bft) S 172 ° 0 min 0,000 mm 0,0 UV-I 16 W/m² 4,7 °C 5,4 °C 0,0 km/h (0 Bft)
21.05.2017 06:14 5,4 °C 5,4 °C 95 % 1025,5 hPa 0,0 mm 0,0 km/h (0 Bft) S 172 ° 0 min 0,000 mm 0,0 UV-I 16 W/m² 4,7 °C 5,4 °C 0,0 km/h (0 Bft)
21.05.2017 06:15 5,4 °C 5,4 °C 95 % 1025,5 hPa 0,0 mm 0,0 km/h (0 Bft) S 172 ° 0 min 0,000 mm 0,0 UV-I 16 W/m² 4,7 °C 5,4 °C 0,0 km/h (0 Bft)
21.05.2017 06:16 5,4 °C 5,4 °C 95 % 1025,6 hPa 0,0 mm 0,0 km/h (0 Bft) S 172 ° 0 min 0,000 mm 0,0 UV-I 16 W/m² 4,7 °C 5,4 °C 0,0 km/h (0 Bft)
21.05.2017 06:17 5,4 °C 5,4 °C 95 % 1025,6 hPa 0,0 mm 0,0 km/h (0 Bft) S 172 ° 0 min 0,000 mm 0,0 UV-I 18 W/m² 4,7 °C 5,4 °C 0,0 km/h (0 Bft)
21.05.2017 06:18 5,4 °C 5,4 °C 95 % 1025,5 hPa 0,0 mm 0,0 km/h (0 Bft) S 172 ° 0 min 0,000 mm 0,0 UV-I 18 W/m² 4,7 °C 5,4 °C 0,0 km/h (0 Bft)
21.05.2017 06:19 5,4 °C 5,4 °C 95 % 1025,6 hPa 0,0 mm 0,0 km/h (0 Bft) S 172 ° 0 min 0,000 mm 0,0 UV-I 18 W/m² 4,7 °C 5,4 °C 0,0 km/h (0 Bft)
21.05.2017 06:20 5,4 °C 5,4 °C 95 % 1025,6 hPa 0,0 mm 0,0 km/h (0 Bft) S 172 ° 0 min 0,000 mm 0,0 UV-I 18 W/m² 4,7 °C 5,4 °C 0,0 km/h (0 Bft)
21.05.2017 06:21 5,5 °C 5,5 °C 95 % 1025,6 hPa 0,0 mm 0,0 km/h (0 Bft) S 172 ° 0 min 0,000 mm 0,0 UV-I 19 W/m² 4,8 °C 5,5 °C 0,0 km/h (0 Bft)
21.05.2017 06:22 5,4 °C 5,5 °C 95 % 1025,6 hPa 0,0 mm 0,0 km/h (0 Bft) S 172 ° 0 min 0,000 mm 0,0 UV-I 19 W/m² 4,7 °C 5,4 °C 0,0 km/h (0 Bft)
21.05.2017 06:23 5,3 °C 5,4 °C 95 % 1025,6 hPa 0,0 mm 0,0 km/h (0 Bft) S 172 ° 0 min 0,000 mm 0,0 UV-I 21 W/m² 4,6 °C 5,3 °C 0,0 km/h (0 Bft)
21.05.2017 06:24 5,3 °C 5,3 °C 95 % 1025,6 hPa 0,0 mm 0,0 km/h (0 Bft) S 172 ° 0 min 0,000 mm 0,0 UV-I 21 W/m² 4,6 °C 5,3 °C 0,0 km/h (0 Bft)
21.05.2017 06:25 5,2 °C 5,3 °C 95 % 1025,6 hPa 0,0 mm 0,0 km/h (0 Bft) S 172 ° 0 min 0,000 mm 0,0 UV-I 23 W/m² 4,5 °C 5,2 °C 0,0 km/h (0 Bft)
21.05.2017 06:26 5,2 °C 5,2 °C 95 % 1025,6 hPa 0,0 mm 0,0 km/h (0 Bft) S 172 ° 0 min 0,000 mm 0,0 UV-I 25 W/m² 4,5 °C 5,2 °C 0,0 km/h (0 Bft)
21.05.2017 06:27 5,3 °C 5,3 °C 95 % 1025,6 hPa 0,0 mm 0,0 km/h (0 Bft) S 172 ° 0 min 0,000 mm 0,0 UV-I 26 W/m² 4,6 °C 5,3 °C 0,0 km/h (0 Bft)
21.05.2017 06:28 5,3 °C 5,3 °C 95 % 1025,6 hPa 0,0 mm 0,0 km/h (0 Bft) S 172 ° 0 min 0,000 mm 0,0 UV-I 28 W/m² 4,6 °C 5,3 °C 0,0 km/h (0 Bft)
21.05.2017 06:29 5,3 °C 5,3 °C 95 % 1025,7 hPa 0,0 mm 0,0 km/h (0 Bft) S 172 ° 0 min 0,000 mm 0,0 UV-I 30 W/m² 4,6 °C 5,3 °C 0,0 km/h (0 Bft)
21.05.2017 06:30 5,3 °C 5,3 °C 95 % 1025,7 hPa 0,0 mm 0,0 km/h (0 Bft) S 172 ° 0 min 0,000 mm 0,0 UV-I 30 W/m² 4,6 °C 5,3 °C 0,0 km/h (0 Bft)
21.05.2017 06:31 5,2 °C 5,3 °C 95 % 1025,6 hPa 0,0 mm 0,0 km/h (0 Bft) S 172 ° 0 min 0,000 mm 0,0 UV-I 32 W/m² 4,5 °C 5,2 °C 0,0 km/h (0 Bft)
21.05.2017 06:32 5,1 °C 5,2 °C 95 % 1025,6 hPa 0,0 mm 0,0 km/h (0 Bft) S 172 ° 0 min 0,000 mm 0,0 UV-I 33 W/m² 4,4 °C 5,1 °C 0,0 km/h (0 Bft)
21.05.2017 06:33 5,1 °C 5,1 °C 95 % 1025,6 hPa 0,0 mm 0,0 km/h (0 Bft) S 172 ° 0 min 0,000 mm 0,0 UV-I 33 W/m² 4,4 °C 5,1 °C 0,0 km/h (0 Bft)
21.05.2017 06:34 5,1 °C 5,1 °C 95 % 1025,6 hPa 0,0 mm 0,0 km/h (0 Bft) S 172 ° 0 min 0,000 mm 0,0 UV-I 35 W/m² 4,4 °C 5,1 °C 0,0 km/h (0 Bft)
21.05.2017 06:35 5,2 °C 5,2 °C 95 % 1025,6 hPa 0,0 mm 0,0 km/h (0 Bft) S 172 ° 0 min 0,000 mm 0,0 UV-I 37 W/m² 4,5 °C 5,2 °C 0,0 km/h (0 Bft)
21.05.2017 06:36 5,2 °C 5,2 °C 95 % 1025,6 hPa 0,0 mm 0,0 km/h (0 Bft) S 172 ° 0 min 0,000 mm 0,0 UV-I 37 W/m² 4,5 °C 5,2 °C 0,0 km/h (0 Bft)
21.05.2017 06:37 5,2 °C 5,2 °C 95 % 1025,5 hPa 0,0 mm 0,0 km/h (0 Bft) S 172 ° 0 min 0,000 mm 0,0 UV-I 37 W/m² 4,5 °C 5,2 °C 0,0 km/h (0 Bft)
21.05.2017 06:38 5,2 °C 5,2 °C 95 % 1025,5 hPa 0,0 mm 0,0 km/h (0 Bft) S 172 ° 0 min 0,000 mm 0,0 UV-I 35 W/m² 4,5 °C 5,2 °C 0,0 km/h (0 Bft)
21.05.2017 06:39 5,2 °C 5,2 °C 95 % 1025,6 hPa 0,0 mm 0,0 km/h (0 Bft) S 172 ° 0 min 0,000 mm 0,0 UV-I 35 W/m² 4,5 °C 5,2 °C 0,0 km/h (0 Bft)
21.05.2017 06:40 5,2 °C 5,2 °C 95 % 1025,6 hPa 0,0 mm 0,0 km/h (0 Bft) S 172 ° 0 min 0,000 mm 0,0 UV-I 33 W/m² 4,5 °C 5,2 °C 0,0 km/h (0 Bft)
21.05.2017 06:41 5,2 °C 5,2 °C 95 % 1025,6 hPa 0,0 mm 0,0 km/h (0 Bft) S 172 ° 0 min 0,000 mm 0,0 UV-I 33 W/m² 4,5 °C 5,2 °C 0,0 km/h (0 Bft)
21.05.2017 06:42 5,2 °C 5,2 °C 95 % 1025,6 hPa 0,0 mm 0,0 km/h (0 Bft) S 172 ° 0 min 0,000 mm 0,0 UV-I 35 W/m² 4,5 °C 5,2 °C 0,0 km/h (0 Bft)
21.05.2017 06:43 5,3 °C 5,3 °C 95 % 1025,6 hPa 0,0 mm 0,0 km/h (0 Bft) S 172 ° 0 min 0,000 mm 0,0 UV-I 37 W/m² 4,6 °C 5,3 °C 0,0 km/h (0 Bft)
21.05.2017 06:44 5,3 °C 5,3 °C 95 % 1025,6 hPa 0,0 mm 0,0 km/h (0 Bft) S 172 ° 0 min 0,000 mm 0,0 UV-I 39 W/m² 4,6 °C 5,3 °C 0,0 km/h (0 Bft)
21.05.2017 06:45 5,3 °C 5,3 °C 95 % 1025,7 hPa 0,0 mm 0,0 km/h (0 Bft) S 172 ° 0 min 0,000 mm 0,0 UV-I 42 W/m² 4,6 °C 5,3 °C 0,0 km/h (0 Bft)
21.05.2017 06:46 5,2 °C 5,3 °C 95 % 1025,7 hPa 0,0 mm 0,0 km/h (0 Bft) S 172 ° 0 min 0,000 mm 0,0 UV-I 49 W/m² 4,5 °C 5,2 °C 0,0 km/h (0 Bft)
21.05.2017 06:47 5,3 °C 5,3 °C 95 % 1025,7 hPa 0,0 mm 0,0 km/h (0 Bft) S 172 ° 0 min 0,000 mm 0,0 UV-I 49 W/m² 4,6 °C 5,3 °C 0,0 km/h (0 Bft)
21.05.2017 06:48 5,2 °C 5,3 °C 95 % 1025,7 hPa 0,0 mm 0,0 km/h (0 Bft) S 172 ° 0 min 0,000 mm 0,0 UV-I 58 W/m² 4,5 °C 5,2 °C 0,0 km/h (0 Bft)
21.05.2017 06:49 5,2 °C 5,3 °C 95 % 1025,7 hPa 0,0 mm 0,0 km/h (0 Bft) S 172 ° 0 min 0,000 mm 0,0 UV-I 58 W/m² 4,5 °C 5,2 °C 0,0 km/h (0 Bft)
21.05.2017 06:50 5,3 °C 5,3 °C 95 % 1025,7 hPa 0,0 mm 0,0 km/h (0 Bft) S 172 ° 0 min 0,000 mm 0,0 UV-I 60 W/m² 4,6 °C 5,3 °C 0,0 km/h (0 Bft)
21.05.2017 06:51 5,3 °C 5,3 °C 95 % 1025,7 hPa 0,0 mm 0,0 km/h (0 Bft) S 172 ° 0 min 0,000 mm 0,0 UV-I 62 W/m² 4,6 °C 5,3 °C 0,0 km/h (0 Bft)
21.05.2017 06:52 5,3 °C 5,3 °C 95 % 1025,6 hPa 0,0 mm 0,0 km/h (0 Bft) S 172 ° 0 min 0,000 mm 0,0 UV-I 60 W/m² 4,6 °C 5,3 °C 0,0 km/h (0 Bft)
21.05.2017 06:53 5,4 °C 5,4 °C 95 % 1025,7 hPa 0,0 mm 0,0 km/h (0 Bft) S 172 ° 0 min 0,000 mm 0,0 UV-I 60 W/m² 4,7 °C 5,4 °C 0,0 km/h (0 Bft)
21.05.2017 06:54 5,4 °C 5,4 °C 95 % 1025,7 hPa 0,0 mm 0,0 km/h (0 Bft) S 172 ° 0 min 0,000 mm 0,0 UV-I 63 W/m² 4,7 °C 5,4 °C 0,0 km/h (0 Bft)
21.05.2017 06:55 5,4 °C 5,4 °C 95 % 1025,7 hPa 0,0 mm 0,0 km/h (0 Bft) S 172 ° 0 min 0,000 mm 0,0 UV-I 69 W/m² 4,7 °C 5,4 °C 0,0 km/h (0 Bft)
21.05.2017 06:56 5,4 °C 5,4 °C 95 % 1025,7 hPa 0,0 mm 0,0 km/h (0 Bft) S 172 ° 0 min 0,000 mm 0,0 UV-I 70 W/m² 4,7 °C 5,4 °C 0,0 km/h (0 Bft)
21.05.2017 06:57 5,4 °C 5,4 °C 95 % 1025,7 hPa 0,0 mm 0,0 km/h (0 Bft) S 172 ° 0 min 0,000 mm 0,5 UV-I 70 W/m² 4,7 °C 5,4 °C 0,0 km/h (0 Bft)
21.05.2017 06:58 5,4 °C 5,4 °C 95 % 1025,7 hPa 0,0 mm 0,0 km/h (0 Bft) S 172 ° 0 min 0,000 mm 0,5 UV-I 74 W/m² 4,7 °C 5,4 °C 0,0 km/h (0 Bft)
21.05.2017 06:59 5,4 °C 5,4 °C 95 % 1025,7 hPa 0,0 mm 0,0 km/h (0 Bft) S 172 ° 0 min 0,000 mm 0,5 UV-I 76 W/m² 4,7 °C 5,4 °C 0,0 km/h (0 Bft)
21.05.2017 07:00 5,3 °C 5,4 °C 95 % 1025,7 hPa 0,0 mm 0,0 km/h (0 Bft) S 172 ° 0 min 0,025 mm 0,5 UV-I 76 W/m² 4,6 °C 5,3 °C 0,0 km/h (0 Bft)
21.05.2017 07:01 5,3 °C 5,3 °C 95 % 1025,7 hPa 0,0 mm 0,0 km/h (0 Bft) S 172 ° 0 min 0,000 mm 0,5 UV-I 77 W/m² 4,6 °C 5,3 °C 0,0 km/h (0 Bft)
21.05.2017 07:02 5,4 °C 5,4 °C 95 % 1025,7 hPa 0,0 mm 0,0 km/h (0 Bft) S 172 ° 0 min 0,000 mm 0,5 UV-I 83 W/m² 4,7 °C 5,4 °C 0,0 km/h (0 Bft)
21.05.2017 07:03 5,4 °C 5,4 °C 95 % 1025,7 hPa 0,0 mm 0,0 km/h (0 Bft) S 172 ° 0 min 0,000 mm 0,5 UV-I 77 W/m² 4,7 °C 5,4 °C 0,0 km/h (0 Bft)
21.05.2017 07:04 5,5 °C 5,5 °C 95 % 1025,6 hPa 0,0 mm 0,0 km/h (0 Bft) S 172 ° 0 min 0,000 mm 0,5 UV-I 81 W/m² 4,8 °C 5,5 °C 0,0 km/h (0 Bft)
21.05.2017 07:05 5,6 °C 5,6 °C 95 % 1025,7 hPa 0,0 mm 0,0 km/h (0 Bft) S 172 ° 0 min 0,000 mm 0,5 UV-I 81 W/m² 4,9 °C 5,6 °C 0,0 km/h (0 Bft)
21.05.2017 07:06 5,7 °C 5,7 °C 95 % 1025,7 hPa 0,0 mm 0,0 km/h (0 Bft) S 172 ° 0 min 0,000 mm 0,6 UV-I 132 W/m² 5,0 °C 5,7 °C 0,0 km/h (0 Bft)
21.05.2017 07:07 5,8 °C 5,8 °C 96 % 1025,7 hPa 0,0 mm 0,0 km/h (0 Bft) S 172 ° 0 min 0,000 mm 0,6 UV-I 165 W/m² 5,2 °C 5,8 °C 0,0 km/h (0 Bft)
21.05.2017 07:08 5,9 °C 5,9 °C 96 % 1025,6 hPa 0,0 mm 0,0 km/h (0 Bft) S 172 ° 0 min 0,000 mm 0,6 UV-I 179 W/m² 5,3 °C 5,9 °C 0,0 km/h (0 Bft)
21.05.2017 07:09 6,1 °C 6,1 °C 96 % 1025,6 hPa 0,0 mm 0,0 km/h (0 Bft) S 172 ° 0 min 0,000 mm 0,6 UV-I 116 W/m² 5,5 °C 6,1 °C 0,0 km/h (0 Bft)
21.05.2017 07:10 6,3 °C 6,3 °C 96 % 1025,6 hPa 0,0 mm 0,0 km/h (0 Bft) S 172 ° 0 min 0,000 mm 0,6 UV-I 139 W/m² 5,7 °C 6,3 °C 0,0 km/h (0 Bft)
21.05.2017 07:11 6,4 °C 6,4 °C 96 % 1025,6 hPa 0,0 mm 0,0 km/h (0 Bft) S 172 ° 0 min 0,000 mm 0,6 UV-I 163 W/m² 5,8 °C 6,4 °C 0,0 km/h (0 Bft)
21.05.2017 07:12 6,4 °C 6,4 °C 96 % 1025,7 hPa 0,0 mm 0,0 km/h (0 Bft) S 172 ° 0 min 0,000 mm 0,6 UV-I 121 W/m² 5,8 °C 6,4 °C 0,0 km/h (0 Bft)
21.05.2017 07:13 6,4 °C 6,4 °C 96 % 1025,7 hPa 0,0 mm 0,0 km/h (0 Bft) S 172 ° 0 min 0,000 mm 0,7 UV-I 162 W/m² 5,8 °C 6,4 °C 0,0 km/h (0 Bft)
21.05.2017 07:14 6,3 °C 6,4 °C 96 % 1025,7 hPa 0,0 mm 0,0 km/h (0 Bft) S 172 ° 0 min 0,000 mm 0,7 UV-I 179 W/m² 5,7 °C 6,3 °C 0,0 km/h (0 Bft)
21.05.2017 07:15 6,3 °C 6,3 °C 96 % 1025,7 hPa 0,0 mm 0,0 km/h (0 Bft) S 172 ° 0 min 0,000 mm 0,7 UV-I 151 W/m² 5,7 °C 6,3 °C 0,0 km/h (0 Bft)
21.05.2017 07:16 6,2 °C 6,3 °C 96 % 1025,6 hPa 0,0 mm 0,0 km/h (0 Bft) S 172 ° 0 min 0,000 mm 0,7 UV-I 167 W/m² 5,6 °C 6,2 °C 0,0 km/h (0 Bft)
21.05.2017 07:17 6,2 °C 6,3 °C 95 % 1025,7 hPa 0,0 mm 0,0 km/h (0 Bft) S 172 ° 0 min 0,000 mm 0,7 UV-I 176 W/m² 5,5 °C 6,2 °C 0,0 km/h (0 Bft)
21.05.2017 07:18 6,3 °C 6,3 °C 95 % 1025,7 hPa 0,0 mm 0,0 km/h (0 Bft) S 172 ° 0 min 0,000 mm 0,7 UV-I 178 W/m² 5,6 °C 6,3 °C 0,0 km/h (0 Bft)
21.05.2017 07:19 6,3 °C 6,3 °C 95 % 1025,6 hPa 0,0 mm 0,0 km/h (0 Bft) S 172 ° 0 min 0,000 mm 0,7 UV-I 178 W/m² 5,6 °C 6,3 °C 0,0 km/h (0 Bft)
21.05.2017 07:20 6,3 °C 6,4 °C 95 % 1025,6 hPa 0,0 mm 0,0 km/h (0 Bft) S 172 ° 0 min 0,000 mm 0,7 UV-I 179 W/m² 5,6 °C 6,3 °C 0,0 km/h (0 Bft)
21.05.2017 07:21 6,4 °C 6,4 °C 96 % 1025,6 hPa 0,0 mm 0,0 km/h (0 Bft) S 172 ° 0 min 0,000 mm 0,8 UV-I 181 W/m² 5,8 °C 6,4 °C 0,0 km/h (0 Bft)
21.05.2017 07:22 6,4 °C 6,4 °C 95 % 1025,6 hPa 0,0 mm 0,0 km/h (0 Bft) S 172 ° 0 min 0,000 mm 0,8 UV-I 181 W/m² 5,7 °C 6,4 °C 0,0 km/h (0 Bft)
21.05.2017 07:23 6,6 °C 6,6 °C 95 % 1025,5 hPa 0,0 mm 0,0 km/h (0 Bft) S 172 ° 0 min 0,000 mm 0,8 UV-I 181 W/m² 5,9 °C 6,6 °C 0,0 km/h (0 Bft)
21.05.2017 07:24 6,6 °C 6,6 °C 95 % 1025,5 hPa 0,0 mm 0,0 km/h (0 Bft) S 172 ° 0 min 0,000 mm 0,8 UV-I 178 W/m² 5,9 °C 6,6 °C 0,0 km/h (0 Bft)
21.05.2017 07:25 6,7 °C 6,7 °C 96 % 1025,5 hPa 0,0 mm 0,0 km/h (0 Bft) S 172 ° 0 min 0,000 mm 0,8 UV-I 181 W/m² 6,1 °C 6,7 °C 0,0 km/h (0 Bft)
21.05.2017 07:26 6,9 °C 6,9 °C 96 % 1025,5 hPa 0,0 mm 0,0 km/h (0 Bft) S 172 ° 0 min 0,000 mm 0,8 UV-I 183 W/m² 6,3 °C 6,9 °C 0,0 km/h (0 Bft)
21.05.2017 07:27 7,1 °C 7,1 °C 96 % 1025,5 hPa 0,0 mm 0,0 km/h (0 Bft) S 172 ° 0 min 0,000 mm 0,8 UV-I 186 W/m² 6,5 °C 7,1 °C 0,0 km/h (0 Bft)
21.05.2017 07:28 7,1 °C 7,1 °C 96 % 1025,5 hPa 0,0 mm 0,0 km/h (0 Bft) S 172 ° 0 min 0,000 mm 0,9 UV-I 186 W/m² 6,5 °C 7,1 °C 0,0 km/h (0 Bft)
21.05.2017 07:29 7,2 °C 7,2 °C 96 % 1025,5 hPa 0,0 mm 0,0 km/h (0 Bft) S 172 ° 0 min 0,000 mm 0,9 UV-I 188 W/m² 6,6 °C 7,2 °C 0,0 km/h (0 Bft)
21.05.2017 07:30 7,2 °C 7,2 °C 96 % 1025,5 hPa 0,0 mm 0,0 km/h (0 Bft) S 172 ° 0 min 0,000 mm 0,9 UV-I 186 W/m² 6,6 °C 7,2 °C 0,0 km/h (0 Bft)
21.05.2017 07:31 7,2 °C 7,2 °C 95 % 1025,5 hPa 0,0 mm 0,0 km/h (0 Bft) S 172 ° 0 min 0,000 mm 0,9 UV-I 186 W/m² 6,5 °C 7,2 °C 0,0 km/h (0 Bft)
21.05.2017 07:32 7,4 °C 7,4 °C 95 % 1025,5 hPa 0,0 mm 0,0 km/h (0 Bft) S 172 ° 0 min 0,000 mm 0,9 UV-I 185 W/m² 6,7 °C 7,4 °C 0,0 km/h (0 Bft)
21.05.2017 07:33 7,4 °C 7,4 °C 95 % 1025,5 hPa 0,0 mm 0,0 km/h (0 Bft) S 172 ° 0 min 0,000 mm 0,9 UV-I 178 W/m² 6,7 °C 7,4 °C 0,0 km/h (0 Bft)
21.05.2017 07:34 7,6 °C 7,6 °C 95 % 1025,5 hPa 0,0 mm 0,0 km/h (0 Bft) S 172 ° 0 min 0,000 mm 0,8 UV-I 120 W/m² 6,9 °C 7,6 °C 0,0 km/h (0 Bft)
21.05.2017 07:35 7,6 °C 7,6 °C 95 % 1025,4 hPa 0,0 mm 0,0 km/h (0 Bft) S 172 ° 0 min 0,000 mm 0,9 UV-I 153 W/m² 6,9 °C 7,6 °C 0,0 km/h (0 Bft)
21.05.2017 07:36 7,7 °C 7,7 °C 95 % 1025,5 hPa 0,0 mm 0,0 km/h (0 Bft) S 172 ° 0 min 0,000 mm 0,9 UV-I 178 W/m² 7,0 °C 7,7 °C 0,0 km/h (0 Bft)
21.05.2017 07:37 7,8 °C 7,8 °C 95 % 1025,4 hPa 0,0 mm 0,0 km/h (0 Bft) S 172 ° 0 min 0,000 mm 0,9 UV-I 162 W/m² 7,0 °C 7,8 °C 0,0 km/h (0 Bft)
21.05.2017 07:38 7,8 °C 7,8 °C 95 % 1025,5 hPa 0,0 mm 0,0 km/h (0 Bft) S 173 ° 0 min 0,000 mm 1,0 UV-I 158 W/m² 7,0 °C 7,8 °C 0,0 km/h (0 Bft)
21.05.2017 07:39 7,8 °C 7,8 °C 95 % 1025,5 hPa 0,0 mm 0,0 km/h (0 Bft) S 172 ° 0 min 0,000 mm 1,0 UV-I 169 W/m² 7,0 °C 7,8 °C 0,0 km/h (0 Bft)
21.05.2017 07:40 7,9 °C 7,9 °C 95 % 1025,4 hPa 0,0 mm 0,0 km/h (0 Bft) S 172 ° 0 min 0,000 mm 1,0 UV-I 160 W/m² 7,1 °C 7,9 °C 0,0 km/h (0 Bft)
21.05.2017 07:41 8,1 °C 8,1 °C 95 % 1025,4 hPa 0,0 mm 0,0 km/h (0 Bft) S 172 ° 0 min 0,000 mm 1,0 UV-I 146 W/m² 7,3 °C 8,1 °C 0,0 km/h (0 Bft)
21.05.2017 07:42 8,1 °C 8,1 °C 95 % 1025,5 hPa 0,0 mm 0,0 km/h (0 Bft) S 172 ° 0 min 0,000 mm 1,0 UV-I 155 W/m² 7,3 °C 8,1 °C 0,0 km/h (0 Bft)
21.05.2017 07:43 8,2 °C 8,2 °C 94 % 1025,5 hPa 0,0 mm 0,0 km/h (0 Bft) S 172 ° 0 min 0,000 mm 1,0 UV-I 162 W/m² 7,3 °C 8,2 °C 0,0 km/h (0 Bft)
21.05.2017 07:44 8,4 °C 8,4 °C 95 % 1025,4 hPa 0,0 mm 0,0 km/h (0 Bft) S 172 ° 0 min 0,000 mm 1,0 UV-I 155 W/m² 7,6 °C 8,4 °C 0,0 km/h (0 Bft)
21.05.2017 07:45 8,5 °C 8,5 °C 94 % 1025,5 hPa 0,0 mm 0,0 km/h (0 Bft) S 172 ° 0 min 0,000 mm 1,1 UV-I 137 W/m² 7,6 °C 8,5 °C 0,0 km/h (0 Bft)
21.05.2017 07:46 8,6 °C 8,6 °C 94 % 1025,5 hPa 0,0 mm 0,0 km/h (0 Bft) S 172 ° 0 min 0,000 mm 1,1 UV-I 165 W/m² 7,7 °C 8,6 °C 0,0 km/h (0 Bft)
21.05.2017 07:47 8,7 °C 8,7 °C 94 % 1025,5 hPa 0,0 mm 0,7 km/h (0 Bft) S 172 ° 0 min 0,000 mm 1,1 UV-I 165 W/m² 7,8 °C 8,7 °C 1,6 km/h (1 Bft)
21.05.2017 07:48 8,8 °C 8,8 °C 94 % 1025,5 hPa 0,0 mm 0,1 km/h (0 Bft) S 172 ° 0 min 0,000 mm 1,1 UV-I 178 W/m² 7,9 °C 8,8 °C 1,6 km/h (1 Bft)
21.05.2017 07:49 8,9 °C 8,9 °C 93 % 1025,4 hPa 0,0 mm 0,0 km/h (0 Bft) S 172 ° 0 min 0,000 mm 1,2 UV-I 181 W/m² 7,8 °C 8,9 °C 0,0 km/h (0 Bft)
21.05.2017 07:50 8,9 °C 8,9 °C 93 % 1025,5 hPa 0,0 mm 0,0 km/h (0 Bft) S 172 ° 0 min 0,000 mm 1,2 UV-I 185 W/m² 7,8 °C 8,9 °C 0,0 km/h (0 Bft)
21.05.2017 07:51 9,1 °C 9,1 °C 93 % 1025,5 hPa 0,0 mm 0,0 km/h (0 Bft) S 172 ° 0 min 0,000 mm 1,2 UV-I 195 W/m² 8,0 °C 9,1 °C 0,0 km/h (0 Bft)
21.05.2017 07:52 9,1 °C 9,1 °C 93 % 1025,5 hPa 0,0 mm 0,0 km/h (0 Bft) S 172 ° 0 min 0,000 mm 1,2 UV-I 200 W/m² 8,0 °C 9,1 °C 0,0 km/h (0 Bft)
21.05.2017 07:53 9,1 °C 9,1 °C 92 % 1025,4 hPa 0,0 mm 0,0 km/h (0 Bft) S 172 ° 0 min 0,000 mm 1,2 UV-I 207 W/m² 7,9 °C 9,1 °C 0,0 km/h (0 Bft)
21.05.2017 07:54 9,2 °C 9,2 °C 92 % 1025,4 hPa 0,0 mm 0,0 km/h (0 Bft) S 172 ° 0 min 0,000 mm 1,3 UV-I 214 W/m² 8,0 °C 9,2 °C 0,0 km/h (0 Bft)
21.05.2017 07:55 9,2 °C 9,2 °C 92 % 1025,4 hPa 0,0 mm 0,0 km/h (0 Bft) S 172 ° 0 min 0,000 mm 1,3 UV-I 220 W/m² 8,0 °C 9,2 °C 0,0 km/h (0 Bft)
21.05.2017 07:56 9,3 °C 9,3 °C 91 % 1025,4 hPa 0,0 mm 0,1 km/h (0 Bft) S 172 ° 0 min 0,000 mm 1,3 UV-I 230 W/m² 7,9 °C 9,3 °C 1,6 km/h (1 Bft)
21.05.2017 07:57 9,4 °C 9,4 °C 91 % 1025,4 hPa 0,0 mm 0,0 km/h (0 Bft) S 172 ° 0 min 0,000 mm 1,3 UV-I 236 W/m² 8,0 °C 9,4 °C 0,0 km/h (0 Bft)
21.05.2017 07:58 9,5 °C 9,5 °C 91 % 1025,4 hPa 0,0 mm 0,0 km/h (0 Bft) S 172 ° 0 min 0,000 mm 1,3 UV-I 239 W/m² 8,1 °C 9,5 °C 0,0 km/h (0 Bft)
21.05.2017 07:59 9,6 °C 9,6 °C 90 % 1025,5 hPa 0,0 mm 1,0 km/h (0 Bft) SO 137 ° 0 min 0,000 mm 1,3 UV-I 246 W/m² 8,0 °C 9,6 °C 3,2 km/h (1 Bft)
21.05.2017 08:00 9,6 °C 9,7 °C 89 % 1025,4 hPa 0,0 mm 0,6 km/h (0 Bft) SO 126 ° 0 min 0,077 mm 1,3 UV-I 251 W/m² 7,9 °C 9,6 °C 3,2 km/h (1 Bft)
21.05.2017 08:01 9,7 °C 9,7 °C 90 % 1025,4 hPa 0,0 mm 1,2 km/h (1 Bft) SO 126 ° 0 min 0,000 mm 1,3 UV-I 257 W/m² 8,1 °C 9,7 °C 3,2 km/h (1 Bft)
21.05.2017 08:02 9,7 °C 9,7 °C 90 % 1025,4 hPa 0,0 mm 1,6 km/h (1 Bft) O-SO 118 ° 0 min 0,000 mm 1,4 UV-I 265 W/m² 8,1 °C 9,7 °C 3,2 km/h (1 Bft)
21.05.2017 08:03 9,8 °C 9,8 °C 90 % 1025,5 hPa 0,0 mm 1,9 km/h (1 Bft) O-SO 118 ° 0 min 0,000 mm 1,4 UV-I 271 W/m² 8,2 °C 9,8 °C 3,2 km/h (1 Bft)
21.05.2017 08:04 9,8 °C 9,8 °C 89 % 1025,5 hPa 0,0 mm 0,0 km/h (0 Bft) O-SO 118 ° 0 min 0,000 mm 1,4 UV-I 278 W/m² 8,1 °C 9,8 °C 0,0 km/h (0 Bft)
21.05.2017 08:05 9,8 °C 9,8 °C 88 % 1025,5 hPa 0,0 mm 0,3 km/h (0 Bft) O-SO 118 ° 0 min 0,000 mm 1,4 UV-I 281 W/m² 7,9 °C 9,8 °C 1,6 km/h (1 Bft)
21.05.2017 08:06 9,9 °C 9,9 °C 88 % 1025,5 hPa 0,0 mm 0,3 km/h (0 Bft) O-SO 118 ° 0 min 0,000 mm 1,4 UV-I 287 W/m² 8,0 °C 9,9 °C 1,6 km/h (1 Bft)
21.05.2017 08:07 9,9 °C 9,9 °C 87 % 1025,4 hPa 0,0 mm 0,8 km/h (0 Bft) O-SO 118 ° 1 min 0,000 mm 1,5 UV-I 292 W/m² 7,8 °C 9,9 °C 1,6 km/h (1 Bft)
21.05.2017 08:08 10,0 °C 10,0 °C 86 % 1025,4 hPa 0,0 mm 1,1 km/h (1 Bft) O-SO 112 ° 1 min 0,000 mm 1,5 UV-I 299 W/m² 7,8 °C 10,0 °C 4,8 km/h (1 Bft)
21.05.2017 08:09 10,1 °C 10,1 °C 86 % 1025,4 hPa 0,0 mm 3,1 km/h (1 Bft) O-SO 112 ° 1 min 0,000 mm 1,5 UV-I 304 W/m² 7,9 °C 10,1 °C 4,8 km/h (1 Bft)
21.05.2017 08:10 10,1 °C 10,1 °C 85 % 1025,4 hPa 0,0 mm 1,1 km/h (1 Bft) O-SO 112 ° 1 min 0,000 mm 1,5 UV-I 309 W/m² 7,7 °C 10,1 °C 3,2 km/h (1 Bft)
21.05.2017 08:11 10,1 °C 10,1 °C 85 % 1025,4 hPa 0,0 mm 0,2 km/h (0 Bft) O-SO 111 ° 1 min 0,000 mm 1,5 UV-I 313 W/m² 7,7 °C 10,1 °C 1,6 km/h (1 Bft)
21.05.2017 08:12 10,1 °C 10,1 °C 87 % 1025,4 hPa 0,0 mm 3,1 km/h (1 Bft) O 82 ° 1 min 0,000 mm 1,6 UV-I 316 W/m² 8,0 °C 10,1 °C 3,2 km/h (1 Bft)
21.05.2017 08:13 10,2 °C 10,2 °C 86 % 1025,4 hPa 0,0 mm 1,3 km/h (1 Bft) O 82 ° 1 min 0,000 mm 1,6 UV-I 320 W/m² 8,0 °C 10,2 °C 3,2 km/h (1 Bft)
21.05.2017 08:14 10,3 °C 10,3 °C 86 % 1025,4 hPa 0,0 mm 4,0 km/h (1 Bft) N-NO 25 ° 1 min 0,000 mm 1,6 UV-I 325 W/m² 8,1 °C 10,3 °C 6,4 km/h (2 Bft)
21.05.2017 08:15 10,4 °C 10,4 °C 85 % 1025,4 hPa 0,0 mm 5,3 km/h (1 Bft) N-NO 19 ° 1 min 0,000 mm 1,6 UV-I 332 W/m² 8,0 °C 10,4 °C 6,4 km/h (2 Bft)
21.05.2017 08:16 10,6 °C 10,6 °C 84 % 1025,4 hPa 0,0 mm 7,0 km/h (2 Bft) O-NO 72 ° 1 min 0,000 mm 1,7 UV-I 336 W/m² 8,0 °C 10,6 °C 8,0 km/h (2 Bft)
21.05.2017 08:17 10,6 °C 10,6 °C 81 % 1025,4 hPa 0,0 mm 4,4 km/h (1 Bft) O-NO 69 ° 1 min 0,000 mm 1,7 UV-I 339 W/m² 7,5 °C 10,6 °C 6,4 km/h (2 Bft)
21.05.2017 08:18 10,6 °C 10,6 °C 81 % 1025,4 hPa 0,0 mm 3,8 km/h (1 Bft) O-NO 74 ° 1 min 0,000 mm 1,7 UV-I 341 W/m² 7,5 °C 10,6 °C 4,8 km/h (1 Bft)
21.05.2017 08:19 10,6 °C 10,6 °C 82 % 1025,4 hPa 0,0 mm 3,6 km/h (1 Bft) O-NO 62 ° 1 min 0,000 mm 1,7 UV-I 345 W/m² 7,7 °C 10,6 °C 6,4 km/h (2 Bft)
21.05.2017 08:20 10,5 °C 10,6 °C 81 % 1025,4 hPa 0,0 mm 1,5 km/h (1 Bft) NO 46 ° 1 min 0,000 mm 1,7 UV-I 352 W/m² 7,4 °C 10,5 °C 4,8 km/h (1 Bft)
21.05.2017 08:21 10,5 °C 10,6 °C 82 % 1025,4 hPa 0,0 mm 4,8 km/h (1 Bft) NO 44 ° 1 min 0,000 mm 1,7 UV-I 355 W/m² 7,6 °C 10,5 °C 8,0 km/h (2 Bft)
21.05.2017 08:22 10,6 °C 10,6 °C 81 % 1025,4 hPa 0,0 mm 4,8 km/h (1 Bft) N-NO 12 ° 1 min 0,000 mm 1,8 UV-I 357 W/m² 7,5 °C 10,6 °C 6,4 km/h (2 Bft)
21.05.2017 08:23 10,7 °C 10,7 °C 81 % 1025,4 hPa 0,0 mm 4,3 km/h (1 Bft) N-NO 25 ° 1 min 0,000 mm 1,8 UV-I 357 W/m² 7,6 °C 10,7 °C 8,0 km/h (2 Bft)
21.05.2017 08:24 10,7 °C 10,7 °C 81 % 1025,4 hPa 0,0 mm 2,2 km/h (1 Bft) NO 56 ° 1 min 0,000 mm 1,8 UV-I 360 W/m² 7,6 °C 10,7 °C 4,8 km/h (1 Bft)
21.05.2017 08:25 10,7 °C 10,7 °C 81 % 1025,4 hPa 0,0 mm 3,6 km/h (1 Bft) NO 54 ° 1 min 0,000 mm 1,8 UV-I 362 W/m² 7,6 °C 10,7 °C 4,8 km/h (1 Bft)
21.05.2017 08:26 10,7 °C 10,7 °C 81 % 1025,4 hPa 0,0 mm 4,8 km/h (1 Bft) O 82 ° 1 min 0,000 mm 1,8 UV-I 367 W/m² 7,6 °C 10,7 °C 8,0 km/h (2 Bft)
21.05.2017 08:27 10,7 °C 10,7 °C 82 % 1025,4 hPa 0,0 mm 2,1 km/h (1 Bft) O 88 ° 1 min 0,000 mm 1,9 UV-I 371 W/m² 7,8 °C 10,7 °C 4,8 km/h (1 Bft)
21.05.2017 08:28 10,7 °C 10,7 °C 82 % 1025,4 hPa 0,0 mm 4,7 km/h (1 Bft) O 97 ° 1 min 0,000 mm 1,9 UV-I 373 W/m² 7,8 °C 10,7 °C 6,4 km/h (2 Bft)
21.05.2017 08:29 10,7 °C 10,7 °C 81 % 1025,3 hPa 0,0 mm 2,2 km/h (1 Bft) O 97 ° 1 min 0,000 mm 1,9 UV-I 374 W/m² 7,6 °C 10,7 °C 3,2 km/h (1 Bft)
21.05.2017 08:30 10,8 °C 10,8 °C 83 % 1025,4 hPa 0,0 mm 3,7 km/h (1 Bft) O-NO 67 ° 1 min 0,000 mm 1,9 UV-I 376 W/m² 8,0 °C 10,8 °C 4,8 km/h (1 Bft)
21.05.2017 08:31 10,8 °C 10,8 °C 83 % 1025,4 hPa 0,0 mm 4,2 km/h (1 Bft) N 5 ° 1 min 0,000 mm 1,9 UV-I 381 W/m² 8,0 °C 10,8 °C 6,4 km/h (2 Bft)
21.05.2017 08:32 10,8 °C 10,8 °C 82 % 1025,4 hPa 0,0 mm 3,5 km/h (1 Bft) N-NO 12 ° 1 min 0,000 mm 1,9 UV-I 383 W/m² 7,9 °C 10,8 °C 6,4 km/h (2 Bft)
21.05.2017 08:33 10,9 °C 10,9 °C 84 % 1025,4 hPa 0,0 mm 3,7 km/h (1 Bft) N 5 ° 1 min 0,000 mm 2,0 UV-I 385 W/m² 8,3 °C 10,9 °C 6,4 km/h (2 Bft)
21.05.2017 08:34 11,1 °C 11,1 °C 83 % 1025,4 hPa 0,0 mm 7,1 km/h (2 Bft) N 11 ° 1 min 0,000 mm 2,0 UV-I 390 W/m² 8,3 °C 11,1 °C 11,3 km/h (2 Bft)
21.05.2017 08:35 11,2 °C 11,2 °C 81 % 1025,4 hPa 0,0 mm 6,0 km/h (2 Bft) N 5 ° 1 min 0,000 mm 2,0 UV-I 390 W/m² 8,1 °C 11,2 °C 8,0 km/h (2 Bft)
21.05.2017 08:36 11,1 °C 11,2 °C 81 % 1025,4 hPa 0,0 mm 7,2 km/h (2 Bft) O-NO 61 ° 1 min 0,000 mm 2,0 UV-I 394 W/m² 8,0 °C 11,1 °C 11,3 km/h (2 Bft)
21.05.2017 08:37 11,1 °C 11,1 °C 80 % 1025,4 hPa 0,0 mm 4,0 km/h (1 Bft) O-NO 69 ° 1 min 0,000 mm 2,1 UV-I 401 W/m² 7,8 °C 11,1 °C 8,0 km/h (2 Bft)
21.05.2017 08:38 10,9 °C 11,1 °C 79 % 1025,4 hPa 0,0 mm 5,0 km/h (1 Bft) NO 34 ° 1 min 0,000 mm 2,1 UV-I 403 W/m² 7,4 °C 10,9 °C 8,0 km/h (2 Bft)
21.05.2017 08:39 10,9 °C 10,9 °C 80 % 1025,4 hPa 0,0 mm 2,0 km/h (1 Bft) NO 51 ° 1 min 0,000 mm 2,1 UV-I 404 W/m² 7,6 °C 10,9 °C 6,4 km/h (2 Bft)
21.05.2017 08:40 10,9 °C 10,9 °C 81 % 1025,5 hPa 0,0 mm 6,4 km/h (2 Bft) NO 48 ° 1 min 0,000 mm 2,1 UV-I 408 W/m² 7,8 °C 10,9 °C 9,7 km/h (2 Bft)
21.05.2017 08:41 10,9 °C 10,9 °C 79 % 1025,4 hPa 0,0 mm 4,5 km/h (1 Bft) O-NO 69 ° 1 min 0,000 mm 2,2 UV-I 410 W/m² 7,4 °C 10,9 °C 6,4 km/h (2 Bft)
21.05.2017 08:42 10,9 °C 10,9 °C 78 % 1025,4 hPa 0,0 mm 4,2 km/h (1 Bft) O 82 ° 1 min 0,000 mm 2,2 UV-I 411 W/m² 7,2 °C 10,9 °C 6,4 km/h (2 Bft)
21.05.2017 08:43 10,9 °C 10,9 °C 80 % 1025,4 hPa 0,0 mm 7,4 km/h (2 Bft) O 96 ° 1 min 0,000 mm 2,2 UV-I 413 W/m² 7,6 °C 10,9 °C 12,9 km/h (3 Bft)
21.05.2017 08:44 10,8 °C 10,9 °C 80 % 1025,4 hPa 0,0 mm 4,9 km/h (1 Bft) NO 49 ° 1 min 0,000 mm 2,2 UV-I 420 W/m² 7,5 °C 10,8 °C 8,0 km/h (2 Bft)
21.05.2017 08:45 10,9 °C 10,9 °C 79 % 1025,4 hPa 0,0 mm 5,3 km/h (1 Bft) N 11 ° 1 min 0,000 mm 2,2 UV-I 420 W/m² 7,4 °C 10,9 °C 8,0 km/h (2 Bft)
21.05.2017 08:46 11,0 °C 11,0 °C 81 % 1025,4 hPa 0,0 mm 5,0 km/h (1 Bft) NO 51 ° 1 min 0,000 mm 2,2 UV-I 425 W/m² 7,9 °C 11,0 °C 6,4 km/h (2 Bft)
21.05.2017 08:47 11,1 °C 11,1 °C 79 % 1025,4 hPa 0,0 mm 5,4 km/h (1 Bft) NO 52 ° 1 min 0,000 mm 2,3 UV-I 429 W/m² 7,6 °C 11,1 °C 6,4 km/h (2 Bft)
21.05.2017 08:48 11,1 °C 11,1 °C 78 % 1025,4 hPa 0,0 mm 4,7 km/h (1 Bft) NO 38 ° 1 min 0,000 mm 2,3 UV-I 432 W/m² 7,4 °C 11,1 °C 6,4 km/h (2 Bft)
21.05.2017 08:49 11,2 °C 11,2 °C 77 % 1025,4 hPa 0,0 mm 4,6 km/h (1 Bft) O-NO 76 ° 1 min 0,000 mm 2,3 UV-I 436 W/m² 7,3 °C 11,2 °C 6,4 km/h (2 Bft)
21.05.2017 08:50 11,2 °C 11,2 °C 78 % 1025,4 hPa 0,0 mm 2,5 km/h (1 Bft) O-NO 75 ° 1 min 0,000 mm 2,3 UV-I 439 W/m² 7,5 °C 11,2 °C 4,8 km/h (1 Bft)
21.05.2017 08:51 11,2 °C 11,2 °C 81 % 1025,4 hPa 0,0 mm 2,4 km/h (1 Bft) NO 40 ° 1 min 0,000 mm 2,4 UV-I 441 W/m² 8,1 °C 11,2 °C 3,2 km/h (1 Bft)
21.05.2017 08:52 11,2 °C 11,3 °C 77 % 1025,4 hPa 0,0 mm 6,7 km/h (2 Bft) NO 56 ° 1 min 0,000 mm 2,4 UV-I 445 W/m² 7,3 °C 11,2 °C 8,0 km/h (2 Bft)
21.05.2017 08:53 11,3 °C 11,3 °C 77 % 1025,3 hPa 0,0 mm 6,4 km/h (2 Bft) O-NO 64 ° 1 min 0,000 mm 2,4 UV-I 450 W/m² 7,4 °C 11,3 °C 9,7 km/h (2 Bft)
21.05.2017 08:54 11,3 °C 11,3 °C 80 % 1025,4 hPa 0,0 mm 4,3 km/h (1 Bft) O-NO 73 ° 1 min 0,000 mm 2,4 UV-I 454 W/m² 8,0 °C 11,3 °C 6,4 km/h (2 Bft)
21.05.2017 08:55 11,4 °C 11,4 °C 77 % 1025,4 hPa 0,0 mm 5,7 km/h (1 Bft) O-NO 68 ° 1 min 0,000 mm 2,5 UV-I 466 W/m² 7,5 °C 11,4 °C 8,0 km/h (2 Bft)
21.05.2017 08:56 11,3 °C 11,4 °C 78 % 1025,4 hPa 0,0 mm 6,5 km/h (2 Bft) NO 53 ° 1 min 0,000 mm 2,5 UV-I 468 W/m² 7,6 °C 11,3 °C 9,7 km/h (2 Bft)
21.05.2017 08:57 11,3 °C 11,3 °C 76 % 1025,4 hPa 0,0 mm 7,0 km/h (2 Bft) O-NO 66 ° 1 min 0,000 mm 2,5 UV-I 469 W/m² 7,2 °C 11,3 °C 9,7 km/h (2 Bft)
21.05.2017 08:58 11,3 °C 11,3 °C 77 % 1025,4 hPa 0,0 mm 6,1 km/h (2 Bft) O-NO 64 ° 1 min 0,000 mm 2,1 UV-I 452 W/m² 7,4 °C 11,3 °C 8,0 km/h (2 Bft)
21.05.2017 08:59 11,3 °C 11,3 °C 76 % 1025,4 hPa 0,0 mm 4,1 km/h (1 Bft) NO 44 ° 1 min 0,000 mm 2,5 UV-I 452 W/m² 7,2 °C 11,3 °C 8,0 km/h (2 Bft)
21.05.2017 09:00 11,3 °C 11,3 °C 77 % 1025,4 hPa 0,0 mm 7,8 km/h (2 Bft) NO 38 ° 1 min 0,177 mm 2,6 UV-I 452 W/m² 7,4 °C 11,3 °C 9,7 km/h (2 Bft)
21.05.2017 09:01 11,3 °C 11,3 °C 76 % 1025,4 hPa 0,0 mm 5,6 km/h (1 Bft) O-NO 74 ° 1 min 0,000 mm 2,6 UV-I 483 W/m² 7,2 °C 11,3 °C 8,0 km/h (2 Bft)
21.05.2017 09:02 11,3 °C 11,3 °C 77 % 1025,4 hPa 0,0 mm 6,1 km/h (2 Bft) O 84 ° 1 min 0,000 mm 2,6 UV-I 485 W/m² 7,4 °C 11,3 °C 11,3 km/h (2 Bft)
21.05.2017 09:03 11,3 °C 11,3 °C 77 % 1025,4 hPa 0,0 mm 4,1 km/h (1 Bft) N-NO 33 ° 1 min 0,000 mm 2,6 UV-I 483 W/m² 7,4 °C 11,3 °C 6,4 km/h (2 Bft)
21.05.2017 09:04 11,3 °C 11,4 °C 78 % 1025,4 hPa 0,0 mm 2,0 km/h (1 Bft) NO 40 ° 1 min 0,000 mm 2,7 UV-I 490 W/m² 7,6 °C 11,3 °C 6,4 km/h (2 Bft)
21.05.2017 09:05 11,3 °C 11,4 °C 78 % 1025,4 hPa 0,0 mm 3,3 km/h (1 Bft) NO 37 ° 1 min 0,000 mm 2,7 UV-I 496 W/m² 7,6 °C 11,3 °C 4,8 km/h (1 Bft)
21.05.2017 09:06 11,4 °C 11,4 °C 78 % 1025,5 hPa 0,0 mm 5,8 km/h (2 Bft) O-NO 78 ° 1 min 0,000 mm 2,7 UV-I 434 W/m² 7,7 °C 11,4 °C 11,3 km/h (2 Bft)
21.05.2017 09:07 11,5 °C 11,5 °C 78 % 1025,5 hPa 0,0 mm 3,1 km/h (1 Bft) NO 53 ° 1 min 0,000 mm 2,7 UV-I 512 W/m² 7,8 °C 11,5 °C 8,0 km/h (2 Bft)
21.05.2017 09:08 11,6 °C 11,6 °C 78 % 1025,3 hPa 0,0 mm 5,5 km/h (1 Bft) O-NO 57 ° 1 min 0,000 mm 2,8 UV-I 510 W/m² 7,9 °C 11,6 °C 8,0 km/h (2 Bft)
21.05.2017 09:09 11,6 °C 11,6 °C 76 % 1025,4 hPa 0,0 mm 6,5 km/h (2 Bft) NO 50 ° 1 min 0,000 mm 2,8 UV-I 512 W/m² 7,5 °C 11,6 °C 9,7 km/h (2 Bft)
21.05.2017 09:10 11,6 °C 11,6 °C 78 % 1025,4 hPa 0,0 mm 4,5 km/h (1 Bft) O-NO 67 ° 1 min 0,000 mm 2,7 UV-I 504 W/m² 7,9 °C 11,6 °C 6,4 km/h (2 Bft)
21.05.2017 09:11 11,7 °C 11,7 °C 77 % 1025,3 hPa 0,0 mm 8,5 km/h (2 Bft) NO 53 ° 1 min 0,000 mm 2,8 UV-I 517 W/m² 7,8 °C 11,7 °C 12,9 km/h (3 Bft)
21.05.2017 09:12 11,7 °C 11,7 °C 76 % 1025,4 hPa 0,0 mm 6,3 km/h (2 Bft) O-NO 69 ° 1 min 0,000 mm 2,9 UV-I 527 W/m² 7,6 °C 11,7 °C 8,0 km/h (2 Bft)
21.05.2017 09:13 11,8 °C 11,8 °C 77 % 1025,4 hPa 0,0 mm 5,3 km/h (1 Bft) O-SO 102 ° 1 min 0,000 mm 2,9 UV-I 531 W/m² 7,9 °C 11,8 °C 11,3 km/h (2 Bft)
21.05.2017 09:14 11,8 °C 11,8 °C 76 % 1025,3 hPa 0,0 mm 4,1 km/h (1 Bft) NO 36 ° 1 min 0,000 mm 2,9 UV-I 531 W/m² 7,7 °C 11,8 °C 11,3 km/h (2 Bft)
21.05.2017 09:15 11,8 °C 11,8 °C 76 % 1025,3 hPa 0,0 mm 8,4 km/h (2 Bft) N-NO 19 ° 1 min 0,000 mm 3,0 UV-I 541 W/m² 7,7 °C 11,8 °C 14,5 km/h (3 Bft)
21.05.2017 09:16 11,8 °C 11,8 °C 76 % 1025,3 hPa 0,0 mm 4,6 km/h (1 Bft) O 86 ° 1 min 0,000 mm 2,5 UV-I 515 W/m² 7,7 °C 11,8 °C 14,5 km/h (3 Bft)
21.05.2017 09:17 11,8 °C 11,8 °C 77 % 1025,3 hPa 0,0 mm 9,1 km/h (2 Bft) NO 55 ° 1 min 0,000 mm 2,6 UV-I 515 W/m² 7,9 °C 11,8 °C 14,5 km/h (3 Bft)
21.05.2017 09:18 11,7 °C 11,8 °C 75 % 1025,3 hPa 0,0 mm 4,8 km/h (1 Bft) O-NO 58 ° 1 min 0,000 mm 3,0 UV-I 515 W/m² 7,4 °C 11,7 °C 6,4 km/h (2 Bft)
21.05.2017 09:19 11,7 °C 11,8 °C 75 % 1025,3 hPa 0,0 mm 4,2 km/h (1 Bft) O-NO 62 ° 1 min 0,000 mm 3,1 UV-I 550 W/m² 7,4 °C 11,7 °C 8,0 km/h (2 Bft)
21.05.2017 09:20 11,7 °C 11,7 °C 76 % 1025,3 hPa 0,0 mm 6,0 km/h (2 Bft) N-NO 33 ° 1 min 0,000 mm 3,1 UV-I 547 W/m² 7,6 °C 11,7 °C 9,7 km/h (2 Bft)
21.05.2017 09:21 11,6 °C 11,7 °C 75 % 1025,3 hPa 0,0 mm 4,8 km/h (1 Bft) NO 53 ° 1 min 0,000 mm 3,1 UV-I 554 W/m² 7,3 °C 11,6 °C 8,0 km/h (2 Bft)
21.05.2017 09:22 11,7 °C 11,7 °C 77 % 1025,3 hPa 0,0 mm 6,8 km/h (2 Bft) O 85 ° 1 min 0,000 mm 3,1 UV-I 510 W/m² 7,8 °C 11,7 °C 8,0 km/h (2 Bft)
21.05.2017 09:23 11,8 °C 11,8 °C 75 % 1025,3 hPa 0,0 mm 4,9 km/h (1 Bft) NO 52 ° 1 min 0,000 mm 3,2 UV-I 557 W/m² 7,5 °C 11,8 °C 6,4 km/h (2 Bft)
21.05.2017 09:24 11,7 °C 11,8 °C 74 % 1025,3 hPa 0,0 mm 4,6 km/h (1 Bft) NO 53 ° 1 min 0,000 mm 3,1 UV-I 559 W/m² 7,2 °C 11,7 °C 6,4 km/h (2 Bft)
21.05.2017 09:25 11,8 °C 11,8 °C 76 % 1025,3 hPa 0,0 mm 6,3 km/h (2 Bft) SO 136 ° 1 min 0,000 mm 3,2 UV-I 566 W/m² 7,7 °C 11,8 °C 8,0 km/h (2 Bft)
21.05.2017 09:26 11,8 °C 11,9 °C 75 % 1025,2 hPa 0,0 mm 5,2 km/h (1 Bft) O-NO 71 ° 1 min 0,000 mm 3,2 UV-I 563 W/m² 7,5 °C 11,8 °C 11,3 km/h (2 Bft)
21.05.2017 09:27 11,9 °C 11,9 °C 77 % 1025,2 hPa 0,0 mm 7,0 km/h (2 Bft) NO 53 ° 1 min 0,000 mm 3,2 UV-I 570 W/m² 8,0 °C 11,9 °C 11,3 km/h (2 Bft)
21.05.2017 09:28 12,0 °C 12,0 °C 77 % 1025,2 hPa 0,0 mm 3,3 km/h (1 Bft) O-NO 73 ° 1 min 0,000 mm 3,3 UV-I 575 W/m² 8,1 °C 12,0 °C 6,4 km/h (2 Bft)
21.05.2017 09:29 12,1 °C 12,1 °C 74 % 1025,2 hPa 0,0 mm 7,8 km/h (2 Bft) O-NO 65 ° 1 min 0,000 mm 3,3 UV-I 578 W/m² 7,6 °C 12,1 °C 14,5 km/h (3 Bft)
21.05.2017 09:30 12,1 °C 12,1 °C 74 % 1025,2 hPa 0,0 mm 9,4 km/h (2 Bft) NO 46 ° 1 min 0,000 mm 3,4 UV-I 584 W/m² 7,6 °C 12,1 °C 16,1 km/h (3 Bft)
21.05.2017 09:31 12,1 °C 12,1 °C 73 % 1025,2 hPa 0,0 mm 5,9 km/h (2 Bft) N-NO 18 ° 1 min 0,000 mm 3,3 UV-I 582 W/m² 7,4 °C 12,1 °C 11,3 km/h (2 Bft)
21.05.2017 09:32 12,1 °C 12,1 °C 74 % 1025,1 hPa 0,0 mm 6,0 km/h (2 Bft) N-NO 33 ° 1 min 0,000 mm 3,4 UV-I 584 W/m² 7,6 °C 12,1 °C 8,0 km/h (2 Bft)
21.05.2017 09:33 12,2 °C 12,2 °C 74 % 1025,1 hPa 0,0 mm 3,3 km/h (1 Bft) NO 39 ° 1 min 0,000 mm 3,4 UV-I 582 W/m² 7,7 °C 12,2 °C 8,0 km/h (2 Bft)
21.05.2017 09:34 12,2 °C 12,2 °C 73 % 1025,2 hPa 0,0 mm 6,3 km/h (2 Bft) O-NO 58 ° 1 min 0,000 mm 3,4 UV-I 582 W/m² 7,5 °C 12,2 °C 11,3 km/h (2 Bft)
21.05.2017 09:35 12,1 °C 12,2 °C 72 % 1025,2 hPa 0,0 mm 6,9 km/h (2 Bft) NO 54 ° 1 min 0,000 mm 3,4 UV-I 589 W/m² 7,2 °C 12,1 °C 12,9 km/h (3 Bft)
21.05.2017 09:36 12,1 °C 12,1 °C 74 % 1025,2 hPa 0,0 mm 4,6 km/h (1 Bft) O-NO 61 ° 1 min 0,000 mm 3,4 UV-I 596 W/m² 7,6 °C 12,1 °C 8,0 km/h (2 Bft)
21.05.2017 09:37 12,1 °C 12,1 °C 74 % 1025,2 hPa 0,0 mm 5,7 km/h (1 Bft) NO 46 ° 1 min 0,000 mm 3,5 UV-I 598 W/m² 7,6 °C 12,1 °C 8,0 km/h (2 Bft)
21.05.2017 09:38 12,2 °C 12,2 °C 75 % 1025,2 hPa 0,0 mm 5,3 km/h (1 Bft) O-NO 68 ° 1 min 0,000 mm 3,5 UV-I 598 W/m² 7,9 °C 12,2 °C 11,3 km/h (2 Bft)
21.05.2017 09:39 12,2 °C 12,3 °C 73 % 1025,1 hPa 0,0 mm 4,3 km/h (1 Bft) O-NO 69 ° 1 min 0,000 mm 3,5 UV-I 603 W/m² 7,5 °C 12,2 °C 6,4 km/h (2 Bft)
21.05.2017 09:40 12,3 °C 12,3 °C 73 % 1025,2 hPa 0,0 mm 3,3 km/h (1 Bft) O 84 ° 1 min 0,000 mm 3,6 UV-I 605 W/m² 7,6 °C 12,3 °C 6,4 km/h (2 Bft)
21.05.2017 09:41 12,3 °C 12,3 °C 74 % 1025,1 hPa 0,0 mm 4,6 km/h (1 Bft) NO 45 ° 1 min 0,000 mm 3,6 UV-I 605 W/m² 7,8 °C 12,3 °C 9,7 km/h (2 Bft)
21.05.2017 09:42 12,3 °C 12,3 °C 74 % 1025,1 hPa 0,0 mm 6,2 km/h (2 Bft) O-SO 105 ° 1 min 0,000 mm 3,6 UV-I 608 W/m² 7,8 °C 12,3 °C 11,3 km/h (2 Bft)
21.05.2017 09:43 12,3 °C 12,3 °C 74 % 1025,1 hPa 0,0 mm 4,6 km/h (1 Bft) NO 37 ° 1 min 0,000 mm 3,6 UV-I 613 W/m² 7,8 °C 12,3 °C 8,0 km/h (2 Bft)
21.05.2017 09:44 12,4 °C 12,4 °C 75 % 1025,1 hPa 0,0 mm 9,4 km/h (2 Bft) O-NO 59 ° 1 min 0,000 mm 3,7 UV-I 619 W/m² 8,1 °C 12,4 °C 14,5 km/h (3 Bft)
21.05.2017 09:45 12,3 °C 12,4 °C 73 % 1025,1 hPa 0,0 mm 6,0 km/h (2 Bft) NO 49 ° 1 min 0,000 mm 3,7 UV-I 621 W/m² 7,6 °C 12,3 °C 8,0 km/h (2 Bft)
21.05.2017 09:46 12,3 °C 12,3 °C 73 % 1025,1 hPa 0,0 mm 5,2 km/h (1 Bft) O-NO 70 ° 1 min 0,000 mm 3,7 UV-I 621 W/m² 7,6 °C 12,3 °C 6,4 km/h (2 Bft)
21.05.2017 09:47 12,2 °C 12,3 °C 74 % 1025,0 hPa 0,0 mm 4,3 km/h (1 Bft) N 11 ° 1 min 0,000 mm 3,7 UV-I 624 W/m² 7,7 °C 12,2 °C 6,4 km/h (2 Bft)
21.05.2017 09:48 12,2 °C 12,2 °C 75 % 1025,0 hPa 0,0 mm 5,5 km/h (1 Bft) O-NO 68 ° 1 min 0,000 mm 3,7 UV-I 628 W/m² 7,9 °C 12,2 °C 9,7 km/h (2 Bft)
21.05.2017 09:49 12,2 °C 12,2 °C 73 % 1025,0 hPa 0,0 mm 3,6 km/h (1 Bft) N 11 ° 1 min 0,000 mm 3,8 UV-I 628 W/m² 7,5 °C 12,2 °C 6,4 km/h (2 Bft)
21.05.2017 09:50 12,3 °C 12,3 °C 74 % 1025,0 hPa 0,0 mm 5,6 km/h (1 Bft) O-NO 70 ° 1 min 0,000 mm 3,8 UV-I 633 W/m² 7,8 °C 12,3 °C 12,9 km/h (3 Bft)
21.05.2017 09:51 12,4 °C 12,4 °C 75 % 1025,0 hPa 0,0 mm 4,2 km/h (1 Bft) O 88 ° 1 min 0,000 mm 3,9 UV-I 635 W/m² 8,1 °C 12,4 °C 8,0 km/h (2 Bft)
21.05.2017 09:52 12,5 °C 12,5 °C 73 % 1025,0 hPa 0,0 mm 4,3 km/h (1 Bft) O 99 ° 1 min 0,000 mm 3,9 UV-I 638 W/m² 7,8 °C 12,5 °C 6,4 km/h (2 Bft)
21.05.2017 09:53 12,6 °C 12,6 °C 75 % 1025,0 hPa 0,0 mm 7,8 km/h (2 Bft) O 92 ° 1 min 0,000 mm 3,9 UV-I 642 W/m² 8,3 °C 12,6 °C 12,9 km/h (3 Bft)
21.05.2017 09:54 12,7 °C 12,7 °C 74 % 1025,0 hPa 0,0 mm 7,8 km/h (2 Bft) SO 128 ° 1 min 0,000 mm 3,9 UV-I 642 W/m² 8,2 °C 12,7 °C 12,9 km/h (3 Bft)
21.05.2017 09:55 12,6 °C 12,7 °C 70 % 1025,0 hPa 0,0 mm 8,0 km/h (2 Bft) O-SO 121 ° 1 min 0,000 mm 3,9 UV-I 642 W/m² 7,3 °C 12,6 °C 11,3 km/h (2 Bft)
21.05.2017 09:56 12,6 °C 12,7 °C 72 % 1025,0 hPa 0,0 mm 9,9 km/h (2 Bft) O 91 ° 1 min 0,000 mm 4,0 UV-I 652 W/m² 7,7 °C 12,6 °C 12,9 km/h (3 Bft)
21.05.2017 09:57 12,4 °C 12,6 °C 71 % 1025,0 hPa 0,0 mm 7,6 km/h (2 Bft) O 96 ° 1 min 0,000 mm 4,0 UV-I 649 W/m² 7,3 °C 12,4 °C 12,9 km/h (3 Bft)
21.05.2017 09:58 12,4 °C 12,4 °C 75 % 1025,0 hPa 0,0 mm 5,9 km/h (2 Bft) NO 53 ° 1 min 0,000 mm 4,0 UV-I 652 W/m² 8,1 °C 12,4 °C 9,7 km/h (2 Bft)
21.05.2017 09:59 12,6 °C 12,6 °C 73 % 1025,0 hPa 0,0 mm 7,7 km/h (2 Bft) N-NO 30 ° 1 min 0,000 mm 4,0 UV-I 663 W/m² 7,9 °C 12,6 °C 9,7 km/h (2 Bft)
21.05.2017 10:00 12,7 °C 12,7 °C 74 % 1025,0 hPa 0,0 mm 6,4 km/h (2 Bft) NO 44 ° 1 min 0,280 mm 4,1 UV-I 670 W/m² 8,2 °C 12,7 °C 14,5 km/h (3 Bft)
21.05.2017 10:01 12,7 °C 12,7 °C 72 % 1025,0 hPa 0,0 mm 8,2 km/h (2 Bft) O-NO 64 ° 1 min 0,000 mm 4,1 UV-I 675 W/m² 7,8 °C 12,7 °C 14,5 km/h (3 Bft)
21.05.2017 10:02 12,7 °C 12,7 °C 71 % 1025,0 hPa 0,0 mm 8,5 km/h (2 Bft) NO 40 ° 1 min 0,000 mm 4,2 UV-I 677 W/m² 7,6 °C 12,7 °C 11,3 km/h (2 Bft)
21.05.2017 10:03 12,7 °C 12,7 °C 71 % 1025,0 hPa 0,0 mm 2,9 km/h (1 Bft) NO 41 ° 1 min 0,000 mm 4,2 UV-I 679 W/m² 7,6 °C 12,7 °C 6,4 km/h (2 Bft)
21.05.2017 10:04 12,7 °C 12,7 °C 72 % 1024,9 hPa 0,0 mm 6,0 km/h (2 Bft) N-NO 24 ° 1 min 0,000 mm 4,1 UV-I 684 W/m² 7,8 °C 12,7 °C 12,9 km/h (3 Bft)
21.05.2017 10:05 12,7 °C 12,8 °C 71 % 1025,0 hPa 0,0 mm 0,7 km/h (0 Bft) N-NO 28 ° 1 min 0,000 mm 4,2 UV-I 701 W/m² 7,6 °C 12,7 °C 3,2 km/h (1 Bft)
21.05.2017 10:06 12,8 °C 12,8 °C 72 % 1025,0 hPa 0,0 mm 2,7 km/h (1 Bft) O-NO 61 ° 1 min 0,000 mm 4,3 UV-I 694 W/m² 7,9 °C 12,8 °C 6,4 km/h (2 Bft)
21.05.2017 10:07 12,9 °C 12,9 °C 74 % 1025,0 hPa 0,0 mm 7,4 km/h (2 Bft) N-NO 32 ° 1 min 0,000 mm 4,3 UV-I 694 W/m² 8,4 °C 12,9 °C 11,3 km/h (2 Bft)
21.05.2017 10:08 13,1 °C 13,1 °C 72 % 1025,0 hPa 0,0 mm 9,1 km/h (2 Bft) O-NO 67 ° 1 min 0,000 mm 4,3 UV-I 701 W/m² 8,2 °C 13,1 °C 14,5 km/h (3 Bft)
21.05.2017 10:09 13,2 °C 13,2 °C 72 % 1025,0 hPa 0,0 mm 8,1 km/h (2 Bft) O-NO 72 ° 1 min 0,000 mm 4,3 UV-I 717 W/m² 8,3 °C 13,2 °C 11,3 km/h (2 Bft)
21.05.2017 10:10 13,1 °C 13,2 °C 69 % 1025,0 hPa 0,0 mm 10,6 km/h (2 Bft) N-NO 28 ° 1 min 0,000 mm 4,4 UV-I 731 W/m² 7,5 °C 13,1 °C 16,1 km/h (3 Bft)
21.05.2017 10:11 12,9 °C 13,1 °C 69 % 1025,0 hPa 0,0 mm 8,7 km/h (2 Bft) O 82 ° 1 min 0,000 mm 4,4 UV-I 751 W/m² 7,4 °C 12,9 °C 12,9 km/h (3 Bft)
21.05.2017 10:12 12,9 °C 12,9 °C 70 % 1025,0 hPa 0,0 mm 8,6 km/h (2 Bft) N-NO 29 ° 1 min 0,000 mm 4,6 UV-I 772 W/m² 7,6 °C 12,9 °C 14,5 km/h (3 Bft)
21.05.2017 10:13 12,8 °C 12,9 °C 70 % 1024,9 hPa 0,0 mm 8,5 km/h (2 Bft) NO 40 ° 1 min 0,000 mm 4,6 UV-I 773 W/m² 7,5 °C 12,8 °C 9,7 km/h (2 Bft)
21.05.2017 10:14 12,9 °C 12,9 °C 71 % 1024,9 hPa 0,0 mm 8,0 km/h (2 Bft) N-NO 29 ° 1 min 0,000 mm 4,6 UV-I 766 W/m² 7,8 °C 12,9 °C 12,9 km/h (3 Bft)
21.05.2017 10:15 13,2 °C 13,2 °C 71 % 1024,9 hPa 0,0 mm 5,5 km/h (1 Bft) N-NO 17 ° 1 min 0,000 mm 4,5 UV-I 726 W/m² 8,1 °C 13,2 °C 6,4 km/h (2 Bft)
21.05.2017 10:16 13,2 °C 13,2 °C 71 % 1024,9 hPa 0,0 mm 5,5 km/h (1 Bft) O 88 ° 1 min 0,000 mm 4,5 UV-I 738 W/m² 8,1 °C 13,2 °C 8,0 km/h (2 Bft)
21.05.2017 10:17 13,1 °C 13,2 °C 68 % 1024,9 hPa 0,0 mm 7,1 km/h (2 Bft) NO 41 ° 1 min 0,000 mm 4,5 UV-I 726 W/m² 7,3 °C 13,1 °C 12,9 km/h (3 Bft)
21.05.2017 10:18 13,2 °C 13,2 °C 72 % 1024,9 hPa 0,0 mm 8,0 km/h (2 Bft) NO 36 ° 1 min 0,000 mm 4,3 UV-I 744 W/m² 8,3 °C 13,2 °C 9,7 km/h (2 Bft)
21.05.2017 10:19 13,2 °C 13,2 °C 71 % 1024,9 hPa 0,0 mm 10,8 km/h (2 Bft) N-NO 24 ° 1 min 0,000 mm 2,5 UV-I 744 W/m² 8,1 °C 13,2 °C 14,5 km/h (3 Bft)
21.05.2017 10:20 13,1 °C 13,2 °C 70 % 1024,9 hPa 0,0 mm 5,9 km/h (2 Bft) O 87 ° 0 min 0,000 mm 2,2 UV-I 98 W/m² 7,8 °C 13,1 °C 8,0 km/h (2 Bft)
21.05.2017 10:21 12,9 °C 13,1 °C 70 % 1024,9 hPa 0,0 mm 8,8 km/h (2 Bft) O 89 ° 0 min 0,000 mm 2,5 UV-I 167 W/m² 7,6 °C 12,9 °C 14,5 km/h (3 Bft)
21.05.2017 10:22 12,8 °C 12,9 °C 72 % 1024,9 hPa 0,0 mm 4,9 km/h (1 Bft) NO 40 ° 0 min 0,000 mm 3,1 UV-I 199 W/m² 7,9 °C 12,8 °C 9,7 km/h (2 Bft)
21.05.2017 10:23 12,7 °C 12,8 °C 73 % 1024,9 hPa 0,0 mm 7,0 km/h (2 Bft) O-NO 59 ° 0 min 0,000 mm 2,6 UV-I 199 W/m² 8,0 °C 12,7 °C 11,3 km/h (2 Bft)
21.05.2017 10:24 12,6 °C 12,7 °C 71 % 1024,9 hPa 0,0 mm 8,3 km/h (2 Bft) NO 34 ° 0 min 0,000 mm 3,9 UV-I 274 W/m² 7,5 °C 12,6 °C 11,3 km/h (2 Bft)
21.05.2017 10:25 12,7 °C 12,7 °C 72 % 1024,8 hPa 0,0 mm 5,8 km/h (2 Bft) NO 46 ° 0 min 0,000 mm 4,9 UV-I 274 W/m² 7,8 °C 12,7 °C 8,0 km/h (2 Bft)
21.05.2017 10:26 12,7 °C 12,7 °C 71 % 1024,8 hPa 0,0 mm 2,5 km/h (1 Bft) N-NO 29 ° 0 min 0,000 mm 2,5 UV-I 274 W/m² 7,6 °C 12,7 °C 4,8 km/h (1 Bft)
21.05.2017 10:27 12,7 °C 12,7 °C 71 % 1024,8 hPa 0,0 mm 2,9 km/h (1 Bft) NO 36 ° 0 min 0,000 mm 4,4 UV-I 274 W/m² 7,6 °C 12,7 °C 4,8 km/h (1 Bft)
21.05.2017 10:28 12,6 °C 12,7 °C 71 % 1024,8 hPa 0,0 mm 4,0 km/h (1 Bft) O-SO 105 ° 0 min 0,000 mm 4,9 UV-I 274 W/m² 7,5 °C 12,6 °C 16,1 km/h (3 Bft)
21.05.2017 10:29 12,7 °C 12,7 °C 73 % 1024,8 hPa 0,0 mm 10,7 km/h (2 Bft) O-NO 60 ° 0 min 0,000 mm 2,6 UV-I 274 W/m² 8,0 °C 12,7 °C 14,5 km/h (3 Bft)
21.05.2017 10:30 12,7 °C 12,7 °C 72 % 1024,8 hPa 0,0 mm 7,2 km/h (2 Bft) NO 51 ° 0 min 0,000 mm 2,7 UV-I 274 W/m² 7,8 °C 12,7 °C 11,3 km/h (2 Bft)
21.05.2017 10:31 12,8 °C 12,8 °C 73 % 1024,8 hPa 0,0 mm 11,1 km/h (2 Bft) NO 45 ° 1 min 0,000 mm 4,8 UV-I 816 W/m² 8,1 °C 12,8 °C 16,1 km/h (3 Bft)
21.05.2017 10:32 12,8 °C 12,8 °C 70 % 1024,8 hPa 0,0 mm 8,4 km/h (2 Bft) O-NO 76 ° 1 min 0,000 mm 3,8 UV-I 810 W/m² 7,5 °C 12,8 °C 16,1 km/h (3 Bft)
21.05.2017 10:33 12,8 °C 12,8 °C 73 % 1024,8 hPa 0,0 mm 6,4 km/h (2 Bft) N-NO 24 ° 1 min 0,000 mm 5,0 UV-I 861 W/m² 8,1 °C 12,8 °C 11,3 km/h (2 Bft)
21.05.2017 10:34 12,9 °C 12,9 °C 71 % 1024,8 hPa 0,0 mm 7,1 km/h (2 Bft) NO 48 ° 1 min 0,000 mm 5,1 UV-I 877 W/m² 7,8 °C 12,9 °C 14,5 km/h (3 Bft)
21.05.2017 10:35 13,1 °C 13,1 °C 71 % 1024,8 hPa 0,0 mm 7,3 km/h (2 Bft) O 94 ° 1 min 0,000 mm 5,2 UV-I 875 W/m² 8,0 °C 13,1 °C 12,9 km/h (3 Bft)
21.05.2017 10:36 13,2 °C 13,2 °C 71 % 1024,8 hPa 0,0 mm 8,2 km/h (2 Bft) N-NO 27 ° 1 min 0,000 mm 5,1 UV-I 854 W/m² 8,1 °C 13,2 °C 12,9 km/h (3 Bft)
21.05.2017 10:37 13,3 °C 13,3 °C 71 % 1024,8 hPa 0,0 mm 5,3 km/h (1 Bft) NO 38 ° 1 min 0,000 mm 5,1 UV-I 835 W/m² 8,2 °C 13,3 °C 8,0 km/h (2 Bft)
21.05.2017 10:38 13,3 °C 13,4 °C 69 % 1024,8 hPa 0,0 mm 6,2 km/h (2 Bft) O-NO 58 ° 1 min 0,000 mm 5,1 UV-I 824 W/m² 7,7 °C 13,3 °C 12,9 km/h (3 Bft)
21.05.2017 10:39 13,3 °C 13,3 °C 70 % 1024,8 hPa 0,0 mm 6,5 km/h (2 Bft) NO 37 ° 1 min 0,000 mm 5,1 UV-I 823 W/m² 7,9 °C 13,3 °C 12,9 km/h (3 Bft)
21.05.2017 10:40 13,4 °C 13,4 °C 70 % 1024,8 hPa 0,0 mm 12,9 km/h (3 Bft) O-NO 77 ° 1 min 0,000 mm 5,1 UV-I 824 W/m² 8,0 °C 13,4 °C 19,3 km/h (3 Bft)
21.05.2017 10:41 13,4 °C 13,4 °C 70 % 1024,8 hPa 0,0 mm 10,1 km/h (2 Bft) O-SO 121 ° 1 min 0,000 mm 4,9 UV-I 838 W/m² 8,0 °C 13,4 °C 14,5 km/h (3 Bft)
21.05.2017 10:42 13,4 °C 13,4 °C 71 % 1024,8 hPa 0,0 mm 3,8 km/h (1 Bft) O 94 ° 1 min 0,000 mm 3,3 UV-I 865 W/m² 8,3 °C 13,4 °C 9,7 km/h (2 Bft)
21.05.2017 10:43 13,4 °C 13,4 °C 69 % 1024,8 hPa 0,0 mm 7,4 km/h (2 Bft) N-NO 28 ° 1 min 0,000 mm 4,9 UV-I 872 W/m² 7,8 °C 13,4 °C 12,9 km/h (3 Bft)
21.05.2017 10:44 13,4 °C 13,4 °C 69 % 1024,8 hPa 0,0 mm 12,6 km/h (3 Bft) N-NO 32 ° 1 min 0,000 mm 4,5 UV-I 872 W/m² 7,8 °C 13,4 °C 17,7 km/h (3 Bft)
21.05.2017 10:45 13,4 °C 13,4 °C 69 % 1024,8 hPa 0,0 mm 9,2 km/h (2 Bft) O 97 ° 1 min 0,000 mm 4,0 UV-I 872 W/m² 7,8 °C 13,4 °C 14,5 km/h (3 Bft)
21.05.2017 10:46 13,4 °C 13,4 °C 69 % 1024,8 hPa 0,0 mm 6,4 km/h (2 Bft) O-NO 74 ° 1 min 0,000 mm 3,3 UV-I 364 W/m² 7,8 °C 13,4 °C 8,0 km/h (2 Bft)
21.05.2017 10:47 13,3 °C 13,4 °C 67 % 1024,9 hPa 0,0 mm 4,9 km/h (1 Bft) NO 49 ° 1 min 0,000 mm 4,8 UV-I 364 W/m² 7,3 °C 13,3 °C 8,0 km/h (2 Bft)
21.05.2017 10:48 13,1 °C 13,3 °C 67 % 1024,8 hPa 0,0 mm 5,1 km/h (1 Bft) N-NO 23 ° 1 min 0,000 mm 2,2 UV-I 364 W/m² 7,1 °C 13,1 °C 8,0 km/h (2 Bft)
21.05.2017 10:49 13,1 °C 13,1 °C 69 % 1024,8 hPa 0,0 mm 4,5 km/h (1 Bft) O-NO 65 ° 1 min 0,000 mm 2,4 UV-I 364 W/m² 7,5 °C 13,1 °C 6,4 km/h (2 Bft)
21.05.2017 10:50 13,0 °C 13,1 °C 70 % 1024,9 hPa 0,0 mm 2,5 km/h (1 Bft) NO 34 ° 0 min 0,000 mm 2,3 UV-I 221 W/m² 7,7 °C 13,0 °C 4,8 km/h (1 Bft)
21.05.2017 10:51 13,0 °C 13,0 °C 69 % 1024,9 hPa 0,0 mm 3,7 km/h (1 Bft) O-NO 65 ° 0 min 0,000 mm 2,6 UV-I 244 W/m² 7,4 °C 13,0 °C 4,8 km/h (1 Bft)
21.05.2017 10:52 13,1 °C 13,1 °C 71 % 1024,9 hPa 0,0 mm 2,7 km/h (1 Bft) NO 53 ° 0 min 0,000 mm 5,3 UV-I 244 W/m² 8,0 °C 13,1 °C 4,8 km/h (1 Bft)
21.05.2017 10:53 13,2 °C 13,2 °C 74 % 1024,8 hPa 0,0 mm 3,9 km/h (1 Bft) N-NO 29 ° 0 min 0,000 mm 3,4 UV-I 244 W/m² 8,7 °C 13,2 °C 4,8 km/h (1 Bft)
21.05.2017 10:54 13,3 °C 13,3 °C 75 % 1024,8 hPa 0,0 mm 3,8 km/h (1 Bft) N-NW 345 ° 0 min 0,000 mm 4,2 UV-I 244 W/m² 9,0 °C 13,3 °C 6,4 km/h (2 Bft)
21.05.2017 10:55 13,4 °C 13,4 °C 69 % 1024,8 hPa 0,0 mm 5,9 km/h (2 Bft) O-NO 61 ° 0 min 0,000 mm 2,8 UV-I 258 W/m² 7,8 °C 13,4 °C 11,3 km/h (2 Bft)
21.05.2017 10:56 13,4 °C 13,4 °C 69 % 1024,8 hPa 0,0 mm 4,7 km/h (1 Bft) O-SO 107 ° 0 min 0,000 mm 2,9 UV-I 258 W/m² 7,8 °C 13,4 °C 6,4 km/h (2 Bft)
21.05.2017 10:57 13,3 °C 13,4 °C 68 % 1024,8 hPa 0,0 mm 10,0 km/h (2 Bft) O 82 ° 0 min 0,000 mm 2,8 UV-I 258 W/m² 7,5 °C 13,3 °C 14,5 km/h (3 Bft)
21.05.2017 10:58 13,3 °C 13,3 °C 67 % 1024,8 hPa 0,0 mm 6,4 km/h (2 Bft) O-NO 63 ° 0 min 0,000 mm 4,2 UV-I 221 W/m² 7,3 °C 13,3 °C 9,7 km/h (2 Bft)
21.05.2017 10:59 13,2 °C 13,3 °C 68 % 1024,9 hPa 0,0 mm 12,0 km/h (2 Bft) NO 55 ° 0 min 0,000 mm 2,3 UV-I 183 W/m² 7,4 °C 13,2 °C 16,1 km/h (3 Bft)
21.05.2017 11:00 13,1 °C 13,2 °C 67 % 1024,8 hPa 0,0 mm 8,0 km/h (2 Bft) O 79 ° 0 min 0,305 mm 2,5 UV-I 199 W/m² 7,1 °C 13,1 °C 12,9 km/h (3 Bft)
21.05.2017 11:01 13,0 °C 13,1 °C 69 % 1024,8 hPa 0,0 mm 5,7 km/h (1 Bft) O 95 ° 0 min 0,000 mm 2,9 UV-I 199 W/m² 7,4 °C 13,0 °C 9,7 km/h (2 Bft)
21.05.2017 11:02 13,0 °C 13,0 °C 67 % 1024,8 hPa 0,0 mm 8,9 km/h (2 Bft) O 88 ° 0 min 0,000 mm 2,9 UV-I 246 W/m² 7,0 °C 13,0 °C 14,5 km/h (3 Bft)
21.05.2017 11:03 12,9 °C 13,0 °C 68 % 1024,8 hPa 0,0 mm 9,2 km/h (2 Bft) O-NO 63 ° 0 min 0,000 mm 2,6 UV-I 225 W/m² 7,1 °C 12,9 °C 14,5 km/h (3 Bft)
21.05.2017 11:04 13,0 °C 13,0 °C 68 % 1024,8 hPa 0,0 mm 9,3 km/h (2 Bft) O 94 ° 0 min 0,000 mm 5,5 UV-I 225 W/m² 7,2 °C 13,0 °C 12,9 km/h (3 Bft)
21.05.2017 11:05 13,1 °C 13,1 °C 69 % 1024,8 hPa 0,0 mm 7,7 km/h (2 Bft) O-NO 60 ° 0 min 0,000 mm 5,6 UV-I 225 W/m² 7,5 °C 13,1 °C 16,1 km/h (3 Bft)
21.05.2017 11:06 13,2 °C 13,2 °C 68 % 1024,8 hPa 0,0 mm 8,5 km/h (2 Bft) O 89 ° 0 min 0,000 mm 2,5 UV-I 225 W/m² 7,4 °C 13,2 °C 12,9 km/h (3 Bft)
21.05.2017 11:07 13,2 °C 13,2 °C 68 % 1024,8 hPa 0,0 mm 6,1 km/h (2 Bft) N-NO 19 ° 0 min 0,000 mm 2,4 UV-I 171 W/m² 7,4 °C 13,2 °C 16,1 km/h (3 Bft)
21.05.2017 11:08 13,1 °C 13,2 °C 67 % 1024,8 hPa 0,0 mm 7,9 km/h (2 Bft) N-NO 22 ° 0 min 0,000 mm 2,5 UV-I 197 W/m² 7,1 °C 13,1 °C 14,5 km/h (3 Bft)
21.05.2017 11:10 13,2 °C 13,2 °C 67 % 1024,8 hPa 0,0 mm 7,6 km/h (2 Bft) NO 43 ° 0 min 0,000 mm 3,0 UV-I 272 W/m² 7,2 °C 13,2 °C 12,9 km/h (3 Bft)
21.05.2017 11:11 13,2 °C 13,2 °C 67 % 1024,8 hPa 0,0 mm 8,7 km/h (2 Bft) NO 56 ° 0 min 0,000 mm 5,7 UV-I 272 W/m² 7,2 °C 13,2 °C 11,3 km/h (2 Bft)
21.05.2017 11:12 13,2 °C 13,2 °C 67 % 1024,8 hPa 0,0 mm 8,4 km/h (2 Bft) O-NO 76 ° 0 min 0,000 mm 3,7 UV-I 272 W/m² 7,2 °C 13,2 °C 12,9 km/h (3 Bft)
21.05.2017 11:13 13,2 °C 13,2 °C 67 % 1024,8 hPa 0,0 mm 9,9 km/h (2 Bft) O 80 ° 0 min 0,000 mm 5,6 UV-I 272 W/m² 7,2 °C 13,2 °C 12,9 km/h (3 Bft)
21.05.2017 11:14 13,3 °C 13,3 °C 67 % 1024,8 hPa 0,0 mm 5,1 km/h (1 Bft) N 9 ° 0 min 0,000 mm 2,9 UV-I 272 W/m² 7,3 °C 13,3 °C 11,3 km/h (2 Bft)
21.05.2017 11:15 13,4 °C 13,4 °C 68 % 1024,8 hPa 0,0 mm 12,0 km/h (2 Bft) NO 36 ° 0 min 0,000 mm 5,8 UV-I 272 W/m² 7,6 °C 13,4 °C 17,7 km/h (3 Bft)
21.05.2017 11:16 13,6 °C 13,6 °C 65 % 1024,8 hPa 0,0 mm 9,5 km/h (2 Bft) O-NO 71 ° 1 min 0,000 mm 5,9 UV-I 933 W/m² 7,1 °C 13,6 °C 14,5 km/h (3 Bft)
21.05.2017 11:17 13,7 °C 13,7 °C 66 % 1024,8 hPa 0,0 mm 6,5 km/h (2 Bft) O-NO 57 ° 1 min 0,000 mm 5,8 UV-I 926 W/m² 7,5 °C 13,7 °C 9,7 km/h (2 Bft)
21.05.2017 11:18 13,8 °C 13,8 °C 63 % 1024,8 hPa 0,0 mm 6,2 km/h (2 Bft) NO 55 ° 1 min 0,000 mm 5,8 UV-I 946 W/m² 6,9 °C 13,8 °C 9,7 km/h (2 Bft)
21.05.2017 11:19 13,9 °C 13,9 °C 61 % 1024,7 hPa 0,0 mm 9,5 km/h (2 Bft) O-NO 60 ° 1 min 0,000 mm 3,0 UV-I 946 W/m² 6,5 °C 13,9 °C 19,3 km/h (3 Bft)
21.05.2017 11:20 13,8 °C 13,9 °C 62 % 1024,8 hPa 0,0 mm 11,7 km/h (2 Bft) O 88 ° 1 min 0,000 mm 2,6 UV-I 946 W/m² 6,6 °C 13,8 °C 19,3 km/h (3 Bft)
21.05.2017 11:21 13,8 °C 13,8 °C 64 % 1024,8 hPa 0,0 mm 11,1 km/h (2 Bft) N 5 ° 0 min 0,000 mm 3,2 UV-I 225 W/m² 7,1 °C 13,8 °C 16,1 km/h (3 Bft)
21.05.2017 11:22 13,7 °C 13,8 °C 62 % 1024,8 hPa 0,0 mm 7,6 km/h (2 Bft) NO 43 ° 0 min 0,000 mm 6,2 UV-I 225 W/m² 6,6 °C 13,7 °C 12,9 km/h (3 Bft)
21.05.2017 11:23 13,8 °C 13,8 °C 66 % 1024,8 hPa 0,0 mm 7,1 km/h (2 Bft) NO 50 ° 1 min 0,000 mm 6,2 UV-I 1034 W/m² 7,6 °C 13,8 °C 11,3 km/h (2 Bft)
21.05.2017 11:24 13,9 °C 13,9 °C 64 % 1024,8 hPa 0,0 mm 6,2 km/h (2 Bft) O-NO 57 ° 1 min 0,000 mm 6,3 UV-I 1000 W/m² 7,2 °C 13,9 °C 11,3 km/h (2 Bft)
21.05.2017 11:25 14,1 °C 14,1 °C 66 % 1024,7 hPa 0,0 mm 7,6 km/h (2 Bft) NO 50 ° 1 min 0,000 mm 6,2 UV-I 972 W/m² 7,8 °C 14,1 °C 11,3 km/h (2 Bft)
21.05.2017 11:26 14,3 °C 14,3 °C 62 % 1024,7 hPa 0,0 mm 14,4 km/h (3 Bft) N-NO 25 ° 1 min 0,000 mm 6,2 UV-I 974 W/m² 7,1 °C 14,3 °C 20,9 km/h (4 Bft)
21.05.2017 11:27 14,4 °C 14,4 °C 64 % 1024,8 hPa 0,0 mm 8,1 km/h (2 Bft) NO 50 ° 1 min 0,000 mm 5,2 UV-I 721 W/m² 7,7 °C 14,4 °C 12,9 km/h (3 Bft)
21.05.2017 11:28 14,4 °C 14,4 °C 63 % 1024,8 hPa 0,0 mm 10,1 km/h (2 Bft) NO 41 ° 1 min 0,000 mm 6,4 UV-I 721 W/m² 7,4 °C 14,4 °C 16,1 km/h (3 Bft)
21.05.2017 11:29 14,2 °C 14,4 °C 60 % 1024,7 hPa 0,0 mm 10,7 km/h (2 Bft) O-NO 60 ° 1 min 0,000 mm 6,3 UV-I 944 W/m² 6,5 °C 14,2 °C 19,3 km/h (3 Bft)
21.05.2017 11:30 14,2 °C 14,2 °C 63 % 1024,7 hPa 0,0 mm 6,3 km/h (2 Bft) O 87 ° 1 min 0,000 mm 6,2 UV-I 921 W/m² 7,3 °C 14,2 °C 9,7 km/h (2 Bft)
21.05.2017 11:31 14,1 °C 14,2 °C 65 % 1024,6 hPa 0,0 mm 4,5 km/h (1 Bft) NO 42 ° 1 min 0,000 mm 6,4 UV-I 963 W/m² 7,6 °C 14,1 °C 6,4 km/h (2 Bft)
21.05.2017 11:32 14,1 °C 14,1 °C 63 % 1024,6 hPa 0,0 mm 2,7 km/h (1 Bft) N 355 ° 1 min 0,000 mm 6,4 UV-I 963 W/m² 7,2 °C 14,1 °C 4,8 km/h (1 Bft)
21.05.2017 11:33 14,3 °C 14,3 °C 65 % 1024,5 hPa 0,0 mm 10,3 km/h (2 Bft) O 96 ° 1 min 0,000 mm 6,3 UV-I 963 W/m² 7,8 °C 14,3 °C 14,5 km/h (3 Bft)
21.05.2017 11:34 14,2 °C 14,3 °C 62 % 1024,6 hPa 0,0 mm 9,3 km/h (2 Bft) N 9 ° 1 min 0,000 mm 3,1 UV-I 963 W/m² 7,0 °C 14,2 °C 22,5 km/h (4 Bft)
21.05.2017 11:35 14,2 °C 14,2 °C 61 % 1024,6 hPa 0,0 mm 7,3 km/h (2 Bft) NO 46 ° 1 min 0,000 mm 6,2 UV-I 904 W/m² 6,8 °C 14,2 °C 14,5 km/h (3 Bft)
21.05.2017 11:36 14,2 °C 14,2 °C 62 % 1024,6 hPa 0,0 mm 5,7 km/h (1 Bft) NO 53 ° 1 min 0,000 mm 6,2 UV-I 960 W/m² 7,0 °C 14,2 °C 11,3 km/h (2 Bft)
21.05.2017 11:37 14,2 °C 14,2 °C 62 % 1024,6 hPa 0,0 mm 13,6 km/h (3 Bft) O-NO 70 ° 1 min 0,000 mm 6,4 UV-I 962 W/m² 7,0 °C 14,2 °C 22,5 km/h (4 Bft)
21.05.2017 11:38 14,2 °C 14,2 °C 63 % 1024,6 hPa 0,0 mm 12,0 km/h (2 Bft) NO 36 ° 1 min 0,000 mm 6,3 UV-I 986 W/m² 7,3 °C 14,2 °C 24,1 km/h (4 Bft)
21.05.2017 11:39 14,2 °C 14,2 °C 63 % 1024,6 hPa 0,0 mm 6,6 km/h (2 Bft) O-NO 65 ° 1 min 0,000 mm 4,2 UV-I 986 W/m² 7,3 °C 14,2 °C 16,1 km/h (3 Bft)
21.05.2017 11:40 14,2 °C 14,2 °C 61 % 1024,6 hPa 0,0 mm 6,9 km/h (2 Bft) NO 54 ° 1 min 0,000 mm 6,3 UV-I 946 W/m² 6,8 °C 14,2 °C 14,5 km/h (3 Bft)
21.05.2017 11:41 14,2 °C 14,2 °C 65 % 1024,6 hPa 0,0 mm 8,0 km/h (2 Bft) N 355 ° 1 min 0,000 mm 6,4 UV-I 972 W/m² 7,7 °C 14,2 °C 12,9 km/h (3 Bft)
21.05.2017 11:42 14,4 °C 14,4 °C 62 % 1024,7 hPa 0,0 mm 9,5 km/h (2 Bft) O-NO 63 ° 1 min 0,000 mm 6,4 UV-I 984 W/m² 7,2 °C 14,4 °C 14,5 km/h (3 Bft)
21.05.2017 11:43 14,6 °C 14,6 °C 61 % 1024,7 hPa 0,0 mm 7,3 km/h (2 Bft) NO 35 ° 1 min 0,000 mm 6,4 UV-I 965 W/m² 7,2 °C 14,6 °C 12,9 km/h (3 Bft)
21.05.2017 11:44 14,6 °C 14,6 °C 63 % 1024,6 hPa 0,0 mm 7,7 km/h (2 Bft) NO 38 ° 1 min 0,000 mm 5,0 UV-I 965 W/m² 7,6 °C 14,6 °C 16,1 km/h (3 Bft)
21.05.2017 11:45 14,6 °C 14,6 °C 61 % 1024,6 hPa 0,0 mm 9,4 km/h (2 Bft) NO 51 ° 1 min 0,000 mm 6,4 UV-I 939 W/m² 7,2 °C 14,6 °C 14,5 km/h (3 Bft)
21.05.2017 11:46 14,6 °C 14,6 °C 61 % 1024,6 hPa 0,0 mm 12,0 km/h (2 Bft) O-NO 64 ° 1 min 0,000 mm 6,2 UV-I 923 W/m² 7,2 °C 14,6 °C 17,7 km/h (3 Bft)
21.05.2017 11:47 14,6 °C 14,6 °C 60 % 1024,6 hPa 0,0 mm 9,8 km/h (2 Bft) O-NO 63 ° 1 min 0,000 mm 2,9 UV-I 923 W/m² 6,9 °C 14,6 °C 14,5 km/h (3 Bft)
21.05.2017 11:48 14,4 °C 14,6 °C 60 % 1024,6 hPa 0,0 mm 12,1 km/h (2 Bft) O-NO 69 ° 0 min 0,000 mm 2,9 UV-I 188 W/m² 6,7 °C 14,4 °C 22,5 km/h (4 Bft)
21.05.2017 11:49 14,3 °C 14,4 °C 60 % 1024,6 hPa 0,0 mm 12,7 km/h (3 Bft) O-NO 76 ° 0 min 0,000 mm 6,4 UV-I 188 W/m² 6,6 °C 14,3 °C 19,3 km/h (3 Bft)
21.05.2017 11:50 14,2 °C 14,3 °C 62 % 1024,6 hPa 0,0 mm 11,7 km/h (2 Bft) N-NO 26 ° 1 min 0,000 mm 4,5 UV-I 1129 W/m² 7,0 °C 14,2 °C 16,1 km/h (3 Bft)
21.05.2017 11:51 14,3 °C 14,3 °C 62 % 1024,6 hPa 0,0 mm 9,7 km/h (2 Bft) O-NO 65 ° 1 min 0,000 mm 3,7 UV-I 292 W/m² 7,1 °C 14,3 °C 16,1 km/h (3 Bft)
21.05.2017 11:52 14,3 °C 14,3 °C 62 % 1024,6 hPa 0,0 mm 9,7 km/h (2 Bft) N-NO 21 ° 0 min 0,000 mm 3,1 UV-I 271 W/m² 7,1 °C 14,3 °C 14,5 km/h (3 Bft)
21.05.2017 11:53 14,3 °C 14,3 °C 61 % 1024,6 hPa 0,0 mm 7,3 km/h (2 Bft) O-NO 61 ° 0 min 0,000 mm 3,0 UV-I 248 W/m² 6,9 °C 14,3 °C 12,9 km/h (3 Bft)
21.05.2017 11:54 14,2 °C 14,3 °C 63 % 1024,6 hPa 0,0 mm 10,9 km/h (2 Bft) O-NO 72 ° 0 min 0,000 mm 3,0 UV-I 246 W/m² 7,3 °C 14,2 °C 14,5 km/h (3 Bft)
21.05.2017 11:55 14,1 °C 14,2 °C 60 % 1024,6 hPa 0,0 mm 8,3 km/h (2 Bft) O 81 ° 1 min 0,000 mm 5,2 UV-I 315 W/m² 6,5 °C 14,1 °C 14,5 km/h (3 Bft)
21.05.2017 11:56 14,0 °C 14,1 °C 59 % 1024,6 hPa 0,0 mm 5,0 km/h (1 Bft) NO 38 ° 1 min 0,000 mm 3,4 UV-I 401 W/m² 6,1 °C 14,0 °C 9,7 km/h (2 Bft)
21.05.2017 11:57 14,1 °C 14,1 °C 60 % 1024,6 hPa 0,0 mm 5,6 km/h (1 Bft) O 90 ° 1 min 0,000 mm 6,5 UV-I 1009 W/m² 6,5 °C 14,1 °C 14,5 km/h (3 Bft)
21.05.2017 11:58 14,1 °C 14,1 °C 57 % 1024,5 hPa 0,0 mm 8,6 km/h (2 Bft) O-NO 73 ° 1 min 0,000 mm 6,5 UV-I 977 W/m² 5,7 °C 14,1 °C 17,7 km/h (3 Bft)
21.05.2017 11:59 14,2 °C 14,2 °C 59 % 1024,4 hPa 0,0 mm 8,7 km/h (2 Bft) O-NO 57 ° 1 min 0,000 mm 5,2 UV-I 977 W/m² 6,3 °C 14,2 °C 16,1 km/h (3 Bft)
21.05.2017 12:00 14,2 °C 14,3 °C 58 % 1024,5 hPa 0,0 mm 12,0 km/h (2 Bft) N-NO 25 ° 1 min 0,000 mm 3,3 UV-I 977 W/m² 6,1 °C 14,2 °C 22,5 km/h (4 Bft)
21.05.2017 12:01 14,3 °C 14,3 °C 55 % 1024,5 hPa 0,0 mm 8,3 km/h (2 Bft) N-NO 17 ° 1 min 0,381 mm 3,0 UV-I 977 W/m² 5,4 °C 14,3 °C 17,7 km/h (3 Bft)
21.05.2017 12:02 14,3 °C 14,3 °C 59 % 1024,5 hPa 0,0 mm 7,6 km/h (2 Bft) NO 40 ° 1 min 0,000 mm 5,3 UV-I 977 W/m² 6,4 °C 14,3 °C 20,9 km/h (4 Bft)
21.05.2017 12:03 14,4 °C 14,4 °C 56 % 1024,4 hPa 0,0 mm 8,0 km/h (2 Bft) NO 51 ° 1 min 0,000 mm 6,5 UV-I 970 W/m² 5,7 °C 14,4 °C 19,3 km/h (3 Bft)
21.05.2017 12:04 14,7 °C 14,7 °C 57 % 1024,6 hPa 0,0 mm 8,5 km/h (2 Bft) NO 54 ° 1 min 0,000 mm 6,5 UV-I 949 W/m² 6,3 °C 14,7 °C 16,1 km/h (3 Bft)
21.05.2017 12:05 14,9 °C 14,9 °C 57 % 1024,4 hPa 0,0 mm 12,1 km/h (2 Bft) NO 45 ° 1 min 0,000 mm 6,4 UV-I 928 W/m² 6,5 °C 14,9 °C 19,3 km/h (3 Bft)
21.05.2017 12:06 15,1 °C 15,1 °C 54 % 1024,5 hPa 0,0 mm 11,1 km/h (2 Bft) O-NO 71 ° 1 min 0,000 mm 6,4 UV-I 925 W/m² 5,9 °C 15,1 °C 20,9 km/h (4 Bft)
21.05.2017 12:07 15,0 °C 15,1 °C 53 % 1024,5 hPa 0,0 mm 8,8 km/h (2 Bft) NO 40 ° 1 min 0,000 mm 6,6 UV-I 932 W/m² 5,5 °C 15,0 °C 14,5 km/h (3 Bft)
21.05.2017 12:08 14,9 °C 15,0 °C 56 % 1024,5 hPa 0,0 mm 7,8 km/h (2 Bft) N-NO 32 ° 1 min 0,000 mm 6,5 UV-I 918 W/m² 6,2 °C 14,9 °C 16,1 km/h (3 Bft)
21.05.2017 12:10 15,1 °C 15,1 °C 54 % 1024,4 hPa 0,0 mm 10,3 km/h (2 Bft) NO 40 ° 2 min 0,000 mm 6,7 UV-I 928 W/m² 5,9 °C 15,1 °C 19,3 km/h (3 Bft)
21.05.2017 12:11 15,1 °C 15,1 °C 51 % 1024,4 hPa 0,0 mm 8,3 km/h (2 Bft) NO 38 ° 1 min 0,000 mm 6,7 UV-I 956 W/m² 5,0 °C 15,1 °C 11,3 km/h (2 Bft)
21.05.2017 12:12 15,1 °C 15,2 °C 52 % 1024,4 hPa 0,0 mm 12,3 km/h (3 Bft) NO 49 ° 1 min 0,000 mm 6,7 UV-I 937 W/m² 5,3 °C 15,1 °C 17,7 km/h (3 Bft)
21.05.2017 12:13 15,1 °C 15,1 °C 49 % 1024,4 hPa 0,0 mm 8,3 km/h (2 Bft) NW 313 ° 1 min 0,000 mm 6,6 UV-I 912 W/m² 4,5 °C 15,1 °C 14,5 km/h (3 Bft)
21.05.2017 12:14 15,1 °C 15,1 °C 52 % 1024,3 hPa 0,0 mm 10,4 km/h (2 Bft) N 360 ° 1 min 0,000 mm 6,6 UV-I 907 W/m² 5,3 °C 15,1 °C 16,1 km/h (3 Bft)
21.05.2017 12:15 15,2 °C 15,2 °C 51 % 1024,3 hPa 0,0 mm 7,0 km/h (2 Bft) NO 36 ° 1 min 0,000 mm 6,6 UV-I 900 W/m² 5,1 °C 15,2 °C 9,7 km/h (2 Bft)
21.05.2017 12:16 15,3 °C 15,3 °C 53 % 1024,3 hPa 0,0 mm 9,1 km/h (2 Bft) O 88 ° 1 min 0,000 mm 6,7 UV-I 902 W/m² 5,8 °C 15,3 °C 17,7 km/h (3 Bft)
21.05.2017 12:17 15,3 °C 15,3 °C 50 % 1024,3 hPa 0,0 mm 7,2 km/h (2 Bft) O-NO 60 ° 1 min 0,000 mm 6,7 UV-I 895 W/m² 4,9 °C 15,3 °C 12,9 km/h (3 Bft)
21.05.2017 12:18 15,4 °C 15,4 °C 56 % 1024,4 hPa 0,0 mm 8,0 km/h (2 Bft) O 79 ° 1 min 0,000 mm 6,7 UV-I 898 W/m² 6,7 °C 15,4 °C 12,9 km/h (3 Bft)
21.05.2017 12:19 15,4 °C 15,4 °C 50 % 1024,4 hPa 0,0 mm 10,1 km/h (2 Bft) O 90 ° 1 min 0,000 mm 6,7 UV-I 904 W/m² 5,0 °C 15,4 °C 17,7 km/h (3 Bft)
21.05.2017 12:20 15,4 °C 15,4 °C 51 % 1024,4 hPa 0,0 mm 12,5 km/h (3 Bft) NO 44 ° 1 min 0,000 mm 6,8 UV-I 909 W/m² 5,3 °C 15,4 °C 17,7 km/h (3 Bft)
21.05.2017 12:21 15,4 °C 15,4 °C 53 % 1024,3 hPa 0,0 mm 8,3 km/h (2 Bft) N-NO 13 ° 1 min 0,000 mm 6,8 UV-I 923 W/m² 5,9 °C 15,4 °C 14,5 km/h (3 Bft)
21.05.2017 12:22 15,5 °C 15,5 °C 53 % 1024,3 hPa 0,0 mm 7,3 km/h (2 Bft) NO 51 ° 1 min 0,000 mm 6,9 UV-I 926 W/m² 6,0 °C 15,5 °C 12,9 km/h (3 Bft)
21.05.2017 12:23 15,4 °C 15,6 °C 52 % 1024,3 hPa 0,0 mm 8,3 km/h (2 Bft) NO 55 ° 1 min 0,000 mm 6,9 UV-I 937 W/m² 5,6 °C 15,4 °C 12,9 km/h (3 Bft)
21.05.2017 12:24 15,4 °C 15,4 °C 54 % 1024,3 hPa 0,0 mm 7,1 km/h (2 Bft) N-NO 33 ° 1 min 0,000 mm 6,9 UV-I 935 W/m² 6,1 °C 15,4 °C 11,3 km/h (2 Bft)
21.05.2017 12:25 15,4 °C 15,4 °C 53 % 1024,3 hPa 0,0 mm 7,1 km/h (2 Bft) O 88 ° 1 min 0,000 mm 7,0 UV-I 935 W/m² 5,9 °C 15,4 °C 11,3 km/h (2 Bft)
21.05.2017 12:26 15,4 °C 15,4 °C 54 % 1024,3 hPa 0,0 mm 5,9 km/h (2 Bft) NO 53 ° 1 min 0,000 mm 7,0 UV-I 933 W/m² 6,1 °C 15,4 °C 9,7 km/h (2 Bft)
21.05.2017 12:27 15,6 °C 15,6 °C 53 % 1024,2 hPa 0,0 mm 8,9 km/h (2 Bft) NO 55 ° 1 min 0,000 mm 6,9 UV-I 930 W/m² 6,1 °C 15,6 °C 14,5 km/h (3 Bft)
21.05.2017 12:28 15,7 °C 15,7 °C 52 % 1024,3 hPa 0,0 mm 13,9 km/h (3 Bft) O-NO 69 ° 1 min 0,000 mm 6,9 UV-I 925 W/m² 5,9 °C 15,7 °C 20,9 km/h (4 Bft)
21.05.2017 12:29 15,8 °C 15,8 °C 52 % 1024,3 hPa 0,0 mm 12,3 km/h (3 Bft) O 93 ° 1 min 0,000 mm 6,9 UV-I 919 W/m² 6,0 °C 15,8 °C 19,3 km/h (3 Bft)
21.05.2017 12:30 15,7 °C 15,8 °C 52 % 1024,2 hPa 0,0 mm 8,5 km/h (2 Bft) O 85 ° 1 min 0,000 mm 6,9 UV-I 921 W/m² 5,9 °C 15,7 °C 12,9 km/h (3 Bft)
21.05.2017 12:31 15,6 °C 15,7 °C 52 % 1024,2 hPa 0,0 mm 5,4 km/h (1 Bft) NO 44 ° 1 min 0,000 mm 6,9 UV-I 919 W/m² 5,8 °C 15,6 °C 14,5 km/h (3 Bft)
21.05.2017 12:32 15,4 °C 15,6 °C 54 % 1024,2 hPa 0,0 mm 7,5 km/h (2 Bft) O 80 ° 1 min 0,000 mm 6,9 UV-I 916 W/m² 6,1 °C 15,4 °C 11,3 km/h (2 Bft)
21.05.2017 12:33 15,4 °C 15,4 °C 55 % 1024,2 hPa 0,0 mm 6,0 km/h (2 Bft) NO 35 ° 1 min 0,000 mm 6,9 UV-I 912 W/m² 6,4 °C 15,4 °C 6,4 km/h (2 Bft)
21.05.2017 12:34 15,6 °C 15,6 °C 55 % 1024,2 hPa 0,0 mm 12,3 km/h (3 Bft) O 85 ° 1 min 0,000 mm 6,9 UV-I 912 W/m² 6,6 °C 15,6 °C 17,7 km/h (3 Bft)
21.05.2017 12:35 15,5 °C 15,6 °C 51 % 1024,3 hPa 0,0 mm 8,3 km/h (2 Bft) NO 44 ° 1 min 0,000 mm 7,0 UV-I 921 W/m² 5,4 °C 15,5 °C 17,7 km/h (3 Bft)
21.05.2017 12:36 15,5 °C 15,5 °C 53 % 1024,2 hPa 0,0 mm 5,8 km/h (2 Bft) O-SO 106 ° 1 min 0,000 mm 7,0 UV-I 925 W/m² 6,0 °C 15,5 °C 11,3 km/h (2 Bft)
21.05.2017 12:37 15,5 °C 15,5 °C 55 % 1024,2 hPa 0,0 mm 11,9 km/h (2 Bft) O 80 ° 1 min 0,000 mm 7,0 UV-I 944 W/m² 6,5 °C 15,5 °C 17,7 km/h (3 Bft)
21.05.2017 12:38 15,3 °C 15,5 °C 51 % 1024,2 hPa 0,0 mm 12,0 km/h (2 Bft) NO 55 ° 1 min 0,000 mm 7,1 UV-I 921 W/m² 5,2 °C 15,3 °C 16,1 km/h (3 Bft)
21.05.2017 12:39 15,3 °C 15,3 °C 52 % 1024,2 hPa 0,0 mm 9,6 km/h (2 Bft) O 84 ° 1 min 0,000 mm 7,0 UV-I 930 W/m² 5,5 °C 15,3 °C 16,1 km/h (3 Bft)
21.05.2017 12:40 15,3 °C 15,3 °C 52 % 1024,1 hPa 0,0 mm 6,7 km/h (2 Bft) NO 51 ° 1 min 0,000 mm 7,0 UV-I 932 W/m² 5,5 °C 15,3 °C 14,5 km/h (3 Bft)
21.05.2017 12:41 15,3 °C 15,3 °C 55 % 1024,2 hPa 0,0 mm 4,5 km/h (1 Bft) O-NO 59 ° 1 min 0,000 mm 7,0 UV-I 939 W/m² 6,3 °C 15,3 °C 11,3 km/h (2 Bft)
21.05.2017 12:42 15,3 °C 15,3 °C 53 % 1024,1 hPa 0,0 mm 9,3 km/h (2 Bft) O 90 ° 1 min 0,000 mm 7,1 UV-I 949 W/m² 5,8 °C 15,3 °C 12,9 km/h (3 Bft)
21.05.2017 12:43 15,4 °C 15,4 °C 55 % 1024,1 hPa 0,0 mm 9,7 km/h (2 Bft) N-NO 33 ° 1 min 0,000 mm 7,1 UV-I 958 W/m² 6,4 °C 15,4 °C 12,9 km/h (3 Bft)
21.05.2017 12:44 15,5 °C 15,5 °C 55 % 1024,1 hPa 0,0 mm 8,9 km/h (2 Bft) N-NO 22 ° 1 min 0,000 mm 7,1 UV-I 951 W/m² 6,5 °C 15,5 °C 17,7 km/h (3 Bft)
21.05.2017 12:45 15,6 °C 15,6 °C 51 % 1024,1 hPa 0,0 mm 8,9 km/h (2 Bft) NW 326 ° 1 min 0,000 mm 7,1 UV-I 942 W/m² 5,5 °C 15,6 °C 12,9 km/h (3 Bft)
21.05.2017 12:46 15,7 °C 15,7 °C 54 % 1024,0 hPa 0,0 mm 5,5 km/h (1 Bft) O 86 ° 1 min 0,000 mm 7,1 UV-I 944 W/m² 6,4 °C 15,7 °C 8,0 km/h (2 Bft)
21.05.2017 12:47 15,8 °C 15,8 °C 53 % 1024,0 hPa 0,0 mm 11,1 km/h (2 Bft) NO 53 ° 1 min 0,000 mm 7,0 UV-I 944 W/m² 6,2 °C 15,8 °C 17,7 km/h (3 Bft)
21.05.2017 12:48 15,7 °C 15,8 °C 53 % 1024,0 hPa 0,0 mm 9,2 km/h (2 Bft) N 360 ° 1 min 0,000 mm 7,1 UV-I 947 W/m² 6,1 °C 15,7 °C 14,5 km/h (3 Bft)
21.05.2017 12:49 15,7 °C 15,7 °C 52 % 1024,1 hPa 0,0 mm 6,7 km/h (2 Bft) N-NW 346 ° 1 min 0,000 mm 7,0 UV-I 928 W/m² 5,9 °C 15,7 °C 14,5 km/h (3 Bft)
21.05.2017 12:50 15,7 °C 15,7 °C 50 % 1024,0 hPa 0,0 mm 7,9 km/h (2 Bft) N-NO 27 ° 1 min 0,000 mm 7,0 UV-I 928 W/m² 5,3 °C 15,7 °C 12,9 km/h (3 Bft)
21.05.2017 12:51 15,7 °C 15,7 °C 54 % 1024,0 hPa 0,0 mm 14,7 km/h (3 Bft) O-NO 70 ° 1 min 0,000 mm 7,0 UV-I 930 W/m² 6,4 °C 15,7 °C 19,3 km/h (3 Bft)
21.05.2017 12:52 15,8 °C 15,8 °C 54 % 1024,0 hPa 0,0 mm 9,0 km/h (2 Bft) O-NO 74 ° 1 min 0,000 mm 7,0 UV-I 926 W/m² 6,5 °C 15,8 °C 14,5 km/h (3 Bft)
21.05.2017 12:53 15,7 °C 15,8 °C 53 % 1023,9 hPa 0,0 mm 11,0 km/h (2 Bft) O-NO 61 ° 1 min 0,000 mm 7,0 UV-I 925 W/m² 6,1 °C 15,7 °C 16,1 km/h (3 Bft)
21.05.2017 12:54 15,8 °C 15,8 °C 52 % 1023,9 hPa 0,0 mm 9,9 km/h (2 Bft) O 87 ° 1 min 0,000 mm 7,0 UV-I 919 W/m² 6,0 °C 15,8 °C 24,1 km/h (4 Bft)
21.05.2017 12:55 15,7 °C 15,8 °C 53 % 1023,9 hPa 0,0 mm 10,2 km/h (2 Bft) N-NO 15 ° 1 min 0,000 mm 7,0 UV-I 918 W/m² 6,1 °C 15,7 °C 16,1 km/h (3 Bft)
21.05.2017 12:56 15,6 °C 15,7 °C 53 % 1023,9 hPa 0,0 mm 11,5 km/h (2 Bft) O 90 ° 1 min 0,000 mm 7,0 UV-I 921 W/m² 6,1 °C 15,6 °C 22,5 km/h (4 Bft)
21.05.2017 12:57 15,6 °C 15,6 °C 54 % 1023,9 hPa 0,0 mm 7,7 km/h (2 Bft) N-NW 348 ° 1 min 0,000 mm 7,0 UV-I 923 W/m² 6,3 °C 15,6 °C 16,1 km/h (3 Bft)
21.05.2017 12:58 15,6 °C 15,6 °C 56 % 1023,9 hPa 0,0 mm 14,7 km/h (3 Bft) O-NO 78 ° 1 min 0,000 mm 7,0 UV-I 916 W/m² 6,9 °C 15,6 °C 24,1 km/h (4 Bft)
21.05.2017 12:59 15,6 °C 15,6 °C 55 % 1023,9 hPa 0,0 mm 8,5 km/h (2 Bft) O-NO 78 ° 1 min 0,000 mm 7,0 UV-I 919 W/m² 6,6 °C 15,6 °C 22,5 km/h (4 Bft)
21.05.2017 13:00 15,6 °C 15,6 °C 55 % 1023,9 hPa 0,0 mm 6,5 km/h (2 Bft) O-NO 61 ° 1 min 0,000 mm 7,0 UV-I 919 W/m² 6,6 °C 15,6 °C 12,9 km/h (3 Bft)
21.05.2017 13:01 15,7 °C 15,7 °C 55 % 1023,9 hPa 0,0 mm 11,9 km/h (2 Bft) O-NO 76 ° 1 min 0,533 mm 7,0 UV-I 925 W/m² 6,7 °C 15,7 °C 16,1 km/h (3 Bft)
21.05.2017 13:02 15,7 °C 15,7 °C 56 % 1023,8 hPa 0,0 mm 7,6 km/h (2 Bft) O 87 ° 1 min 0,000 mm 7,0 UV-I 925 W/m² 6,9 °C 15,7 °C 17,7 km/h (3 Bft)
21.05.2017 13:03 15,7 °C 15,7 °C 55 % 1023,8 hPa 0,0 mm 6,9 km/h (2 Bft) O-NO 68 ° 1 min 0,000 mm 7,0 UV-I 928 W/m² 6,7 °C 15,7 °C 9,7 km/h (2 Bft)
21.05.2017 13:04 15,8 °C 15,8 °C 55 % 1023,8 hPa 0,0 mm 7,0 km/h (2 Bft) O-SO 108 ° 1 min 0,000 mm 7,0 UV-I 928 W/m² 6,8 °C 15,8 °C 16,1 km/h (3 Bft)
21.05.2017 13:05 15,9 °C 15,9 °C 55 % 1023,9 hPa 0,0 mm 13,9 km/h (3 Bft) N 10 ° 1 min 0,000 mm 7,1 UV-I 939 W/m² 6,9 °C 15,9 °C 19,3 km/h (3 Bft)
21.05.2017 13:06 15,8 °C 15,9 °C 52 % 1023,9 hPa 0,0 mm 10,8 km/h (2 Bft) N-NO 25 ° 1 min 0,000 mm 7,2 UV-I 951 W/m² 6,0 °C 15,8 °C 19,3 km/h (3 Bft)
21.05.2017 13:07 15,8 °C 15,8 °C 52 % 1023,8 hPa 0,0 mm 9,9 km/h (2 Bft) NO 42 ° 1 min 0,000 mm 4,3 UV-I 951 W/m² 6,0 °C 15,8 °C 16,1 km/h (3 Bft)
21.05.2017 13:08 15,6 °C 15,8 °C 53 % 1023,8 hPa 0,0 mm 8,0 km/h (2 Bft) NO 35 ° 1 min 0,000 mm 3,2 UV-I 951 W/m² 6,1 °C 15,6 °C 16,1 km/h (3 Bft)
21.05.2017 13:09 15,4 °C 15,6 °C 53 % 1023,7 hPa 0,0 mm 12,2 km/h (2 Bft) NO 54 ° 1 min 0,000 mm 5,7 UV-I 951 W/m² 5,9 °C 15,4 °C 19,3 km/h (3 Bft)
21.05.2017 13:10 15,3 °C 15,4 °C 54 % 1023,7 hPa 0,0 mm 11,2 km/h (2 Bft) N-NO 13 ° 1 min 0,000 mm 7,0 UV-I 951 W/m² 6,0 °C 15,3 °C 20,9 km/h (4 Bft)
21.05.2017 13:11 15,4 °C 15,4 °C 55 % 1023,7 hPa 0,0 mm 11,1 km/h (2 Bft) NO 36 ° 1 min 0,000 mm 7,0 UV-I 935 W/m² 6,4 °C 15,4 °C 17,7 km/h (3 Bft)
21.05.2017 13:12 15,5 °C 15,5 °C 56 % 1023,7 hPa 0,0 mm 16,3 km/h (3 Bft) O-NO 58 ° 1 min 0,000 mm 7,1 UV-I 935 W/m² 6,8 °C 15,5 °C 24,1 km/h (4 Bft)
21.05.2017 13:13 15,6 °C 15,6 °C 55 % 1023,7 hPa 0,0 mm 8,1 km/h (2 Bft) O-NO 61 ° 1 min 0,000 mm 7,0 UV-I 933 W/m² 6,6 °C 15,6 °C 12,9 km/h (3 Bft)
21.05.2017 13:14 15,6 °C 15,6 °C 53 % 1023,6 hPa 0,0 mm 15,5 km/h (3 Bft) O-NO 65 ° 1 min 0,000 mm 7,0 UV-I 937 W/m² 6,1 °C 15,6 °C 20,9 km/h (4 Bft)
21.05.2017 13:15 15,6 °C 15,6 °C 54 % 1023,7 hPa 0,0 mm 14,6 km/h (3 Bft) NO 48 ° 1 min 0,000 mm 4,9 UV-I 937 W/m² 6,3 °C 15,6 °C 19,3 km/h (3 Bft)
21.05.2017 13:16 15,5 °C 15,6 °C 52 % 1023,6 hPa 0,0 mm 8,4 km/h (2 Bft) O-NO 71 ° 1 min 0,000 mm 6,1 UV-I 937 W/m² 5,7 °C 15,5 °C 9,7 km/h (2 Bft)
21.05.2017 13:17 15,4 °C 15,5 °C 55 % 1023,6 hPa 0,0 mm 4,7 km/h (1 Bft) NO 49 ° 1 min 0,000 mm 4,1 UV-I 937 W/m² 6,4 °C 15,4 °C 9,7 km/h (2 Bft)
21.05.2017 13:18 15,4 °C 15,4 °C 54 % 1023,6 hPa 0,0 mm 6,5 km/h (2 Bft) O-NO 57 ° 1 min 0,000 mm 7,0 UV-I 937 W/m² 6,1 °C 15,4 °C 9,7 km/h (2 Bft)
21.05.2017 13:19 15,6 °C 15,6 °C 58 % 1023,6 hPa 0,0 mm 6,1 km/h (2 Bft) O 84 ° 1 min 0,000 mm 7,1 UV-I 951 W/m² 7,4 °C 15,6 °C 8,0 km/h (2 Bft)
21.05.2017 13:20 15,7 °C 15,7 °C 55 % 1023,5 hPa 0,0 mm 5,2 km/h (1 Bft) NO 38 ° 1 min 0,000 mm 7,1 UV-I 947 W/m² 6,7 °C 15,7 °C 16,1 km/h (3 Bft)
21.05.2017 13:21 15,8 °C 15,8 °C 53 % 1023,6 hPa 0,0 mm 13,4 km/h (3 Bft) NO 41 ° 1 min 0,000 mm 7,1 UV-I 951 W/m² 6,2 °C 15,8 °C 17,7 km/h (3 Bft)
21.05.2017 13:22 15,8 °C 15,8 °C 52 % 1023,7 hPa 0,0 mm 17,0 km/h (3 Bft) O-NO 72 ° 1 min 0,000 mm 7,1 UV-I 951 W/m² 6,0 °C 15,8 °C 22,5 km/h (4 Bft)
21.05.2017 13:23 15,8 °C 15,8 °C 52 % 1023,7 hPa 0,0 mm 13,9 km/h (3 Bft) O 92 ° 1 min 0,000 mm 7,1 UV-I 954 W/m² 6,0 °C 15,8 °C 17,7 km/h (3 Bft)
21.05.2017 13:24 15,8 °C 15,8 °C 51 % 1023,7 hPa 0,0 mm 4,9 km/h (1 Bft) NO 42 ° 1 min 0,000 mm 7,0 UV-I 956 W/m² 5,7 °C 15,8 °C 8,0 km/h (2 Bft)
21.05.2017 13:25 15,8 °C 15,8 °C 53 % 1023,6 hPa 0,0 mm 6,4 km/h (2 Bft) N-NO 18 ° 1 min 0,000 mm 7,0 UV-I 956 W/m² 6,2 °C 15,8 °C 8,0 km/h (2 Bft)
21.05.2017 13:26 16,0 °C 16,0 °C 54 % 1023,6 hPa 0,0 mm 10,0 km/h (2 Bft) O-SO 103 ° 1 min 0,000 mm 7,2 UV-I 981 W/m² 6,7 °C 16,0 °C 14,5 km/h (3 Bft)
21.05.2017 13:27 16,1 °C 16,1 °C 55 % 1023,6 hPa 0,0 mm 10,5 km/h (2 Bft) O-NO 77 ° 1 min 0,000 mm 7,3 UV-I 1005 W/m² 7,1 °C 16,1 °C 12,9 km/h (3 Bft)
21.05.2017 13:28 16,1 °C 16,1 °C 52 % 1023,6 hPa 0,0 mm 10,5 km/h (2 Bft) NO 36 ° 1 min 0,000 mm 7,4 UV-I 1030 W/m² 6,2 °C 16,1 °C 17,7 km/h (3 Bft)
21.05.2017 13:29 16,1 °C 16,1 °C 53 % 1023,6 hPa 0,0 mm 11,0 km/h (2 Bft) NO 46 ° 1 min 0,000 mm 7,4 UV-I 1037 W/m² 6,5 °C 16,1 °C 20,9 km/h (4 Bft)
21.05.2017 13:30 16,3 °C 16,3 °C 56 % 1023,6 hPa 0,0 mm 12,7 km/h (3 Bft) O-SO 113 ° 1 min 0,000 mm 7,3 UV-I 1042 W/m² 7,5 °C 16,3 °C 19,3 km/h (3 Bft)
21.05.2017 13:31 16,4 °C 16,4 °C 56 % 1023,5 hPa 0,0 mm 7,2 km/h (2 Bft) O-NO 61 ° 1 min 0,000 mm 7,3 UV-I 1023 W/m² 7,6 °C 16,4 °C 12,9 km/h (3 Bft)
21.05.2017 13:32 16,5 °C 16,5 °C 53 % 1023,5 hPa 0,0 mm 9,1 km/h (2 Bft) SO 124 ° 1 min 0,000 mm 7,3 UV-I 1011 W/m² 6,9 °C 16,5 °C 14,5 km/h (3 Bft)
21.05.2017 13:33 16,4 °C 16,5 °C 52 % 1023,5 hPa 0,0 mm 3,8 km/h (1 Bft) N 9 ° 1 min 0,000 mm 7,4 UV-I 1020 W/m² 6,5 °C 16,4 °C 8,0 km/h (2 Bft)
21.05.2017 13:34 16,6 °C 16,6 °C 54 % 1023,5 hPa 0,0 mm 10,3 km/h (2 Bft) O 91 ° 1 min 0,000 mm 7,4 UV-I 1020 W/m² 7,3 °C 16,6 °C 16,1 km/h (3 Bft)
21.05.2017 13:35 16,6 °C 16,6 °C 54 % 1023,5 hPa 0,0 mm 9,9 km/h (2 Bft) O-NO 78 ° 1 min 0,000 mm 7,5 UV-I 1079 W/m² 7,3 °C 16,6 °C 16,1 km/h (3 Bft)
21.05.2017 13:36 16,4 °C 16,6 °C 54 % 1023,4 hPa 0,0 mm 9,4 km/h (2 Bft) O-NO 59 ° 1 min 0,000 mm 5,8 UV-I 1079 W/m² 7,1 °C 16,4 °C 14,5 km/h (3 Bft)
21.05.2017 13:37 16,4 °C 16,4 °C 52 % 1023,5 hPa 0,0 mm 5,7 km/h (1 Bft) NO 52 ° 1 min 0,000 mm 7,0 UV-I 1079 W/m² 6,5 °C 16,4 °C 8,0 km/h (2 Bft)
21.05.2017 13:38 16,6 °C 16,6 °C 55 % 1023,4 hPa 0,0 mm 9,9 km/h (2 Bft) O-NO 63 ° 1 min 0,000 mm 4,4 UV-I 1079 W/m² 7,5 °C 16,6 °C 17,7 km/h (3 Bft)
21.05.2017 13:39 16,4 °C 16,6 °C 52 % 1023,4 hPa 0,0 mm 14,1 km/h (3 Bft) N-NO 20 ° 1 min 0,000 mm 7,7 UV-I 1079 W/m² 6,5 °C 16,4 °C 19,3 km/h (3 Bft)
21.05.2017 13:40 16,3 °C 16,4 °C 52 % 1023,4 hPa 0,0 mm 14,0 km/h (3 Bft) N 5 ° 1 min 0,000 mm 7,4 UV-I 1079 W/m² 6,4 °C 16,3 °C 20,9 km/h (4 Bft)
21.05.2017 13:41 16,4 °C 16,4 °C 52 % 1023,5 hPa 0,0 mm 10,4 km/h (2 Bft) O 95 ° 1 min 0,000 mm 7,3 UV-I 1079 W/m² 6,5 °C 16,4 °C 16,1 km/h (3 Bft)
21.05.2017 13:42 16,4 °C 16,4 °C 52 % 1023,5 hPa 0,0 mm 15,0 km/h (3 Bft) O-SO 107 ° 1 min 0,000 mm 7,6 UV-I 1079 W/m² 6,5 °C 16,4 °C 20,9 km/h (4 Bft)
21.05.2017 13:43 16,4 °C 16,4 °C 54 % 1023,5 hPa 0,0 mm 8,1 km/h (2 Bft) O-SO 107 ° 1 min 0,000 mm 7,6 UV-I 1079 W/m² 7,1 °C 16,4 °C 14,5 km/h (3 Bft)
21.05.2017 13:44 16,3 °C 16,4 °C 53 % 1023,5 hPa 0,0 mm 12,8 km/h (3 Bft) O-NO 64 ° 1 min 0,000 mm 7,5 UV-I 1079 W/m² 6,7 °C 16,3 °C 17,7 km/h (3 Bft)
21.05.2017 13:45 16,1 °C 16,3 °C 53 % 1023,4 hPa 0,0 mm 14,0 km/h (3 Bft) O-NO 77 ° 1 min 0,000 mm 7,7 UV-I 1039 W/m² 6,5 °C 16,1 °C 19,3 km/h (3 Bft)
21.05.2017 13:46 16,2 °C 16,2 °C 55 % 1023,3 hPa 0,0 mm 7,2 km/h (2 Bft) O-NO 62 ° 1 min 0,000 mm 4,0 UV-I 1039 W/m² 7,2 °C 16,2 °C 14,5 km/h (3 Bft)
21.05.2017 13:47 16,2 °C 16,2 °C 55 % 1023,4 hPa 0,0 mm 10,9 km/h (2 Bft) NO 49 ° 1 min 0,000 mm 7,6 UV-I 1097 W/m² 7,2 °C 16,2 °C 19,3 km/h (3 Bft)
21.05.2017 13:48 16,1 °C 16,2 °C 52 % 1023,4 hPa 0,0 mm 9,1 km/h (2 Bft) O-SO 114 ° 1 min 0,000 mm 7,0 UV-I 1097 W/m² 6,2 °C 16,1 °C 14,5 km/h (3 Bft)
21.05.2017 13:49 16,1 °C 16,1 °C 54 % 1023,4 hPa 0,0 mm 15,1 km/h (3 Bft) NO 50 ° 1 min 0,000 mm 4,7 UV-I 445 W/m² 6,8 °C 16,1 °C 22,5 km/h (4 Bft)
21.05.2017 13:50 16,1 °C 16,1 °C 54 % 1023,4 hPa 0,0 mm 8,4 km/h (2 Bft) SO 127 ° 1 min 0,000 mm 4,7 UV-I 360 W/m² 6,8 °C 16,1 °C 11,3 km/h (2 Bft)
21.05.2017 13:51 16,0 °C 16,1 °C 53 % 1023,4 hPa 0,0 mm 9,9 km/h (2 Bft) NO 51 ° 1 min 0,000 mm 4,7 UV-I 360 W/m² 6,4 °C 16,0 °C 16,1 km/h (3 Bft)
21.05.2017 13:52 15,9 °C 16,0 °C 54 % 1023,4 hPa 0,0 mm 13,5 km/h (3 Bft) N-NO 30 ° 1 min 0,000 mm 4,3 UV-I 431 W/m² 6,6 °C 15,9 °C 19,3 km/h (3 Bft)
21.05.2017 13:53 15,9 °C 16,0 °C 52 % 1023,4 hPa 0,0 mm 9,3 km/h (2 Bft) O-NO 68 ° 1 min 0,000 mm 4,2 UV-I 432 W/m² 6,1 °C 15,9 °C 16,1 km/h (3 Bft)
21.05.2017 13:54 15,9 °C 15,9 °C 53 % 1023,4 hPa 0,0 mm 7,6 km/h (2 Bft) N 355 ° 1 min 0,000 mm 4,2 UV-I 443 W/m² 6,3 °C 15,9 °C 16,1 km/h (3 Bft)
21.05.2017 13:55 15,9 °C 15,9 °C 53 % 1023,4 hPa 0,0 mm 6,6 km/h (2 Bft) N-NO 17 ° 1 min 0,000 mm 6,8 UV-I 443 W/m² 6,3 °C 15,9 °C 14,5 km/h (3 Bft)
21.05.2017 13:56 16,1 °C 16,1 °C 55 % 1023,3 hPa 0,0 mm 10,4 km/h (2 Bft) NO 36 ° 1 min 0,000 mm 5,1 UV-I 443 W/m² 7,1 °C 16,1 °C 17,7 km/h (3 Bft)
21.05.2017 13:57 16,2 °C 16,2 °C 53 % 1023,3 hPa 0,0 mm 7,7 km/h (2 Bft) O-NO 71 ° 1 min 0,000 mm 4,4 UV-I 443 W/m² 6,6 °C 16,2 °C 12,9 km/h (3 Bft)
21.05.2017 13:58 16,2 °C 16,2 °C 56 % 1023,3 hPa 0,0 mm 5,6 km/h (1 Bft) O 82 ° 1 min 0,000 mm 4,5 UV-I 563 W/m² 7,4 °C 16,2 °C 14,5 km/h (3 Bft)
21.05.2017 13:59 16,3 °C 16,3 °C 53 % 1023,4 hPa 0,0 mm 12,5 km/h (3 Bft) O-NO 68 ° 1 min 0,000 mm 7,3 UV-I 563 W/m² 6,7 °C 16,3 °C 19,3 km/h (3 Bft)
21.05.2017 14:00 16,2 °C 16,3 °C 54 % 1023,4 hPa 0,0 mm 6,2 km/h (2 Bft) N-NO 25 ° 1 min 0,000 mm 6,0 UV-I 1042 W/m² 6,9 °C 16,2 °C 11,3 km/h (2 Bft)
21.05.2017 14:01 16,3 °C 16,3 °C 54 % 1023,4 hPa 0,0 mm 4,2 km/h (1 Bft) N-NO 16 ° 1 min 0,508 mm 7,8 UV-I 1042 W/m² 7,0 °C 16,3 °C 9,7 km/h (2 Bft)
21.05.2017 14:02 16,3 °C 16,3 °C 53 % 1023,4 hPa 0,0 mm 8,0 km/h (2 Bft) N 355 ° 1 min 0,000 mm 7,6 UV-I 1042 W/m² 6,7 °C 16,3 °C 14,5 km/h (3 Bft)
21.05.2017 14:03 16,4 °C 16,4 °C 52 % 1023,4 hPa 0,0 mm 8,7 km/h (2 Bft) N-NO 22 ° 1 min 0,000 mm 7,8 UV-I 1042 W/m² 6,5 °C 16,4 °C 12,9 km/h (3 Bft)
21.05.2017 14:04 16,4 °C 16,4 °C 54 % 1023,3 hPa 0,0 mm 12,1 km/h (2 Bft) O-NO 63 ° 1 min 0,000 mm 6,8 UV-I 1188 W/m² 7,1 °C 16,4 °C 16,1 km/h (3 Bft)
21.05.2017 14:05 16,4 °C 16,5 °C 51 % 1023,4 hPa 0,0 mm 8,1 km/h (2 Bft) N-NO 19 ° 1 min 0,000 mm 7,6 UV-I 1176 W/m² 6,2 °C 16,4 °C 12,9 km/h (3 Bft)
21.05.2017 14:06 16,5 °C 16,5 °C 56 % 1023,3 hPa 0,0 mm 5,4 km/h (1 Bft) NO 56 ° 1 min 0,000 mm 7,2 UV-I 1176 W/m² 7,7 °C 16,5 °C 8,0 km/h (2 Bft)
21.05.2017 14:07 16,4 °C 16,5 °C 53 % 1023,3 hPa 0,0 mm 3,2 km/h (1 Bft) NO 56 ° 1 min 0,000 mm 7,8 UV-I 1176 W/m² 6,8 °C 16,4 °C 4,8 km/h (1 Bft)
21.05.2017 14:08 16,5 °C 16,5 °C 53 % 1023,3 hPa 0,0 mm 10,4 km/h (2 Bft) NO 43 ° 1 min 0,000 mm 7,8 UV-I 1209 W/m² 6,9 °C 16,5 °C 14,5 km/h (3 Bft)
21.05.2017 14:09 16,6 °C 16,6 °C 53 % 1023,3 hPa 0,0 mm 6,0 km/h (2 Bft) O 85 ° 1 min 0,000 mm 7,8 UV-I 1225 W/m² 7,0 °C 16,6 °C 8,0 km/h (2 Bft)
21.05.2017 14:10 16,6 °C 16,6 °C 52 % 1023,2 hPa 0,0 mm 7,9 km/h (2 Bft) O-NO 61 ° 1 min 0,000 mm 6,4 UV-I 1225 W/m² 6,7 °C 16,6 °C 14,5 km/h (3 Bft)
21.05.2017 14:11 16,6 °C 16,6 °C 54 % 1023,2 hPa 0,0 mm 8,6 km/h (2 Bft) NO 39 ° 1 min 0,000 mm 7,9 UV-I 1225 W/m² 7,3 °C 16,6 °C 14,5 km/h (3 Bft)
21.05.2017 14:12 16,7 °C 16,7 °C 53 % 1023,2 hPa 0,0 mm 9,7 km/h (2 Bft) O-NO 70 ° 1 min 0,000 mm 7,9 UV-I 1225 W/m² 7,1 °C 16,7 °C 16,1 km/h (3 Bft)
21.05.2017 14:13 16,7 °C 16,7 °C 52 % 1023,2 hPa 0,0 mm 9,3 km/h (2 Bft) O-NO 68 ° 1 min 0,000 mm 8,0 UV-I 1287 W/m² 6,8 °C 16,7 °C 19,3 km/h (3 Bft)
21.05.2017 14:14 16,8 °C 16,8 °C 55 % 1023,2 hPa 0,0 mm 9,5 km/h (2 Bft) NO 52 ° 1 min 0,000 mm 7,8 UV-I 1283 W/m² 7,7 °C 16,8 °C 16,1 km/h (3 Bft)
21.05.2017 14:15 16,9 °C 16,9 °C 52 % 1023,2 hPa 0,0 mm 10,8 km/h (2 Bft) O 84 ° 1 min 0,000 mm 5,7 UV-I 1283 W/m² 7,0 °C 16,9 °C 14,5 km/h (3 Bft)
21.05.2017 14:16 16,9 °C 16,9 °C 52 % 1023,3 hPa 0,0 mm 9,0 km/h (2 Bft) N-NO 19 ° 1 min 0,000 mm 4,5 UV-I 1283 W/m² 7,0 °C 16,9 °C 12,9 km/h (3 Bft)
21.05.2017 14:17 16,8 °C 16,9 °C 50 % 1023,2 hPa 0,0 mm 8,3 km/h (2 Bft) O 96 ° 1 min 0,000 mm 4,5 UV-I 1283 W/m² 6,3 °C 16,8 °C 11,3 km/h (2 Bft)
21.05.2017 14:18 16,6 °C 16,8 °C 55 % 1023,2 hPa 0,0 mm 4,8 km/h (1 Bft) NO 53 ° 1 min 0,000 mm 5,9 UV-I 1283 W/m² 7,5 °C 16,6 °C 9,7 km/h (2 Bft)
21.05.2017 14:19 16,6 °C 16,6 °C 51 % 1023,2 hPa 0,0 mm 9,9 km/h (2 Bft) NO 46 ° 1 min 0,000 mm 4,7 UV-I 545 W/m² 6,4 °C 16,6 °C 12,9 km/h (3 Bft)
21.05.2017 14:20 16,4 °C 16,6 °C 55 % 1023,1 hPa 0,0 mm 8,0 km/h (2 Bft) N-NO 31 ° 1 min 0,000 mm 4,0 UV-I 506 W/m² 7,3 °C 16,4 °C 11,3 km/h (2 Bft)
21.05.2017 14:21 16,3 °C 16,4 °C 52 % 1023,1 hPa 0,0 mm 4,1 km/h (1 Bft) O-NO 65 ° 1 min 0,000 mm 3,8 UV-I 434 W/m² 6,4 °C 16,3 °C 6,4 km/h (2 Bft)
21.05.2017 14:22 16,3 °C 16,3 °C 55 % 1023,1 hPa 0,0 mm 8,1 km/h (2 Bft) O 86 ° 1 min 0,000 mm 4,0 UV-I 450 W/m² 7,2 °C 16,3 °C 11,3 km/h (2 Bft)
21.05.2017 14:23 16,3 °C 16,4 °C 54 % 1023,2 hPa 0,0 mm 11,2 km/h (2 Bft) O-NO 65 ° 1 min 0,000 mm 5,2 UV-I 450 W/m² 7,0 °C 16,3 °C 17,7 km/h (3 Bft)
21.05.2017 14:24 16,3 °C 16,3 °C 52 % 1023,2 hPa 0,0 mm 7,1 km/h (2 Bft) N-NO 17 ° 1 min 0,000 mm 6,2 UV-I 450 W/m² 6,4 °C 16,3 °C 12,9 km/h (3 Bft)
21.05.2017 14:25 16,3 °C 16,3 °C 54 % 1023,1 hPa 0,0 mm 7,4 km/h (2 Bft) O 79 ° 1 min 0,000 mm 4,3 UV-I 592 W/m² 7,0 °C 16,3 °C 14,5 km/h (3 Bft)
21.05.2017 14:26 16,3 °C 16,4 °C 53 % 1023,1 hPa 0,0 mm 8,9 km/h (2 Bft) O-SO 110 ° 1 min 0,000 mm 3,8 UV-I 592 W/m² 6,7 °C 16,3 °C 14,5 km/h (3 Bft)
21.05.2017 14:27 16,2 °C 16,3 °C 54 % 1023,1 hPa 0,0 mm 7,3 km/h (2 Bft) NO 49 ° 1 min 0,000 mm 3,6 UV-I 336 W/m² 6,9 °C 16,2 °C 12,9 km/h (3 Bft)
21.05.2017 14:28 16,1 °C 16,2 °C 52 % 1023,1 hPa 0,0 mm 11,7 km/h (2 Bft) O-NO 63 ° 1 min 0,000 mm 3,8 UV-I 327 W/m² 6,2 °C 16,1 °C 17,7 km/h (3 Bft)
21.05.2017 14:29 16,0 °C 16,1 °C 53 % 1023,0 hPa 0,0 mm 8,0 km/h (2 Bft) O 86 ° 1 min 0,000 mm 3,6 UV-I 320 W/m² 6,4 °C 16,0 °C 12,9 km/h (3 Bft)
21.05.2017 14:30 15,9 °C 16,0 °C 54 % 1023,1 hPa 0,0 mm 7,6 km/h (2 Bft) O-SO 117 ° 1 min 0,000 mm 3,8 UV-I 346 W/m² 6,6 °C 15,9 °C 11,3 km/h (2 Bft)
21.05.2017 14:31 15,8 °C 15,9 °C 54 % 1023,1 hPa 0,0 mm 5,6 km/h (1 Bft) N-NO 24 ° 1 min 0,000 mm 3,8 UV-I 366 W/m² 6,5 °C 15,8 °C 6,4 km/h (2 Bft)
21.05.2017 14:32 15,8 °C 15,8 °C 54 % 1023,0 hPa 0,0 mm 7,3 km/h (2 Bft) O-NO 60 ° 1 min 0,000 mm 3,5 UV-I 338 W/m² 6,5 °C 15,8 °C 11,3 km/h (2 Bft)
21.05.2017 14:33 15,8 °C 15,8 °C 56 % 1023,0 hPa 0,0 mm 7,0 km/h (2 Bft) O 89 ° 1 min 0,000 mm 3,6 UV-I 353 W/m² 7,0 °C 15,8 °C 16,1 km/h (3 Bft)
21.05.2017 14:34 16,0 °C 16,0 °C 56 % 1023,0 hPa 0,0 mm 6,8 km/h (2 Bft) NO 48 ° 1 min 0,000 mm 3,7 UV-I 380 W/m² 7,2 °C 16,0 °C 14,5 km/h (3 Bft)
21.05.2017 14:35 16,1 °C 16,1 °C 54 % 1023,0 hPa 0,0 mm 6,9 km/h (2 Bft) O-NO 67 ° 1 min 0,000 mm 3,7 UV-I 413 W/m² 6,8 °C 16,1 °C 11,3 km/h (2 Bft)
21.05.2017 14:36 16,0 °C 16,1 °C 55 % 1023,0 hPa 0,0 mm 5,1 km/h (1 Bft) O-NO 75 ° 1 min 0,000 mm 3,7 UV-I 406 W/m² 7,0 °C 16,0 °C 8,0 km/h (2 Bft)
21.05.2017 14:37 16,0 °C 16,0 °C 60 % 1023,0 hPa 0,0 mm 6,6 km/h (2 Bft) O-NO 74 ° 1 min 0,000 mm 3,8 UV-I 422 W/m² 8,2 °C 16,0 °C 9,7 km/h (2 Bft)
21.05.2017 14:38 16,1 °C 16,1 °C 55 % 1023,0 hPa 0,0 mm 5,0 km/h (1 Bft) SO 126 ° 1 min 0,000 mm 3,9 UV-I 464 W/m² 7,1 °C 16,1 °C 6,4 km/h (2 Bft)
21.05.2017 14:39 16,1 °C 16,1 °C 54 % 1023,0 hPa 0,0 mm 5,9 km/h (2 Bft) O-NO 67 ° 1 min 0,000 mm 5,1 UV-I 559 W/m² 6,8 °C 16,1 °C 14,5 km/h (3 Bft)
21.05.2017 14:40 16,1 °C 16,1 °C 53 % 1023,0 hPa 0,0 mm 9,9 km/h (2 Bft) SO 126 ° 1 min 0,000 mm 5,7 UV-I 559 W/m² 6,5 °C 16,1 °C 12,9 km/h (3 Bft)
21.05.2017 14:41 16,1 °C 16,1 °C 53 % 1022,9 hPa 0,0 mm 6,9 km/h (2 Bft) O 96 ° 1 min 0,000 mm 4,1 UV-I 468 W/m² 6,5 °C 16,1 °C 12,9 km/h (3 Bft)
21.05.2017 14:42 16,0 °C 16,1 °C 52 % 1022,9 hPa 0,0 mm 5,9 km/h (2 Bft) N-NO 23 ° 1 min 0,000 mm 3,8 UV-I 503 W/m² 6,2 °C 16,0 °C 9,7 km/h (2 Bft)
21.05.2017 14:43 16,1 °C 16,1 °C 55 % 1022,9 hPa 0,0 mm 7,4 km/h (2 Bft) O-NO 71 ° 1 min 0,000 mm 3,4 UV-I 455 W/m² 7,1 °C 16,1 °C 11,3 km/h (2 Bft)
21.05.2017 14:44 16,1 °C 16,1 °C 55 % 1022,9 hPa 0,0 mm 8,4 km/h (2 Bft) O-NO 68 ° 1 min 0,000 mm 3,3 UV-I 452 W/m² 7,1 °C 16,1 °C 12,9 km/h (3 Bft)
21.05.2017 14:45 16,1 °C 16,1 °C 55 % 1023,0 hPa 0,0 mm 6,0 km/h (2 Bft) O 88 ° 1 min 0,000 mm 3,3 UV-I 425 W/m² 7,1 °C 16,1 °C 8,0 km/h (2 Bft)
21.05.2017 14:46 16,0 °C 16,1 °C 55 % 1023,0 hPa 0,0 mm 8,4 km/h (2 Bft) O-SO 117 ° 1 min 0,000 mm 3,2 UV-I 376 W/m² 7,0 °C 16,0 °C 12,9 km/h (3 Bft)
21.05.2017 14:47 15,9 °C 16,0 °C 53 % 1022,9 hPa 0,0 mm 5,0 km/h (1 Bft) N-NO 26 ° 1 min 0,000 mm 3,0 UV-I 355 W/m² 6,3 °C 15,9 °C 8,0 km/h (2 Bft)
21.05.2017 14:48 15,9 °C 15,9 °C 54 % 1022,9 hPa 0,0 mm 6,5 km/h (2 Bft) O-NO 75 ° 1 min 0,000 mm 2,7 UV-I 334 W/m² 6,6 °C 15,9 °C 11,3 km/h (2 Bft)
21.05.2017 14:49 16,0 °C 16,0 °C 56 % 1023,0 hPa 0,0 mm 11,4 km/h (2 Bft) O 89 ° 1 min 0,000 mm 2,6 UV-I 318 W/m² 7,2 °C 16,0 °C 16,1 km/h (3 Bft)
21.05.2017 14:50 16,0 °C 16,0 °C 55 % 1022,9 hPa 0,0 mm 6,4 km/h (2 Bft) O 80 ° 1 min 0,000 mm 2,5 UV-I 308 W/m² 7,0 °C 16,0 °C 12,9 km/h (3 Bft)
21.05.2017 14:51 15,9 °C 16,0 °C 55 % 1023,0 hPa 0,0 mm 6,6 km/h (2 Bft) O-NO 65 ° 1 min 0,000 mm 2,4 UV-I 301 W/m² 6,9 °C 15,9 °C 11,3 km/h (2 Bft)
21.05.2017 14:52 15,9 °C 15,9 °C 53 % 1023,0 hPa 0,0 mm 8,5 km/h (2 Bft) NO 54 ° 1 min 0,000 mm 2,4 UV-I 295 W/m² 6,3 °C 15,9 °C 14,5 km/h (3 Bft)
21.05.2017 14:53 15,9 °C 15,9 °C 53 % 1022,9 hPa 0,0 mm 8,3 km/h (2 Bft) O-NO 63 ° 1 min 0,000 mm 2,4 UV-I 294 W/m² 6,3 °C 15,9 °C 12,9 km/h (3 Bft)
21.05.2017 14:54 15,8 °C 15,9 °C 53 % 1022,9 hPa 0,0 mm 7,2 km/h (2 Bft) NO 42 ° 1 min 0,000 mm 2,4 UV-I 294 W/m² 6,2 °C 15,8 °C 9,7 km/h (2 Bft)
21.05.2017 14:55 15,9 °C 15,9 °C 53 % 1022,9 hPa 0,0 mm 6,2 km/h (2 Bft) N-NO 32 ° 1 min 0,000 mm 2,4 UV-I 295 W/m² 6,3 °C 15,9 °C 9,7 km/h (2 Bft)
21.05.2017 14:56 15,9 °C 15,9 °C 54 % 1022,9 hPa 0,0 mm 6,6 km/h (2 Bft) NO 51 ° 1 min 0,000 mm 2,4 UV-I 297 W/m² 6,6 °C 15,9 °C 11,3 km/h (2 Bft)
21.05.2017 14:57 15,9 °C 15,9 °C 53 % 1022,9 hPa 0,0 mm 7,8 km/h (2 Bft) O-NO 61 ° 1 min 0,000 mm 2,4 UV-I 299 W/m² 6,3 °C 15,9 °C 11,3 km/h (2 Bft)
21.05.2017 14:58 16,0 °C 16,0 °C 53 % 1022,9 hPa 0,0 mm 6,1 km/h (2 Bft) NO 44 ° 1 min 0,000 mm 2,4 UV-I 301 W/m² 6,4 °C 16,0 °C 9,7 km/h (2 Bft)
21.05.2017 14:59 16,0 °C 16,0 °C 54 % 1022,8 hPa 0,0 mm 4,6 km/h (1 Bft) O-NO 61 ° 1 min 0,000 mm 2,5 UV-I 306 W/m² 6,7 °C 16,0 °C 6,4 km/h (2 Bft)
21.05.2017 15:00 16,0 °C 16,0 °C 55 % 1022,8 hPa 0,0 mm 3,2 km/h (1 Bft) O-NO 71 ° 1 min 0,000 mm 2,5 UV-I 309 W/m² 7,0 °C 16,0 °C 6,4 km/h (2 Bft)
21.05.2017 15:01 15,9 °C 16,0 °C 55 % 1022,8 hPa 0,0 mm 4,4 km/h (1 Bft) O-NO 57 ° 1 min 0,356 mm 2,6 UV-I 316 W/m² 6,9 °C 15,9 °C 9,7 km/h (2 Bft)
21.05.2017 15:02 15,9 °C 16,0 °C 56 % 1022,8 hPa 0,0 mm 5,6 km/h (1 Bft) O-NO 59 ° 1 min 0,000 mm 2,7 UV-I 329 W/m² 7,1 °C 15,9 °C 6,4 km/h (2 Bft)
21.05.2017 15:03 15,9 °C 15,9 °C 55 % 1022,8 hPa 0,0 mm 4,7 km/h (1 Bft) O 80 ° 1 min 0,000 mm 2,9 UV-I 348 W/m² 6,9 °C 15,9 °C 6,4 km/h (2 Bft)
21.05.2017 15:04 15,9 °C 16,0 °C 56 % 1022,8 hPa 0,0 mm 3,7 km/h (1 Bft) NO 38 ° 1 min 0,000 mm 3,0 UV-I 381 W/m² 7,1 °C 15,9 °C 6,4 km/h (2 Bft)
21.05.2017 15:05 16,0 °C 16,0 °C 57 % 1022,8 hPa 0,0 mm 8,9 km/h (2 Bft) NO 36 ° 1 min 0,000 mm 3,1 UV-I 380 W/m² 7,5 °C 16,0 °C 14,5 km/h (3 Bft)
21.05.2017 15:06 16,2 °C 16,2 °C 55 % 1022,8 hPa 0,0 mm 6,0 km/h (2 Bft) NO 46 ° 1 min 0,000 mm 3,1 UV-I 376 W/m² 7,2 °C 16,2 °C 11,3 km/h (2 Bft)
21.05.2017 15:07 16,2 °C 16,2 °C 55 % 1022,8 hPa 0,0 mm 5,1 km/h (1 Bft) S 187 ° 1 min 0,000 mm 3,0 UV-I 371 W/m² 7,2 °C 16,2 °C 8,0 km/h (2 Bft)
21.05.2017 15:08 16,2 °C 16,2 °C 56 % 1022,8 hPa 0,0 mm 5,4 km/h (1 Bft) O 85 ° 1 min 0,000 mm 3,0 UV-I 366 W/m² 7,4 °C 16,2 °C 11,3 km/h (2 Bft)
21.05.2017 15:09 16,2 °C 16,2 °C 57 % 1022,8 hPa 0,0 mm 5,4 km/h (1 Bft) O-NO 67 ° 1 min 0,000 mm 3,0 UV-I 360 W/m² 7,7 °C 16,2 °C 9,7 km/h (2 Bft)
21.05.2017 15:10 16,2 °C 16,2 °C 54 % 1022,8 hPa 0,0 mm 5,2 km/h (1 Bft) NO 39 ° 1 min 0,000 mm 3,0 UV-I 359 W/m² 6,9 °C 16,2 °C 11,3 km/h (2 Bft)
21.05.2017 15:11 16,1 °C 16,2 °C 54 % 1022,8 hPa 0,0 mm 5,4 km/h (1 Bft) NO 44 ° 1 min 0,000 mm 3,0 UV-I 360 W/m² 6,8 °C 16,1 °C 8,0 km/h (2 Bft)
21.05.2017 15:12 16,1 °C 16,2 °C 55 % 1022,8 hPa 0,0 mm 4,8 km/h (1 Bft) N-NW 331 ° 1 min 0,000 mm 3,0 UV-I 367 W/m² 7,1 °C 16,1 °C 8,0 km/h (2 Bft)
21.05.2017 15:13 16,2 °C 16,2 °C 54 % 1022,8 hPa 0,0 mm 4,5 km/h (1 Bft) O-NO 72 ° 1 min 0,000 mm 2,9 UV-I 352 W/m² 6,9 °C 16,2 °C 8,0 km/h (2 Bft)
21.05.2017 15:14 16,1 °C 16,2 °C 58 % 1022,8 hPa 0,0 mm 1,9 km/h (1 Bft) O-NO 73 ° 1 min 0,000 mm 2,8 UV-I 343 W/m² 7,8 °C 16,1 °C 3,2 km/h (1 Bft)
21.05.2017 15:15 16,1 °C 16,2 °C 61 % 1022,8 hPa 0,0 mm 4,5 km/h (1 Bft) NO 49 ° 1 min 0,000 mm 2,8 UV-I 339 W/m² 8,6 °C 16,1 °C 9,7 km/h (2 Bft)
21.05.2017 15:16 16,2 °C 16,2 °C 59 % 1022,8 hPa 0,0 mm 6,2 km/h (2 Bft) N-NO 23 ° 1 min 0,000 mm 2,7 UV-I 323 W/m² 8,2 °C 16,2 °C 12,9 km/h (3 Bft)
21.05.2017 15:17 16,3 °C 16,3 °C 54 % 1022,7 hPa 0,0 mm 7,7 km/h (2 Bft) O-NO 76 ° 1 min 0,000 mm 2,7 UV-I 318 W/m² 7,0 °C 16,3 °C 11,3 km/h (2 Bft)
21.05.2017 15:18 16,3 °C 16,3 °C 54 % 1022,7 hPa 0,0 mm 8,3 km/h (2 Bft) NO 42 ° 1 min 0,000 mm 2,7 UV-I 318 W/m² 7,0 °C 16,3 °C 16,1 km/h (3 Bft)
21.05.2017 15:19 16,3 °C 16,3 °C 55 % 1022,7 hPa 0,0 mm 6,3 km/h (2 Bft) O 95 ° 1 min 0,000 mm 2,7 UV-I 322 W/m² 7,2 °C 16,3 °C 9,7 km/h (2 Bft)
21.05.2017 15:20 16,2 °C 16,3 °C 56 % 1022,7 hPa 0,0 mm 3,2 km/h (1 Bft) O 94 ° 1 min 0,000 mm 2,7 UV-I 323 W/m² 7,4 °C 16,2 °C 6,4 km/h (2 Bft)
21.05.2017 15:21 16,2 °C 16,2 °C 55 % 1022,7 hPa 0,0 mm 4,8 km/h (1 Bft) O-NO 57 ° 1 min 0,000 mm 2,7 UV-I 329 W/m² 7,2 °C 16,2 °C 6,4 km/h (2 Bft)
21.05.2017 15:22 16,1 °C 16,2 °C 54 % 1022,8 hPa 0,0 mm 4,7 km/h (1 Bft) O-NO 62 ° 1 min 0,000 mm 2,7 UV-I 330 W/m² 6,8 °C 16,1 °C 8,0 km/h (2 Bft)
21.05.2017 15:23 16,1 °C 16,2 °C 54 % 1022,8 hPa 0,0 mm 7,9 km/h (2 Bft) O-NO 77 ° 1 min 0,000 mm 2,7 UV-I 330 W/m² 6,8 °C 16,1 °C 16,1 km/h (3 Bft)
21.05.2017 15:24 16,1 °C 16,1 °C 55 % 1022,7 hPa 0,0 mm 4,7 km/h (1 Bft) NO 52 ° 1 min 0,000 mm 2,7 UV-I 330 W/m² 7,1 °C 16,1 °C 6,4 km/h (2 Bft)
21.05.2017 15:25 16,1 °C 16,1 °C 55 % 1022,7 hPa 0,0 mm 8,1 km/h (2 Bft) O-NO 69 ° 1 min 0,000 mm 2,7 UV-I 332 W/m² 7,1 °C 16,1 °C 16,1 km/h (3 Bft)
21.05.2017 15:26 16,1 °C 16,1 °C 55 % 1022,7 hPa 0,0 mm 11,7 km/h (2 Bft) O 80 ° 1 min 0,000 mm 2,7 UV-I 327 W/m² 7,1 °C 16,1 °C 16,1 km/h (3 Bft)
21.05.2017 15:27 16,1 °C 16,1 °C 54 % 1022,8 hPa 0,0 mm 12,5 km/h (3 Bft) NO 54 ° 1 min 0,000 mm 2,6 UV-I 318 W/m² 6,8 °C 16,1 °C 16,1 km/h (3 Bft)
21.05.2017 15:28 16,1 °C 16,1 °C 54 % 1022,8 hPa 0,0 mm 10,0 km/h (2 Bft) O 90 ° 1 min 0,000 mm 2,6 UV-I 318 W/m² 6,8 °C 16,1 °C 14,5 km/h (3 Bft)
21.05.2017 15:29 16,1 °C 16,1 °C 55 % 1022,7 hPa 0,0 mm 2,2 km/h (1 Bft) O 90 ° 1 min 0,000 mm 2,6 UV-I 318 W/m² 7,1 °C 16,1 °C 4,8 km/h (1 Bft)
21.05.2017 15:30 16,1 °C 16,1 °C 55 % 1022,7 hPa 0,0 mm 4,6 km/h (1 Bft) O 89 ° 1 min 0,000 mm 2,6 UV-I 320 W/m² 7,1 °C 16,1 °C 9,7 km/h (2 Bft)
21.05.2017 15:31 16,1 °C 16,1 °C 55 % 1022,8 hPa 0,0 mm 9,0 km/h (2 Bft) O-NO 59 ° 1 min 0,000 mm 2,6 UV-I 320 W/m² 7,1 °C 16,1 °C 17,7 km/h (3 Bft)
21.05.2017 15:32 16,1 °C 16,1 °C 56 % 1022,8 hPa 0,0 mm 2,5 km/h (1 Bft) O 80 ° 1 min 0,000 mm 2,6 UV-I 320 W/m² 7,3 °C 16,1 °C 4,8 km/h (1 Bft)
21.05.2017 15:33 16,1 °C 16,1 °C 55 % 1022,8 hPa 0,0 mm 4,8 km/h (1 Bft) NO 39 ° 1 min 0,000 mm 2,6 UV-I 315 W/m² 7,1 °C 16,1 °C 6,4 km/h (2 Bft)
21.05.2017 15:34 16,1 °C 16,1 °C 54 % 1022,8 hPa 0,0 mm 7,5 km/h (2 Bft) O-NO 61 ° 1 min 0,000 mm 2,6 UV-I 316 W/m² 6,8 °C 16,1 °C 12,9 km/h (3 Bft)
21.05.2017 15:35 16,1 °C 16,1 °C 54 % 1022,8 hPa 0,0 mm 6,1 km/h (2 Bft) NO 38 ° 1 min 0,000 mm 2,6 UV-I 327 W/m² 6,8 °C 16,1 °C 9,7 km/h (2 Bft)
21.05.2017 15:36 16,1 °C 16,1 °C 55 % 1022,8 hPa 0,0 mm 12,3 km/h (3 Bft) O 80 ° 1 min 0,000 mm 2,6 UV-I 327 W/m² 7,1 °C 16,1 °C 14,5 km/h (3 Bft)
21.05.2017 15:37 15,9 °C 16,1 °C 55 % 1022,8 hPa 0,0 mm 7,6 km/h (2 Bft) O 84 ° 1 min 0,000 mm 2,5 UV-I 327 W/m² 6,9 °C 15,9 °C 14,5 km/h (3 Bft)
21.05.2017 15:38 15,8 °C 15,9 °C 54 % 1022,8 hPa 0,0 mm 4,1 km/h (1 Bft) N-NW 347 ° 1 min 0,000 mm 2,5 UV-I 309 W/m² 6,5 °C 15,8 °C 9,7 km/h (2 Bft)
21.05.2017 15:39 15,8 °C 15,8 °C 57 % 1022,7 hPa 0,0 mm 5,0 km/h (1 Bft) N 10 ° 1 min 0,000 mm 2,5 UV-I 308 W/m² 7,3 °C 15,8 °C 16,1 km/h (3 Bft)
21.05.2017 15:40 15,9 °C 15,9 °C 55 % 1022,6 hPa 0,0 mm 11,3 km/h (2 Bft) NO 46 ° 1 min 0,000 mm 2,6 UV-I 311 W/m² 6,9 °C 15,9 °C 14,5 km/h (3 Bft)
21.05.2017 15:41 15,9 °C 15,9 °C 55 % 1022,6 hPa 0,0 mm 3,6 km/h (1 Bft) N 355 ° 1 min 0,000 mm 2,6 UV-I 316 W/m² 6,9 °C 15,9 °C 6,4 km/h (2 Bft)
21.05.2017 15:42 16,0 °C 16,0 °C 55 % 1022,6 hPa 0,0 mm 4,5 km/h (1 Bft) NO 44 ° 1 min 0,000 mm 2,7 UV-I 323 W/m² 7,0 °C 16,0 °C 8,0 km/h (2 Bft)
21.05.2017 15:43 16,1 °C 16,1 °C 58 % 1022,7 hPa 0,0 mm 4,6 km/h (1 Bft) N-NO 30 ° 1 min 0,000 mm 2,7 UV-I 332 W/m² 7,8 °C 16,1 °C 6,4 km/h (2 Bft)
21.05.2017 15:44 16,2 °C 16,2 °C 57 % 1022,7 hPa 0,0 mm 5,0 km/h (1 Bft) O 84 ° 1 min 0,000 mm 2,7 UV-I 338 W/m² 7,7 °C 16,2 °C 6,4 km/h (2 Bft)
21.05.2017 15:45 16,2 °C 16,2 °C 54 % 1022,7 hPa 0,0 mm 6,3 km/h (2 Bft) N 11 ° 1 min 0,000 mm 2,7 UV-I 336 W/m² 6,9 °C 16,2 °C 9,7 km/h (2 Bft)
21.05.2017 15:46 16,1 °C 16,2 °C 56 % 1022,6 hPa 0,0 mm 9,3 km/h (2 Bft) O-SO 119 ° 1 min 0,000 mm 2,6 UV-I 332 W/m² 7,3 °C 16,1 °C 16,1 km/h (3 Bft)
21.05.2017 15:47 16,1 °C 16,1 °C 54 % 1022,7 hPa 0,0 mm 9,7 km/h (2 Bft) O-NO 74 ° 1 min 0,000 mm 2,5 UV-I 325 W/m² 6,8 °C 16,1 °C 17,7 km/h (3 Bft)
21.05.2017 15:48 16,0 °C 16,1 °C 55 % 1022,7 hPa 0,0 mm 5,7 km/h (1 Bft) N 349 ° 1 min 0,000 mm 2,5 UV-I 320 W/m² 7,0 °C 16,0 °C 9,7 km/h (2 Bft)
21.05.2017 15:49 16,0 °C 16,1 °C 56 % 1022,7 hPa 0,0 mm 9,1 km/h (2 Bft) N-NW 347 ° 1 min 0,000 mm 2,5 UV-I 318 W/m² 7,2 °C 16,0 °C 12,9 km/h (3 Bft)
21.05.2017 15:50 16,1 °C 16,1 °C 55 % 1022,7 hPa 0,0 mm 7,9 km/h (2 Bft) N-NW 327 ° 1 min 0,000 mm 2,5 UV-I 313 W/m² 7,1 °C 16,1 °C 14,5 km/h (3 Bft)
21.05.2017 15:51 16,1 °C 16,1 °C 57 % 1022,6 hPa 0,0 mm 5,2 km/h (1 Bft) O-NO 67 ° 1 min 0,000 mm 2,3 UV-I 294 W/m² 7,6 °C 16,1 °C 8,0 km/h (2 Bft)
21.05.2017 15:52 16,2 °C 16,2 °C 55 % 1022,6 hPa 0,0 mm 5,7 km/h (1 Bft) N-NO 32 ° 0 min 0,000 mm 2,2 UV-I 288 W/m² 7,2 °C 16,2 °C 8,0 km/h (2 Bft)
21.05.2017 15:53 16,2 °C 16,2 °C 57 % 1022,7 hPa 0,0 mm 7,7 km/h (2 Bft) O-NO 58 ° 0 min 0,000 mm 2,2 UV-I 287 W/m² 7,7 °C 16,2 °C 12,9 km/h (3 Bft)
21.05.2017 15:54 16,1 °C 16,2 °C 54 % 1022,7 hPa 0,0 mm 3,2 km/h (1 Bft) O 86 ° 0 min 0,000 mm 2,2 UV-I 287 W/m² 6,8 °C 16,1 °C 6,4 km/h (2 Bft)
21.05.2017 15:55 16,1 °C 16,1 °C 56 % 1022,6 hPa 0,0 mm 5,3 km/h (1 Bft) O-NO 73 ° 0 min 0,000 mm 2,2 UV-I 287 W/m² 7,3 °C 16,1 °C 8,0 km/h (2 Bft)
21.05.2017 15:56 15,9 °C 16,1 °C 54 % 1022,6 hPa 0,0 mm 4,6 km/h (1 Bft) O-NO 62 ° 0 min 0,000 mm 2,2 UV-I 288 W/m² 6,6 °C 15,9 °C 9,7 km/h (2 Bft)
21.05.2017 15:57 15,9 °C 16,0 °C 54 % 1022,6 hPa 0,0 mm 8,0 km/h (2 Bft) NO 35 ° 0 min 0,000 mm 2,2 UV-I 287 W/m² 6,6 °C 15,9 °C 12,9 km/h (3 Bft)
21.05.2017 15:58 15,9 °C 15,9 °C 54 % 1022,6 hPa 0,0 mm 4,5 km/h (1 Bft) NO 51 ° 0 min 0,000 mm 2,1 UV-I 276 W/m² 6,6 °C 15,9 °C 8,0 km/h (2 Bft)
21.05.2017 15:59 15,9 °C 15,9 °C 54 % 1022,5 hPa 0,0 mm 3,6 km/h (1 Bft) N-NO 29 ° 0 min 0,000 mm 2,1 UV-I 267 W/m² 6,6 °C 15,9 °C 6,4 km/h (2 Bft)
21.05.2017 16:00 15,9 °C 15,9 °C 54 % 1022,5 hPa 0,0 mm 5,1 km/h (1 Bft) N 360 ° 0 min 0,000 mm 2,0 UV-I 257 W/m² 6,6 °C 15,9 °C 8,0 km/h (2 Bft)
21.05.2017 16:01 15,9 °C 15,9 °C 56 % 1022,5 hPa 0,0 mm 5,8 km/h (2 Bft) N-NO 29 ° 0 min 0,203 mm 2,0 UV-I 251 W/m² 7,1 °C 15,9 °C 9,7 km/h (2 Bft)
21.05.2017 16:03 15,9 °C 16,0 °C 55 % 1022,5 hPa 0,0 mm 5,5 km/h (1 Bft) N-NO 22 ° 0 min 0,000 mm 2,0 UV-I 251 W/m² 6,9 °C 15,9 °C 9,7 km/h (2 Bft)
21.05.2017 16:04 15,9 °C 15,9 °C 54 % 1022,5 hPa 0,0 mm 6,1 km/h (2 Bft) N 360 ° 0 min 0,000 mm 2,0 UV-I 251 W/m² 6,6 °C 15,9 °C 14,5 km/h (3 Bft)
21.05.2017 16:05 16,0 °C 16,0 °C 56 % 1022,5 hPa 0,0 mm 4,1 km/h (1 Bft) O 90 ° 0 min 0,000 mm 2,0 UV-I 257 W/m² 7,2 °C 16,0 °C 6,4 km/h (2 Bft)
21.05.2017 16:06 16,1 °C 16,1 °C 54 % 1022,5 hPa 0,0 mm 7,9 km/h (2 Bft) NO 44 ° 0 min 0,000 mm 2,1 UV-I 260 W/m² 6,8 °C 16,1 °C 14,5 km/h (3 Bft)
21.05.2017 16:07 16,1 °C 16,1 °C 53 % 1022,5 hPa 0,0 mm 6,0 km/h (2 Bft) NO 44 ° 0 min 0,000 mm 2,1 UV-I 265 W/m² 6,5 °C 16,1 °C 8,0 km/h (2 Bft)
21.05.2017 16:08 16,1 °C 16,1 °C 56 % 1022,5 hPa 0,0 mm 5,8 km/h (2 Bft) O 96 ° 0 min 0,000 mm 2,1 UV-I 269 W/m² 7,3 °C 16,1 °C 12,9 km/h (3 Bft)
21.05.2017 16:09 16,0 °C 16,1 °C 54 % 1022,5 hPa 0,0 mm 10,1 km/h (2 Bft) O-NO 78 ° 0 min 0,000 mm 2,1 UV-I 271 W/m² 6,7 °C 16,0 °C 17,7 km/h (3 Bft)
21.05.2017 16:10 15,9 °C 16,0 °C 56 % 1022,5 hPa 0,0 mm 8,5 km/h (2 Bft) O-SO 116 ° 0 min 0,000 mm 2,1 UV-I 274 W/m² 7,1 °C 15,9 °C 16,1 km/h (3 Bft)
21.05.2017 16:11 15,9 °C 15,9 °C 54 % 1022,5 hPa 0,0 mm 4,4 km/h (1 Bft) O-NO 76 ° 0 min 0,000 mm 2,1 UV-I 276 W/m² 6,6 °C 15,9 °C 8,0 km/h (2 Bft)
21.05.2017 16:12 15,9 °C 15,9 °C 54 % 1022,5 hPa 0,0 mm 7,2 km/h (2 Bft) O-NO 71 ° 0 min 0,000 mm 2,1 UV-I 278 W/m² 6,6 °C 15,9 °C 11,3 km/h (2 Bft)
21.05.2017 16:13 15,9 °C 15,9 °C 54 % 1022,5 hPa 0,0 mm 4,4 km/h (1 Bft) NO 43 ° 0 min 0,000 mm 2,2 UV-I 281 W/m² 6,6 °C 15,9 °C 8,0 km/h (2 Bft)
21.05.2017 16:14 15,9 °C 15,9 °C 55 % 1022,5 hPa 0,0 mm 4,2 km/h (1 Bft) O-SO 114 ° 0 min 0,000 mm 2,2 UV-I 288 W/m² 6,9 °C 15,9 °C 6,4 km/h (2 Bft)
21.05.2017 16:15 16,0 °C 16,0 °C 56 % 1022,4 hPa 0,0 mm 8,9 km/h (2 Bft) NO 48 ° 1 min 0,000 mm 2,2 UV-I 290 W/m² 7,2 °C 16,0 °C 14,5 km/h (3 Bft)
21.05.2017 16:16 16,1 °C 16,1 °C 54 % 1022,5 hPa 0,0 mm 9,4 km/h (2 Bft) NO 38 ° 1 min 0,000 mm 2,2 UV-I 294 W/m² 6,8 °C 16,1 °C 16,1 km/h (3 Bft)
21.05.2017 16:17 16,0 °C 16,1 °C 54 % 1022,4 hPa 0,0 mm 5,6 km/h (1 Bft) O-NO 76 ° 1 min 0,000 mm 2,2 UV-I 294 W/m² 6,7 °C 16,0 °C 11,3 km/h (2 Bft)
21.05.2017 16:18 16,0 °C 16,1 °C 54 % 1022,4 hPa 0,0 mm 3,8 km/h (1 Bft) NO 53 ° 1 min 0,000 mm 2,2 UV-I 290 W/m² 6,7 °C 16,0 °C 4,8 km/h (1 Bft)
21.05.2017 16:19 16,1 °C 16,1 °C 55 % 1022,4 hPa 0,0 mm 6,8 km/h (2 Bft) NO 45 ° 0 min 0,000 mm 2,2 UV-I 287 W/m² 7,1 °C 16,1 °C 9,7 km/h (2 Bft)
21.05.2017 16:20 16,1 °C 16,1 °C 54 % 1022,4 hPa 0,0 mm 7,1 km/h (2 Bft) N-NO 29 ° 0 min 0,000 mm 2,1 UV-I 281 W/m² 6,8 °C 16,1 °C 9,7 km/h (2 Bft)
21.05.2017 16:21 16,1 °C 16,1 °C 55 % 1022,4 hPa 0,0 mm 6,6 km/h (2 Bft) NO 40 ° 0 min 0,000 mm 2,1 UV-I 278 W/m² 7,1 °C 16,1 °C 9,7 km/h (2 Bft)
21.05.2017 16:22 16,1 °C 16,1 °C 54 % 1022,4 hPa 0,0 mm 4,1 km/h (1 Bft) O 101 ° 0 min 0,000 mm 2,1 UV-I 279 W/m² 6,8 °C 16,1 °C 6,4 km/h (2 Bft)
21.05.2017 16:23 16,1 °C 16,1 °C 55 % 1022,4 hPa 0,0 mm 8,2 km/h (2 Bft) O 93 ° 0 min 0,000 mm 2,1 UV-I 283 W/m² 7,1 °C 16,1 °C 14,5 km/h (3 Bft)
21.05.2017 16:24 16,1 °C 16,1 °C 57 % 1022,4 hPa 0,0 mm 2,7 km/h (1 Bft) O-NO 78 ° 0 min 0,000 mm 2,1 UV-I 283 W/m² 7,6 °C 16,1 °C 4,8 km/h (1 Bft)
21.05.2017 16:25 16,1 °C 16,1 °C 55 % 1022,4 hPa 0,0 mm 3,5 km/h (1 Bft) NO 37 ° 0 min 0,000 mm 2,1 UV-I 283 W/m² 7,1 °C 16,1 °C 4,8 km/h (1 Bft)
21.05.2017 16:26 16,1 °C 16,1 °C 55 % 1022,4 hPa 0,0 mm 4,2 km/h (1 Bft) NO 53 ° 0 min 0,000 mm 2,1 UV-I 285 W/m² 7,1 °C 16,1 °C 6,4 km/h (2 Bft)
21.05.2017 16:27 16,2 °C 16,2 °C 55 % 1022,3 hPa 0,0 mm 3,4 km/h (1 Bft) NO 38 ° 1 min 0,000 mm 2,1 UV-I 295 W/m² 7,2 °C 16,2 °C 6,4 km/h (2 Bft)
21.05.2017 16:28 16,2 °C 16,2 °C 55 % 1022,4 hPa 0,0 mm 4,4 km/h (1 Bft) O-NO 63 ° 1 min 0,000 mm 2,1 UV-I 299 W/m² 7,2 °C 16,2 °C 8,0 km/h (2 Bft)
21.05.2017 16:29 16,3 °C 16,3 °C 56 % 1022,4 hPa 0,0 mm 3,9 km/h (1 Bft) O-NO 71 ° 1 min 0,000 mm 2,1 UV-I 299 W/m² 7,5 °C 16,3 °C 6,4 km/h (2 Bft)
21.05.2017 16:30 16,3 °C 16,3 °C 58 % 1022,4 hPa 0,0 mm 3,8 km/h (1 Bft) N-NW 343 ° 1 min 0,000 mm 2,1 UV-I 294 W/m² 8,0 °C 16,3 °C 6,4 km/h (2 Bft)
21.05.2017 16:31 16,3 °C 16,3 °C 55 % 1022,4 hPa 0,0 mm 3,0 km/h (1 Bft) N-NO 17 ° 0 min 0,000 mm 2,1 UV-I 288 W/m² 7,2 °C 16,3 °C 6,4 km/h (2 Bft)
21.05.2017 16:32 16,4 °C 16,4 °C 58 % 1022,4 hPa 0,0 mm 5,0 km/h (1 Bft) N-NO 23 ° 0 min 0,000 mm 2,1 UV-I 283 W/m² 8,1 °C 16,4 °C 8,0 km/h (2 Bft)
21.05.2017 16:33 16,4 °C 16,4 °C 54 % 1022,4 hPa 0,0 mm 7,5 km/h (2 Bft) N-NO 26 ° 0 min 0,000 mm 2,1 UV-I 281 W/m² 7,1 °C 16,4 °C 11,3 km/h (2 Bft)
21.05.2017 16:34 16,4 °C 16,4 °C 56 % 1022,4 hPa 0,0 mm 6,0 km/h (2 Bft) O-NO 60 ° 0 min 0,000 mm 2,1 UV-I 285 W/m² 7,6 °C 16,4 °C 9,7 km/h (2 Bft)
21.05.2017 16:35 16,4 °C 16,4 °C 53 % 1022,4 hPa 0,0 mm 5,5 km/h (1 Bft) O-NO 61 ° 0 min 0,000 mm 2,1 UV-I 288 W/m² 6,8 °C 16,4 °C 8,0 km/h (2 Bft)
21.05.2017 16:36 16,3 °C 16,4 °C 56 % 1022,3 hPa 0,0 mm 9,3 km/h (2 Bft) N-NO 27 ° 1 min 0,000 mm 2,1 UV-I 290 W/m² 7,5 °C 16,3 °C 16,1 km/h (3 Bft)
21.05.2017 16:37 16,3 °C 16,3 °C 53 % 1022,3 hPa 0,0 mm 9,1 km/h (2 Bft) N-NO 20 ° 1 min 0,000 mm 2,1 UV-I 290 W/m² 6,7 °C 16,3 °C 14,5 km/h (3 Bft)
21.05.2017 16:38 16,3 °C 16,3 °C 54 % 1022,3 hPa 0,0 mm 8,2 km/h (2 Bft) NO 51 ° 0 min 0,000 mm 2,1 UV-I 288 W/m² 7,0 °C 16,3 °C 14,5 km/h (3 Bft)
21.05.2017 16:39 16,3 °C 16,3 °C 56 % 1022,4 hPa 0,0 mm 8,6 km/h (2 Bft) NO 44 ° 0 min 0,000 mm 2,0 UV-I 288 W/m² 7,5 °C 16,3 °C 17,7 km/h (3 Bft)
21.05.2017 16:40 16,2 °C 16,3 °C 54 % 1022,3 hPa 0,0 mm 7,3 km/h (2 Bft) O-NO 78 ° 0 min 0,000 mm 2,0 UV-I 288 W/m² 6,9 °C 16,2 °C 11,3 km/h (2 Bft)
21.05.2017 16:41 16,2 °C 16,2 °C 54 % 1022,3 hPa 0,0 mm 5,2 km/h (1 Bft) N-NO 30 ° 0 min 0,000 mm 2,0 UV-I 288 W/m² 6,9 °C 16,2 °C 8,0 km/h (2 Bft)
21.05.2017 16:42 16,2 °C 16,2 °C 54 % 1022,3 hPa 0,0 mm 4,3 km/h (1 Bft) N 5 ° 0 min 0,000 mm 2,0 UV-I 283 W/m² 6,9 °C 16,2 °C 6,4 km/h (2 Bft)
21.05.2017 16:43 16,2 °C 16,2 °C 54 % 1022,4 hPa 0,0 mm 5,7 km/h (1 Bft) NO 40 ° 0 min 0,000 mm 2,0 UV-I 276 W/m² 6,9 °C 16,2 °C 11,3 km/h (2 Bft)
21.05.2017 16:44 16,2 °C 16,2 °C 53 % 1022,4 hPa 0,0 mm 11,5 km/h (2 Bft) O 86 ° 0 min 0,000 mm 1,9 UV-I 271 W/m² 6,6 °C 16,2 °C 17,7 km/h (3 Bft)
21.05.2017 16:45 16,2 °C 16,2 °C 53 % 1022,3 hPa 0,0 mm 8,4 km/h (2 Bft) O 85 ° 0 min 0,000 mm 1,9 UV-I 264 W/m² 6,6 °C 16,2 °C 14,5 km/h (3 Bft)
21.05.2017 16:46 16,2 °C 16,2 °C 54 % 1022,4 hPa 0,0 mm 10,4 km/h (2 Bft) O-NO 61 ° 0 min 0,000 mm 1,8 UV-I 257 W/m² 6,9 °C 16,2 °C 17,7 km/h (3 Bft)
21.05.2017 16:47 16,1 °C 16,2 °C 52 % 1022,4 hPa 0,0 mm 7,8 km/h (2 Bft) O-NO 74 ° 0 min 0,000 mm 1,8 UV-I 253 W/m² 6,2 °C 16,1 °C 12,9 km/h (3 Bft)
21.05.2017 16:48 16,1 °C 16,1 °C 53 % 1022,4 hPa 0,0 mm 4,1 km/h (1 Bft) O-NO 63 ° 0 min 0,000 mm 1,7 UV-I 246 W/m² 6,5 °C 16,1 °C 4,8 km/h (1 Bft)
21.05.2017 16:49 16,1 °C 16,1 °C 56 % 1022,4 hPa 0,0 mm 4,6 km/h (1 Bft) NO 40 ° 0 min 0,000 mm 1,7 UV-I 230 W/m² 7,3 °C 16,1 °C 6,4 km/h (2 Bft)
21.05.2017 16:50 16,1 °C 16,1 °C 56 % 1022,4 hPa 0,0 mm 8,0 km/h (2 Bft) O-NO 73 ° 0 min 0,000 mm 1,6 UV-I 221 W/m² 7,3 °C 16,1 °C 9,7 km/h (2 Bft)
21.05.2017 16:51 16,1 °C 16,2 °C 54 % 1022,4 hPa 0,0 mm 4,6 km/h (1 Bft) O 86 ° 0 min 0,000 mm 1,5 UV-I 214 W/m² 6,8 °C 16,1 °C 8,0 km/h (2 Bft)
21.05.2017 16:52 16,1 °C 16,1 °C 54 % 1022,3 hPa 0,0 mm 2,6 km/h (1 Bft) O-NO 76 ° 0 min 0,000 mm 1,4 UV-I 209 W/m² 6,8 °C 16,1 °C 4,8 km/h (1 Bft)
21.05.2017 16:53 16,1 °C 16,1 °C 56 % 1022,3 hPa 0,0 mm 2,0 km/h (1 Bft) N-NO 28 ° 0 min 0,000 mm 1,4 UV-I 206 W/m² 7,3 °C 16,1 °C 3,2 km/h (1 Bft)
21.05.2017 16:54 16,1 °C 16,1 °C 56 % 1022,2 hPa 0,0 mm 6,0 km/h (2 Bft) NO 42 ° 0 min 0,000 mm 1,4 UV-I 204 W/m² 7,3 °C 16,1 °C 8,0 km/h (2 Bft)
21.05.2017 16:55 16,1 °C 16,1 °C 54 % 1022,2 hPa 0,0 mm 4,0 km/h (1 Bft) N-NO 32 ° 0 min 0,000 mm 1,4 UV-I 204 W/m² 6,8 °C 16,1 °C 8,0 km/h (2 Bft)
21.05.2017 16:56 16,1 °C 16,1 °C 55 % 1022,2 hPa 0,0 mm 5,1 km/h (1 Bft) N-NO 33 ° 0 min 0,000 mm 1,5 UV-I 207 W/m² 7,1 °C 16,1 °C 6,4 km/h (2 Bft)
21.05.2017 16:57 16,2 °C 16,2 °C 55 % 1022,2 hPa 0,0 mm 1,0 km/h (0 Bft) N-NO 33 ° 0 min 0,000 mm 1,5 UV-I 214 W/m² 7,2 °C 16,2 °C 3,2 km/h (1 Bft)
21.05.2017 16:58 16,2 °C 16,2 °C 56 % 1022,2 hPa 0,0 mm 3,6 km/h (1 Bft) N-NO 22 ° 0 min 0,000 mm 1,5 UV-I 220 W/m² 7,4 °C 16,2 °C 6,4 km/h (2 Bft)
21.05.2017 16:59 16,3 °C 16,3 °C 55 % 1022,2 hPa 0,0 mm 3,9 km/h (1 Bft) N 5 ° 0 min 0,000 mm 1,5 UV-I 221 W/m² 7,2 °C 16,3 °C 4,8 km/h (1 Bft)
21.05.2017 17:00 16,3 °C 16,3 °C 58 % 1022,1 hPa 0,0 mm 5,0 km/h (1 Bft) O-NO 76 ° 0 min 0,000 mm 1,5 UV-I 221 W/m² 8,0 °C 16,3 °C 11,3 km/h (2 Bft)
21.05.2017 17:01 16,3 °C 16,3 °C 55 % 1022,2 hPa 0,0 mm 6,1 km/h (2 Bft) O-NO 59 ° 0 min 0,178 mm 1,5 UV-I 216 W/m² 7,2 °C 16,3 °C 11,3 km/h (2 Bft)
21.05.2017 17:02 16,2 °C 16,3 °C 55 % 1022,2 hPa 0,0 mm 4,9 km/h (1 Bft) NO 55 ° 0 min 0,000 mm 1,5 UV-I 213 W/m² 7,2 °C 16,2 °C 11,3 km/h (2 Bft)
21.05.2017 17:03 16,3 °C 16,3 °C 55 % 1022,2 hPa 0,0 mm 2,4 km/h (1 Bft) O-NO 66 ° 0 min 0,000 mm 1,4 UV-I 207 W/m² 7,2 °C 16,3 °C 6,4 km/h (2 Bft)
21.05.2017 17:04 16,2 °C 16,3 °C 56 % 1022,2 hPa 0,0 mm 5,6 km/h (1 Bft) NW 319 ° 0 min 0,000 mm 1,3 UV-I 199 W/m² 7,4 °C 16,2 °C 11,3 km/h (2 Bft)
21.05.2017 17:05 16,2 °C 16,2 °C 57 % 1022,2 hPa 0,0 mm 1,7 km/h (1 Bft) N 10 ° 0 min 0,000 mm 1,3 UV-I 192 W/m² 7,7 °C 16,2 °C 3,2 km/h (1 Bft)
21.05.2017 17:06 16,2 °C 16,2 °C 56 % 1022,1 hPa 0,0 mm 5,2 km/h (1 Bft) N-NO 29 ° 0 min 0,000 mm 1,3 UV-I 186 W/m² 7,4 °C 16,2 °C 9,7 km/h (2 Bft)
21.05.2017 17:07 16,2 °C 16,2 °C 57 % 1022,1 hPa 0,0 mm 4,2 km/h (1 Bft) N-NO 14 ° 0 min 0,000 mm 1,3 UV-I 192 W/m² 7,7 °C 16,2 °C 6,4 km/h (2 Bft)
21.05.2017 17:08 16,2 °C 16,2 °C 56 % 1022,1 hPa 0,0 mm 5,0 km/h (1 Bft) O-NO 76 ° 0 min 0,000 mm 1,3 UV-I 197 W/m² 7,4 °C 16,2 °C 6,4 km/h (2 Bft)
21.05.2017 17:09 16,2 °C 16,2 °C 56 % 1022,1 hPa 0,0 mm 10,8 km/h (2 Bft) O-NO 72 ° 0 min 0,000 mm 1,4 UV-I 202 W/m² 7,4 °C 16,2 °C 14,5 km/h (3 Bft)
21.05.2017 17:10 16,1 °C 16,2 °C 56 % 1022,1 hPa 0,0 mm 6,8 km/h (2 Bft) O-NO 61 ° 0 min 0,000 mm 1,5 UV-I 209 W/m² 7,3 °C 16,1 °C 9,7 km/h (2 Bft)
21.05.2017 17:11 16,1 °C 16,1 °C 55 % 1022,1 hPa 0,0 mm 4,9 km/h (1 Bft) N-NO 18 ° 0 min 0,000 mm 1,5 UV-I 220 W/m² 7,1 °C 16,1 °C 8,0 km/h (2 Bft)
21.05.2017 17:12 16,1 °C 16,1 °C 58 % 1022,1 hPa 0,0 mm 5,5 km/h (1 Bft) NO 34 ° 0 min 0,000 mm 1,6 UV-I 229 W/m² 7,8 °C 16,1 °C 8,0 km/h (2 Bft)
21.05.2017 17:13 16,1 °C 16,1 °C 56 % 1022,0 hPa 0,0 mm 7,3 km/h (2 Bft) NO 37 ° 0 min 0,000 mm 1,6 UV-I 236 W/m² 7,3 °C 16,1 °C 11,3 km/h (2 Bft)
21.05.2017 17:14 16,1 °C 16,1 °C 55 % 1022,1 hPa 0,0 mm 10,5 km/h (2 Bft) O-NO 68 ° 0 min 0,000 mm 1,6 UV-I 234 W/m² 7,1 °C 16,1 °C 16,1 km/h (3 Bft)
21.05.2017 17:15 16,1 °C 16,1 °C 55 % 1022,0 hPa 0,0 mm 6,6 km/h (2 Bft) N 5 ° 0 min 0,000 mm 1,5 UV-I 229 W/m² 7,1 °C 16,1 °C 11,3 km/h (2 Bft)
21.05.2017 17:16 16,1 °C 16,1 °C 57 % 1022,0 hPa 0,0 mm 4,6 km/h (1 Bft) N 5 ° 0 min 0,000 mm 1,5 UV-I 221 W/m² 7,6 °C 16,1 °C 9,7 km/h (2 Bft)
21.05.2017 17:17 16,1 °C 16,1 °C 56 % 1022,0 hPa 0,0 mm 6,7 km/h (2 Bft) O-NO 61 ° 0 min 0,000 mm 1,5 UV-I 214 W/m² 7,3 °C 16,1 °C 9,7 km/h (2 Bft)
21.05.2017 17:18 16,1 °C 16,1 °C 56 % 1022,0 hPa 0,0 mm 6,1 km/h (2 Bft) NO 34 ° 0 min 0,000 mm 1,4 UV-I 209 W/m² 7,3 °C 16,1 °C 12,9 km/h (3 Bft)
21.05.2017 17:19 16,1 °C 16,1 °C 55 % 1022,0 hPa 0,0 mm 4,2 km/h (1 Bft) N 355 ° 0 min 0,000 mm 1,4 UV-I 206 W/m² 7,1 °C 16,1 °C 6,4 km/h (2 Bft)
21.05.2017 17:20 16,1 °C 16,1 °C 57 % 1022,0 hPa 0,0 mm 3,4 km/h (1 Bft) N-NO 25 ° 0 min 0,000 mm 1,4 UV-I 199 W/m² 7,6 °C 16,1 °C 6,4 km/h (2 Bft)
21.05.2017 17:21 16,1 °C 16,1 °C 57 % 1022,0 hPa 0,0 mm 6,0 km/h (2 Bft) N-NO 32 ° 0 min 0,000 mm 1,4 UV-I 199 W/m² 7,6 °C 16,1 °C 11,3 km/h (2 Bft)
21.05.2017 17:22 16,1 °C 16,2 °C 57 % 1022,0 hPa 0,0 mm 5,7 km/h (1 Bft) O 94 ° 0 min 0,000 mm 1,4 UV-I 200 W/m² 7,6 °C 16,1 °C 14,5 km/h (3 Bft)
21.05.2017 17:23 16,1 °C 16,1 °C 56 % 1022,0 hPa 0,0 mm 12,6 km/h (3 Bft) O-NO 59 ° 0 min 0,000 mm 1,3 UV-I 200 W/m² 7,3 °C 16,1 °C 20,9 km/h (4 Bft)
21.05.2017 17:24 16,0 °C 16,1 °C 57 % 1022,0 hPa 0,0 mm 7,0 km/h (2 Bft) O-NO 59 ° 0 min 0,000 mm 1,3 UV-I 202 W/m² 7,5 °C 16,0 °C 11,3 km/h (2 Bft)
21.05.2017 17:25 15,9 °C 16,0 °C 57 % 1022,0 hPa 0,0 mm 5,2 km/h (1 Bft) O-NO 64 ° 0 min 0,000 mm 1,4 UV-I 204 W/m² 7,4 °C 15,9 °C 6,4 km/h (2 Bft)
21.05.2017 17:26 15,9 °C 15,9 °C 56 % 1021,9 hPa 0,0 mm 5,8 km/h (2 Bft) O-NO 70 ° 0 min 0,000 mm 1,4 UV-I 209 W/m² 7,1 °C 15,9 °C 11,3 km/h (2 Bft)
21.05.2017 17:27 15,9 °C 15,9 °C 60 % 1022,0 hPa 0,0 mm 3,8 km/h (1 Bft) NO 55 ° 0 min 0,000 mm 1,5 UV-I 214 W/m² 8,1 °C 15,9 °C 6,4 km/h (2 Bft)
21.05.2017 17:28 15,9 °C 15,9 °C 56 % 1021,9 hPa 0,0 mm 1,6 km/h (1 Bft) NO 55 ° 0 min 0,000 mm 1,5 UV-I 220 W/m² 7,1 °C 15,9 °C 3,2 km/h (1 Bft)
21.05.2017 17:29 15,9 °C 15,9 °C 57 % 1022,0 hPa 0,0 mm 3,9 km/h (1 Bft) O 88 ° 0 min 0,000 mm 1,5 UV-I 225 W/m² 7,4 °C 15,9 °C 4,8 km/h (1 Bft)
21.05.2017 17:30 16,0 °C 16,0 °C 60 % 1021,9 hPa 0,0 mm 4,5 km/h (1 Bft) O-SO 104 ° 0 min 0,000 mm 1,6 UV-I 232 W/m² 8,2 °C 16,0 °C 6,4 km/h (2 Bft)
21.05.2017 17:31 15,9 °C 16,0 °C 57 % 1021,9 hPa 0,0 mm 6,6 km/h (2 Bft) NO 47 ° 0 min 0,000 mm 1,6 UV-I 232 W/m² 7,4 °C 15,9 °C 11,3 km/h (2 Bft)
21.05.2017 17:32 15,9 °C 15,9 °C 57 % 1021,9 hPa 0,0 mm 6,0 km/h (2 Bft) O 93 ° 0 min 0,000 mm 1,5 UV-I 232 W/m² 7,4 °C 15,9 °C 12,9 km/h (3 Bft)
21.05.2017 17:33 15,9 °C 15,9 °C 58 % 1022,0 hPa 0,0 mm 9,8 km/h (2 Bft) O 88 ° 0 min 0,000 mm 1,6 UV-I 236 W/m² 7,6 °C 15,9 °C 14,5 km/h (3 Bft)
21.05.2017 17:34 15,9 °C 15,9 °C 56 % 1021,9 hPa 0,0 mm 9,8 km/h (2 Bft) O 93 ° 0 min 0,000 mm 1,6 UV-I 239 W/m² 7,1 °C 15,9 °C 12,9 km/h (3 Bft)
21.05.2017 17:35 15,9 °C 15,9 °C 57 % 1022,0 hPa 0,0 mm 8,9 km/h (2 Bft) O 91 ° 0 min 0,000 mm 1,6 UV-I 239 W/m² 7,4 °C 15,9 °C 12,9 km/h (3 Bft)
21.05.2017 17:36 15,9 °C 15,9 °C 57 % 1021,9 hPa 0,0 mm 4,3 km/h (1 Bft) NO 53 ° 0 min 0,000 mm 1,6 UV-I 239 W/m² 7,4 °C 15,9 °C 9,7 km/h (2 Bft)
21.05.2017 17:37 16,1 °C 16,1 °C 57 % 1021,9 hPa 0,0 mm 5,6 km/h (1 Bft) N-NO 32 ° 0 min 0,000 mm 1,6 UV-I 239 W/m² 7,6 °C 16,1 °C 8,0 km/h (2 Bft)
21.05.2017 17:38 16,1 °C 16,1 °C 57 % 1021,8 hPa 0,0 mm 4,0 km/h (1 Bft) NO 40 ° 0 min 0,000 mm 1,6 UV-I 239 W/m² 7,6 °C 16,1 °C 4,8 km/h (1 Bft)
21.05.2017 17:39 16,2 °C 16,2 °C 56 % 1021,9 hPa 0,0 mm 1,7 km/h (1 Bft) NO 40 ° 0 min 0,000 mm 1,5 UV-I 237 W/m² 7,4 °C 16,2 °C 4,8 km/h (1 Bft)
21.05.2017 17:40 16,2 °C 16,3 °C 58 % 1021,8 hPa 0,0 mm 3,2 km/h (1 Bft) N 360 ° 0 min 0,000 mm 1,5 UV-I 237 W/m² 7,9 °C 16,2 °C 4,8 km/h (1 Bft)
21.05.2017 17:41 16,3 °C 16,3 °C 59 % 1021,8 hPa 0,0 mm 3,3 km/h (1 Bft) NO 36 ° 0 min 0,000 mm 1,5 UV-I 239 W/m² 8,3 °C 16,3 °C 8,0 km/h (2 Bft)
21.05.2017 17:42 16,3 °C 16,3 °C 57 % 1021,8 hPa 0,0 mm 5,0 km/h (1 Bft) N-NO 24 ° 0 min 0,000 mm 1,5 UV-I 237 W/m² 7,8 °C 16,3 °C 6,4 km/h (2 Bft)
21.05.2017 17:43 16,3 °C 16,3 °C 57 % 1021,8 hPa 0,0 mm 1,8 km/h (1 Bft) NO 40 ° 0 min 0,000 mm 1,5 UV-I 237 W/m² 7,8 °C 16,3 °C 3,2 km/h (1 Bft)
21.05.2017 17:44 16,3 °C 16,3 °C 57 % 1021,8 hPa 0,0 mm 8,4 km/h (2 Bft) NO 54 ° 0 min 0,000 mm 1,5 UV-I 236 W/m² 7,8 °C 16,3 °C 11,3 km/h (2 Bft)
21.05.2017 17:45 16,2 °C 16,3 °C 57 % 1021,8 hPa 0,0 mm 6,2 km/h (2 Bft) NO 44 ° 0 min 0,000 mm 1,5 UV-I 230 W/m² 7,7 °C 16,2 °C 8,0 km/h (2 Bft)
21.05.2017 17:46 16,2 °C 16,2 °C 56 % 1021,8 hPa 0,0 mm 7,2 km/h (2 Bft) O-NO 71 ° 0 min 0,000 mm 1,4 UV-I 223 W/m² 7,4 °C 16,2 °C 11,3 km/h (2 Bft)
21.05.2017 17:47 16,2 °C 16,2 °C 58 % 1021,7 hPa 0,0 mm 3,2 km/h (1 Bft) NO 53 ° 0 min 0,000 mm 1,4 UV-I 220 W/m² 7,9 °C 16,2 °C 4,8 km/h (1 Bft)
21.05.2017 17:48 16,2 °C 16,2 °C 58 % 1021,7 hPa 0,0 mm 2,2 km/h (1 Bft) NO 50 ° 0 min 0,000 mm 1,4 UV-I 213 W/m² 7,9 °C 16,2 °C 3,2 km/h (1 Bft)
21.05.2017 17:49 16,2 °C 16,2 °C 57 % 1021,7 hPa 0,0 mm 3,1 km/h (1 Bft) O-NO 62 ° 0 min 0,000 mm 1,4 UV-I 207 W/m² 7,7 °C 16,2 °C 4,8 km/h (1 Bft)
21.05.2017 17:50 16,2 °C 16,2 °C 57 % 1021,7 hPa 0,0 mm 5,2 km/h (1 Bft) O-NO 57 ° 0 min 0,000 mm 1,4 UV-I 206 W/m² 7,7 °C 16,2 °C 8,0 km/h (2 Bft)
21.05.2017 17:51 16,2 °C 16,3 °C 56 % 1021,6 hPa 0,0 mm 5,7 km/h (1 Bft) N-NW 344 ° 0 min 0,000 mm 1,4 UV-I 204 W/m² 7,4 °C 16,2 °C 8,0 km/h (2 Bft)
21.05.2017 17:52 16,2 °C 16,3 °C 58 % 1021,7 hPa 0,0 mm 3,5 km/h (1 Bft) N 5 ° 0 min 0,000 mm 1,4 UV-I 204 W/m² 7,9 °C 16,2 °C 6,4 km/h (2 Bft)
21.05.2017 17:53 16,2 °C 16,2 °C 56 % 1021,6 hPa 0,0 mm 3,6 km/h (1 Bft) N 351 ° 0 min 0,000 mm 1,4 UV-I 204 W/m² 7,4 °C 16,2 °C 6,4 km/h (2 Bft)
21.05.2017 17:54 16,2 °C 16,2 °C 56 % 1021,6 hPa 0,0 mm 5,0 km/h (1 Bft) N-NO 24 ° 0 min 0,000 mm 1,4 UV-I 195 W/m² 7,4 °C 16,2 °C 6,4 km/h (2 Bft)
21.05.2017 17:55 16,2 °C 16,2 °C 58 % 1021,6 hPa 0,0 mm 2,0 km/h (1 Bft) N-NO 31 ° 0 min 0,000 mm 1,4 UV-I 192 W/m² 7,9 °C 16,2 °C 6,4 km/h (2 Bft)
21.05.2017 17:56 16,1 °C 16,2 °C 56 % 1021,6 hPa 0,0 mm 1,3 km/h (1 Bft) NO 52 ° 0 min 0,000 mm 1,4 UV-I 190 W/m² 7,3 °C 16,1 °C 3,2 km/h (1 Bft)
21.05.2017 17:57 16,2 °C 16,2 °C 59 % 1021,6 hPa 0,0 mm 6,6 km/h (2 Bft) O-NO 58 ° 0 min 0,000 mm 1,4 UV-I 188 W/m² 8,2 °C 16,2 °C 9,7 km/h (2 Bft)
21.05.2017 17:58 16,1 °C 16,2 °C 55 % 1021,5 hPa 0,0 mm 10,2 km/h (2 Bft) NO 49 ° 0 min 0,000 mm 1,4 UV-I 188 W/m² 7,1 °C 16,1 °C 14,5 km/h (3 Bft)
21.05.2017 17:59 16,1 °C 16,1 °C 57 % 1021,5 hPa 0,0 mm 3,8 km/h (1 Bft) O-NO 58 ° 0 min 0,000 mm 1,4 UV-I 186 W/m² 7,6 °C 16,1 °C 8,0 km/h (2 Bft)
21.05.2017 18:00 16,1 °C 16,1 °C 56 % 1021,5 hPa 0,0 mm 6,9 km/h (2 Bft) N-NO 14 ° 0 min 0,000 mm 1,3 UV-I 176 W/m² 7,3 °C 16,1 °C 8,0 km/h (2 Bft)
21.05.2017 18:01 16,1 °C 16,1 °C 57 % 1021,5 hPa 0,0 mm 2,3 km/h (1 Bft) O-NO 65 ° 0 min 0,152 mm 1,3 UV-I 171 W/m² 7,6 °C 16,1 °C 4,8 km/h (1 Bft)
21.05.2017 18:02 16,1 °C 16,1 °C 57 % 1021,5 hPa 0,0 mm 5,5 km/h (1 Bft) N-NO 29 ° 0 min 0,000 mm 1,3 UV-I 165 W/m² 7,6 °C 16,1 °C 6,4 km/h (2 Bft)
21.05.2017 18:03 16,2 °C 16,2 °C 57 % 1021,4 hPa 0,0 mm 3,6 km/h (1 Bft) NO 51 ° 0 min 0,000 mm 1,3 UV-I 162 W/m² 7,7 °C 16,2 °C 6,4 km/h (2 Bft)
21.05.2017 18:04 16,2 °C 16,2 °C 57 % 1021,4 hPa 0,0 mm 4,4 km/h (1 Bft) O 82 ° 0 min 0,000 mm 1,3 UV-I 156 W/m² 7,7 °C 16,2 °C 6,4 km/h (2 Bft)
21.05.2017 18:05 16,1 °C 16,2 °C 56 % 1021,4 hPa 0,0 mm 3,8 km/h (1 Bft) N 11 ° 0 min 0,000 mm 1,3 UV-I 155 W/m² 7,3 °C 16,1 °C 4,8 km/h (1 Bft)
21.05.2017 18:06 16,1 °C 16,1 °C 57 % 1021,3 hPa 0,0 mm 2,8 km/h (1 Bft) N 360 ° 0 min 0,000 mm 1,3 UV-I 149 W/m² 7,6 °C 16,1 °C 4,8 km/h (1 Bft)
21.05.2017 18:07 16,1 °C 16,1 °C 58 % 1021,4 hPa 0,0 mm 7,5 km/h (2 Bft) N-NO 15 ° 0 min 0,000 mm 1,3 UV-I 141 W/m² 7,8 °C 16,1 °C 11,3 km/h (2 Bft)
21.05.2017 18:08 16,2 °C 16,2 °C 58 % 1021,3 hPa 0,0 mm 5,1 km/h (1 Bft) N-NO 12 ° 0 min 0,000 mm 1,3 UV-I 130 W/m² 7,9 °C 16,2 °C 8,0 km/h (2 Bft)
21.05.2017 18:09 16,3 °C 16,3 °C 58 % 1021,3 hPa 0,0 mm 2,9 km/h (1 Bft) N 5 ° 0 min 0,000 mm 1,2 UV-I 134 W/m² 8,0 °C 16,3 °C 4,8 km/h (1 Bft)
21.05.2017 18:10 16,3 °C 16,3 °C 59 % 1021,3 hPa 0,0 mm 4,8 km/h (1 Bft) N-NW 329 ° 0 min 0,000 mm 1,2 UV-I 125 W/m² 8,3 °C 16,3 °C 6,4 km/h (2 Bft)
21.05.2017 18:11 16,4 °C 16,4 °C 59 % 1021,3 hPa 0,0 mm 6,1 km/h (2 Bft) NO 51 ° 0 min 0,000 mm 1,2 UV-I 111 W/m² 8,4 °C 16,4 °C 11,3 km/h (2 Bft)
21.05.2017 18:12 16,4 °C 16,4 °C 55 % 1021,4 hPa 0,0 mm 7,8 km/h (2 Bft) O 96 ° 0 min 0,000 mm 1,2 UV-I 109 W/m² 7,3 °C 16,4 °C 12,9 km/h (3 Bft)
21.05.2017 18:13 16,3 °C 16,4 °C 56 % 1021,4 hPa 0,0 mm 10,6 km/h (2 Bft) O-SO 113 ° 0 min 0,000 mm 1,2 UV-I 105 W/m² 7,5 °C 16,3 °C 16,1 km/h (3 Bft)
21.05.2017 18:14 16,2 °C 16,3 °C 56 % 1021,3 hPa 0,0 mm 3,0 km/h (1 Bft) NO 51 ° 0 min 0,000 mm 1,2 UV-I 98 W/m² 7,4 °C 16,2 °C 6,4 km/h (2 Bft)
21.05.2017 18:15 16,2 °C 16,2 °C 57 % 1021,3 hPa 0,0 mm 7,5 km/h (2 Bft) NO 42 ° 0 min 0,000 mm 1,2 UV-I 91 W/m² 7,7 °C 16,2 °C 12,9 km/h (3 Bft)
21.05.2017 18:16 16,1 °C 16,2 °C 56 % 1021,4 hPa 0,0 mm 8,4 km/h (2 Bft) O 92 ° 0 min 0,000 mm 1,2 UV-I 111 W/m² 7,3 °C 16,1 °C 12,9 km/h (3 Bft)
21.05.2017 18:17 16,0 °C 16,1 °C 56 % 1021,3 hPa 0,0 mm 5,1 km/h (1 Bft) N-NO 30 ° 0 min 0,000 mm 1,2 UV-I 91 W/m² 7,2 °C 16,0 °C 8,0 km/h (2 Bft)
21.05.2017 18:18 16,0 °C 16,0 °C 57 % 1021,3 hPa 0,0 mm 3,1 km/h (1 Bft) N-NO 30 ° 0 min 0,000 mm 1,1 UV-I 91 W/m² 7,5 °C 16,0 °C 6,4 km/h (2 Bft)
21.05.2017 18:19 16,1 °C 16,1 °C 57 % 1021,3 hPa 0,0 mm 3,1 km/h (1 Bft) NO 34 ° 0 min 0,000 mm 1,1 UV-I 90 W/m² 7,6 °C 16,1 °C 6,4 km/h (2 Bft)
21.05.2017 18:20 16,1 °C 16,1 °C 58 % 1021,3 hPa 0,0 mm 5,6 km/h (1 Bft) N-NO 17 ° 0 min 0,000 mm 1,1 UV-I 86 W/m² 7,8 °C 16,1 °C 14,5 km/h (3 Bft)
21.05.2017 18:21 16,1 °C 16,1 °C 57 % 1021,3 hPa 0,0 mm 3,8 km/h (1 Bft) N-NW 341 ° 0 min 0,000 mm 1,1 UV-I 84 W/m² 7,6 °C 16,1 °C 8,0 km/h (2 Bft)
21.05.2017 18:22 16,1 °C 16,1 °C 57 % 1021,3 hPa 0,0 mm 6,2 km/h (2 Bft) N 360 ° 0 min 0,000 mm 1,1 UV-I 84 W/m² 7,6 °C 16,1 °C 14,5 km/h (3 Bft)
21.05.2017 18:23 16,2 °C 16,2 °C 56 % 1021,3 hPa 0,0 mm 8,8 km/h (2 Bft) N 355 ° 0 min 0,000 mm 1,1 UV-I 86 W/m² 7,4 °C 16,2 °C 14,5 km/h (3 Bft)
21.05.2017 18:24 16,2 °C 16,2 °C 57 % 1021,3 hPa 0,0 mm 10,5 km/h (2 Bft) NO 53 ° 0 min 0,000 mm 1,1 UV-I 86 W/m² 7,7 °C 16,2 °C 19,3 km/h (3 Bft)
21.05.2017 18:25 16,2 °C 16,2 °C 55 % 1021,3 hPa 0,0 mm 6,7 km/h (2 Bft) N-NO 13 ° 0 min 0,000 mm 1,1 UV-I 97 W/m² 7,2 °C 16,2 °C 9,7 km/h (2 Bft)
21.05.2017 18:26 16,2 °C 16,2 °C 55 % 1021,3 hPa 0,0 mm 4,8 km/h (1 Bft) O-NO 59 ° 0 min 0,000 mm 1,1 UV-I 91 W/m² 7,2 °C 16,2 °C 8,0 km/h (2 Bft)
21.05.2017 18:27 16,3 °C 16,3 °C 57 % 1021,2 hPa 0,0 mm 5,8 km/h (2 Bft) N-NO 13 ° 0 min 0,000 mm 1,1 UV-I 86 W/m² 7,8 °C 16,3 °C 8,0 km/h (2 Bft)
21.05.2017 18:28 16,3 °C 16,3 °C 56 % 1021,2 hPa 0,0 mm 5,9 km/h (2 Bft) N 10 ° 0 min 0,000 mm 1,1 UV-I 88 W/m² 7,5 °C 16,3 °C 8,0 km/h (2 Bft)
21.05.2017 18:29 16,3 °C 16,3 °C 55 % 1021,2 hPa 0,0 mm 5,0 km/h (1 Bft) N-NO 27 ° 0 min 0,000 mm 1,0 UV-I 79 W/m² 7,2 °C 16,3 °C 6,4 km/h (2 Bft)
21.05.2017 18:30 16,3 °C 16,4 °C 56 % 1021,2 hPa 0,0 mm 9,6 km/h (2 Bft) NO 56 ° 0 min 0,000 mm 1,0 UV-I 79 W/m² 7,5 °C 16,3 °C 17,7 km/h (3 Bft)
21.05.2017 18:31 16,3 °C 16,3 °C 55 % 1021,2 hPa 0,0 mm 4,0 km/h (1 Bft) NO 46 ° 0 min 0,000 mm 1,0 UV-I 72 W/m² 7,2 °C 16,3 °C 6,4 km/h (2 Bft)
21.05.2017 18:32 16,4 °C 16,4 °C 57 % 1021,2 hPa 0,0 mm 3,4 km/h (1 Bft) O 80 ° 0 min 0,000 mm 1,0 UV-I 74 W/m² 7,9 °C 16,4 °C 6,4 km/h (2 Bft)
21.05.2017 18:33 16,4 °C 16,4 °C 57 % 1021,2 hPa 0,0 mm 6,7 km/h (2 Bft) O-NO 59 ° 0 min 0,000 mm 1,0 UV-I 88 W/m² 7,9 °C 16,4 °C 12,9 km/h (3 Bft)
21.05.2017 18:34 16,3 °C 16,4 °C 55 % 1021,1 hPa 0,0 mm 8,2 km/h (2 Bft) NO 44 ° 0 min 0,000 mm 1,0 UV-I 77 W/m² 7,2 °C 16,3 °C 14,5 km/h (3 Bft)
21.05.2017 18:35 16,3 °C 16,4 °C 56 % 1021,1 hPa 0,0 mm 7,1 km/h (2 Bft) NO 52 ° 0 min 0,000 mm 1,0 UV-I 83 W/m² 7,5 °C 16,3 °C 11,3 km/h (2 Bft)
21.05.2017 18:36 16,3 °C 16,3 °C 55 % 1021,1 hPa 0,0 mm 5,8 km/h (2 Bft) O-NO 61 ° 0 min 0,000 mm 0,9 UV-I 63 W/m² 7,2 °C 16,3 °C 9,7 km/h (2 Bft)
21.05.2017 18:37 16,3 °C 16,3 °C 56 % 1021,1 hPa 0,0 mm 11,9 km/h (2 Bft) O-NO 64 ° 0 min 0,000 mm 0,9 UV-I 63 W/m² 7,5 °C 16,3 °C 16,1 km/h (3 Bft)
21.05.2017 18:38 16,3 °C 16,3 °C 56 % 1021,2 hPa 0,0 mm 12,6 km/h (3 Bft) NO 45 ° 0 min 0,000 mm 0,9 UV-I 63 W/m² 7,5 °C 16,3 °C 16,1 km/h (3 Bft)
21.05.2017 18:39 16,3 °C 16,3 °C 56 % 1021,1 hPa 0,0 mm 6,9 km/h (2 Bft) O-NO 69 ° 0 min 0,000 mm 0,9 UV-I 65 W/m² 7,5 °C 16,3 °C 9,7 km/h (2 Bft)
21.05.2017 18:40 16,3 °C 16,3 °C 56 % 1021,1 hPa 0,0 mm 3,5 km/h (1 Bft) O 80 ° 0 min 0,000 mm 0,9 UV-I 63 W/m² 7,5 °C 16,3 °C 6,4 km/h (2 Bft)
21.05.2017 18:41 16,2 °C 16,3 °C 56 % 1021,1 hPa 0,0 mm 7,4 km/h (2 Bft) NO 49 ° 0 min 0,000 mm 0,9 UV-I 62 W/m² 7,4 °C 16,2 °C 11,3 km/h (2 Bft)
21.05.2017 18:42 16,2 °C 16,2 °C 56 % 1021,1 hPa 0,0 mm 4,5 km/h (1 Bft) NO 39 ° 0 min 0,000 mm 0,9 UV-I 62 W/m² 7,4 °C 16,2 °C 9,7 km/h (2 Bft)
21.05.2017 18:43 16,2 °C 16,2 °C 56 % 1021,1 hPa 0,0 mm 6,6 km/h (2 Bft) S-SO 165 ° 0 min 0,000 mm 0,9 UV-I 63 W/m² 7,4 °C 16,2 °C 11,3 km/h (2 Bft)
21.05.2017 18:44 16,2 °C 16,2 °C 56 % 1021,1 hPa 0,0 mm 9,5 km/h (2 Bft) NO 54 ° 0 min 0,000 mm 0,9 UV-I 63 W/m² 7,4 °C 16,2 °C 12,9 km/h (3 Bft)
21.05.2017 18:45 16,2 °C 16,2 °C 57 % 1021,0 hPa 0,0 mm 7,2 km/h (2 Bft) O 93 ° 0 min 0,000 mm 0,9 UV-I 65 W/m² 7,7 °C 16,2 °C 11,3 km/h (2 Bft)
21.05.2017 18:46 16,2 °C 16,2 °C 57 % 1021,0 hPa 0,0 mm 5,9 km/h (2 Bft) NO 51 ° 0 min 0,000 mm 0,9 UV-I 107 W/m² 7,7 °C 16,2 °C 12,9 km/h (3 Bft)
21.05.2017 18:47 16,1 °C 16,2 °C 57 % 1021,0 hPa 0,0 mm 8,3 km/h (2 Bft) NO 35 ° 0 min 0,000 mm 0,9 UV-I 97 W/m² 7,6 °C 16,1 °C 12,9 km/h (3 Bft)
21.05.2017 18:48 16,1 °C 16,1 °C 57 % 1021,0 hPa 0,0 mm 7,1 km/h (2 Bft) N-NO 28 ° 0 min 0,000 mm 0,9 UV-I 97 W/m² 7,6 °C 16,1 °C 12,9 km/h (3 Bft)
21.05.2017 18:49 16,1 °C 16,1 °C 56 % 1021,0 hPa 0,0 mm 8,7 km/h (2 Bft) NO 34 ° 0 min 0,000 mm 0,8 UV-I 102 W/m² 7,3 °C 16,1 °C 12,9 km/h (3 Bft)
21.05.2017 18:50 16,1 °C 16,1 °C 57 % 1021,0 hPa 0,0 mm 14,4 km/h (3 Bft) N-NO 22 ° 0 min 0,000 mm 0,8 UV-I 93 W/m² 7,6 °C 16,1 °C 24,1 km/h (4 Bft)
21.05.2017 18:51 16,1 °C 16,1 °C 57 % 1020,9 hPa 0,0 mm 9,1 km/h (2 Bft) NO 56 ° 0 min 0,000 mm 0,8 UV-I 83 W/m² 7,6 °C 16,1 °C 14,5 km/h (3 Bft)
21.05.2017 18:52 16,1 °C 16,1 °C 57 % 1020,9 hPa 0,0 mm 8,2 km/h (2 Bft) O 98 ° 0 min 0,000 mm 0,8 UV-I 77 W/m² 7,6 °C 16,1 °C 12,9 km/h (3 Bft)
21.05.2017 18:53 16,0 °C 16,1 °C 57 % 1021,0 hPa 0,0 mm 4,0 km/h (1 Bft) O-NO 63 ° 0 min 0,000 mm 0,8 UV-I 72 W/m² 7,5 °C 16,0 °C 9,7 km/h (2 Bft)
21.05.2017 18:54 16,1 °C 16,1 °C 58 % 1020,8 hPa 0,0 mm 5,0 km/h (1 Bft) N-NO 24 ° 0 min 0,000 mm 0,8 UV-I 69 W/m² 7,8 °C 16,1 °C 9,7 km/h (2 Bft)
21.05.2017 18:55 16,1 °C 16,1 °C 58 % 1020,8 hPa 0,0 mm 10,4 km/h (2 Bft) NO 55 ° 0 min 0,000 mm 0,8 UV-I 79 W/m² 7,8 °C 16,1 °C 14,5 km/h (3 Bft)
21.05.2017 18:56 16,1 °C 16,1 °C 58 % 1020,8 hPa 0,0 mm 3,3 km/h (1 Bft) O 94 ° 0 min 0,000 mm 0,8 UV-I 90 W/m² 7,8 °C 16,1 °C 8,0 km/h (2 Bft)
21.05.2017 18:57 15,9 °C 16,1 °C 60 % 1020,8 hPa 0,0 mm 7,1 km/h (2 Bft) N-NO 32 ° 0 min 0,000 mm 0,7 UV-I 83 W/m² 8,1 °C 15,9 °C 11,3 km/h (2 Bft)
21.05.2017 18:58 15,9 °C 15,9 °C 59 % 1020,8 hPa 0,0 mm 5,1 km/h (1 Bft) O 82 ° 0 min 0,000 mm 0,7 UV-I 62 W/m² 7,9 °C 15,9 °C 8,0 km/h (2 Bft)
21.05.2017 18:59 15,8 °C 15,9 °C 61 % 1020,8 hPa 0,0 mm 3,9 km/h (1 Bft) O-NO 67 ° 0 min 0,000 mm 0,7 UV-I 70 W/m² 8,3 °C 15,8 °C 4,8 km/h (1 Bft)
21.05.2017 19:00 15,7 °C 15,8 °C 60 % 1020,8 hPa 0,0 mm 9,3 km/h (2 Bft) NO 52 ° 0 min 0,000 mm 0,7 UV-I 76 W/m² 8,0 °C 15,7 °C 17,7 km/h (3 Bft)
21.05.2017 19:01 15,7 °C 15,8 °C 59 % 1020,8 hPa 0,0 mm 8,1 km/h (2 Bft) NO 50 ° 0 min 0,102 mm 0,7 UV-I 79 W/m² 7,7 °C 15,7 °C 12,9 km/h (3 Bft)
21.05.2017 19:02 15,7 °C 15,7 °C 58 % 1020,8 hPa 0,0 mm 9,8 km/h (2 Bft) N-NO 32 ° 0 min 0,000 mm 0,0 UV-I 79 W/m² 7,5 °C 15,7 °C 19,3 km/h (3 Bft)
21.05.2017 19:03 15,7 °C 15,7 °C 59 % 1020,8 hPa 0,0 mm 7,5 km/h (2 Bft) NO 51 ° 0 min 0,000 mm 0,7 UV-I 63 W/m² 7,7 °C 15,7 °C 14,5 km/h (3 Bft)
21.05.2017 19:04 15,7 °C 15,7 °C 58 % 1020,8 hPa 0,0 mm 15,0 km/h (3 Bft) O-NO 58 ° 0 min 0,000 mm 0,6 UV-I 53 W/m² 7,5 °C 15,7 °C 20,9 km/h (4 Bft)
21.05.2017 19:05 15,7 °C 15,7 °C 58 % 1020,8 hPa 0,0 mm 9,4 km/h (2 Bft) NO 35 ° 0 min 0,000 mm 0,0 UV-I 53 W/m² 7,5 °C 15,7 °C 14,5 km/h (3 Bft)
21.05.2017 19:06 15,7 °C 15,7 °C 58 % 1020,8 hPa 0,0 mm 8,3 km/h (2 Bft) O 96 ° 0 min 0,000 mm 0,0 UV-I 47 W/m² 7,5 °C 15,7 °C 9,7 km/h (2 Bft)
21.05.2017 19:07 15,7 °C 15,7 °C 59 % 1020,8 hPa 0,0 mm 6,3 km/h (2 Bft) O-SO 108 ° 0 min 0,000 mm 0,0 UV-I 47 W/m² 7,7 °C 15,7 °C 9,7 km/h (2 Bft)
21.05.2017 19:08 15,7 °C 15,7 °C 58 % 1020,8 hPa 0,0 mm 5,7 km/h (1 Bft) O-NO 77 ° 0 min 0,000 mm 0,0 UV-I 51 W/m² 7,5 °C 15,7 °C 9,7 km/h (2 Bft)
21.05.2017 19:09 15,7 °C 15,7 °C 59 % 1020,8 hPa 0,0 mm 5,5 km/h (1 Bft) O-NO 60 ° 0 min 0,000 mm 0,0 UV-I 53 W/m² 7,7 °C 15,7 °C 8,0 km/h (2 Bft)
21.05.2017 19:10 15,7 °C 15,7 °C 59 % 1020,8 hPa 0,0 mm 5,4 km/h (1 Bft) O-SO 108 ° 0 min 0,000 mm 0,0 UV-I 56 W/m² 7,7 °C 15,7 °C 11,3 km/h (2 Bft)
21.05.2017 19:11 15,6 °C 15,7 °C 59 % 1020,8 hPa 0,0 mm 6,1 km/h (2 Bft) O-NO 76 ° 0 min 0,000 mm 0,6 UV-I 58 W/m² 7,6 °C 15,6 °C 12,9 km/h (3 Bft)
21.05.2017 19:12 15,7 °C 15,7 °C 59 % 1020,8 hPa 0,0 mm 5,2 km/h (1 Bft) O 84 ° 0 min 0,000 mm 0,6 UV-I 58 W/m² 7,7 °C 15,7 °C 14,5 km/h (3 Bft)
21.05.2017 19:13 15,7 °C 15,7 °C 59 % 1020,8 hPa 0,0 mm 9,7 km/h (2 Bft) NO 48 ° 0 min 0,000 mm 0,6 UV-I 62 W/m² 7,7 °C 15,7 °C 17,7 km/h (3 Bft)
21.05.2017 19:14 15,7 °C 15,7 °C 59 % 1020,8 hPa 0,0 mm 5,0 km/h (1 Bft) O-NO 65 ° 0 min 0,000 mm 0,6 UV-I 67 W/m² 7,7 °C 15,7 °C 11,3 km/h (2 Bft)
21.05.2017 19:15 15,7 °C 15,7 °C 59 % 1020,8 hPa 0,0 mm 3,1 km/h (1 Bft) O 82 ° 0 min 0,000 mm 0,5 UV-I 63 W/m² 7,7 °C 15,7 °C 6,4 km/h (2 Bft)
21.05.2017 19:16 15,6 °C 15,7 °C 59 % 1020,8 hPa 0,0 mm 4,1 km/h (1 Bft) O-NO 76 ° 0 min 0,000 mm 0,5 UV-I 58 W/m² 7,6 °C 15,6 °C 8,0 km/h (2 Bft)
21.05.2017 19:17 15,6 °C 15,7 °C 60 % 1020,8 hPa 0,0 mm 7,8 km/h (2 Bft) O 86 ° 0 min 0,000 mm 0,5 UV-I 58 W/m² 7,9 °C 15,6 °C 9,7 km/h (2 Bft)
21.05.2017 19:18 15,6 °C 15,6 °C 59 % 1020,8 hPa 0,0 mm 1,8 km/h (1 Bft) O-NO 69 ° 0 min 0,000 mm 0,5 UV-I 56 W/m² 7,6 °C 15,6 °C 3,2 km/h (1 Bft)
21.05.2017 19:19 15,6 °C 15,6 °C 59 % 1020,9 hPa 0,0 mm 7,9 km/h (2 Bft) NO 53 ° 0 min 0,000 mm 0,5 UV-I 63 W/m² 7,6 °C 15,6 °C 12,9 km/h (3 Bft)
21.05.2017 19:20 15,6 °C 15,6 °C 59 % 1020,8 hPa 0,0 mm 6,9 km/h (2 Bft) S 178 ° 0 min 0,000 mm 0,5 UV-I 67 W/m² 7,6 °C 15,6 °C 14,5 km/h (3 Bft)
21.05.2017 19:21 15,4 °C 15,6 °C 59 % 1020,8 hPa 0,0 mm 4,5 km/h (1 Bft) O-NO 65 ° 0 min 0,000 mm 0,5 UV-I 76 W/m² 7,4 °C 15,4 °C 6,4 km/h (2 Bft)
21.05.2017 19:22 15,4 °C 15,4 °C 59 % 1020,8 hPa 0,0 mm 5,3 km/h (1 Bft) O-NO 75 ° 0 min 0,000 mm 0,5 UV-I 81 W/m² 7,4 °C 15,4 °C 6,4 km/h (2 Bft)
21.05.2017 19:23 15,4 °C 15,5 °C 59 % 1020,9 hPa 0,0 mm 5,9 km/h (2 Bft) NO 48 ° 0 min 0,000 mm 0,5 UV-I 81 W/m² 7,4 °C 15,4 °C 8,0 km/h (2 Bft)
21.05.2017 19:24 15,4 °C 15,4 °C 60 % 1020,9 hPa 0,0 mm 4,1 km/h (1 Bft) O-NO 64 ° 0 min 0,000 mm 0,5 UV-I 67 W/m² 7,7 °C 15,4 °C 6,4 km/h (2 Bft)
21.05.2017 19:25 15,4 °C 15,4 °C 59 % 1020,9 hPa 0,0 mm 8,0 km/h (2 Bft) NO 51 ° 0 min 0,000 mm 0,5 UV-I 70 W/m² 7,4 °C 15,4 °C 11,3 km/h (2 Bft)
21.05.2017 19:26 15,4 °C 15,4 °C 59 % 1020,9 hPa 0,0 mm 4,4 km/h (1 Bft) O-NO 77 ° 0 min 0,000 mm 0,5 UV-I 77 W/m² 7,4 °C 15,4 °C 11,3 km/h (2 Bft)
21.05.2017 19:27 15,4 °C 15,4 °C 59 % 1020,8 hPa 0,0 mm 4,9 km/h (1 Bft) O-NO 61 ° 0 min 0,000 mm 0,5 UV-I 84 W/m² 7,4 °C 15,4 °C 8,0 km/h (2 Bft)
21.05.2017 19:28 15,3 °C 15,4 °C 60 % 1020,8 hPa 0,0 mm 3,6 km/h (1 Bft) O-NO 61 ° 0 min 0,000 mm 0,5 UV-I 81 W/m² 7,6 °C 15,3 °C 4,8 km/h (1 Bft)
21.05.2017 19:29 15,3 °C 15,4 °C 59 % 1020,8 hPa 0,0 mm 3,3 km/h (1 Bft) O 79 ° 0 min 0,000 mm 0,5 UV-I 77 W/m² 7,3 °C 15,3 °C 6,4 km/h (2 Bft)
21.05.2017 19:30 15,3 °C 15,3 °C 61 % 1020,8 hPa 0,0 mm 3,5 km/h (1 Bft) O-NO 76 ° 0 min 0,000 mm 0,5 UV-I 93 W/m² 7,8 °C 15,3 °C 6,4 km/h (2 Bft)
21.05.2017 19:31 15,2 °C 15,3 °C 62 % 1020,8 hPa 0,0 mm 5,6 km/h (1 Bft) O-NO 67 ° 0 min 0,000 mm 0,5 UV-I 104 W/m² 8,0 °C 15,2 °C 11,3 km/h (2 Bft)
21.05.2017 19:32 15,2 °C 15,2 °C 60 % 1020,9 hPa 0,0 mm 3,8 km/h (1 Bft) O-NO 60 ° 0 min 0,000 mm 0,5 UV-I 109 W/m² 7,5 °C 15,2 °C 8,0 km/h (2 Bft)
21.05.2017 19:33 15,2 °C 15,2 °C 62 % 1020,9 hPa 0,0 mm 3,3 km/h (1 Bft) O 90 ° 0 min 0,000 mm 0,5 UV-I 116 W/m² 8,0 °C 15,2 °C 4,8 km/h (1 Bft)
21.05.2017 19:34 15,2 °C 15,2 °C 62 % 1021,0 hPa 0,0 mm 5,1 km/h (1 Bft) O 98 ° 0 min 0,000 mm 0,5 UV-I 116 W/m² 8,0 °C 15,2 °C 9,7 km/h (2 Bft)
21.05.2017 19:35 15,2 °C 15,2 °C 61 % 1020,9 hPa 0,0 mm 6,9 km/h (2 Bft) O-NO 59 ° 0 min 0,000 mm 0,0 UV-I 118 W/m² 7,7 °C 15,2 °C 9,7 km/h (2 Bft)
21.05.2017 19:36 15,2 °C 15,2 °C 61 % 1020,9 hPa 0,0 mm 5,0 km/h (1 Bft) NO 34 ° 0 min 0,000 mm 0,0 UV-I 120 W/m² 7,7 °C 15,2 °C 6,4 km/h (2 Bft)
21.05.2017 19:37 15,2 °C 15,2 °C 62 % 1020,9 hPa 0,0 mm 4,3 km/h (1 Bft) O-NO 70 ° 0 min 0,000 mm 0,0 UV-I 118 W/m² 8,0 °C 15,2 °C 6,4 km/h (2 Bft)
21.05.2017 19:38 15,3 °C 15,3 °C 60 % 1020,9 hPa 0,0 mm 7,4 km/h (2 Bft) N-NO 33 ° 0 min 0,000 mm 0,0 UV-I 114 W/m² 7,6 °C 15,3 °C 12,9 km/h (3 Bft)
21.05.2017 19:39 15,3 °C 15,3 °C 61 % 1020,9 hPa 0,0 mm 8,9 km/h (2 Bft) O-NO 66 ° 0 min 0,000 mm 0,0 UV-I 107 W/m² 7,8 °C 15,3 °C 12,9 km/h (3 Bft)
21.05.2017 19:40 15,3 °C 15,3 °C 62 % 1020,9 hPa 0,0 mm 5,2 km/h (1 Bft) O 88 ° 0 min 0,000 mm 0,0 UV-I 107 W/m² 8,1 °C 15,3 °C 8,0 km/h (2 Bft)
21.05.2017 19:41 15,2 °C 15,3 °C 62 % 1020,9 hPa 0,0 mm 2,5 km/h (1 Bft) O-NO 74 ° 0 min 0,000 mm 0,0 UV-I 104 W/m² 8,0 °C 15,2 °C 8,0 km/h (2 Bft)
21.05.2017 19:42 15,2 °C 15,2 °C 61 % 1020,9 hPa 0,0 mm 5,6 km/h (1 Bft) O 80 ° 0 min 0,000 mm 0,0 UV-I 100 W/m² 7,7 °C 15,2 °C 9,7 km/h (2 Bft)
21.05.2017 19:43 15,2 °C 15,2 °C 61 % 1021,0 hPa 0,0 mm 3,7 km/h (1 Bft) O-NO 60 ° 0 min 0,000 mm 0,0 UV-I 97 W/m² 7,7 °C 15,2 °C 6,4 km/h (2 Bft)
21.05.2017 19:44 15,2 °C 15,2 °C 61 % 1021,0 hPa 0,0 mm 5,2 km/h (1 Bft) O 87 ° 0 min 0,000 mm 0,0 UV-I 97 W/m² 7,7 °C 15,2 °C 6,4 km/h (2 Bft)
21.05.2017 19:45 15,2 °C 15,2 °C 61 % 1020,9 hPa 0,0 mm 5,3 km/h (1 Bft) O-NO 71 ° 0 min 0,000 mm 0,0 UV-I 98 W/m² 7,7 °C 15,2 °C 8,0 km/h (2 Bft)
21.05.2017 19:46 15,2 °C 15,2 °C 62 % 1020,9 hPa 0,0 mm 2,8 km/h (1 Bft) O-NO 69 ° 0 min 0,000 mm 0,0 UV-I 98 W/m² 8,0 °C 15,2 °C 3,2 km/h (1 Bft)
21.05.2017 19:47 15,2 °C 15,2 °C 62 % 1020,9 hPa 0,0 mm 3,7 km/h (1 Bft) NO 50 ° 0 min 0,000 mm 0,0 UV-I 100 W/m² 8,0 °C 15,2 °C 6,4 km/h (2 Bft)
21.05.2017 19:48 15,2 °C 15,2 °C 62 % 1020,9 hPa 0,0 mm 4,2 km/h (1 Bft) O 85 ° 0 min 0,000 mm 0,0 UV-I 104 W/m² 8,0 °C 15,2 °C 6,4 km/h (2 Bft)
21.05.2017 19:49 15,3 °C 15,3 °C 62 % 1020,9 hPa 0,0 mm 2,3 km/h (1 Bft) O-NO 64 ° 0 min 0,000 mm 0,0 UV-I 104 W/m² 8,1 °C 15,3 °C 4,8 km/h (1 Bft)
21.05.2017 19:50 15,3 °C 15,3 °C 64 % 1021,0 hPa 0,0 mm 2,3 km/h (1 Bft) O-NO 64 ° 0 min 0,000 mm 0,0 UV-I 102 W/m² 8,5 °C 15,3 °C 3,2 km/h (1 Bft)
21.05.2017 19:51 15,2 °C 15,3 °C 64 % 1020,9 hPa 0,0 mm 5,6 km/h (1 Bft) O-NO 61 ° 0 min 0,000 mm 0,0 UV-I 100 W/m² 8,4 °C 15,2 °C 9,7 km/h (2 Bft)
21.05.2017 19:52 15,2 °C 15,2 °C 62 % 1020,9 hPa 0,0 mm 4,2 km/h (1 Bft) O 82 ° 0 min 0,000 mm 0,0 UV-I 102 W/m² 8,0 °C 15,2 °C 6,4 km/h (2 Bft)
21.05.2017 19:53 15,2 °C 15,2 °C 62 % 1020,9 hPa 0,0 mm 3,9 km/h (1 Bft) NO 51 ° 0 min 0,000 mm 0,0 UV-I 102 W/m² 8,0 °C 15,2 °C 12,9 km/h (3 Bft)
21.05.2017 19:54 15,1 °C 15,2 °C 63 % 1020,9 hPa 0,0 mm 4,2 km/h (1 Bft) O-SO 121 ° 0 min 0,000 mm 0,0 UV-I 98 W/m² 8,1 °C 15,1 °C 6,4 km/h (2 Bft)
21.05.2017 19:55 15,2 °C 15,2 °C 62 % 1020,9 hPa 0,0 mm 6,1 km/h (2 Bft) O-NO 74 ° 0 min 0,000 mm 0,0 UV-I 95 W/m² 8,0 °C 15,2 °C 9,7 km/h (2 Bft)
21.05.2017 19:56 15,2 °C 15,2 °C 62 % 1020,9 hPa 0,0 mm 5,8 km/h (2 Bft) NO 53 ° 0 min 0,000 mm 0,0 UV-I 90 W/m² 8,0 °C 15,2 °C 8,0 km/h (2 Bft)
21.05.2017 19:57 15,2 °C 15,2 °C 62 % 1020,9 hPa 0,0 mm 2,3 km/h (1 Bft) O-NO 65 ° 0 min 0,000 mm 0,0 UV-I 91 W/m² 8,0 °C 15,2 °C 3,2 km/h (1 Bft)
21.05.2017 19:58 15,2 °C 15,2 °C 62 % 1020,9 hPa 0,0 mm 3,2 km/h (1 Bft) N-NO 32 ° 0 min 0,000 mm 0,0 UV-I 88 W/m² 8,0 °C 15,2 °C 4,8 km/h (1 Bft)
21.05.2017 19:59 15,2 °C 15,2 °C 63 % 1020,9 hPa 0,0 mm 4,9 km/h (1 Bft) O-NO 76 ° 0 min 0,000 mm 0,0 UV-I 86 W/m² 8,2 °C 15,2 °C 11,3 km/h (2 Bft)
21.05.2017 20:00 15,1 °C 15,2 °C 63 % 1020,9 hPa 0,0 mm 3,4 km/h (1 Bft) O-NO 66 ° 0 min 0,000 mm 0,0 UV-I 84 W/m² 8,1 °C 15,1 °C 4,8 km/h (1 Bft)
21.05.2017 20:01 15,1 °C 15,1 °C 63 % 1020,9 hPa 0,0 mm 3,5 km/h (1 Bft) O-NO 61 ° 0 min 0,076 mm 0,0 UV-I 83 W/m² 8,1 °C 15,1 °C 4,8 km/h (1 Bft)
21.05.2017 20:02 15,1 °C 15,1 °C 62 % 1020,8 hPa 0,0 mm 2,5 km/h (1 Bft) O 88 ° 0 min 0,000 mm 0,0 UV-I 81 W/m² 7,9 °C 15,1 °C 6,4 km/h (2 Bft)
21.05.2017 20:03 15,1 °C 15,1 °C 63 % 1020,9 hPa 0,0 mm 2,4 km/h (1 Bft) NO 42 ° 0 min 0,000 mm 0,0 UV-I 76 W/m² 8,1 °C 15,1 °C 3,2 km/h (1 Bft)
21.05.2017 20:04 15,1 °C 15,1 °C 63 % 1020,8 hPa 0,0 mm 1,3 km/h (1 Bft) NO 42 ° 0 min 0,000 mm 0,0 UV-I 74 W/m² 8,1 °C 15,1 °C 3,2 km/h (1 Bft)
21.05.2017 20:05 15,1 °C 15,1 °C 63 % 1020,8 hPa 0,0 mm 3,2 km/h (1 Bft) O-NO 74 ° 0 min 0,000 mm 0,0 UV-I 72 W/m² 8,1 °C 15,1 °C 4,8 km/h (1 Bft)
21.05.2017 20:06 15,1 °C 15,1 °C 63 % 1020,8 hPa 0,0 mm 3,5 km/h (1 Bft) O-NO 69 ° 0 min 0,000 mm 0,0 UV-I 69 W/m² 8,1 °C 15,1 °C 4,8 km/h (1 Bft)
21.05.2017 20:07 15,1 °C 15,1 °C 63 % 1020,8 hPa 0,0 mm 5,6 km/h (1 Bft) O-NO 59 ° 0 min 0,000 mm 0,0 UV-I 67 W/m² 8,1 °C 15,1 °C 6,4 km/h (2 Bft)
21.05.2017 20:08 15,1 °C 15,1 °C 64 % 1020,8 hPa 0,0 mm 4,7 km/h (1 Bft) O 96 ° 0 min 0,000 mm 0,0 UV-I 63 W/m² 8,3 °C 15,1 °C 6,4 km/h (2 Bft)
21.05.2017 20:09 15,0 °C 15,1 °C 63 % 1020,8 hPa 0,0 mm 5,0 km/h (1 Bft) O-SO 103 ° 0 min 0,000 mm 0,0 UV-I 62 W/m² 8,0 °C 15,0 °C 8,0 km/h (2 Bft)
21.05.2017 20:10 14,9 °C 15,0 °C 63 % 1020,8 hPa 0,0 mm 7,6 km/h (2 Bft) O 93 ° 0 min 0,000 mm 0,0 UV-I 60 W/m² 7,9 °C 14,9 °C 12,9 km/h (3 Bft)
21.05.2017 20:11 14,9 °C 14,9 °C 64 % 1020,8 hPa 0,0 mm 3,3 km/h (1 Bft) NO 51 ° 0 min 0,000 mm 0,0 UV-I 60 W/m² 8,2 °C 14,9 °C 6,4 km/h (2 Bft)
21.05.2017 20:12 14,9 °C 14,9 °C 64 % 1020,8 hPa 0,0 mm 3,3 km/h (1 Bft) O-NO 61 ° 0 min 0,000 mm 0,0 UV-I 54 W/m² 8,2 °C 14,9 °C 6,4 km/h (2 Bft)
21.05.2017 20:13 14,8 °C 14,9 °C 64 % 1020,8 hPa 0,0 mm 2,3 km/h (1 Bft) O 93 ° 0 min 0,000 mm 0,0 UV-I 54 W/m² 8,1 °C 14,8 °C 4,8 km/h (1 Bft)
21.05.2017 20:14 14,8 °C 14,8 °C 64 % 1020,7 hPa 0,0 mm 2,4 km/h (1 Bft) O 81 ° 0 min 0,000 mm 0,0 UV-I 54 W/m² 8,1 °C 14,8 °C 3,2 km/h (1 Bft)
21.05.2017 20:15 14,8 °C 14,8 °C 64 % 1020,7 hPa 0,0 mm 4,8 km/h (1 Bft) O 84 ° 0 min 0,000 mm 0,0 UV-I 49 W/m² 8,1 °C 14,8 °C 8,0 km/h (2 Bft)
21.05.2017 20:16 14,8 °C 14,8 °C 64 % 1020,7 hPa 0,0 mm 6,8 km/h (2 Bft) O 84 ° 0 min 0,000 mm 0,0 UV-I 46 W/m² 8,1 °C 14,8 °C 11,3 km/h (2 Bft)
21.05.2017 20:17 14,7 °C 14,8 °C 64 % 1020,8 hPa 0,0 mm 5,8 km/h (2 Bft) O-NO 69 ° 0 min 0,000 mm 0,0 UV-I 44 W/m² 8,0 °C 14,7 °C 11,3 km/h (2 Bft)
21.05.2017 20:18 14,7 °C 14,7 °C 64 % 1020,7 hPa 0,0 mm 4,8 km/h (1 Bft) O-NO 67 ° 0 min 0,000 mm 0,0 UV-I 44 W/m² 8,0 °C 14,7 °C 8,0 km/h (2 Bft)
21.05.2017 20:19 14,7 °C 14,7 °C 66 % 1020,7 hPa 0,0 mm 5,1 km/h (1 Bft) O 92 ° 0 min 0,000 mm 0,0 UV-I 44 W/m² 8,4 °C 14,7 °C 8,0 km/h (2 Bft)
21.05.2017 20:20 14,6 °C 14,7 °C 65 % 1020,8 hPa 0,0 mm 2,9 km/h (1 Bft) O 91 ° 0 min 0,000 mm 0,0 UV-I 42 W/m² 8,1 °C 14,6 °C 4,8 km/h (1 Bft)
21.05.2017 20:21 14,5 °C 14,6 °C 66 % 1020,7 hPa 0,0 mm 2,6 km/h (1 Bft) O-NO 65 ° 0 min 0,000 mm 0,0 UV-I 40 W/m² 8,2 °C 14,5 °C 4,8 km/h (1 Bft)
21.05.2017 20:22 14,4 °C 14,5 °C 66 % 1020,8 hPa 0,0 mm 4,3 km/h (1 Bft) O-NO 62 ° 0 min 0,000 mm 0,0 UV-I 39 W/m² 8,1 °C 14,4 °C 6,4 km/h (2 Bft)
21.05.2017 20:23 14,4 °C 14,4 °C 67 % 1020,8 hPa 0,0 mm 2,3 km/h (1 Bft) O 87 ° 0 min 0,000 mm 0,0 UV-I 37 W/m² 8,4 °C 14,4 °C 4,8 km/h (1 Bft)
21.05.2017 20:24 14,3 °C 14,4 °C 67 % 1020,7 hPa 0,0 mm 2,3 km/h (1 Bft) O 87 ° 0 min 0,000 mm 0,0 UV-I 37 W/m² 8,3 °C 14,3 °C 3,2 km/h (1 Bft)
21.05.2017 20:25 14,2 °C 14,3 °C 69 % 1020,8 hPa 0,0 mm 3,3 km/h (1 Bft) NO 39 ° 0 min 0,000 mm 0,0 UV-I 37 W/m² 8,6 °C 14,2 °C 6,4 km/h (2 Bft)
21.05.2017 20:26 14,1 °C 14,2 °C 67 % 1020,7 hPa 0,0 mm 5,6 km/h (1 Bft) O 82 ° 0 min 0,000 mm 0,0 UV-I 32 W/m² 8,1 °C 14,1 °C 11,3 km/h (2 Bft)
21.05.2017 20:27 14,0 °C 14,1 °C 69 % 1020,8 hPa 0,0 mm 3,7 km/h (1 Bft) O 98 ° 0 min 0,000 mm 0,0 UV-I 32 W/m² 8,4 °C 14,0 °C 9,7 km/h (2 Bft)
21.05.2017 20:28 14,0 °C 14,0 °C 67 % 1020,8 hPa 0,0 mm 4,2 km/h (1 Bft) O-NO 69 ° 0 min 0,000 mm 0,0 UV-I 30 W/m² 8,0 °C 14,0 °C 6,4 km/h (2 Bft)
21.05.2017 20:29 14,1 °C 14,1 °C 67 % 1020,7 hPa 0,0 mm 7,3 km/h (2 Bft) O-NO 74 ° 0 min 0,000 mm 0,0 UV-I 30 W/m² 8,1 °C 14,1 °C 11,3 km/h (2 Bft)
21.05.2017 20:30 14,1 °C 14,1 °C 68 % 1020,7 hPa 0,0 mm 3,7 km/h (1 Bft) O 90 ° 0 min 0,000 mm 0,0 UV-I 28 W/m² 8,3 °C 14,1 °C 6,4 km/h (2 Bft)
21.05.2017 20:31 14,1 °C 14,1 °C 68 % 1020,7 hPa 0,0 mm 3,6 km/h (1 Bft) O 96 ° 0 min 0,000 mm 0,0 UV-I 26 W/m² 8,3 °C 14,1 °C 6,4 km/h (2 Bft)
21.05.2017 20:32 14,1 °C 14,1 °C 67 % 1020,7 hPa 0,0 mm 4,4 km/h (1 Bft) O-NO 59 ° 0 min 0,000 mm 0,0 UV-I 25 W/m² 8,1 °C 14,1 °C 8,0 km/h (2 Bft)
21.05.2017 20:33 14,0 °C 14,1 °C 67 % 1020,7 hPa 0,0 mm 1,7 km/h (1 Bft) NO 41 ° 0 min 0,000 mm 0,0 UV-I 23 W/m² 8,0 °C 14,0 °C 4,8 km/h (1 Bft)
21.05.2017 20:34 14,0 °C 14,1 °C 67 % 1020,7 hPa 0,0 mm 5,0 km/h (1 Bft) O-NO 61 ° 0 min 0,000 mm 0,0 UV-I 23 W/m² 8,0 °C 14,0 °C 11,3 km/h (2 Bft)
21.05.2017 20:35 13,9 °C 14,0 °C 67 % 1020,7 hPa 0,0 mm 4,0 km/h (1 Bft) O 80 ° 0 min 0,000 mm 0,0 UV-I 21 W/m² 7,9 °C 13,9 °C 8,0 km/h (2 Bft)
21.05.2017 20:36 13,9 °C 13,9 °C 68 % 1020,7 hPa 0,0 mm 7,1 km/h (2 Bft) O-NO 65 ° 0 min 0,000 mm 0,0 UV-I 21 W/m² 8,1 °C 13,9 °C 11,3 km/h (2 Bft)
21.05.2017 20:37 13,8 °C 13,9 °C 67 % 1020,7 hPa 0,0 mm 5,1 km/h (1 Bft) SO 138 ° 0 min 0,000 mm 0,0 UV-I 21 W/m² 7,8 °C 13,8 °C 9,7 km/h (2 Bft)
21.05.2017 20:38 13,8 °C 13,8 °C 67 % 1020,7 hPa 0,0 mm 4,7 km/h (1 Bft) O-NO 64 ° 0 min 0,000 mm 0,0 UV-I 19 W/m² 7,8 °C 13,8 °C 8,0 km/h (2 Bft)
21.05.2017 20:39 13,8 °C 13,8 °C 68 % 1020,7 hPa 0,0 mm 2,5 km/h (1 Bft) O-NO 70 ° 0 min 0,000 mm 0,0 UV-I 19 W/m² 8,0 °C 13,8 °C 4,8 km/h (1 Bft)
21.05.2017 20:40 13,7 °C 13,8 °C 68 % 1020,7 hPa 0,0 mm 4,1 km/h (1 Bft) O-SO 120 ° 0 min 0,000 mm 0,0 UV-I 19 W/m² 7,9 °C 13,7 °C 6,4 km/h (2 Bft)
21.05.2017 20:41 13,7 °C 13,7 °C 68 % 1020,7 hPa 0,0 mm 1,2 km/h (1 Bft) O-SO 120 ° 0 min 0,000 mm 0,0 UV-I 18 W/m² 7,9 °C 13,7 °C 3,2 km/h (1 Bft)
21.05.2017 20:42 13,6 °C 13,7 °C 69 % 1020,7 hPa 0,0 mm 2,3 km/h (1 Bft) O-NO 65 ° 0 min 0,000 mm 0,0 UV-I 16 W/m² 8,0 °C 13,6 °C 6,4 km/h (2 Bft)
21.05.2017 20:43 13,5 °C 13,6 °C 70 % 1020,7 hPa 0,0 mm 0,3 km/h (0 Bft) O-NO 65 ° 0 min 0,000 mm 0,0 UV-I 14 W/m² 8,1 °C 13,5 °C 1,6 km/h (1 Bft)
21.05.2017 20:44 13,4 °C 13,5 °C 71 % 1020,7 hPa 0,0 mm 1,7 km/h (1 Bft) O-SO 105 ° 0 min 0,000 mm 0,0 UV-I 14 W/m² 8,3 °C 13,4 °C 3,2 km/h (1 Bft)
21.05.2017 20:45 13,3 °C 13,4 °C 70 % 1020,7 hPa 0,0 mm 0,7 km/h (0 Bft) O-SO 106 ° 0 min 0,000 mm 0,0 UV-I 12 W/m² 7,9 °C 13,3 °C 3,2 km/h (1 Bft)
21.05.2017 20:46 13,2 °C 13,3 °C 70 % 1020,7 hPa 0,0 mm 0,1 km/h (0 Bft) O-SO 105 ° 0 min 0,000 mm 0,0 UV-I 12 W/m² 7,9 °C 13,2 °C 1,6 km/h (1 Bft)
21.05.2017 20:47 13,1 °C 13,2 °C 70 % 1020,7 hPa 0,0 mm 0,7 km/h (0 Bft) O 88 ° 0 min 0,000 mm 0,0 UV-I 11 W/m² 7,8 °C 13,1 °C 3,2 km/h (1 Bft)
21.05.2017 20:48 13,1 °C 13,1 °C 71 % 1020,7 hPa 0,0 mm 4,0 km/h (1 Bft) O 92 ° 0 min 0,000 mm 0,0 UV-I 11 W/m² 8,0 °C 13,1 °C 9,7 km/h (2 Bft)
21.05.2017 20:49 13,0 °C 13,1 °C 71 % 1020,6 hPa 0,0 mm 4,4 km/h (1 Bft) O 82 ° 0 min 0,000 mm 0,0 UV-I 9 W/m² 7,9 °C 13,0 °C 6,4 km/h (2 Bft)
21.05.2017 20:50 12,9 °C 13,0 °C 71 % 1020,7 hPa 0,0 mm 1,9 km/h (1 Bft) O 81 ° 0 min 0,000 mm 0,0 UV-I 9 W/m² 7,8 °C 12,9 °C 3,2 km/h (1 Bft)
21.05.2017 20:51 12,9 °C 12,9 °C 71 % 1020,7 hPa 0,0 mm 1,3 km/h (1 Bft) O 81 ° 0 min 0,000 mm 0,0 UV-I 7 W/m² 7,8 °C 12,9 °C 1,6 km/h (1 Bft)
21.05.2017 20:52 12,9 °C 12,9 °C 71 % 1020,7 hPa 0,0 mm 0,0 km/h (0 Bft) O 81 ° 0 min 0,000 mm 0,0 UV-I 7 W/m² 7,8 °C 12,9 °C 0,0 km/h (0 Bft)
21.05.2017 20:53 12,9 °C 12,9 °C 71 % 1020,7 hPa 0,0 mm 0,5 km/h (0 Bft) O 81 ° 0 min 0,000 mm 0,0 UV-I 7 W/m² 7,8 °C 12,9 °C 1,6 km/h (1 Bft)
21.05.2017 20:54 12,9 °C 12,9 °C 71 % 1020,7 hPa 0,0 mm 0,2 km/h (0 Bft) O 81 ° 0 min 0,000 mm 0,0 UV-I 7 W/m² 7,8 °C 12,9 °C 1,6 km/h (1 Bft)
21.05.2017 20:55 12,8 °C 12,9 °C 72 % 1020,7 hPa 0,0 mm 2,7 km/h (1 Bft) O 95 ° 0 min 0,000 mm 0,0 UV-I 5 W/m² 7,9 °C 12,8 °C 4,8 km/h (1 Bft)
21.05.2017 20:56 12,8 °C 12,8 °C 72 % 1020,7 hPa 0,0 mm 2,8 km/h (1 Bft) SO 133 ° 0 min 0,000 mm 0,0 UV-I 5 W/m² 7,9 °C 12,8 °C 4,8 km/h (1 Bft)
21.05.2017 20:57 12,7 °C 12,8 °C 72 % 1020,7 hPa 0,0 mm 3,3 km/h (1 Bft) O-NO 61 ° 0 min 0,000 mm 0,0 UV-I 5 W/m² 7,8 °C 12,7 °C 8,0 km/h (2 Bft)
21.05.2017 20:58 12,7 °C 12,8 °C 72 % 1020,7 hPa 0,0 mm 4,6 km/h (1 Bft) O 96 ° 0 min 0,000 mm 0,0 UV-I 5 W/m² 7,8 °C 12,7 °C 6,4 km/h (2 Bft)
21.05.2017 20:59 12,7 °C 12,7 °C 71 % 1020,7 hPa 0,0 mm 1,2 km/h (1 Bft) O 96 ° 0 min 0,000 mm 0,0 UV-I 5 W/m² 7,6 °C 12,7 °C 3,2 km/h (1 Bft)
21.05.2017 21:00 12,7 °C 12,7 °C 73 % 1020,7 hPa 0,0 mm 1,3 km/h (1 Bft) O 99 ° 0 min 0,025 mm 0,0 UV-I 5 W/m² 8,0 °C 12,7 °C 3,2 km/h (1 Bft)
21.05.2017 21:01 12,7 °C 12,7 °C 72 % 1020,7 hPa 0,0 mm 0,6 km/h (0 Bft) O 99 ° 0 min 0,000 mm 0,0 UV-I 0 W/m² 7,8 °C 12,7 °C 1,6 km/h (1 Bft)
21.05.2017 21:02 12,6 °C 12,7 °C 72 % 1020,7 hPa 0,0 mm 0,9 km/h (0 Bft) SO 142 ° 0 min 0,000 mm 0,0 UV-I 0 W/m² 7,7 °C 12,6 °C 4,8 km/h (1 Bft)
21.05.2017 21:03 12,6 °C 12,6 °C 72 % 1020,7 hPa 0,0 mm 0,1 km/h (0 Bft) SO 142 ° 0 min 0,000 mm 0,0 UV-I 0 W/m² 7,7 °C 12,6 °C 1,6 km/h (1 Bft)
21.05.2017 21:04 12,6 °C 12,6 °C 72 % 1020,7 hPa 0,0 mm 2,2 km/h (1 Bft) O-SO 109 ° 0 min 0,000 mm 0,0 UV-I 0 W/m² 7,7 °C 12,6 °C 3,2 km/h (1 Bft)
21.05.2017 21:05 12,6 °C 12,6 °C 72 % 1020,7 hPa 0,0 mm 3,1 km/h (1 Bft) O 89 ° 0 min 0,000 mm 0,0 UV-I 0 W/m² 7,7 °C 12,6 °C 4,8 km/h (1 Bft)
21.05.2017 21:06 12,6 °C 12,6 °C 72 % 1020,7 hPa 0,0 mm 0,6 km/h (0 Bft) O 90 ° 0 min 0,000 mm 0,0 UV-I 0 W/m² 7,7 °C 12,6 °C 1,6 km/h (1 Bft)
21.05.2017 21:07 12,4 °C 12,6 °C 73 % 1020,7 hPa 0,0 mm 0,9 km/h (0 Bft) O 90 ° 0 min 0,000 mm 0,0 UV-I 0 W/m² 7,7 °C 12,4 °C 1,6 km/h (1 Bft)
21.05.2017 21:08 12,4 °C 12,4 °C 73 % 1020,7 hPa 0,0 mm 0,7 km/h (0 Bft) O 90 ° 0 min 0,000 mm 0,0 UV-I 0 W/m² 7,7 °C 12,4 °C 3,2 km/h (1 Bft)
21.05.2017 21:09 12,4 °C 12,4 °C 73 % 1020,7 hPa 0,0 mm 0,4 km/h (0 Bft) O 90 ° 0 min 0,000 mm 0,0 UV-I 0 W/m² 7,7 °C 12,4 °C 1,6 km/h (1 Bft)
21.05.2017 21:10 12,3 °C 12,4 °C 73 % 1020,7 hPa 0,0 mm 1,5 km/h (1 Bft) SO 134 ° 0 min 0,000 mm 0,0 UV-I 0 W/m² 7,6 °C 12,3 °C 4,8 km/h (1 Bft)
21.05.2017 21:11 12,3 °C 12,3 °C 73 % 1020,7 hPa 0,0 mm 2,2 km/h (1 Bft) O-NO 67 ° 0 min 0,000 mm 0,0 UV-I 0 W/m² 7,6 °C 12,3 °C 4,8 km/h (1 Bft)
21.05.2017 21:12 12,3 °C 12,3 °C 74 % 1020,7 hPa 0,0 mm 0,2 km/h (0 Bft) O-NO 67 ° 0 min 0,000 mm 0,0 UV-I 0 W/m² 7,8 °C 12,3 °C 1,6 km/h (1 Bft)
21.05.2017 21:13 12,2 °C 12,3 °C 74 % 1020,8 hPa 0,0 mm 0,7 km/h (0 Bft) O-NO 67 ° 0 min 0,000 mm 0,0 UV-I 0 W/m² 7,7 °C 12,2 °C 3,2 km/h (1 Bft)
21.05.2017 21:14 12,1 °C 12,2 °C 74 % 1020,7 hPa 0,0 mm 0,3 km/h (0 Bft) O-NO 67 ° 0 min 0,000 mm 0,0 UV-I 0 W/m² 7,6 °C 12,1 °C 1,6 km/h (1 Bft)
21.05.2017 21:15 12,1 °C 12,1 °C 74 % 1020,7 hPa 0,0 mm 0,4 km/h (0 Bft) O-NO 67 ° 0 min 0,000 mm 0,0 UV-I 0 W/m² 7,6 °C 12,1 °C 1,6 km/h (1 Bft)
21.05.2017 21:16 12,1 °C 12,1 °C 74 % 1020,7 hPa 0,0 mm 0,1 km/h (0 Bft) O-NO 67 ° 0 min 0,000 mm 0,0 UV-I 0 W/m² 7,6 °C 12,1 °C 1,6 km/h (1 Bft)
21.05.2017 21:17 12,1 °C 12,1 °C 74 % 1020,7 hPa 0,0 mm 0,0 km/h (0 Bft) O-NO 67 ° 0 min 0,000 mm 0,0 UV-I 0 W/m² 7,6 °C 12,1 °C 0,0 km/h (0 Bft)
21.05.2017 21:18 12,1 °C 12,1 °C 74 % 1020,7 hPa 0,0 mm 0,1 km/h (0 Bft) O-NO 67 ° 0 min 0,000 mm 0,0 UV-I 0 W/m² 7,6 °C 12,1 °C 1,6 km/h (1 Bft)
21.05.2017 21:19 12,1 °C 12,1 °C 74 % 1020,7 hPa 0,0 mm 0,0 km/h (0 Bft) O-NO 67 ° 0 min 0,000 mm 0,0 UV-I 0 W/m² 7,6 °C 12,1 °C 0,0 km/h (0 Bft)
21.05.2017 21:20 12,1 °C 12,1 °C 74 % 1020,7 hPa 0,0 mm 1,0 km/h (0 Bft) O-NO 67 ° 0 min 0,000 mm 0,0 UV-I 0 W/m² 7,6 °C 12,1 °C 1,6 km/h (1 Bft)
21.05.2017 21:21 12,1 °C 12,1 °C 74 % 1020,7 hPa 0,0 mm 0,7 km/h (0 Bft) O-NO 67 ° 0 min 0,000 mm 0,0 UV-I 0 W/m² 7,6 °C 12,1 °C 1,6 km/h (1 Bft)
21.05.2017 21:22 11,9 °C 12,1 °C 74 % 1020,7 hPa 0,0 mm 0,0 km/h (0 Bft) O-NO 67 ° 0 min 0,000 mm 0,0 UV-I 0 W/m² 7,4 °C 11,9 °C 0,0 km/h (0 Bft)
21.05.2017 21:23 11,8 °C 11,9 °C 75 % 1020,7 hPa 0,0 mm 0,1 km/h (0 Bft) O-NO 67 ° 0 min 0,000 mm 0,0 UV-I 0 W/m² 7,5 °C 11,8 °C 1,6 km/h (1 Bft)
21.05.2017 21:24 11,7 °C 11,8 °C 75 % 1020,7 hPa 0,0 mm 4,8 km/h (1 Bft) O 90 ° 0 min 0,000 mm 0,0 UV-I 0 W/m² 7,4 °C 11,7 °C 9,7 km/h (2 Bft)
21.05.2017 21:25 11,7 °C 11,8 °C 75 % 1020,7 hPa 0,0 mm 3,2 km/h (1 Bft) SO 131 ° 0 min 0,000 mm 0,0 UV-I 0 W/m² 7,4 °C 11,7 °C 6,4 km/h (2 Bft)
21.05.2017 21:26 11,8 °C 11,8 °C 75 % 1020,7 hPa 0,0 mm 0,2 km/h (0 Bft) SO 131 ° 0 min 0,000 mm 0,0 UV-I 0 W/m² 7,5 °C 11,8 °C 1,6 km/h (1 Bft)
21.05.2017 21:27 11,8 °C 11,8 °C 75 % 1020,7 hPa 0,0 mm 0,0 km/h (0 Bft) SO 131 ° 0 min 0,000 mm 0,0 UV-I 0 W/m² 7,5 °C 11,8 °C 0,0 km/h (0 Bft)
21.05.2017 21:28 11,8 °C 11,8 °C 74 % 1020,7 hPa 0,0 mm 0,0 km/h (0 Bft) SO 131 ° 0 min 0,000 mm 0,0 UV-I 0 W/m² 7,3 °C 11,8 °C 0,0 km/h (0 Bft)
21.05.2017 21:29 11,8 °C 11,8 °C 74 % 1020,7 hPa 0,0 mm 0,0 km/h (0 Bft) SO 131 ° 0 min 0,000 mm 0,0 UV-I 0 W/m² 7,3 °C 11,8 °C 0,0 km/h (0 Bft)
21.05.2017 21:30 11,8 °C 11,8 °C 75 % 1020,7 hPa 0,0 mm 0,0 km/h (0 Bft) SO 131 ° 0 min 0,000 mm 0,0 UV-I 0 W/m² 7,5 °C 11,8 °C 0,0 km/h (0 Bft)
21.05.2017 21:31 11,8 °C 11,8 °C 74 % 1020,7 hPa 0,0 mm 1,1 km/h (1 Bft) SO 131 ° 0 min 0,000 mm 0,0 UV-I 0 W/m² 7,3 °C 11,8 °C 3,2 km/h (1 Bft)
21.05.2017 21:32 11,8 °C 11,8 °C 75 % 1020,8 hPa 0,0 mm 1,1 km/h (1 Bft) SO 131 ° 0 min 0,000 mm 0,0 UV-I 0 W/m² 7,5 °C 11,8 °C 3,2 km/h (1 Bft)
21.05.2017 21:33 11,8 °C 11,8 °C 75 % 1020,8 hPa 0,0 mm 1,1 km/h (1 Bft) SO 128 ° 0 min 0,000 mm 0,0 UV-I 0 W/m² 7,5 °C 11,8 °C 3,2 km/h (1 Bft)
21.05.2017 21:34 11,7 °C 11,8 °C 75 % 1020,7 hPa 0,0 mm 0,3 km/h (0 Bft) SO 128 ° 0 min 0,000 mm 0,0 UV-I 0 W/m² 7,4 °C 11,7 °C 1,6 km/h (1 Bft)
21.05.2017 21:35 11,6 °C 11,7 °C 75 % 1020,7 hPa 0,0 mm 0,9 km/h (0 Bft) SO 128 ° 0 min 0,000 mm 0,0 UV-I 0 W/m² 7,3 °C 11,6 °C 3,2 km/h (1 Bft)
21.05.2017 21:36 11,5 °C 11,6 °C 76 % 1020,7 hPa 0,0 mm 4,0 km/h (1 Bft) SO 144 ° 0 min 0,000 mm 0,0 UV-I 0 W/m² 7,4 °C 11,5 °C 4,8 km/h (1 Bft)
21.05.2017 21:37 11,5 °C 11,6 °C 76 % 1020,7 hPa 0,0 mm 2,4 km/h (1 Bft) SO 140 ° 0 min 0,000 mm 0,0 UV-I 0 W/m² 7,4 °C 11,5 °C 3,2 km/h (1 Bft)
21.05.2017 21:38 11,6 °C 11,6 °C 75 % 1020,7 hPa 0,0 mm 2,7 km/h (1 Bft) SO 131 ° 0 min 0,000 mm 0,0 UV-I 0 W/m² 7,3 °C 11,6 °C 4,8 km/h (1 Bft)
21.05.2017 21:39 11,6 °C 11,6 °C 75 % 1020,7 hPa 0,0 mm 0,7 km/h (0 Bft) S-SO 157 ° 0 min 0,000 mm 0,0 UV-I 0 W/m² 7,3 °C 11,6 °C 1,6 km/h (1 Bft)
21.05.2017 21:40 11,6 °C 11,6 °C 75 % 1020,7 hPa 0,0 mm 0,7 km/h (0 Bft) S-SO 157 ° 0 min 0,000 mm 0,0 UV-I 0 W/m² 7,3 °C 11,6 °C 1,6 km/h (1 Bft)
21.05.2017 21:41 11,5 °C 11,6 °C 75 % 1020,8 hPa 0,0 mm 1,4 km/h (1 Bft) S-SO 157 ° 0 min 0,000 mm 0,0 UV-I 0 W/m² 7,2 °C 11,5 °C 3,2 km/h (1 Bft)
21.05.2017 21:42 11,6 °C 11,6 °C 75 % 1020,7 hPa 0,0 mm 1,0 km/h (0 Bft) S-SO 148 ° 0 min 0,000 mm 0,0 UV-I 0 W/m² 7,3 °C 11,6 °C 3,2 km/h (1 Bft)
21.05.2017 21:43 11,6 °C 11,6 °C 75 % 1020,7 hPa 0,0 mm 0,8 km/h (0 Bft) S-SO 148 ° 0 min 0,000 mm 0,0 UV-I 0 W/m² 7,3 °C 11,6 °C 1,6 km/h (1 Bft)
21.05.2017 21:44 11,6 °C 11,6 °C 75 % 1020,7 hPa 0,0 mm 2,5 km/h (1 Bft) S 186 ° 0 min 0,000 mm 0,0 UV-I 0 W/m² 7,3 °C 11,6 °C 6,4 km/h (2 Bft)
21.05.2017 21:45 11,6 °C 11,6 °C 75 % 1020,7 hPa 0,0 mm 0,2 km/h (0 Bft) S-SO 167 ° 0 min 0,000 mm 0,0 UV-I 0 W/m² 7,3 °C 11,6 °C 1,6 km/h (1 Bft)
21.05.2017 21:46 11,6 °C 11,6 °C 75 % 1020,7 hPa 0,0 mm 0,4 km/h (0 Bft) S-SO 166 ° 0 min 0,000 mm 0,0 UV-I 0 W/m² 7,3 °C 11,6 °C 1,6 km/h (1 Bft)
21.05.2017 21:47 11,5 °C 11,6 °C 75 % 1020,7 hPa 0,0 mm 3,8 km/h (1 Bft) O-SO 116 ° 0 min 0,000 mm 0,0 UV-I 0 W/m² 7,2 °C 11,5 °C 6,4 km/h (2 Bft)
21.05.2017 21:48 11,4 °C 11,5 °C 75 % 1020,8 hPa 0,0 mm 0,5 km/h (0 Bft) O-SO 116 ° 0 min 0,000 mm 0,0 UV-I 0 W/m² 7,1 °C 11,4 °C 3,2 km/h (1 Bft)
21.05.2017 21:49 11,4 °C 11,4 °C 76 % 1020,7 hPa 0,0 mm 0,0 km/h (0 Bft) O-SO 116 ° 0 min 0,000 mm 0,0 UV-I 0 W/m² 7,3 °C 11,4 °C 0,0 km/h (0 Bft)
21.05.2017 21:50 11,3 °C 11,4 °C 76 % 1020,7 hPa 0,0 mm 0,0 km/h (0 Bft) O-SO 116 ° 0 min 0,000 mm 0,0 UV-I 0 W/m² 7,2 °C 11,3 °C 0,0 km/h (0 Bft)
21.05.2017 21:51 11,3 °C 11,3 °C 77 % 1020,7 hPa 0,0 mm 2,1 km/h (1 Bft) O 85 ° 0 min 0,000 mm 0,0 UV-I 0 W/m² 7,4 °C 11,3 °C 4,8 km/h (1 Bft)
21.05.2017 21:52 11,2 °C 11,3 °C 77 % 1020,7 hPa 0,0 mm 0,8 km/h (0 Bft) O 85 ° 0 min 0,000 mm 0,0 UV-I 0 W/m² 7,3 °C 11,2 °C 1,6 km/h (1 Bft)
21.05.2017 21:53 11,1 °C 11,2 °C 78 % 1020,7 hPa 0,0 mm 0,0 km/h (0 Bft) O 85 ° 0 min 0,000 mm 0,0 UV-I 0 W/m² 7,4 °C 11,1 °C 0,0 km/h (0 Bft)
21.05.2017 21:54 11,1 °C 11,1 °C 78 % 1020,7 hPa 0,0 mm 0,0 km/h (0 Bft) O 85 ° 0 min 0,000 mm 0,0 UV-I 0 W/m² 7,4 °C 11,1 °C 0,0 km/h (0 Bft)
21.05.2017 21:55 10,9 °C 11,1 °C 78 % 1020,8 hPa 0,0 mm 0,0 km/h (0 Bft) O 85 ° 0 min 0,000 mm 0,0 UV-I 0 W/m² 7,2 °C 10,9 °C 0,0 km/h (0 Bft)
21.05.2017 21:56 10,9 °C 10,9 °C 78 % 1020,8 hPa 0,0 mm 0,0 km/h (0 Bft) O 85 ° 0 min 0,000 mm 0,0 UV-I 0 W/m² 7,2 °C 10,9 °C 0,0 km/h (0 Bft)
21.05.2017 21:57 10,8 °C 10,9 °C 78 % 1020,7 hPa 0,0 mm 0,0 km/h (0 Bft) O 85 ° 0 min 0,000 mm 0,0 UV-I 0 W/m² 7,1 °C 10,8 °C 0,0 km/h (0 Bft)
21.05.2017 21:58 10,8 °C 10,8 °C 78 % 1020,8 hPa 0,0 mm 0,0 km/h (0 Bft) O 85 ° 0 min 0,000 mm 0,0 UV-I 0 W/m² 7,1 °C 10,8 °C 0,0 km/h (0 Bft)
21.05.2017 21:59 10,8 °C 10,8 °C 79 % 1020,8 hPa 0,0 mm 0,0 km/h (0 Bft) O 85 ° 0 min 0,000 mm 0,0 UV-I 0 W/m² 7,3 °C 10,8 °C 0,0 km/h (0 Bft)
21.05.2017 22:00 10,8 °C 10,8 °C 79 % 1020,8 hPa 0,0 mm 0,4 km/h (0 Bft) O 85 ° 0 min 0,000 mm 0,0 UV-I 0 W/m² 7,3 °C 10,8 °C 1,6 km/h (1 Bft)
21.05.2017 22:01 10,7 °C 10,8 °C 78 % 1020,8 hPa 0,0 mm 0,1 km/h (0 Bft) O 85 ° 0 min 0,000 mm 0,0 UV-I 0 W/m² 7,0 °C 10,7 °C 1,6 km/h (1 Bft)
21.05.2017 22:02 10,7 °C 10,7 °C 79 % 1020,8 hPa 0,0 mm 0,0 km/h (0 Bft) O 85 ° 0 min 0,000 mm 0,0 UV-I 0 W/m² 7,2 °C 10,7 °C 0,0 km/h (0 Bft)
21.05.2017 22:03 10,7 °C 10,7 °C 78 % 1020,8 hPa 0,0 mm 0,0 km/h (0 Bft) O 85 ° 0 min 0,000 mm 0,0 UV-I 0 W/m² 7,0 °C 10,7 °C 0,0 km/h (0 Bft)
21.05.2017 22:04 10,6 °C 10,7 °C 79 % 1020,8 hPa 0,0 mm 0,0 km/h (0 Bft) O 85 ° 0 min 0,000 mm 0,0 UV-I 0 W/m² 7,1 °C 10,6 °C 0,0 km/h (0 Bft)
21.05.2017 22:05 10,7 °C 10,7 °C 79 % 1020,8 hPa 0,0 mm 0,0 km/h (0 Bft) O 85 ° 0 min 0,000 mm 0,0 UV-I 0 W/m² 7,2 °C 10,7 °C 0,0 km/h (0 Bft)
21.05.2017 22:06 10,7 °C 10,7 °C 79 % 1020,8 hPa 0,0 mm 0,0 km/h (0 Bft) O 85 ° 0 min 0,000 mm 0,0 UV-I 0 W/m² 7,2 °C 10,7 °C 0,0 km/h (0 Bft)
21.05.2017 22:07 10,7 °C 10,8 °C 79 % 1020,9 hPa 0,0 mm 0,0 km/h (0 Bft) O 85 ° 0 min 0,000 mm 0,0 UV-I 0 W/m² 7,2 °C 10,7 °C 0,0 km/h (0 Bft)
21.05.2017 22:08 10,7 °C 10,7 °C 78 % 1020,9 hPa 0,0 mm 0,0 km/h (0 Bft) O 85 ° 0 min 0,000 mm 0,0 UV-I 0 W/m² 7,0 °C 10,7 °C 0,0 km/h (0 Bft)
21.05.2017 22:09 10,6 °C 10,7 °C 79 % 1020,8 hPa 0,0 mm 0,0 km/h (0 Bft) O 85 ° 0 min 0,000 mm 0,0 UV-I 0 W/m² 7,1 °C 10,6 °C 0,0 km/h (0 Bft)
21.05.2017 22:10 10,5 °C 10,6 °C 79 % 1020,9 hPa 0,0 mm 0,0 km/h (0 Bft) O 85 ° 0 min 0,000 mm 0,0 UV-I 0 W/m² 7,0 °C 10,5 °C 0,0 km/h (0 Bft)
21.05.2017 22:11 10,4 °C 10,5 °C 80 % 1020,9 hPa 0,0 mm 0,0 km/h (0 Bft) O 85 ° 0 min 0,000 mm 0,0 UV-I 0 W/m² 7,1 °C 10,4 °C 0,0 km/h (0 Bft)
21.05.2017 22:12 10,3 °C 10,4 °C 80 % 1020,9 hPa 0,0 mm 0,0 km/h (0 Bft) O 85 ° 0 min 0,000 mm 0,0 UV-I 0 W/m² 7,0 °C 10,3 °C 0,0 km/h (0 Bft)
21.05.2017 22:13 10,2 °C 10,3 °C 81 % 1020,9 hPa 0,0 mm 0,0 km/h (0 Bft) O 85 ° 0 min 0,000 mm 0,0 UV-I 0 W/m² 7,1 °C 10,2 °C 0,0 km/h (0 Bft)
21.05.2017 22:14 10,2 °C 10,3 °C 82 % 1020,9 hPa 0,0 mm 0,0 km/h (0 Bft) O 85 ° 0 min 0,000 mm 0,0 UV-I 0 W/m² 7,3 °C 10,2 °C 0,0 km/h (0 Bft)
21.05.2017 22:15 10,2 °C 10,2 °C 82 % 1020,9 hPa 0,0 mm 0,0 km/h (0 Bft) O 85 ° 0 min 0,000 mm 0,0 UV-I 0 W/m² 7,3 °C 10,2 °C 0,0 km/h (0 Bft)
21.05.2017 22:16 10,3 °C 10,3 °C 81 % 1020,9 hPa 0,0 mm 0,0 km/h (0 Bft) O 85 ° 0 min 0,000 mm 0,0 UV-I 0 W/m² 7,2 °C 10,3 °C 0,0 km/h (0 Bft)
21.05.2017 22:17 10,2 °C 10,3 °C 81 % 1020,9 hPa 0,0 mm 0,0 km/h (0 Bft) O 85 ° 0 min 0,000 mm 0,0 UV-I 0 W/m² 7,1 °C 10,2 °C 0,0 km/h (0 Bft)
21.05.2017 22:18 10,2 °C 10,2 °C 81 % 1020,9 hPa 0,0 mm 0,0 km/h (0 Bft) O 85 ° 0 min 0,000 mm 0,0 UV-I 0 W/m² 7,1 °C 10,2 °C 0,0 km/h (0 Bft)
21.05.2017 22:19 10,1 °C 10,2 °C 81 % 1020,9 hPa 0,0 mm 0,0 km/h (0 Bft) O 85 ° 0 min 0,000 mm 0,0 UV-I 0 W/m² 7,0 °C 10,1 °C 0,0 km/h (0 Bft)
21.05.2017 22:20 10,1 °C 10,1 °C 81 % 1020,9 hPa 0,0 mm 0,0 km/h (0 Bft) O 85 ° 0 min 0,000 mm 0,0 UV-I 0 W/m² 7,0 °C 10,1 °C 0,0 km/h (0 Bft)
21.05.2017 22:21 10,1 °C 10,1 °C 81 % 1020,9 hPa 0,0 mm 0,0 km/h (0 Bft) O 85 ° 0 min 0,000 mm 0,0 UV-I 0 W/m² 7,0 °C 10,1 °C 0,0 km/h (0 Bft)
21.05.2017 22:22 10,1 °C 10,1 °C 82 % 1020,9 hPa 0,0 mm 0,0 km/h (0 Bft) O 85 ° 0 min 0,000 mm 0,0 UV-I 0 W/m² 7,2 °C 10,1 °C 0,0 km/h (0 Bft)
21.05.2017 22:23 10,1 °C 10,1 °C 83 % 1020,9 hPa 0,0 mm 0,0 km/h (0 Bft) O 85 ° 0 min 0,000 mm 0,0 UV-I 0 W/m² 7,3 °C 10,1 °C 0,0 km/h (0 Bft)
21.05.2017 22:24 10,0 °C 10,1 °C 83 % 1020,9 hPa 0,0 mm 0,0 km/h (0 Bft) O 85 ° 0 min 0,000 mm 0,0 UV-I 0 W/m² 7,2 °C 10,0 °C 0,0 km/h (0 Bft)
21.05.2017 22:25 10,0 °C 10,1 °C 82 % 1020,9 hPa 0,0 mm 0,0 km/h (0 Bft) O 85 ° 0 min 0,000 mm 0,0 UV-I 0 W/m² 7,1 °C 10,0 °C 0,0 km/h (0 Bft)
21.05.2017 22:26 10,0 °C 10,0 °C 82 % 1020,9 hPa 0,0 mm 0,0 km/h (0 Bft) O 85 ° 0 min 0,000 mm 0,0 UV-I 0 W/m² 7,1 °C 10,0 °C 0,0 km/h (0 Bft)
21.05.2017 22:27 10,0 °C 10,0 °C 82 % 1020,9 hPa 0,0 mm 0,0 km/h (0 Bft) O 85 ° 0 min 0,000 mm 0,0 UV-I 0 W/m² 7,1 °C 10,0 °C 0,0 km/h (0 Bft)
21.05.2017 22:28 9,9 °C 10,0 °C 82 % 1020,9 hPa 0,0 mm 0,0 km/h (0 Bft) O 85 ° 0 min 0,000 mm 0,0 UV-I 0 W/m² 7,0 °C 9,9 °C 0,0 km/h (0 Bft)
21.05.2017 22:29 9,8 °C 9,9 °C 83 % 1020,9 hPa 0,0 mm 0,1 km/h (0 Bft) O 85 ° 0 min 0,000 mm 0,0 UV-I 0 W/m² 7,1 °C 9,8 °C 1,6 km/h (1 Bft)
21.05.2017 22:30 9,8 °C 9,8 °C 83 % 1020,9 hPa 0,0 mm 0,1 km/h (0 Bft) O 85 ° 0 min 0,000 mm 0,0 UV-I 0 W/m² 7,1 °C 9,8 °C 1,6 km/h (1 Bft)
21.05.2017 22:31 9,8 °C 9,8 °C 83 % 1020,9 hPa 0,0 mm 0,0 km/h (0 Bft) O 85 ° 0 min 0,000 mm 0,0 UV-I 0 W/m² 7,1 °C 9,8 °C 0,0 km/h (0 Bft)
21.05.2017 22:32 9,8 °C 9,8 °C 83 % 1020,9 hPa 0,0 mm 0,0 km/h (0 Bft) O 85 ° 0 min 0,000 mm 0,0 UV-I 0 W/m² 7,1 °C 9,8 °C 0,0 km/h (0 Bft)
21.05.2017 22:33 9,8 °C 9,8 °C 84 % 1020,9 hPa 0,0 mm 0,0 km/h (0 Bft) O 85 ° 0 min 0,000 mm 0,0 UV-I 0 W/m² 7,2 °C 9,8 °C 0,0 km/h (0 Bft)
21.05.2017 22:34 9,8 °C 9,8 °C 84 % 1020,9 hPa 0,0 mm 0,0 km/h (0 Bft) O 85 ° 0 min 0,000 mm 0,0 UV-I 0 W/m² 7,2 °C 9,8 °C 0,0 km/h (0 Bft)
21.05.2017 22:35 9,8 °C 9,8 °C 84 % 1020,9 hPa 0,0 mm 0,0 km/h (0 Bft) O 85 ° 0 min 0,000 mm 0,0 UV-I 0 W/m² 7,2 °C 9,8 °C 0,0 km/h (0 Bft)
21.05.2017 22:36 9,8 °C 9,8 °C 84 % 1021,0 hPa 0,0 mm 0,0 km/h (0 Bft) O 85 ° 0 min 0,000 mm 0,0 UV-I 0 W/m² 7,2 °C 9,8 °C 0,0 km/h (0 Bft)
21.05.2017 22:37 9,8 °C 9,8 °C 84 % 1020,9 hPa 0,0 mm 0,0 km/h (0 Bft) O 85 ° 0 min 0,000 mm 0,0 UV-I 0 W/m² 7,2 °C 9,8 °C 0,0 km/h (0 Bft)
21.05.2017 22:38 9,9 °C 9,9 °C 84 % 1020,9 hPa 0,0 mm 0,0 km/h (0 Bft) O 85 ° 0 min 0,000 mm 0,0 UV-I 0 W/m² 7,3 °C 9,9 °C 0,0 km/h (0 Bft)
21.05.2017 22:39 9,9 °C 9,9 °C 84 % 1020,9 hPa 0,0 mm 0,0 km/h (0 Bft) O 85 ° 0 min 0,000 mm 0,0 UV-I 0 W/m² 7,3 °C 9,9 °C 0,0 km/h (0 Bft)
21.05.2017 22:40 9,8 °C 9,9 °C 84 % 1020,9 hPa 0,0 mm 0,0 km/h (0 Bft) O 85 ° 0 min 0,000 mm 0,0 UV-I 0 W/m² 7,2 °C 9,8 °C 0,0 km/h (0 Bft)
21.05.2017 22:41 9,7 °C 9,8 °C 83 % 1020,9 hPa 0,0 mm 0,0 km/h (0 Bft) O 85 ° 0 min 0,000 mm 0,0 UV-I 0 W/m² 7,0 °C 9,7 °C 0,0 km/h (0 Bft)
21.05.2017 22:42 9,6 °C 9,7 °C 84 % 1020,9 hPa 0,0 mm 0,0 km/h (0 Bft) O 85 ° 0 min 0,000 mm 0,0 UV-I 0 W/m² 7,0 °C 9,6 °C 0,0 km/h (0 Bft)
21.05.2017 22:43 9,6 °C 9,7 °C 84 % 1020,9 hPa 0,0 mm 0,0 km/h (0 Bft) O 85 ° 0 min 0,000 mm 0,0 UV-I 0 W/m² 7,0 °C 9,6 °C 0,0 km/h (0 Bft)
21.05.2017 22:44 9,6 °C 9,6 °C 85 % 1020,9 hPa 0,0 mm 0,0 km/h (0 Bft) O 85 ° 0 min 0,000 mm 0,0 UV-I 0 W/m² 7,2 °C 9,6 °C 0,0 km/h (0 Bft)
21.05.2017 22:45 9,6 °C 9,6 °C 84 % 1020,9 hPa 0,0 mm 0,0 km/h (0 Bft) O 85 ° 0 min 0,000 mm 0,0 UV-I 0 W/m² 7,0 °C 9,6 °C 0,0 km/h (0 Bft)
21.05.2017 22:46 9,6 °C 9,6 °C 84 % 1020,9 hPa 0,0 mm 0,0 km/h (0 Bft) O 85 ° 0 min 0,000 mm 0,0 UV-I 0 W/m² 7,0 °C 9,6 °C 0,0 km/h (0 Bft)
21.05.2017 22:47 9,6 °C 9,6 °C 85 % 1020,8 hPa 0,0 mm 0,0 km/h (0 Bft) O 85 ° 0 min 0,000 mm 0,0 UV-I 0 W/m² 7,2 °C 9,6 °C 0,0 km/h (0 Bft)
21.05.2017 22:48 9,6 °C 9,6 °C 85 % 1020,9 hPa 0,0 mm 0,0 km/h (0 Bft) O 85 ° 0 min 0,000 mm 0,0 UV-I 0 W/m² 7,2 °C 9,6 °C 0,0 km/h (0 Bft)
21.05.2017 22:49 9,5 °C 9,6 °C 85 % 1020,8 hPa 0,0 mm 0,0 km/h (0 Bft) O 85 ° 0 min 0,000 mm 0,0 UV-I 0 W/m² 7,1 °C 9,5 °C 0,0 km/h (0 Bft)
21.05.2017 22:50 9,5 °C 9,6 °C 85 % 1020,9 hPa 0,0 mm 0,0 km/h (0 Bft) O 85 ° 0 min 0,000 mm 0,0 UV-I 0 W/m² 7,1 °C 9,5 °C 0,0 km/h (0 Bft)
21.05.2017 22:51 9,5 °C 9,5 °C 85 % 1020,8 hPa 0,0 mm 0,0 km/h (0 Bft) O 85 ° 0 min 0,000 mm 0,0 UV-I 0 W/m² 7,1 °C 9,5 °C 0,0 km/h (0 Bft)
21.05.2017 22:52 9,6 °C 9,6 °C 85 % 1020,8 hPa 0,0 mm 0,0 km/h (0 Bft) O 85 ° 0 min 0,000 mm 0,0 UV-I 0 W/m² 7,2 °C 9,6 °C 0,0 km/h (0 Bft)
21.05.2017 22:53 9,8 °C 9,8 °C 84 % 1020,7 hPa 0,0 mm 0,0 km/h (0 Bft) O 85 ° 0 min 0,000 mm 0,0 UV-I 0 W/m² 7,2 °C 9,8 °C 0,0 km/h (0 Bft)
21.05.2017 22:54 9,9 °C 9,9 °C 84 % 1020,7 hPa 0,0 mm 0,0 km/h (0 Bft) O 85 ° 0 min 0,000 mm 0,0 UV-I 0 W/m² 7,3 °C 9,9 °C 0,0 km/h (0 Bft)
21.05.2017 22:55 9,8 °C 9,9 °C 84 % 1020,7 hPa 0,0 mm 0,0 km/h (0 Bft) O 85 ° 0 min 0,000 mm 0,0 UV-I 0 W/m² 7,2 °C 9,8 °C 0,0 km/h (0 Bft)
21.05.2017 22:56 9,8 °C 9,8 °C 84 % 1020,7 hPa 0,0 mm 0,1 km/h (0 Bft) O 85 ° 0 min 0,000 mm 0,0 UV-I 0 W/m² 7,2 °C 9,8 °C 1,6 km/h (1 Bft)
21.05.2017 22:57 9,8 °C 9,8 °C 83 % 1020,7 hPa 0,0 mm 0,0 km/h (0 Bft) O 85 ° 0 min 0,000 mm 0,0 UV-I 0 W/m² 7,1 °C 9,8 °C 0,0 km/h (0 Bft)
21.05.2017 22:58 9,8 °C 9,8 °C 83 % 1020,7 hPa 0,0 mm 0,0 km/h (0 Bft) O 85 ° 0 min 0,000 mm 0,0 UV-I 0 W/m² 7,1 °C 9,8 °C 0,0 km/h (0 Bft)
21.05.2017 22:59 9,8 °C 9,8 °C 84 % 1020,7 hPa 0,0 mm 0,1 km/h (0 Bft) O 85 ° 0 min 0,000 mm 0,0 UV-I 0 W/m² 7,2 °C 9,8 °C 1,6 km/h (1 Bft)
21.05.2017 23:00 9,8 °C 9,8 °C 83 % 1020,7 hPa 0,0 mm 0,0 km/h (0 Bft) O 85 ° 0 min 0,000 mm 0,0 UV-I 0 W/m² 7,1 °C 9,8 °C 0,0 km/h (0 Bft)
21.05.2017 23:01 9,7 °C 9,8 °C 84 % 1020,7 hPa 0,0 mm 0,0 km/h (0 Bft) O 85 ° 0 min 0,000 mm 0,0 UV-I 0 W/m² 7,1 °C 9,7 °C 0,0 km/h (0 Bft)
21.05.2017 23:02 9,6 °C 9,7 °C 84 % 1020,6 hPa 0,0 mm 0,0 km/h (0 Bft) O 85 ° 0 min 0,000 mm 0,0 UV-I 0 W/m² 7,0 °C 9,6 °C 0,0 km/h (0 Bft)
21.05.2017 23:03 9,6 °C 9,6 °C 84 % 1020,6 hPa 0,0 mm 0,0 km/h (0 Bft) O 85 ° 0 min 0,000 mm 0,0 UV-I 0 W/m² 7,0 °C 9,6 °C 0,0 km/h (0 Bft)
21.05.2017 23:04 9,4 °C 9,6 °C 85 % 1020,7 hPa 0,0 mm 0,0 km/h (0 Bft) O 85 ° 0 min 0,000 mm 0,0 UV-I 0 W/m² 7,0 °C 9,4 °C 0,0 km/h (0 Bft)
21.05.2017 23:05 9,4 °C 9,4 °C 84 % 1020,7 hPa 0,0 mm 0,0 km/h (0 Bft) O 85 ° 0 min 0,000 mm 0,0 UV-I 0 W/m² 6,8 °C 9,4 °C 0,0 km/h (0 Bft)
21.05.2017 23:06 9,3 °C 9,4 °C 85 % 1020,7 hPa 0,0 mm 0,0 km/h (0 Bft) O 85 ° 0 min 0,000 mm 0,0 UV-I 0 W/m² 6,9 °C 9,3 °C 0,0 km/h (0 Bft)
21.05.2017 23:07 9,2 °C 9,3 °C 85 % 1020,6 hPa 0,0 mm 0,0 km/h (0 Bft) O 85 ° 0 min 0,000 mm 0,0 UV-I 0 W/m² 6,8 °C 9,2 °C 0,0 km/h (0 Bft)
21.05.2017 23:08 9,1 °C 9,2 °C 86 % 1020,6 hPa 0,0 mm 0,0 km/h (0 Bft) O 85 ° 0 min 0,000 mm 0,0 UV-I 0 W/m² 6,9 °C 9,1 °C 0,0 km/h (0 Bft)
21.05.2017 23:09 9,1 °C 9,1 °C 86 % 1020,7 hPa 0,0 mm 0,0 km/h (0 Bft) O 85 ° 0 min 0,000 mm 0,0 UV-I 0 W/m² 6,9 °C 9,1 °C 0,0 km/h (0 Bft)
21.05.2017 23:10 9,0 °C 9,1 °C 86 % 1020,7 hPa 0,0 mm 0,0 km/h (0 Bft) O 85 ° 0 min 0,000 mm 0,0 UV-I 0 W/m² 6,8 °C 9,0 °C 0,0 km/h (0 Bft)
21.05.2017 23:11 9,1 °C 9,1 °C 87 % 1020,7 hPa 0,0 mm 0,0 km/h (0 Bft) O 85 ° 0 min 0,000 mm 0,0 UV-I 0 W/m² 7,1 °C 9,1 °C 0,0 km/h (0 Bft)
21.05.2017 23:12 9,1 °C 9,1 °C 87 % 1020,6 hPa 0,0 mm 0,0 km/h (0 Bft) O 85 ° 0 min 0,000 mm 0,0 UV-I 0 W/m² 7,1 °C 9,1 °C 0,0 km/h (0 Bft)
21.05.2017 23:13 9,2 °C 9,2 °C 87 % 1020,6 hPa 0,0 mm 0,0 km/h (0 Bft) O 85 ° 0 min 0,000 mm 0,0 UV-I 0 W/m² 7,2 °C 9,2 °C 0,0 km/h (0 Bft)
21.05.2017 23:14 9,2 °C 9,2 °C 86 % 1020,7 hPa 0,0 mm 0,0 km/h (0 Bft) O 85 ° 0 min 0,000 mm 0,0 UV-I 0 W/m² 7,0 °C 9,2 °C 0,0 km/h (0 Bft)
21.05.2017 23:15 9,2 °C 9,2 °C 86 % 1020,6 hPa 0,0 mm 0,0 km/h (0 Bft) O 85 ° 0 min 0,000 mm 0,0 UV-I 0 W/m² 7,0 °C 9,2 °C 0,0 km/h (0 Bft)
21.05.2017 23:16 9,2 °C 9,2 °C 86 % 1020,6 hPa 0,0 mm 0,0 km/h (0 Bft) O 85 ° 0 min 0,000 mm 0,0 UV-I 0 W/m² 7,0 °C 9,2 °C 0,0 km/h (0 Bft)
21.05.2017 23:17 9,1 °C 9,2 °C 85 % 1020,6 hPa 0,0 mm 0,0 km/h (0 Bft) O 85 ° 0 min 0,000 mm 0,0 UV-I 0 W/m² 6,7 °C 9,1 °C 0,0 km/h (0 Bft)
21.05.2017 23:18 9,0 °C 9,1 °C 85 % 1020,6 hPa 0,0 mm 0,0 km/h (0 Bft) O 85 ° 0 min 0,000 mm 0,0 UV-I 0 W/m² 6,6 °C 9,0 °C 0,0 km/h (0 Bft)
21.05.2017 23:19 8,9 °C 9,0 °C 85 % 1020,6 hPa 0,0 mm 0,0 km/h (0 Bft) O 85 ° 0 min 0,000 mm 0,0 UV-I 0 W/m² 6,5 °C 8,9 °C 0,0 km/h (0 Bft)
21.05.2017 23:20 8,8 °C 8,9 °C 86 % 1020,6 hPa 0,0 mm 0,0 km/h (0 Bft) O 85 ° 0 min 0,000 mm 0,0 UV-I 0 W/m² 6,6 °C 8,8 °C 0,0 km/h (0 Bft)
21.05.2017 23:21 8,8 °C 8,8 °C 87 % 1020,6 hPa 0,0 mm 0,0 km/h (0 Bft) O 85 ° 0 min 0,000 mm 0,0 UV-I 0 W/m² 6,8 °C 8,8 °C 0,0 km/h (0 Bft)
21.05.2017 23:22 8,7 °C 8,8 °C 87 % 1020,6 hPa 0,0 mm 0,0 km/h (0 Bft) O 85 ° 0 min 0,000 mm 0,0 UV-I 0 W/m² 6,7 °C 8,7 °C 0,0 km/h (0 Bft)
21.05.2017 23:23 8,7 °C 8,7 °C 87 % 1020,6 hPa 0,0 mm 0,0 km/h (0 Bft) O 85 ° 0 min 0,000 mm 0,0 UV-I 0 W/m² 6,7 °C 8,7 °C 0,0 km/h (0 Bft)
21.05.2017 23:24 8,6 °C 8,7 °C 87 % 1020,6 hPa 0,0 mm 0,0 km/h (0 Bft) O 85 ° 0 min 0,000 mm 0,0 UV-I 0 W/m² 6,6 °C 8,6 °C 0,0 km/h (0 Bft)
21.05.2017 23:25 8,6 °C 8,7 °C 87 % 1020,6 hPa 0,0 mm 0,0 km/h (0 Bft) O 85 ° 0 min 0,000 mm 0,0 UV-I 0 W/m² 6,6 °C 8,6 °C 0,0 km/h (0 Bft)
21.05.2017 23:26 8,6 °C 8,6 °C 87 % 1020,6 hPa 0,0 mm 0,0 km/h (0 Bft) O 85 ° 0 min 0,000 mm 0,0 UV-I 0 W/m² 6,6 °C 8,6 °C 0,0 km/h (0 Bft)
21.05.2017 23:27 8,6 °C 8,6 °C 87 % 1020,6 hPa 0,0 mm 0,0 km/h (0 Bft) O 85 ° 0 min 0,000 mm 0,0 UV-I 0 W/m² 6,6 °C 8,6 °C 0,0 km/h (0 Bft)
21.05.2017 23:28 8,5 °C 8,6 °C 87 % 1020,5 hPa 0,0 mm 0,0 km/h (0 Bft) O 85 ° 0 min 0,000 mm 0,0 UV-I 0 W/m² 6,5 °C 8,5 °C 0,0 km/h (0 Bft)
21.05.2017 23:29 8,4 °C 8,5 °C 88 % 1020,5 hPa 0,0 mm 0,0 km/h (0 Bft) O 85 ° 0 min 0,000 mm 0,0 UV-I 0 W/m² 6,5 °C 8,4 °C 0,0 km/h (0 Bft)
21.05.2017 23:30 8,3 °C 8,4 °C 88 % 1020,5 hPa 0,0 mm 0,0 km/h (0 Bft) O 85 ° 0 min 0,000 mm 0,0 UV-I 0 W/m² 6,4 °C 8,3 °C 0,0 km/h (0 Bft)
21.05.2017 23:31 8,3 °C 8,3 °C 88 % 1020,6 hPa 0,0 mm 0,0 km/h (0 Bft) O 85 ° 0 min 0,000 mm 0,0 UV-I 0 W/m² 6,4 °C 8,3 °C 0,0 km/h (0 Bft)
21.05.2017 23:32 8,3 °C 8,3 °C 88 % 1020,5 hPa 0,0 mm 0,0 km/h (0 Bft) O 85 ° 0 min 0,000 mm 0,0 UV-I 0 W/m² 6,4 °C 8,3 °C 0,0 km/h (0 Bft)
21.05.2017 23:33 8,2 °C 8,3 °C 88 % 1020,5 hPa 0,0 mm 0,0 km/h (0 Bft) O 85 ° 0 min 0,000 mm 0,0 UV-I 0 W/m² 6,3 °C 8,2 °C 0,0 km/h (0 Bft)
21.05.2017 23:34 8,2 °C 8,2 °C 88 % 1020,5 hPa 0,0 mm 0,0 km/h (0 Bft) O 85 ° 0 min 0,000 mm 0,0 UV-I 0 W/m² 6,3 °C 8,2 °C 0,0 km/h (0 Bft)
21.05.2017 23:35 8,2 °C 8,2 °C 88 % 1020,5 hPa 0,0 mm 0,0 km/h (0 Bft) O 85 ° 0 min 0,000 mm 0,0 UV-I 0 W/m² 6,3 °C 8,2 °C 0,0 km/h (0 Bft)
21.05.2017 23:36 8,2 °C 8,2 °C 88 % 1020,5 hPa 0,0 mm 0,0 km/h (0 Bft) O 85 ° 0 min 0,000 mm 0,0 UV-I 0 W/m² 6,3 °C 8,2 °C 0,0 km/h (0 Bft)
21.05.2017 23:37 8,2 °C 8,2 °C 89 % 1020,5 hPa 0,0 mm 0,0 km/h (0 Bft) O 85 ° 0 min 0,000 mm 0,0 UV-I 0 W/m² 6,5 °C 8,2 °C 0,0 km/h (0 Bft)
21.05.2017 23:38 8,3 °C 8,3 °C 89 % 1020,5 hPa 0,0 mm 0,0 km/h (0 Bft) O 85 ° 0 min 0,000 mm 0,0 UV-I 0 W/m² 6,6 °C 8,3 °C 0,0 km/h (0 Bft)
21.05.2017 23:39 8,3 °C 8,3 °C 89 % 1020,5 hPa 0,0 mm 0,0 km/h (0 Bft) O 85 ° 0 min 0,000 mm 0,0 UV-I 0 W/m² 6,6 °C 8,3 °C 0,0 km/h (0 Bft)
21.05.2017 23:40 8,3 °C 8,3 °C 89 % 1020,5 hPa 0,0 mm 0,0 km/h (0 Bft) O 85 ° 0 min 0,000 mm 0,0 UV-I 0 W/m² 6,6 °C 8,3 °C 0,0 km/h (0 Bft)
21.05.2017 23:41 8,4 °C 8,4 °C 89 % 1020,5 hPa 0,0 mm 0,0 km/h (0 Bft) O 85 ° 0 min 0,000 mm 0,0 UV-I 0 W/m² 6,7 °C 8,4 °C 0,0 km/h (0 Bft)
21.05.2017 23:42 8,3 °C 8,4 °C 89 % 1020,5 hPa 0,0 mm 0,0 km/h (0 Bft) O 85 ° 0 min 0,000 mm 0,0 UV-I 0 W/m² 6,6 °C 8,3 °C 0,0 km/h (0 Bft)
21.05.2017 23:43 8,4 °C 8,4 °C 89 % 1020,5 hPa 0,0 mm 0,0 km/h (0 Bft) O 85 ° 0 min 0,000 mm 0,0 UV-I 0 W/m² 6,7 °C 8,4 °C 0,0 km/h (0 Bft)
21.05.2017 23:44 8,4 °C 8,4 °C 89 % 1020,5 hPa 0,0 mm 0,0 km/h (0 Bft) O 85 ° 0 min 0,000 mm 0,0 UV-I 0 W/m² 6,7 °C 8,4 °C 0,0 km/h (0 Bft)
21.05.2017 23:45 8,4 °C 8,4 °C 89 % 1020,5 hPa 0,0 mm 0,0 km/h (0 Bft) O 85 ° 0 min 0,000 mm 0,0 UV-I 0 W/m² 6,7 °C 8,4 °C 0,0 km/h (0 Bft)
21.05.2017 23:46 8,4 °C 8,4 °C 88 % 1020,5 hPa 0,0 mm 0,0 km/h (0 Bft) O 85 ° 0 min 0,000 mm 0,0 UV-I 0 W/m² 6,5 °C 8,4 °C 0,0 km/h (0 Bft)
21.05.2017 23:47 8,4 °C 8,4 °C 88 % 1020,5 hPa 0,0 mm 0,0 km/h (0 Bft) O 85 ° 0 min 0,000 mm 0,0 UV-I 0 W/m² 6,5 °C 8,4 °C 0,0 km/h (0 Bft)
21.05.2017 23:48 8,3 °C 8,4 °C 88 % 1020,5 hPa 0,0 mm 0,0 km/h (0 Bft) O 85 ° 0 min 0,000 mm 0,0 UV-I 0 W/m² 6,4 °C 8,3 °C 0,0 km/h (0 Bft)
21.05.2017 23:49 8,4 °C 8,4 °C 88 % 1020,5 hPa 0,0 mm 0,0 km/h (0 Bft) O 85 ° 0 min 0,000 mm 0,0 UV-I 0 W/m² 6,5 °C 8,4 °C 0,0 km/h (0 Bft)
21.05.2017 23:50 8,4 °C 8,4 °C 89 % 1020,5 hPa 0,0 mm 0,0 km/h (0 Bft) O 85 ° 0 min 0,000 mm 0,0 UV-I 0 W/m² 6,7 °C 8,4 °C 0,0 km/h (0 Bft)
21.05.2017 23:51 8,4 °C 8,4 °C 88 % 1020,5 hPa 0,0 mm 0,0 km/h (0 Bft) O 85 ° 0 min 0,000 mm 0,0 UV-I 0 W/m² 6,5 °C 8,4 °C 0,0 km/h (0 Bft)
21.05.2017 23:52 8,3 °C 8,4 °C 88 % 1020,5 hPa 0,0 mm 0,0 km/h (0 Bft) O 85 ° 0 min 0,000 mm 0,0 UV-I 0 W/m² 6,4 °C 8,3 °C 0,0 km/h (0 Bft)
21.05.2017 23:53 8,3 °C 8,3 °C 88 % 1020,5 hPa 0,0 mm 0,0 km/h (0 Bft) O 85 ° 0 min 0,000 mm 0,0 UV-I 0 W/m² 6,4 °C 8,3 °C 0,0 km/h (0 Bft)
21.05.2017 23:54 8,2 °C 8,3 °C 88 % 1020,5 hPa 0,0 mm 0,0 km/h (0 Bft) O 85 ° 0 min 0,000 mm 0,0 UV-I 0 W/m² 6,3 °C 8,2 °C 0,0 km/h (0 Bft)
21.05.2017 23:55 8,2 °C 8,2 °C 88 % 1020,5 hPa 0,0 mm 0,0 km/h (0 Bft) O 85 ° 0 min 0,000 mm 0,0 UV-I 0 W/m² 6,3 °C 8,2 °C 0,0 km/h (0 Bft)
21.05.2017 23:56 8,0 °C 8,2 °C 88 % 1020,4 hPa 0,0 mm 0,0 km/h (0 Bft) O 85 ° 0 min 0,000 mm 0,0 UV-I 0 W/m² 6,1 °C 8,0 °C 0,0 km/h (0 Bft)
21.05.2017 23:57 7,9 °C 8,0 °C 89 % 1020,4 hPa 0,0 mm 0,0 km/h (0 Bft) O 85 ° 0 min 0,000 mm 0,0 UV-I 0 W/m² 6,2 °C 7,9 °C 0,0 km/h (0 Bft)
21.05.2017 23:58 7,9 °C 7,9 °C 89 % 1020,4 hPa 0,0 mm 0,0 km/h (0 Bft) O 85 ° 0 min 0,000 mm 0,0 UV-I 0 W/m² 6,2 °C 7,9 °C 0,0 km/h (0 Bft)
21.05.2017 23:59 7,8 °C 7,9 °C 89 % 1020,4 hPa 0,0 mm 0,0 km/h (0 Bft) O 85 ° 0 min 0,000 mm 0,0 UV-I 0 W/m² 6,1 °C 7,8 °C 0,0 km/h (0 Bft)
_ Min-Zeit 06:34 06:34 12:13 23:59 - 23:59 - - - - - - 05:56 06:34 23:59
Minimum _ 5,1 °C 5,1 °C 49 % 1020,4 hPa - 0,0 km/h (0 Bft) - - - - - - 4,3 °C 5,1 °C 0,0 km/h (0 Bft)
_ Max-Zeit 14:16 14:17 07:30 01:20 23:59 13:22 - - 12:10 13:01 14:13 14:13 10:54 14:16 18:50
Maximum _ 16,9 °C 16,9 °C 96 % 1025,8 hPa 0,0 mm 17,0 km/h
O-NO (3 Bft)
- - 2 min 0,533 mm 8,0 UV-I 1287 W/m² 9,0 °C 16,9 °C 24,1 km/h
O (4 Bft)
Durchschnitt _ 11,6 °C 11,6 °C 75 % 1023,6 hPa #0,0 mm 3,7 km/h (1 Bft) O-NO - #7:11 h #3,378 mm 3,2 UV-I 243 W/m² 6,9 °C 11,6 °C 6,2 km/h (2 Bft)